<?xml version='1.0' encoding='UTF-8'?><gpx version="1.1" creator="JPX - https://github.com/jenetics/jpx" xmlns="http://www.topografix.com/GPX/1/1"><trk><trkseg><trkpt lat="43.6661468" lon="11.3596122"><ele>309.0</ele><time>2026-04-12T09:06:47.6Z</time></trkpt><trkpt lat="43.6661711" lon="11.3594643"><ele>309.0</ele><time>2026-04-12T09:06:49.6Z</time></trkpt><trkpt lat="43.6662227" lon="11.3593202"><ele>309.0</ele><time>2026-04-12T09:06:51.599Z</time></trkpt><trkpt lat="43.6662561" lon="11.3591859"><ele>309.0</ele><time>2026-04-12T09:06:53.6Z</time></trkpt><trkpt lat="43.6662518" lon="11.3590422"><ele>309.0</ele><time>2026-04-12T09:06:55.599Z</time></trkpt><trkpt lat="43.6662086" lon="11.3589123"><ele>309.8</ele><time>2026-04-12T09:06:57.6Z</time></trkpt><trkpt lat="43.66613" lon="11.3587986"><ele>310.59999999999997</ele><time>2026-04-12T09:06:59.6Z</time></trkpt><trkpt lat="43.6660681" lon="11.3587684"><ele>311.4</ele><time>2026-04-12T09:07:00.6Z</time></trkpt><trkpt lat="43.665973" lon="11.3587102"><ele>312.2</ele><time>2026-04-12T09:07:02.599Z</time></trkpt><trkpt lat="43.6659091" lon="11.3586398"><ele>313.0</ele><time>2026-04-12T09:07:04.6Z</time></trkpt><trkpt lat="43.6659267" lon="11.3585085"><ele>313.0</ele><time>2026-04-12T09:07:07.599Z</time></trkpt><trkpt lat="43.6660173" lon="11.358509"><ele>313.0</ele><time>2026-04-12T09:07:10.6Z</time></trkpt><trkpt lat="43.6661171" lon="11.3585402"><ele>313.0</ele><time>2026-04-12T09:07:12.599Z</time></trkpt><trkpt lat="43.6661898" lon="11.3585384"><ele>313.0</ele><time>2026-04-12T09:07:13.599Z</time></trkpt><trkpt lat="43.6662541" lon="11.3585249"><ele>313.0</ele><time>2026-04-12T09:07:14.6Z</time></trkpt><trkpt lat="43.6663709" lon="11.3584179"><ele>313.0</ele><time>2026-04-12T09:07:16.6Z</time></trkpt><trkpt lat="43.6664228" lon="11.3583378"><ele>313.0</ele><time>2026-04-12T09:07:17.599Z</time></trkpt><trkpt lat="43.666461" lon="11.3582643"><ele>313.0</ele><time>2026-04-12T09:07:18.599Z</time></trkpt><trkpt lat="43.6665122" lon="11.3581875"><ele>313.0</ele><time>2026-04-12T09:07:19.599Z</time></trkpt><trkpt lat="43.6665863" lon="11.3580675"><ele>313.0</ele><time>2026-04-12T09:07:21.6Z</time></trkpt><trkpt lat="43.6666986" lon="11.3580139"><ele>311.3333333333333</ele><time>2026-04-12T09:07:23.599Z</time></trkpt><trkpt lat="43.6667738" lon="11.3579868"><ele>309.66666666666663</ele><time>2026-04-12T09:07:24.6Z</time></trkpt><trkpt lat="43.6668485" lon="11.3579614"><ele>308.0</ele><time>2026-04-12T09:07:25.6Z</time></trkpt><trkpt lat="43.6669173" lon="11.3579258"><ele>306.3333333333333</ele><time>2026-04-12T09:07:26.599Z</time></trkpt><trkpt lat="43.6669829" lon="11.3578809"><ele>304.6666666666667</ele><time>2026-04-12T09:07:27.599Z</time></trkpt><trkpt lat="43.6670347" lon="11.3578208"><ele>303.0</ele><time>2026-04-12T09:07:28.599Z</time></trkpt><trkpt lat="43.6670997" lon="11.3576834"><ele>303.0</ele><time>2026-04-12T09:07:30.599Z</time></trkpt><trkpt lat="43.6671884" lon="11.3575681"><ele>303.0</ele><time>2026-04-12T09:07:32.6Z</time></trkpt><trkpt lat="43.6672536" lon="11.3575337"><ele>303.0</ele><time>2026-04-12T09:07:33.599Z</time></trkpt><trkpt lat="43.6673209" lon="11.3574787"><ele>303.0</ele><time>2026-04-12T09:07:34.599Z</time></trkpt><trkpt lat="43.6673824" lon="11.3574164"><ele>303.0</ele><time>2026-04-12T09:07:35.6Z</time></trkpt><trkpt lat="43.6674501" lon="11.3573568"><ele>303.0</ele><time>2026-04-12T09:07:36.6Z</time></trkpt><trkpt lat="43.667524" lon="11.3573042"><ele>303.0</ele><time>2026-04-12T09:07:37.599Z</time></trkpt><trkpt lat="43.6675975" lon="11.357255"><ele>303.0</ele><time>2026-04-12T09:07:38.599Z</time></trkpt><trkpt lat="43.6676719" lon="11.3572161"><ele>303.0</ele><time>2026-04-12T09:07:39.599Z</time></trkpt><trkpt lat="43.6677419" lon="11.3571747"><ele>303.0</ele><time>2026-04-12T09:07:40.599Z</time></trkpt><trkpt lat="43.6678099" lon="11.3571366"><ele>303.0</ele><time>2026-04-12T09:07:41.599Z</time></trkpt><trkpt lat="43.6678694" lon="11.3571014"><ele>303.0</ele><time>2026-04-12T09:07:42.6Z</time></trkpt><trkpt lat="43.6679797" lon="11.3570242"><ele>299.6666666666667</ele><time>2026-04-12T09:07:44.6Z</time></trkpt><trkpt lat="43.6680321" lon="11.3569657"><ele>296.3333333333333</ele><time>2026-04-12T09:07:45.6Z</time></trkpt><trkpt lat="43.6680899" lon="11.3568932"><ele>293.0</ele><time>2026-04-12T09:07:46.6Z</time></trkpt><trkpt lat="43.6681287" lon="11.3568201"><ele>289.66666666666663</ele><time>2026-04-12T09:07:47.599Z</time></trkpt><trkpt lat="43.6681848" lon="11.3566937"><ele>286.3333333333333</ele><time>2026-04-12T09:07:49.599Z</time></trkpt><trkpt lat="43.668244" lon="11.3566016"><ele>283.0</ele><time>2026-04-12T09:07:51.6Z</time></trkpt><trkpt lat="43.6683312" lon="11.3565448"><ele>283.0</ele><time>2026-04-12T09:07:53.599Z</time></trkpt><trkpt lat="43.668444" lon="11.3565093"><ele>283.0</ele><time>2026-04-12T09:07:55.599Z</time></trkpt><trkpt lat="43.668541" lon="11.3565166"><ele>283.0</ele><time>2026-04-12T09:07:57.6Z</time></trkpt><trkpt lat="43.6686089" lon="11.3565394"><ele>283.0</ele><time>2026-04-12T09:07:59.599Z</time></trkpt><trkpt lat="43.6686722" lon="11.3565789"><ele>283.0</ele><time>2026-04-12T09:08:01.6Z</time></trkpt><trkpt lat="43.6687275" lon="11.3566265"><ele>283.0</ele><time>2026-04-12T09:08:03.6Z</time></trkpt><trkpt lat="43.6688301" lon="11.356619"><ele>278.2</ele><time>2026-04-12T09:08:06.6Z</time></trkpt><trkpt lat="43.6689144" lon="11.3566182"><ele>273.4</ele><time>2026-04-12T09:08:08.599Z</time></trkpt><trkpt lat="43.6690081" lon="11.3566118"><ele>268.59999999999997</ele><time>2026-04-12T09:08:10.599Z</time></trkpt><trkpt lat="43.6691102" lon="11.3565734"><ele>263.8</ele><time>2026-04-12T09:08:12.599Z</time></trkpt><trkpt lat="43.6691801" lon="11.3565414"><ele>259.0</ele><time>2026-04-12T09:08:13.599Z</time></trkpt><trkpt lat="43.6692815" lon="11.3564805"><ele>259.0</ele><time>2026-04-12T09:08:15.6Z</time></trkpt><trkpt lat="43.6693429" lon="11.3564367"><ele>259.0</ele><time>2026-04-12T09:08:17.599Z</time></trkpt><trkpt lat="43.6694224" lon="11.3563918"><ele>259.0</ele><time>2026-04-12T09:08:19.599Z</time></trkpt><trkpt lat="43.6695236" lon="11.3564078"><ele>259.0</ele><time>2026-04-12T09:08:21.6Z</time></trkpt><trkpt lat="43.6695842" lon="11.3564564"><ele>259.0</ele><time>2026-04-12T09:08:22.599Z</time></trkpt><trkpt lat="43.6696326" lon="11.3565139"><ele>259.0</ele><time>2026-04-12T09:08:23.6Z</time></trkpt><trkpt lat="43.6696656" lon="11.3566109"><ele>255.0</ele><time>2026-04-12T09:08:25.6Z</time></trkpt><trkpt lat="43.6696326" lon="11.3567374"><ele>250.99999999999997</ele><time>2026-04-12T09:08:28.599Z</time></trkpt><trkpt lat="43.6697197" lon="11.3568222"><ele>246.99999999999997</ele><time>2026-04-12T09:08:31.6Z</time></trkpt><trkpt lat="43.6698355" lon="11.3568517"><ele>243.0</ele><time>2026-04-12T09:08:33.6Z</time></trkpt><trkpt lat="43.6699594" lon="11.3568921"><ele>239.0</ele><time>2026-04-12T09:08:35.599Z</time></trkpt><trkpt lat="43.6700334" lon="11.3569251"><ele>239.00000000000003</ele><time>2026-04-12T09:08:36.6Z</time></trkpt><trkpt lat="43.6701121" lon="11.3569502"><ele>239.0</ele><time>2026-04-12T09:08:37.599Z</time></trkpt><trkpt lat="43.6701895" lon="11.3569669"><ele>239.0</ele><time>2026-04-12T09:08:38.6Z</time></trkpt><trkpt lat="43.6702693" lon="11.3569739"><ele>239.0</ele><time>2026-04-12T09:08:39.6Z</time></trkpt><trkpt lat="43.6703522" lon="11.3569833"><ele>239.00000000000003</ele><time>2026-04-12T09:08:40.599Z</time></trkpt><trkpt lat="43.670431" lon="11.3569772"><ele>239.0</ele><time>2026-04-12T09:08:41.599Z</time></trkpt><trkpt lat="43.6705079" lon="11.3569697"><ele>237.33333333333334</ele><time>2026-04-12T09:08:42.599Z</time></trkpt><trkpt lat="43.6705798" lon="11.356954"><ele>235.66666666666669</ele><time>2026-04-12T09:08:43.599Z</time></trkpt><trkpt lat="43.6706548" lon="11.3569289"><ele>234.0</ele><time>2026-04-12T09:08:44.6Z</time></trkpt><trkpt lat="43.6707266" lon="11.3568968"><ele>232.33333333333331</ele><time>2026-04-12T09:08:45.6Z</time></trkpt><trkpt lat="43.6707937" lon="11.3568574"><ele>230.66666666666666</ele><time>2026-04-12T09:08:46.6Z</time></trkpt><trkpt lat="43.6708524" lon="11.3567954"><ele>229.0</ele><time>2026-04-12T09:08:47.6Z</time></trkpt><trkpt lat="43.6709357" lon="11.3566789"><ele>229.0</ele><time>2026-04-12T09:08:49.599Z</time></trkpt><trkpt lat="43.6710133" lon="11.3565723"><ele>228.99999999999997</ele><time>2026-04-12T09:08:51.6Z</time></trkpt><trkpt lat="43.6711214" lon="11.3564803"><ele>228.99999999999997</ele><time>2026-04-12T09:08:53.599Z</time></trkpt><trkpt lat="43.6711936" lon="11.3564511"><ele>229.0</ele><time>2026-04-12T09:08:54.599Z</time></trkpt><trkpt lat="43.6712593" lon="11.3564377"><ele>229.0</ele><time>2026-04-12T09:08:55.599Z</time></trkpt><trkpt lat="43.671376" lon="11.3564208"><ele>229.16666666666666</ele><time>2026-04-12T09:08:57.599Z</time></trkpt><trkpt lat="43.6714448" lon="11.3563939"><ele>229.33333333333331</ele><time>2026-04-12T09:08:59.599Z</time></trkpt><trkpt lat="43.6714618" lon="11.3562555"><ele>229.5</ele><time>2026-04-12T09:09:05.599Z</time></trkpt><trkpt lat="43.6714605" lon="11.356161"><ele>229.66666666666669</ele><time>2026-04-12T09:09:06.599Z</time></trkpt><trkpt lat="43.6714521" lon="11.3560576"><ele>229.83333333333334</ele><time>2026-04-12T09:09:07.6Z</time></trkpt><trkpt lat="43.6714495" lon="11.3559366"><ele>230.0</ele><time>2026-04-12T09:09:08.6Z</time></trkpt><trkpt lat="43.6714565" lon="11.3557995"><ele>230.0</ele><time>2026-04-12T09:09:09.599Z</time></trkpt><trkpt lat="43.6714878" lon="11.3556627"><ele>230.0</ele><time>2026-04-12T09:09:10.599Z</time></trkpt><trkpt lat="43.6715115" lon="11.3555229"><ele>230.0</ele><time>2026-04-12T09:09:11.6Z</time></trkpt><trkpt lat="43.6715419" lon="11.3553763"><ele>230.0</ele><time>2026-04-12T09:09:12.599Z</time></trkpt><trkpt lat="43.6715637" lon="11.3552456"><ele>230.0</ele><time>2026-04-12T09:09:13.599Z</time></trkpt><trkpt lat="43.6715836" lon="11.3551345"><ele>230.0</ele><time>2026-04-12T09:09:14.599Z</time></trkpt><trkpt lat="43.6716006" lon="11.355046"><ele>230.0</ele><time>2026-04-12T09:09:15.6Z</time></trkpt><trkpt lat="43.671628" lon="11.3549041"><ele>230.0</ele><time>2026-04-12T09:09:17.6Z</time></trkpt><trkpt lat="43.6715682" lon="11.3547772"><ele>230.0</ele><time>2026-04-12T09:09:19.6Z</time></trkpt><trkpt lat="43.6714902" lon="11.3547001"><ele>230.0</ele><time>2026-04-12T09:09:20.6Z</time></trkpt><trkpt lat="43.6714069" lon="11.3546047"><ele>230.0</ele><time>2026-04-12T09:09:21.6Z</time></trkpt><trkpt lat="43.6713186" lon="11.3545087"><ele>230.0</ele><time>2026-04-12T09:09:22.599Z</time></trkpt><trkpt lat="43.6712327" lon="11.3544057"><ele>230.0</ele><time>2026-04-12T09:09:23.599Z</time></trkpt><trkpt lat="43.671143" lon="11.3542951"><ele>230.0</ele><time>2026-04-12T09:09:24.599Z</time></trkpt><trkpt lat="43.6710491" lon="11.3541863"><ele>229.5</ele><time>2026-04-12T09:09:25.599Z</time></trkpt><trkpt lat="43.6709462" lon="11.3540622"><ele>229.0</ele><time>2026-04-12T09:09:26.6Z</time></trkpt><trkpt lat="43.6708405" lon="11.353923"><ele>228.5</ele><time>2026-04-12T09:09:27.599Z</time></trkpt><trkpt lat="43.6707384" lon="11.3537975"><ele>228.0</ele><time>2026-04-12T09:09:28.599Z</time></trkpt><trkpt lat="43.670641" lon="11.3536665"><ele>229.25</ele><time>2026-04-12T09:09:29.6Z</time></trkpt><trkpt lat="43.6705413" lon="11.3535378"><ele>230.5</ele><time>2026-04-12T09:09:30.599Z</time></trkpt><trkpt lat="43.6704403" lon="11.3534147"><ele>231.75</ele><time>2026-04-12T09:09:31.6Z</time></trkpt><trkpt lat="43.6703424" lon="11.3532952"><ele>233.0</ele><time>2026-04-12T09:09:32.6Z</time></trkpt><trkpt lat="43.6702417" lon="11.3531813"><ele>233.0</ele><time>2026-04-12T09:09:33.6Z</time></trkpt><trkpt lat="43.6701414" lon="11.3530692"><ele>233.0</ele><time>2026-04-12T09:09:34.599Z</time></trkpt><trkpt lat="43.6700454" lon="11.3529692"><ele>233.0</ele><time>2026-04-12T09:09:35.599Z</time></trkpt><trkpt lat="43.6699534" lon="11.3528822"><ele>233.0</ele><time>2026-04-12T09:09:36.6Z</time></trkpt><trkpt lat="43.6698555" lon="11.3528254"><ele>237.0</ele><time>2026-04-12T09:09:37.6Z</time></trkpt><trkpt lat="43.6697365" lon="11.3528084"><ele>241.0</ele><time>2026-04-12T09:09:38.6Z</time></trkpt><trkpt lat="43.6696085" lon="11.3528275"><ele>245.0</ele><time>2026-04-12T09:09:39.599Z</time></trkpt><trkpt lat="43.6694724" lon="11.3528801"><ele>249.0</ele><time>2026-04-12T09:09:40.6Z</time></trkpt><trkpt lat="43.6693386" lon="11.3529433"><ele>249.75</ele><time>2026-04-12T09:09:41.599Z</time></trkpt><trkpt lat="43.6692104" lon="11.3530076"><ele>250.5</ele><time>2026-04-12T09:09:42.6Z</time></trkpt><trkpt lat="43.6690808" lon="11.3530758"><ele>251.25</ele><time>2026-04-12T09:09:43.599Z</time></trkpt><trkpt lat="43.6689639" lon="11.3531492"><ele>252.0</ele><time>2026-04-12T09:09:44.599Z</time></trkpt><trkpt lat="43.6688482" lon="11.3532156"><ele>248.25</ele><time>2026-04-12T09:09:45.6Z</time></trkpt><trkpt lat="43.668734" lon="11.3532827"><ele>244.5</ele><time>2026-04-12T09:09:46.6Z</time></trkpt><trkpt lat="43.668624" lon="11.3533444"><ele>240.75</ele><time>2026-04-12T09:09:47.6Z</time></trkpt><trkpt lat="43.6685167" lon="11.3533948"><ele>237.0</ele><time>2026-04-12T09:09:48.599Z</time></trkpt><trkpt lat="43.6684063" lon="11.353426"><ele>237.0</ele><time>2026-04-12T09:09:49.6Z</time></trkpt><trkpt lat="43.6683007" lon="11.3534169"><ele>237.0</ele><time>2026-04-12T09:09:50.6Z</time></trkpt><trkpt lat="43.6681996" lon="11.3533733"><ele>237.0</ele><time>2026-04-12T09:09:51.599Z</time></trkpt><trkpt lat="43.6681124" lon="11.3532964"><ele>237.0</ele><time>2026-04-12T09:09:52.599Z</time></trkpt><trkpt lat="43.6680263" lon="11.353179"><ele>237.0</ele><time>2026-04-12T09:09:53.599Z</time></trkpt><trkpt lat="43.6679605" lon="11.3530231"><ele>237.75</ele><time>2026-04-12T09:09:54.599Z</time></trkpt><trkpt lat="43.6679085" lon="11.3528598"><ele>238.5</ele><time>2026-04-12T09:09:55.6Z</time></trkpt><trkpt lat="43.6678545" lon="11.3527065"><ele>239.25</ele><time>2026-04-12T09:09:56.599Z</time></trkpt><trkpt lat="43.6678029" lon="11.3525712"><ele>240.0</ele><time>2026-04-12T09:09:57.6Z</time></trkpt><trkpt lat="43.6677619" lon="11.352443"><ele>238.4</ele><time>2026-04-12T09:09:58.599Z</time></trkpt><trkpt lat="43.6677431" lon="11.3523115"><ele>236.8</ele><time>2026-04-12T09:09:59.599Z</time></trkpt><trkpt lat="43.6677392" lon="11.3521771"><ele>235.2</ele><time>2026-04-12T09:10:00.599Z</time></trkpt><trkpt lat="43.6677827" lon="11.3520577"><ele>233.6</ele><time>2026-04-12T09:10:01.599Z</time></trkpt><trkpt lat="43.6678827" lon="11.3519799"><ele>232.0</ele><time>2026-04-12T09:10:02.599Z</time></trkpt><trkpt lat="43.6680075" lon="11.3519355"><ele>231.25</ele><time>2026-04-12T09:10:03.6Z</time></trkpt><trkpt lat="43.6681247" lon="11.3518944"><ele>230.5</ele><time>2026-04-12T09:10:04.6Z</time></trkpt><trkpt lat="43.6682413" lon="11.3518268"><ele>229.75</ele><time>2026-04-12T09:10:05.6Z</time></trkpt><trkpt lat="43.6683338" lon="11.351714"><ele>229.0</ele><time>2026-04-12T09:10:06.599Z</time></trkpt><trkpt lat="43.668398" lon="11.3515592"><ele>227.25</ele><time>2026-04-12T09:10:07.599Z</time></trkpt><trkpt lat="43.6684404" lon="11.351372"><ele>225.5</ele><time>2026-04-12T09:10:08.599Z</time></trkpt><trkpt lat="43.6684757" lon="11.3511756"><ele>223.75</ele><time>2026-04-12T09:10:09.599Z</time></trkpt><trkpt lat="43.6685143" lon="11.3509793"><ele>222.0</ele><time>2026-04-12T09:10:10.599Z</time></trkpt><trkpt lat="43.6685713" lon="11.3507915"><ele>225.0</ele><time>2026-04-12T09:10:11.599Z</time></trkpt><trkpt lat="43.6686623" lon="11.3506211"><ele>228.0</ele><time>2026-04-12T09:10:12.599Z</time></trkpt><trkpt lat="43.668765" lon="11.350457"><ele>231.0</ele><time>2026-04-12T09:10:13.6Z</time></trkpt><trkpt lat="43.6688665" lon="11.3503019"><ele>231.0</ele><time>2026-04-12T09:10:14.6Z</time></trkpt><trkpt lat="43.6689837" lon="11.350152"><ele>231.0</ele><time>2026-04-12T09:10:15.599Z</time></trkpt><trkpt lat="43.6691054" lon="11.3500088"><ele>231.0</ele><time>2026-04-12T09:10:16.6Z</time></trkpt><trkpt lat="43.6692323" lon="11.3498667"><ele>231.0</ele><time>2026-04-12T09:10:17.599Z</time></trkpt><trkpt lat="43.6693542" lon="11.3497265"><ele>231.0</ele><time>2026-04-12T09:10:18.6Z</time></trkpt><trkpt lat="43.6694786" lon="11.3495887"><ele>231.0</ele><time>2026-04-12T09:10:19.6Z</time></trkpt><trkpt lat="43.6695763" lon="11.3494585"><ele>235.25</ele><time>2026-04-12T09:10:20.6Z</time></trkpt><trkpt lat="43.6696625" lon="11.3493193"><ele>239.5</ele><time>2026-04-12T09:10:21.599Z</time></trkpt><trkpt lat="43.6697431" lon="11.349191"><ele>243.75</ele><time>2026-04-12T09:10:22.6Z</time></trkpt><trkpt lat="43.6698058" lon="11.3490528"><ele>248.0</ele><time>2026-04-12T09:10:23.6Z</time></trkpt><trkpt lat="43.6698423" lon="11.3489026"><ele>247.25</ele><time>2026-04-12T09:10:24.6Z</time></trkpt><trkpt lat="43.669879" lon="11.3487448"><ele>246.5</ele><time>2026-04-12T09:10:25.6Z</time></trkpt><trkpt lat="43.669898" lon="11.3485765"><ele>245.75</ele><time>2026-04-12T09:10:26.6Z</time></trkpt><trkpt lat="43.6698477" lon="11.3484127"><ele>245.0</ele><time>2026-04-12T09:10:27.599Z</time></trkpt><trkpt lat="43.6697712" lon="11.3482822"><ele>245.0</ele><time>2026-04-12T09:10:28.599Z</time></trkpt><trkpt lat="43.6696768" lon="11.3481834"><ele>245.0</ele><time>2026-04-12T09:10:29.599Z</time></trkpt><trkpt lat="43.6695627" lon="11.3480845"><ele>245.0</ele><time>2026-04-12T09:10:30.599Z</time></trkpt><trkpt lat="43.6694537" lon="11.3479848"><ele>245.0</ele><time>2026-04-12T09:10:31.6Z</time></trkpt><trkpt lat="43.6693398" lon="11.3479161"><ele>242.6</ele><time>2026-04-12T09:10:32.6Z</time></trkpt><trkpt lat="43.6692408" lon="11.3478504"><ele>240.2</ele><time>2026-04-12T09:10:33.6Z</time></trkpt><trkpt lat="43.6691418" lon="11.3477912"><ele>237.8</ele><time>2026-04-12T09:10:34.599Z</time></trkpt><trkpt lat="43.669039" lon="11.3477549"><ele>235.4</ele><time>2026-04-12T09:10:35.599Z</time></trkpt><trkpt lat="43.668943" lon="11.3477177"><ele>233.0</ele><time>2026-04-12T09:10:36.6Z</time></trkpt><trkpt lat="43.668861" lon="11.3476535"><ele>233.0</ele><time>2026-04-12T09:10:37.599Z</time></trkpt><trkpt lat="43.6687995" lon="11.3475442"><ele>233.0</ele><time>2026-04-12T09:10:38.6Z</time></trkpt><trkpt lat="43.6687742" lon="11.347389"><ele>233.0</ele><time>2026-04-12T09:10:39.599Z</time></trkpt><trkpt lat="43.6687707" lon="11.3472173"><ele>233.0</ele><time>2026-04-12T09:10:40.6Z</time></trkpt><trkpt lat="43.6687588" lon="11.3470492"><ele>236.5</ele><time>2026-04-12T09:10:41.599Z</time></trkpt><trkpt lat="43.6687483" lon="11.3468776"><ele>240.0</ele><time>2026-04-12T09:10:42.6Z</time></trkpt><trkpt lat="43.6687328" lon="11.346691"><ele>243.5</ele><time>2026-04-12T09:10:43.6Z</time></trkpt><trkpt lat="43.6687128" lon="11.3464941"><ele>247.0</ele><time>2026-04-12T09:10:44.6Z</time></trkpt><trkpt lat="43.6686825" lon="11.346296"><ele>248.0</ele><time>2026-04-12T09:10:45.599Z</time></trkpt><trkpt lat="43.6686567" lon="11.3460908"><ele>249.0</ele><time>2026-04-12T09:10:46.599Z</time></trkpt><trkpt lat="43.6686319" lon="11.3458946"><ele>250.0</ele><time>2026-04-12T09:10:47.6Z</time></trkpt><trkpt lat="43.6686025" lon="11.3457045"><ele>251.0</ele><time>2026-04-12T09:10:48.599Z</time></trkpt><trkpt lat="43.6685742" lon="11.3455208"><ele>241.75</ele><time>2026-04-12T09:10:49.599Z</time></trkpt><trkpt lat="43.6685546" lon="11.3453504"><ele>232.5</ele><time>2026-04-12T09:10:50.599Z</time></trkpt><trkpt lat="43.6685504" lon="11.3451797"><ele>223.25</ele><time>2026-04-12T09:10:51.6Z</time></trkpt><trkpt lat="43.6685524" lon="11.3450111"><ele>214.0</ele><time>2026-04-12T09:10:52.6Z</time></trkpt><trkpt lat="43.6685642" lon="11.3448379"><ele>212.75</ele><time>2026-04-12T09:10:53.599Z</time></trkpt><trkpt lat="43.6685746" lon="11.3446643"><ele>211.5</ele><time>2026-04-12T09:10:54.599Z</time></trkpt><trkpt lat="43.6685815" lon="11.3444781"><ele>210.25</ele><time>2026-04-12T09:10:55.6Z</time></trkpt><trkpt lat="43.6685745" lon="11.3442878"><ele>209.0</ele><time>2026-04-12T09:10:56.6Z</time></trkpt><trkpt lat="43.668568" lon="11.3441092"><ele>209.0</ele><time>2026-04-12T09:10:57.599Z</time></trkpt><trkpt lat="43.6685482" lon="11.3439342"><ele>209.0</ele><time>2026-04-12T09:10:58.599Z</time></trkpt><trkpt lat="43.6685356" lon="11.3437635"><ele>209.0</ele><time>2026-04-12T09:10:59.6Z</time></trkpt><trkpt lat="43.6685298" lon="11.3436059"><ele>209.0</ele><time>2026-04-12T09:11:00.599Z</time></trkpt><trkpt lat="43.6685629" lon="11.3434509"><ele>214.0</ele><time>2026-04-12T09:11:01.599Z</time></trkpt><trkpt lat="43.6686221" lon="11.3432896"><ele>219.0</ele><time>2026-04-12T09:11:02.6Z</time></trkpt><trkpt lat="43.6686877" lon="11.343129"><ele>224.0</ele><time>2026-04-12T09:11:03.6Z</time></trkpt><trkpt lat="43.6687444" lon="11.3429577"><ele>229.0</ele><time>2026-04-12T09:11:04.6Z</time></trkpt><trkpt lat="43.6687757" lon="11.3427702"><ele>229.0</ele><time>2026-04-12T09:11:05.6Z</time></trkpt><trkpt lat="43.668794" lon="11.3425762"><ele>229.0</ele><time>2026-04-12T09:11:06.599Z</time></trkpt><trkpt lat="43.6687968" lon="11.3423767"><ele>229.0</ele><time>2026-04-12T09:11:07.599Z</time></trkpt><trkpt lat="43.6687863" lon="11.3421746"><ele>229.0</ele><time>2026-04-12T09:11:08.6Z</time></trkpt><trkpt lat="43.6687667" lon="11.3419718"><ele>228.5</ele><time>2026-04-12T09:11:09.599Z</time></trkpt><trkpt lat="43.6687406" lon="11.3417687"><ele>228.0</ele><time>2026-04-12T09:11:10.6Z</time></trkpt><trkpt lat="43.6687069" lon="11.3415645"><ele>227.5</ele><time>2026-04-12T09:11:11.599Z</time></trkpt><trkpt lat="43.6686695" lon="11.3413655"><ele>227.0</ele><time>2026-04-12T09:11:12.599Z</time></trkpt><trkpt lat="43.6686365" lon="11.3411726"><ele>225.5</ele><time>2026-04-12T09:11:13.599Z</time></trkpt><trkpt lat="43.6685953" lon="11.340978"><ele>224.0</ele><time>2026-04-12T09:11:14.6Z</time></trkpt><trkpt lat="43.6685549" lon="11.3407677"><ele>222.5</ele><time>2026-04-12T09:11:15.6Z</time></trkpt><trkpt lat="43.6684942" lon="11.3405861"><ele>221.0</ele><time>2026-04-12T09:11:16.6Z</time></trkpt><trkpt lat="43.6684053" lon="11.3404317"><ele>221.0</ele><time>2026-04-12T09:11:17.599Z</time></trkpt><trkpt lat="43.6683087" lon="11.3402925"><ele>221.0</ele><time>2026-04-12T09:11:18.599Z</time></trkpt><trkpt lat="43.6682089" lon="11.3401538"><ele>221.0</ele><time>2026-04-12T09:11:19.6Z</time></trkpt><trkpt lat="43.6681083" lon="11.3400265"><ele>221.0</ele><time>2026-04-12T09:11:20.6Z</time></trkpt><trkpt lat="43.6680101" lon="11.3399092"><ele>221.0</ele><time>2026-04-12T09:11:21.599Z</time></trkpt><trkpt lat="43.6679072" lon="11.3397875"><ele>221.0</ele><time>2026-04-12T09:11:22.599Z</time></trkpt><trkpt lat="43.6678224" lon="11.3396443"><ele>221.0</ele><time>2026-04-12T09:11:23.599Z</time></trkpt><trkpt lat="43.6677383" lon="11.3394996"><ele>221.0</ele><time>2026-04-12T09:11:24.6Z</time></trkpt><trkpt lat="43.6676667" lon="11.3393528"><ele>215.25</ele><time>2026-04-12T09:11:25.599Z</time></trkpt><trkpt lat="43.6676143" lon="11.3392082"><ele>209.5</ele><time>2026-04-12T09:11:26.599Z</time></trkpt><trkpt lat="43.6675682" lon="11.339065"><ele>203.75</ele><time>2026-04-12T09:11:27.6Z</time></trkpt><trkpt lat="43.6675463" lon="11.3389193"><ele>198.0</ele><time>2026-04-12T09:11:28.6Z</time></trkpt><trkpt lat="43.6675638" lon="11.3387063"><ele>197.75</ele><time>2026-04-12T09:11:29.6Z</time></trkpt><trkpt lat="43.6675962" lon="11.3384794"><ele>197.5</ele><time>2026-04-12T09:11:30.599Z</time></trkpt><trkpt lat="43.6676239" lon="11.3382854"><ele>197.25</ele><time>2026-04-12T09:11:31.6Z</time></trkpt><trkpt lat="43.6676453" lon="11.3381044"><ele>197.0</ele><time>2026-04-12T09:11:32.6Z</time></trkpt><trkpt lat="43.6676968" lon="11.3379246"><ele>194.33333333333334</ele><time>2026-04-12T09:11:33.6Z</time></trkpt><trkpt lat="43.667771" lon="11.3377409"><ele>191.66666666666669</ele><time>2026-04-12T09:11:34.6Z</time></trkpt><trkpt lat="43.6678702" lon="11.3375473"><ele>189.0</ele><time>2026-04-12T09:11:35.599Z</time></trkpt><trkpt lat="43.6679499" lon="11.3373695"><ele>195.75</ele><time>2026-04-12T09:11:36.6Z</time></trkpt><trkpt lat="43.668014" lon="11.3372029"><ele>202.5</ele><time>2026-04-12T09:11:37.599Z</time></trkpt><trkpt lat="43.6680559" lon="11.3370166"><ele>209.25</ele><time>2026-04-12T09:11:38.599Z</time></trkpt><trkpt lat="43.6680697" lon="11.3368285"><ele>216.0</ele><time>2026-04-12T09:11:39.6Z</time></trkpt><trkpt lat="43.6680754" lon="11.3366084"><ele>217.33333333333331</ele><time>2026-04-12T09:11:40.599Z</time></trkpt><trkpt lat="43.6680538" lon="11.3363787"><ele>218.66666666666666</ele><time>2026-04-12T09:11:41.599Z</time></trkpt><trkpt lat="43.6680177" lon="11.3361686"><ele>220.0</ele><time>2026-04-12T09:11:42.599Z</time></trkpt><trkpt lat="43.6679806" lon="11.33595"><ele>220.0</ele><time>2026-04-12T09:11:43.599Z</time></trkpt><trkpt lat="43.6679208" lon="11.3357227"><ele>220.0</ele><time>2026-04-12T09:11:44.599Z</time></trkpt><trkpt lat="43.6678631" lon="11.3355242"><ele>220.0</ele><time>2026-04-12T09:11:45.6Z</time></trkpt><trkpt lat="43.6677993" lon="11.3353429"><ele>212.6</ele><time>2026-04-12T09:11:46.6Z</time></trkpt><trkpt lat="43.6677366" lon="11.3351839"><ele>205.2</ele><time>2026-04-12T09:11:47.599Z</time></trkpt><trkpt lat="43.6676915" lon="11.3350643"><ele>197.8</ele><time>2026-04-12T09:11:48.6Z</time></trkpt><trkpt lat="43.6676444" lon="11.334936"><ele>190.4</ele><time>2026-04-12T09:11:49.6Z</time></trkpt><trkpt lat="43.6675991" lon="11.3348022"><ele>183.0</ele><time>2026-04-12T09:11:50.6Z</time></trkpt><trkpt lat="43.667569" lon="11.3346712"><ele>182.0</ele><time>2026-04-12T09:11:51.6Z</time></trkpt><trkpt lat="43.6676111" lon="11.3345247"><ele>181.0</ele><time>2026-04-12T09:11:52.599Z</time></trkpt><trkpt lat="43.667681" lon="11.334402"><ele>180.0</ele><time>2026-04-12T09:11:53.599Z</time></trkpt><trkpt lat="43.6677485" lon="11.3342531"><ele>179.0</ele><time>2026-04-12T09:11:54.6Z</time></trkpt><trkpt lat="43.6677701" lon="11.3340811"><ele>179.0</ele><time>2026-04-12T09:11:55.599Z</time></trkpt><trkpt lat="43.6677654" lon="11.3339158"><ele>179.0</ele><time>2026-04-12T09:11:56.599Z</time></trkpt><trkpt lat="43.6677582" lon="11.3337534"><ele>179.0</ele><time>2026-04-12T09:11:57.6Z</time></trkpt><trkpt lat="43.6677566" lon="11.3335865"><ele>179.0</ele><time>2026-04-12T09:11:58.599Z</time></trkpt><trkpt lat="43.6677887" lon="11.33343"><ele>177.5</ele><time>2026-04-12T09:11:59.599Z</time></trkpt><trkpt lat="43.6678447" lon="11.3332741"><ele>176.0</ele><time>2026-04-12T09:12:00.599Z</time></trkpt><trkpt lat="43.6679337" lon="11.3331366"><ele>174.5</ele><time>2026-04-12T09:12:01.599Z</time></trkpt><trkpt lat="43.6680467" lon="11.3330176"><ele>173.0</ele><time>2026-04-12T09:12:02.599Z</time></trkpt><trkpt lat="43.6681774" lon="11.3329231"><ele>173.0</ele><time>2026-04-12T09:12:03.599Z</time></trkpt><trkpt lat="43.6683079" lon="11.3328585"><ele>173.0</ele><time>2026-04-12T09:12:04.6Z</time></trkpt><trkpt lat="43.6684478" lon="11.3328187"><ele>173.0</ele><time>2026-04-12T09:12:05.6Z</time></trkpt><trkpt lat="43.6685768" lon="11.3327732"><ele>173.0</ele><time>2026-04-12T09:12:06.6Z</time></trkpt><trkpt lat="43.6687078" lon="11.3327373"><ele>175.5</ele><time>2026-04-12T09:12:07.599Z</time></trkpt><trkpt lat="43.6688252" lon="11.3326995"><ele>178.0</ele><time>2026-04-12T09:12:08.599Z</time></trkpt><trkpt lat="43.6689435" lon="11.3326622"><ele>180.5</ele><time>2026-04-12T09:12:09.6Z</time></trkpt><trkpt lat="43.6690542" lon="11.3326047"><ele>183.0</ele><time>2026-04-12T09:12:10.6Z</time></trkpt><trkpt lat="43.6691589" lon="11.3325262"><ele>183.0</ele><time>2026-04-12T09:12:11.599Z</time></trkpt><trkpt lat="43.6692487" lon="11.3324242"><ele>183.0</ele><time>2026-04-12T09:12:12.599Z</time></trkpt><trkpt lat="43.6693141" lon="11.3322875"><ele>183.0</ele><time>2026-04-12T09:12:13.6Z</time></trkpt><trkpt lat="43.6693694" lon="11.3321363"><ele>183.0</ele><time>2026-04-12T09:12:14.6Z</time></trkpt><trkpt lat="43.6694071" lon="11.3319722"><ele>180.75</ele><time>2026-04-12T09:12:15.599Z</time></trkpt><trkpt lat="43.6693981" lon="11.3318135"><ele>178.5</ele><time>2026-04-12T09:12:16.599Z</time></trkpt><trkpt lat="43.6693256" lon="11.3316636"><ele>176.25</ele><time>2026-04-12T09:12:17.6Z</time></trkpt><trkpt lat="43.6692171" lon="11.3315327"><ele>174.0</ele><time>2026-04-12T09:12:18.599Z</time></trkpt><trkpt lat="43.6690749" lon="11.3314678"><ele>174.0</ele><time>2026-04-12T09:12:19.6Z</time></trkpt><trkpt lat="43.668927" lon="11.3314413"><ele>174.0</ele><time>2026-04-12T09:12:20.599Z</time></trkpt><trkpt lat="43.6687851" lon="11.3314353"><ele>174.0</ele><time>2026-04-12T09:12:21.599Z</time></trkpt><trkpt lat="43.6686457" lon="11.3314224"><ele>174.0</ele><time>2026-04-12T09:12:22.599Z</time></trkpt><trkpt lat="43.6685071" lon="11.3314028"><ele>174.5</ele><time>2026-04-12T09:12:23.599Z</time></trkpt><trkpt lat="43.6683771" lon="11.3313661"><ele>175.0</ele><time>2026-04-12T09:12:24.6Z</time></trkpt><trkpt lat="43.668253" lon="11.3313045"><ele>175.5</ele><time>2026-04-12T09:12:25.599Z</time></trkpt><trkpt lat="43.6681332" lon="11.3312317"><ele>176.0</ele><time>2026-04-12T09:12:26.6Z</time></trkpt><trkpt lat="43.6680292" lon="11.331145"><ele>176.0</ele><time>2026-04-12T09:12:27.6Z</time></trkpt><trkpt lat="43.6679274" lon="11.3310388"><ele>176.0</ele><time>2026-04-12T09:12:28.599Z</time></trkpt><trkpt lat="43.6678222" lon="11.3309328"><ele>176.0</ele><time>2026-04-12T09:12:29.6Z</time></trkpt><trkpt lat="43.6677204" lon="11.3308115"><ele>176.0</ele><time>2026-04-12T09:12:30.599Z</time></trkpt><trkpt lat="43.6676148" lon="11.3306918"><ele>175.25</ele><time>2026-04-12T09:12:31.599Z</time></trkpt><trkpt lat="43.6675075" lon="11.3305804"><ele>174.5</ele><time>2026-04-12T09:12:32.599Z</time></trkpt><trkpt lat="43.6674076" lon="11.3304775"><ele>173.75</ele><time>2026-04-12T09:12:33.599Z</time></trkpt><trkpt lat="43.667318" lon="11.3303789"><ele>173.0</ele><time>2026-04-12T09:12:34.6Z</time></trkpt><trkpt lat="43.6672425" lon="11.3302955"><ele>173.0</ele><time>2026-04-12T09:12:35.6Z</time></trkpt><trkpt lat="43.6671795" lon="11.3302139"><ele>173.0</ele><time>2026-04-12T09:12:36.6Z</time></trkpt><trkpt lat="43.6671243" lon="11.3301361"><ele>173.0</ele><time>2026-04-12T09:12:37.599Z</time></trkpt><trkpt lat="43.6670746" lon="11.3300707"><ele>173.0</ele><time>2026-04-12T09:12:38.599Z</time></trkpt><trkpt lat="43.6670096" lon="11.3299664"><ele>173.0</ele><time>2026-04-12T09:12:40.6Z</time></trkpt><trkpt lat="43.6669894" lon="11.3298512"><ele>173.0</ele><time>2026-04-12T09:12:42.6Z</time></trkpt><trkpt lat="43.6669807" lon="11.3297243"><ele>171.60000000000002</ele><time>2026-04-12T09:12:44.6Z</time></trkpt><trkpt lat="43.6669487" lon="11.3296015"><ele>170.20000000000002</ele><time>2026-04-12T09:12:46.599Z</time></trkpt><trkpt lat="43.6669039" lon="11.3294962"><ele>168.8</ele><time>2026-04-12T09:12:48.599Z</time></trkpt><trkpt lat="43.6668473" lon="11.3293935"><ele>167.4</ele><time>2026-04-12T09:12:50.599Z</time></trkpt><trkpt lat="43.6667957" lon="11.3293029"><ele>166.0</ele><time>2026-04-12T09:12:52.6Z</time></trkpt><trkpt lat="43.6667583" lon="11.3291842"><ele>166.0</ele><time>2026-04-12T09:12:54.6Z</time></trkpt><trkpt lat="43.6667259" lon="11.3290496"><ele>166.0</ele><time>2026-04-12T09:12:56.6Z</time></trkpt><trkpt lat="43.6666643" lon="11.3289321"><ele>166.0</ele><time>2026-04-12T09:12:58.599Z</time></trkpt><trkpt lat="43.6666237" lon="11.3288461"><ele>166.0</ele><time>2026-04-12T09:13:00.6Z</time></trkpt><trkpt lat="43.6666422" lon="11.3287514"><ele>166.0</ele><time>2026-04-12T09:13:03.599Z</time></trkpt><trkpt lat="43.6666295" lon="11.3286347"><ele>166.0</ele><time>2026-04-12T09:13:31.6Z</time></trkpt><trkpt lat="43.6665941" lon="11.3285543"><ele>167.0</ele><time>2026-04-12T09:13:33.6Z</time></trkpt><trkpt lat="43.6665584" lon="11.3284666"><ele>168.0</ele><time>2026-04-12T09:13:35.6Z</time></trkpt><trkpt lat="43.6665446" lon="11.3283627"><ele>169.0</ele><time>2026-04-12T09:13:37.599Z</time></trkpt><trkpt lat="43.6665357" lon="11.3282564"><ele>170.0</ele><time>2026-04-12T09:13:39.6Z</time></trkpt><trkpt lat="43.6665405" lon="11.3281549"><ele>171.0</ele><time>2026-04-12T09:13:41.6Z</time></trkpt><trkpt lat="43.6665407" lon="11.3280228"><ele>172.0</ele><time>2026-04-12T09:13:43.6Z</time></trkpt><trkpt lat="43.6665398" lon="11.3279337"><ele>172.00000000000003</ele><time>2026-04-12T09:13:45.6Z</time></trkpt><trkpt lat="43.6665494" lon="11.3278365"><ele>172.0</ele><time>2026-04-12T09:13:47.6Z</time></trkpt><trkpt lat="43.6665914" lon="11.3277707"><ele>172.0</ele><time>2026-04-12T09:13:49.6Z</time></trkpt><trkpt lat="43.6665614" lon="11.3278641"><ele>172.0</ele><time>2026-04-12T09:16:08.599Z</time></trkpt><trkpt lat="43.6665664" lon="11.327975"><ele>172.0</ele><time>2026-04-12T09:16:13.6Z</time></trkpt><trkpt lat="43.666566" lon="11.3280813"><ele>172.00000000000003</ele><time>2026-04-12T09:16:16.6Z</time></trkpt><trkpt lat="43.6665514" lon="11.3281877"><ele>172.0</ele><time>2026-04-12T09:16:20.599Z</time></trkpt><trkpt lat="43.6665483" lon="11.3282928"><ele>172.00000000000003</ele><time>2026-04-12T09:16:24.6Z</time></trkpt><trkpt lat="43.6665591" lon="11.3284064"><ele>172.0</ele><time>2026-04-12T09:16:29.6Z</time></trkpt><trkpt lat="43.6665816" lon="11.3285129"><ele>172.0</ele><time>2026-04-12T09:16:32.6Z</time></trkpt><trkpt lat="43.6666232" lon="11.3285911"><ele>172.0</ele><time>2026-04-12T09:16:35.6Z</time></trkpt><trkpt lat="43.6666623" lon="11.3286616"><ele>172.0</ele><time>2026-04-12T09:16:39.6Z</time></trkpt><trkpt lat="43.6666457" lon="11.3287665"><ele>172.00000000000003</ele><time>2026-04-12T09:16:46.599Z</time></trkpt><trkpt lat="43.6666381" lon="11.3288566"><ele>172.0</ele><time>2026-04-12T09:16:50.599Z</time></trkpt><trkpt lat="43.6666988" lon="11.3289445"><ele>171.14285714285717</ele><time>2026-04-12T09:16:53.599Z</time></trkpt><trkpt lat="43.6667401" lon="11.3290229"><ele>170.28571428571428</ele><time>2026-04-12T09:16:57.6Z</time></trkpt><trkpt lat="43.6667758" lon="11.3291158"><ele>169.42857142857144</ele><time>2026-04-12T09:17:02.599Z</time></trkpt><trkpt lat="43.6667994" lon="11.3292179"><ele>168.57142857142858</ele><time>2026-04-12T09:17:05.599Z</time></trkpt><trkpt lat="43.666858" lon="11.329304"><ele>167.71428571428572</ele><time>2026-04-12T09:17:08.6Z</time></trkpt><trkpt lat="43.6669049" lon="11.3293667"><ele>166.85714285714286</ele><time>2026-04-12T09:17:10.6Z</time></trkpt><trkpt lat="43.6669427" lon="11.3294465"><ele>166.0</ele><time>2026-04-12T09:17:12.599Z</time></trkpt><trkpt lat="43.6669681" lon="11.3295276"><ele>166.0</ele><time>2026-04-12T09:17:14.6Z</time></trkpt><trkpt lat="43.6669967" lon="11.3296054"><ele>166.0</ele><time>2026-04-12T09:17:16.6Z</time></trkpt><trkpt lat="43.6670148" lon="11.3297252"><ele>166.0</ele><time>2026-04-12T09:17:19.6Z</time></trkpt><trkpt lat="43.6670153" lon="11.3298305"><ele>166.0</ele><time>2026-04-12T09:17:22.6Z</time></trkpt><trkpt lat="43.6669889" lon="11.3299167"><ele>166.0</ele><time>2026-04-12T09:18:58.599Z</time></trkpt><trkpt lat="43.6668963" lon="11.3298007"><ele>166.0</ele><time>2026-04-12T09:19:01.6Z</time></trkpt><trkpt lat="43.6668635" lon="11.3297241"><ele>166.0</ele><time>2026-04-12T09:19:02.599Z</time></trkpt><trkpt lat="43.666815" lon="11.3296263"><ele>166.0</ele><time>2026-04-12T09:19:03.6Z</time></trkpt><trkpt lat="43.6667666" lon="11.3295254"><ele>166.0</ele><time>2026-04-12T09:19:04.599Z</time></trkpt><trkpt lat="43.6667117" lon="11.3294147"><ele>166.0</ele><time>2026-04-12T09:19:05.599Z</time></trkpt><trkpt lat="43.6666393" lon="11.3293054"><ele>166.0</ele><time>2026-04-12T09:19:06.599Z</time></trkpt><trkpt lat="43.6665581" lon="11.3291985"><ele>166.0</ele><time>2026-04-12T09:19:07.599Z</time></trkpt><trkpt lat="43.6664892" lon="11.3290965"><ele>166.0</ele><time>2026-04-12T09:19:08.599Z</time></trkpt><trkpt lat="43.6664105" lon="11.3289849"><ele>166.0</ele><time>2026-04-12T09:19:09.599Z</time></trkpt><trkpt lat="43.6663308" lon="11.3288432"><ele>166.0</ele><time>2026-04-12T09:19:10.599Z</time></trkpt><trkpt lat="43.6662549" lon="11.3286758"><ele>165.5</ele><time>2026-04-12T09:19:11.6Z</time></trkpt><trkpt lat="43.6661758" lon="11.3285193"><ele>165.0</ele><time>2026-04-12T09:19:12.6Z</time></trkpt><trkpt lat="43.6661071" lon="11.3283628"><ele>164.5</ele><time>2026-04-12T09:19:13.599Z</time></trkpt><trkpt lat="43.6660382" lon="11.3282258"><ele>164.0</ele><time>2026-04-12T09:19:14.6Z</time></trkpt><trkpt lat="43.6659685" lon="11.3280839"><ele>163.75</ele><time>2026-04-12T09:19:15.6Z</time></trkpt><trkpt lat="43.6659119" lon="11.3279516"><ele>163.5</ele><time>2026-04-12T09:19:16.6Z</time></trkpt><trkpt lat="43.6658762" lon="11.3278068"><ele>163.25</ele><time>2026-04-12T09:19:17.599Z</time></trkpt><trkpt lat="43.6658534" lon="11.3276525"><ele>163.0</ele><time>2026-04-12T09:19:18.599Z</time></trkpt><trkpt lat="43.6658483" lon="11.3274782"><ele>163.0</ele><time>2026-04-12T09:19:19.6Z</time></trkpt><trkpt lat="43.6658476" lon="11.327285"><ele>163.0</ele><time>2026-04-12T09:19:20.599Z</time></trkpt><trkpt lat="43.6658472" lon="11.3270925"><ele>163.0</ele><time>2026-04-12T09:19:21.6Z</time></trkpt><trkpt lat="43.6658464" lon="11.3269097"><ele>163.0</ele><time>2026-04-12T09:19:22.599Z</time></trkpt><trkpt lat="43.6658447" lon="11.3267427"><ele>163.0</ele><time>2026-04-12T09:19:23.599Z</time></trkpt><trkpt lat="43.6658675" lon="11.3265804"><ele>163.0</ele><time>2026-04-12T09:19:24.599Z</time></trkpt><trkpt lat="43.6658987" lon="11.3264036"><ele>163.0</ele><time>2026-04-12T09:19:25.599Z</time></trkpt><trkpt lat="43.6659268" lon="11.3262323"><ele>163.0</ele><time>2026-04-12T09:19:26.599Z</time></trkpt><trkpt lat="43.6659638" lon="11.3260444"><ele>163.0</ele><time>2026-04-12T09:19:27.599Z</time></trkpt><trkpt lat="43.6659946" lon="11.3258571"><ele>163.0</ele><time>2026-04-12T09:19:28.599Z</time></trkpt><trkpt lat="43.666013" lon="11.325667"><ele>163.0</ele><time>2026-04-12T09:19:29.6Z</time></trkpt><trkpt lat="43.6660216" lon="11.32548"><ele>163.0</ele><time>2026-04-12T09:19:30.599Z</time></trkpt><trkpt lat="43.6660113" lon="11.325296"><ele>163.25</ele><time>2026-04-12T09:19:31.599Z</time></trkpt><trkpt lat="43.6660165" lon="11.325104"><ele>163.5</ele><time>2026-04-12T09:19:32.599Z</time></trkpt><trkpt lat="43.6660266" lon="11.3249202"><ele>163.75</ele><time>2026-04-12T09:19:33.6Z</time></trkpt><trkpt lat="43.6660411" lon="11.3247325"><ele>164.0</ele><time>2026-04-12T09:19:34.599Z</time></trkpt><trkpt lat="43.6660565" lon="11.3245605"><ele>164.0</ele><time>2026-04-12T09:19:35.6Z</time></trkpt><trkpt lat="43.6660875" lon="11.324396"><ele>164.0</ele><time>2026-04-12T09:19:36.6Z</time></trkpt><trkpt lat="43.6661355" lon="11.3242327"><ele>164.0</ele><time>2026-04-12T09:19:37.6Z</time></trkpt><trkpt lat="43.6661983" lon="11.3240797"><ele>164.0</ele><time>2026-04-12T09:19:38.599Z</time></trkpt><trkpt lat="43.6662694" lon="11.3239306"><ele>162.25</ele><time>2026-04-12T09:19:39.599Z</time></trkpt><trkpt lat="43.6663465" lon="11.3237721"><ele>160.5</ele><time>2026-04-12T09:19:40.599Z</time></trkpt><trkpt lat="43.666432" lon="11.3236194"><ele>158.75</ele><time>2026-04-12T09:19:41.6Z</time></trkpt><trkpt lat="43.6665058" lon="11.3234755"><ele>157.0</ele><time>2026-04-12T09:19:42.599Z</time></trkpt><trkpt lat="43.6665668" lon="11.3233534"><ele>157.0</ele><time>2026-04-12T09:19:43.599Z</time></trkpt><trkpt lat="43.6666264" lon="11.323252"><ele>157.0</ele><time>2026-04-12T09:19:44.6Z</time></trkpt><trkpt lat="43.6666619" lon="11.3231739"><ele>157.0</ele><time>2026-04-12T09:19:45.6Z</time></trkpt><trkpt lat="43.6666964" lon="11.3230501"><ele>157.0</ele><time>2026-04-12T09:19:47.6Z</time></trkpt><trkpt lat="43.6666529" lon="11.3229699"><ele>157.0</ele><time>2026-04-12T09:19:49.6Z</time></trkpt><trkpt lat="43.666553" lon="11.322972"><ele>157.0</ele><time>2026-04-12T09:19:51.6Z</time></trkpt><trkpt lat="43.6664128" lon="11.3229734"><ele>156.42857142857142</ele><time>2026-04-12T09:19:53.599Z</time></trkpt><trkpt lat="43.6663327" lon="11.3229481"><ele>155.85714285714286</ele><time>2026-04-12T09:19:54.599Z</time></trkpt><trkpt lat="43.6662579" lon="11.3229285"><ele>155.28571428571428</ele><time>2026-04-12T09:19:55.6Z</time></trkpt><trkpt lat="43.6661817" lon="11.322906"><ele>154.71428571428572</ele><time>2026-04-12T09:19:56.599Z</time></trkpt><trkpt lat="43.6661148" lon="11.3228826"><ele>154.14285714285714</ele><time>2026-04-12T09:19:57.6Z</time></trkpt><trkpt lat="43.6660487" lon="11.322851"><ele>153.57142857142856</ele><time>2026-04-12T09:19:58.599Z</time></trkpt><trkpt lat="43.6659887" lon="11.322823"><ele>153.0</ele><time>2026-04-12T09:19:59.6Z</time></trkpt><trkpt lat="43.6658802" lon="11.3227641"><ele>152.6</ele><time>2026-04-12T09:20:01.6Z</time></trkpt><trkpt lat="43.6657753" lon="11.322705"><ele>152.20000000000002</ele><time>2026-04-12T09:20:03.6Z</time></trkpt><trkpt lat="43.6656469" lon="11.3226227"><ele>151.8</ele><time>2026-04-12T09:20:05.599Z</time></trkpt><trkpt lat="43.665585" lon="11.3225807"><ele>151.4</ele><time>2026-04-12T09:20:06.599Z</time></trkpt><trkpt lat="43.6655135" lon="11.3225345"><ele>151.0</ele><time>2026-04-12T09:20:07.599Z</time></trkpt><trkpt lat="43.665434" lon="11.3224728"><ele>151.0</ele><time>2026-04-12T09:20:08.599Z</time></trkpt><trkpt lat="43.6653411" lon="11.3223834"><ele>151.0</ele><time>2026-04-12T09:20:09.6Z</time></trkpt><trkpt lat="43.6652515" lon="11.3222857"><ele>151.0</ele><time>2026-04-12T09:20:10.6Z</time></trkpt><trkpt lat="43.6651701" lon="11.3221864"><ele>151.0</ele><time>2026-04-12T09:20:11.6Z</time></trkpt><trkpt lat="43.6650909" lon="11.3220864"><ele>151.0</ele><time>2026-04-12T09:20:12.599Z</time></trkpt><trkpt lat="43.6650069" lon="11.3219853"><ele>151.0</ele><time>2026-04-12T09:20:13.6Z</time></trkpt><trkpt lat="43.6649207" lon="11.3218886"><ele>151.0</ele><time>2026-04-12T09:20:14.599Z</time></trkpt><trkpt lat="43.6648364" lon="11.3217821"><ele>151.0</ele><time>2026-04-12T09:20:15.6Z</time></trkpt><trkpt lat="43.6647583" lon="11.3216794"><ele>151.0</ele><time>2026-04-12T09:20:16.6Z</time></trkpt><trkpt lat="43.6646764" lon="11.3215845"><ele>151.0</ele><time>2026-04-12T09:20:17.6Z</time></trkpt><trkpt lat="43.6645754" lon="11.3215008"><ele>151.0</ele><time>2026-04-12T09:20:18.599Z</time></trkpt><trkpt lat="43.6644778" lon="11.3214409"><ele>151.0</ele><time>2026-04-12T09:20:19.599Z</time></trkpt><trkpt lat="43.6643722" lon="11.3213973"><ele>151.0</ele><time>2026-04-12T09:20:20.6Z</time></trkpt><trkpt lat="43.6642609" lon="11.3213646"><ele>151.0</ele><time>2026-04-12T09:20:21.599Z</time></trkpt><trkpt lat="43.6641523" lon="11.3213586"><ele>151.0</ele><time>2026-04-12T09:20:22.599Z</time></trkpt><trkpt lat="43.6640418" lon="11.3213561"><ele>150.4</ele><time>2026-04-12T09:20:23.599Z</time></trkpt><trkpt lat="43.6639424" lon="11.3213635"><ele>149.8</ele><time>2026-04-12T09:20:24.6Z</time></trkpt><trkpt lat="43.663842" lon="11.3213665"><ele>149.20000000000002</ele><time>2026-04-12T09:20:25.599Z</time></trkpt><trkpt lat="43.663745" lon="11.3213724"><ele>148.6</ele><time>2026-04-12T09:20:26.599Z</time></trkpt><trkpt lat="43.6636546" lon="11.3213846"><ele>148.0</ele><time>2026-04-12T09:20:27.599Z</time></trkpt><trkpt lat="43.6635636" lon="11.3214064"><ele>148.33333333333334</ele><time>2026-04-12T09:20:28.599Z</time></trkpt><trkpt lat="43.6634866" lon="11.3214319"><ele>148.66666666666669</ele><time>2026-04-12T09:20:29.599Z</time></trkpt><trkpt lat="43.6633938" lon="11.3214542"><ele>149.0</ele><time>2026-04-12T09:20:30.6Z</time></trkpt><trkpt lat="43.6633082" lon="11.3214527"><ele>149.33333333333334</ele><time>2026-04-12T09:20:31.6Z</time></trkpt><trkpt lat="43.66324" lon="11.3213944"><ele>149.66666666666666</ele><time>2026-04-12T09:20:32.599Z</time></trkpt><trkpt lat="43.6631734" lon="11.3213113"><ele>150.0</ele><time>2026-04-12T09:20:33.599Z</time></trkpt><trkpt lat="43.6631112" lon="11.3212543"><ele>150.0</ele><time>2026-04-12T09:20:34.599Z</time></trkpt><trkpt lat="43.6630221" lon="11.321234"><ele>150.0</ele><time>2026-04-12T09:20:35.599Z</time></trkpt><trkpt lat="43.6629224" lon="11.3212217"><ele>150.0</ele><time>2026-04-12T09:20:36.599Z</time></trkpt><trkpt lat="43.6628282" lon="11.3212093"><ele>150.0</ele><time>2026-04-12T09:20:37.599Z</time></trkpt><trkpt lat="43.6627237" lon="11.321201"><ele>150.0</ele><time>2026-04-12T09:20:38.6Z</time></trkpt><trkpt lat="43.6626164" lon="11.3211836"><ele>150.5</ele><time>2026-04-12T09:20:39.6Z</time></trkpt><trkpt lat="43.6624946" lon="11.3211588"><ele>151.0</ele><time>2026-04-12T09:20:40.599Z</time></trkpt><trkpt lat="43.6623648" lon="11.321123"><ele>151.5</ele><time>2026-04-12T09:20:41.599Z</time></trkpt><trkpt lat="43.6622482" lon="11.3210803"><ele>152.0</ele><time>2026-04-12T09:20:42.6Z</time></trkpt><trkpt lat="43.6621431" lon="11.3210452"><ele>152.0</ele><time>2026-04-12T09:20:43.599Z</time></trkpt><trkpt lat="43.662047" lon="11.3210387"><ele>152.0</ele><time>2026-04-12T09:20:44.6Z</time></trkpt><trkpt lat="43.6619554" lon="11.3210956"><ele>152.0</ele><time>2026-04-12T09:20:45.599Z</time></trkpt><trkpt lat="43.6618551" lon="11.3211796"><ele>152.0</ele><time>2026-04-12T09:20:46.599Z</time></trkpt><trkpt lat="43.6617542" lon="11.3212501"><ele>152.0</ele><time>2026-04-12T09:20:47.599Z</time></trkpt><trkpt lat="43.6616669" lon="11.3213033"><ele>153.0</ele><time>2026-04-12T09:20:48.6Z</time></trkpt><trkpt lat="43.6615917" lon="11.3213442"><ele>154.0</ele><time>2026-04-12T09:20:49.599Z</time></trkpt><trkpt lat="43.6614813" lon="11.3213381"><ele>155.0</ele><time>2026-04-12T09:20:51.599Z</time></trkpt><trkpt lat="43.661385" lon="11.3212216"><ele>156.0</ele><time>2026-04-12T09:20:53.599Z</time></trkpt><trkpt lat="43.6613547" lon="11.3211434"><ele>157.0</ele><time>2026-04-12T09:20:54.6Z</time></trkpt><trkpt lat="43.6613516" lon="11.3210507"><ele>157.0</ele><time>2026-04-12T09:20:55.6Z</time></trkpt><trkpt lat="43.6613746" lon="11.3209619"><ele>157.0</ele><time>2026-04-12T09:20:56.6Z</time></trkpt><trkpt lat="43.6614088" lon="11.3208727"><ele>157.0</ele><time>2026-04-12T09:20:57.6Z</time></trkpt><trkpt lat="43.6614544" lon="11.320786"><ele>157.0</ele><time>2026-04-12T09:20:58.6Z</time></trkpt><trkpt lat="43.6615084" lon="11.3207077"><ele>157.0</ele><time>2026-04-12T09:20:59.6Z</time></trkpt><trkpt lat="43.6615629" lon="11.320627"><ele>157.0</ele><time>2026-04-12T09:21:00.599Z</time></trkpt><trkpt lat="43.6616122" lon="11.3205433"><ele>158.0</ele><time>2026-04-12T09:21:01.6Z</time></trkpt><trkpt lat="43.6616528" lon="11.3204518"><ele>159.0</ele><time>2026-04-12T09:21:02.6Z</time></trkpt><trkpt lat="43.6616907" lon="11.3203735"><ele>160.0</ele><time>2026-04-12T09:21:03.6Z</time></trkpt><trkpt lat="43.6617247" lon="11.3202855"><ele>161.0</ele><time>2026-04-12T09:21:04.599Z</time></trkpt><trkpt lat="43.6617347" lon="11.3201971"><ele>162.0</ele><time>2026-04-12T09:21:05.6Z</time></trkpt><trkpt lat="43.6616854" lon="11.3200561"><ele>163.0</ele><time>2026-04-12T09:21:07.599Z</time></trkpt><trkpt lat="43.6616208" lon="11.3200352"><ele>163.0</ele><time>2026-04-12T09:21:08.6Z</time></trkpt><trkpt lat="43.6615483" lon="11.3200385"><ele>163.0</ele><time>2026-04-12T09:21:09.599Z</time></trkpt><trkpt lat="43.6614678" lon="11.3200622"><ele>163.0</ele><time>2026-04-12T09:21:10.599Z</time></trkpt><trkpt lat="43.6613863" lon="11.3200932"><ele>163.0</ele><time>2026-04-12T09:21:11.599Z</time></trkpt><trkpt lat="43.6613052" lon="11.3201135"><ele>163.0</ele><time>2026-04-12T09:21:12.599Z</time></trkpt><trkpt lat="43.6612255" lon="11.3201334"><ele>163.0</ele><time>2026-04-12T09:21:13.6Z</time></trkpt><trkpt lat="43.6611479" lon="11.3201458"><ele>164.0</ele><time>2026-04-12T09:21:14.599Z</time></trkpt><trkpt lat="43.6610675" lon="11.3201633"><ele>165.0</ele><time>2026-04-12T09:21:15.6Z</time></trkpt><trkpt lat="43.6609925" lon="11.3201714"><ele>166.0</ele><time>2026-04-12T09:21:16.6Z</time></trkpt><trkpt lat="43.6608698" lon="11.320153"><ele>167.0</ele><time>2026-04-12T09:21:18.6Z</time></trkpt><trkpt lat="43.6608008" lon="11.320131"><ele>168.0</ele><time>2026-04-12T09:21:19.6Z</time></trkpt><trkpt lat="43.6607247" lon="11.3201072"><ele>169.0</ele><time>2026-04-12T09:21:20.599Z</time></trkpt><trkpt lat="43.6606549" lon="11.3200691"><ele>169.0</ele><time>2026-04-12T09:21:21.6Z</time></trkpt><trkpt lat="43.6605877" lon="11.3199988"><ele>169.0</ele><time>2026-04-12T09:21:22.6Z</time></trkpt><trkpt lat="43.6605173" lon="11.3199243"><ele>169.0</ele><time>2026-04-12T09:21:23.6Z</time></trkpt><trkpt lat="43.6604457" lon="11.3198551"><ele>169.0</ele><time>2026-04-12T09:21:24.599Z</time></trkpt><trkpt lat="43.6603697" lon="11.3197948"><ele>169.0</ele><time>2026-04-12T09:21:25.6Z</time></trkpt><trkpt lat="43.6602879" lon="11.3197405"><ele>169.0</ele><time>2026-04-12T09:21:26.6Z</time></trkpt><trkpt lat="43.6602047" lon="11.3196956"><ele>170.79999999999998</ele><time>2026-04-12T09:21:27.6Z</time></trkpt><trkpt lat="43.6601214" lon="11.3196404"><ele>172.6</ele><time>2026-04-12T09:21:28.599Z</time></trkpt><trkpt lat="43.6600339" lon="11.3195837"><ele>174.4</ele><time>2026-04-12T09:21:29.6Z</time></trkpt><trkpt lat="43.6599514" lon="11.319523"><ele>176.2</ele><time>2026-04-12T09:21:30.6Z</time></trkpt><trkpt lat="43.659871" lon="11.3194579"><ele>178.0</ele><time>2026-04-12T09:21:31.6Z</time></trkpt><trkpt lat="43.6597921" lon="11.3193835"><ele>178.0</ele><time>2026-04-12T09:21:32.6Z</time></trkpt><trkpt lat="43.659708" lon="11.3193141"><ele>178.0</ele><time>2026-04-12T09:21:33.599Z</time></trkpt><trkpt lat="43.6596143" lon="11.3192926"><ele>178.0</ele><time>2026-04-12T09:21:34.599Z</time></trkpt><trkpt lat="43.6595079" lon="11.319302"><ele>178.0</ele><time>2026-04-12T09:21:35.6Z</time></trkpt><trkpt lat="43.6594023" lon="11.3193156"><ele>178.0</ele><time>2026-04-12T09:21:36.6Z</time></trkpt><trkpt lat="43.659294" lon="11.3193241"><ele>178.60000000000002</ele><time>2026-04-12T09:21:37.6Z</time></trkpt><trkpt lat="43.6591843" lon="11.3193256"><ele>179.20000000000002</ele><time>2026-04-12T09:21:38.599Z</time></trkpt><trkpt lat="43.6590819" lon="11.3193052"><ele>179.8</ele><time>2026-04-12T09:21:39.599Z</time></trkpt><trkpt lat="43.6589743" lon="11.3192628"><ele>180.4</ele><time>2026-04-12T09:21:40.6Z</time></trkpt><trkpt lat="43.6588732" lon="11.3192147"><ele>181.0</ele><time>2026-04-12T09:21:41.599Z</time></trkpt><trkpt lat="43.6587778" lon="11.319154"><ele>181.0</ele><time>2026-04-12T09:21:42.6Z</time></trkpt><trkpt lat="43.6586913" lon="11.319081"><ele>181.0</ele><time>2026-04-12T09:21:43.599Z</time></trkpt><trkpt lat="43.658611" lon="11.3190013"><ele>181.0</ele><time>2026-04-12T09:21:44.6Z</time></trkpt><trkpt lat="43.65853" lon="11.3189278"><ele>181.0</ele><time>2026-04-12T09:21:45.6Z</time></trkpt><trkpt lat="43.6584406" lon="11.3188603"><ele>181.0</ele><time>2026-04-12T09:21:46.599Z</time></trkpt><trkpt lat="43.658349" lon="11.3188082"><ele>182.75</ele><time>2026-04-12T09:21:47.599Z</time></trkpt><trkpt lat="43.6582472" lon="11.3187527"><ele>184.5</ele><time>2026-04-12T09:21:48.6Z</time></trkpt><trkpt lat="43.65814" lon="11.3186991"><ele>186.25</ele><time>2026-04-12T09:21:49.599Z</time></trkpt><trkpt lat="43.6580349" lon="11.318642"><ele>188.0</ele><time>2026-04-12T09:21:50.599Z</time></trkpt><trkpt lat="43.6579301" lon="11.3185741"><ele>188.0</ele><time>2026-04-12T09:21:51.6Z</time></trkpt><trkpt lat="43.6578354" lon="11.318488"><ele>188.0</ele><time>2026-04-12T09:21:52.6Z</time></trkpt><trkpt lat="43.6577483" lon="11.3183875"><ele>188.0</ele><time>2026-04-12T09:21:53.599Z</time></trkpt><trkpt lat="43.6576646" lon="11.3182865"><ele>188.0</ele><time>2026-04-12T09:21:54.599Z</time></trkpt><trkpt lat="43.6575906" lon="11.3181874"><ele>188.0</ele><time>2026-04-12T09:21:55.599Z</time></trkpt><trkpt lat="43.6575206" lon="11.3180869"><ele>189.0</ele><time>2026-04-12T09:21:56.6Z</time></trkpt><trkpt lat="43.6574483" lon="11.3179906"><ele>190.0</ele><time>2026-04-12T09:21:57.6Z</time></trkpt><trkpt lat="43.6573622" lon="11.3179142"><ele>191.0</ele><time>2026-04-12T09:21:58.599Z</time></trkpt><trkpt lat="43.6572666" lon="11.3178642"><ele>192.0</ele><time>2026-04-12T09:21:59.6Z</time></trkpt><trkpt lat="43.657169" lon="11.3178259"><ele>193.0</ele><time>2026-04-12T09:22:00.599Z</time></trkpt><trkpt lat="43.6570601" lon="11.317808"><ele>193.0</ele><time>2026-04-12T09:22:01.599Z</time></trkpt><trkpt lat="43.6569564" lon="11.3177896"><ele>193.0</ele><time>2026-04-12T09:22:02.599Z</time></trkpt><trkpt lat="43.6568521" lon="11.3177832"><ele>193.0</ele><time>2026-04-12T09:22:03.6Z</time></trkpt><trkpt lat="43.6567512" lon="11.3177786"><ele>193.0</ele><time>2026-04-12T09:22:04.599Z</time></trkpt><trkpt lat="43.6566491" lon="11.3177759"><ele>193.0</ele><time>2026-04-12T09:22:05.6Z</time></trkpt><trkpt lat="43.6565416" lon="11.3177912"><ele>194.60000000000002</ele><time>2026-04-12T09:22:06.599Z</time></trkpt><trkpt lat="43.6564363" lon="11.3178084"><ele>196.20000000000002</ele><time>2026-04-12T09:22:07.599Z</time></trkpt><trkpt lat="43.6563308" lon="11.3178163"><ele>197.8</ele><time>2026-04-12T09:22:08.6Z</time></trkpt><trkpt lat="43.6562225" lon="11.3178048"><ele>199.4</ele><time>2026-04-12T09:22:09.599Z</time></trkpt><trkpt lat="43.6561236" lon="11.3177627"><ele>201.0</ele><time>2026-04-12T09:22:10.599Z</time></trkpt><trkpt lat="43.6560234" lon="11.3177165"><ele>203.60000000000002</ele><time>2026-04-12T09:22:11.599Z</time></trkpt><trkpt lat="43.6559248" lon="11.3176598"><ele>206.2</ele><time>2026-04-12T09:22:12.599Z</time></trkpt><trkpt lat="43.6558348" lon="11.3176005"><ele>208.79999999999998</ele><time>2026-04-12T09:22:13.6Z</time></trkpt><trkpt lat="43.6557542" lon="11.3175322"><ele>211.39999999999998</ele><time>2026-04-12T09:22:14.6Z</time></trkpt><trkpt lat="43.6556752" lon="11.3174609"><ele>214.0</ele><time>2026-04-12T09:22:15.599Z</time></trkpt><trkpt lat="43.6556036" lon="11.3173975"><ele>213.99999999999997</ele><time>2026-04-12T09:22:16.599Z</time></trkpt><trkpt lat="43.6555356" lon="11.3173437"><ele>214.0</ele><time>2026-04-12T09:22:17.6Z</time></trkpt><trkpt lat="43.6554638" lon="11.3173089"><ele>214.0</ele><time>2026-04-12T09:22:18.599Z</time></trkpt><trkpt lat="43.6554008" lon="11.3172912"><ele>214.0</ele><time>2026-04-12T09:22:19.599Z</time></trkpt><trkpt lat="43.6552988" lon="11.3172676"><ele>213.99999999999997</ele><time>2026-04-12T09:22:21.599Z</time></trkpt><trkpt lat="43.6552354" lon="11.3172643"><ele>214.0</ele><time>2026-04-12T09:22:22.599Z</time></trkpt><trkpt lat="43.6551621" lon="11.3172695"><ele>216.33333333333331</ele><time>2026-04-12T09:22:23.6Z</time></trkpt><trkpt lat="43.6550842" lon="11.3172701"><ele>218.66666666666666</ele><time>2026-04-12T09:22:24.6Z</time></trkpt><trkpt lat="43.6550081" lon="11.3172688"><ele>221.0</ele><time>2026-04-12T09:22:25.599Z</time></trkpt><trkpt lat="43.6549311" lon="11.3172677"><ele>223.33333333333331</ele><time>2026-04-12T09:22:26.599Z</time></trkpt><trkpt lat="43.654846" lon="11.3172687"><ele>225.66666666666666</ele><time>2026-04-12T09:22:27.599Z</time></trkpt><trkpt lat="43.6547653" lon="11.3172592"><ele>228.0</ele><time>2026-04-12T09:22:28.6Z</time></trkpt><trkpt lat="43.6546733" lon="11.3172514"><ele>228.0</ele><time>2026-04-12T09:22:29.6Z</time></trkpt><trkpt lat="43.6545909" lon="11.3172523"><ele>228.0</ele><time>2026-04-12T09:22:30.599Z</time></trkpt><trkpt lat="43.6545064" lon="11.3172511"><ele>228.0</ele><time>2026-04-12T09:22:31.599Z</time></trkpt><trkpt lat="43.6544233" lon="11.3172507"><ele>228.0</ele><time>2026-04-12T09:22:32.6Z</time></trkpt><trkpt lat="43.6543526" lon="11.3172541"><ele>228.0</ele><time>2026-04-12T09:22:33.599Z</time></trkpt><trkpt lat="43.6542642" lon="11.3172968"><ele>228.0</ele><time>2026-04-12T09:22:35.599Z</time></trkpt><trkpt lat="43.6541922" lon="11.3173491"><ele>229.14285714285714</ele><time>2026-04-12T09:22:39.6Z</time></trkpt><trkpt lat="43.6541325" lon="11.3174137"><ele>230.28571428571428</ele><time>2026-04-12T09:22:44.599Z</time></trkpt><trkpt lat="43.6540809" lon="11.3174657"><ele>231.42857142857142</ele><time>2026-04-12T09:22:47.599Z</time></trkpt><trkpt lat="43.6540165" lon="11.3174739"><ele>232.57142857142856</ele><time>2026-04-12T09:22:52.599Z</time></trkpt><trkpt lat="43.6539565" lon="11.3174032"><ele>233.71428571428572</ele><time>2026-04-12T09:22:57.599Z</time></trkpt><trkpt lat="43.6540221" lon="11.3174481"><ele>234.85714285714283</ele><time>2026-04-12T09:23:40.599Z</time></trkpt><trkpt lat="43.6540927" lon="11.3174275"><ele>236.0</ele><time>2026-04-12T09:23:43.6Z</time></trkpt><trkpt lat="43.6541623" lon="11.3173664"><ele>236.00000000000003</ele><time>2026-04-12T09:23:46.599Z</time></trkpt><trkpt lat="43.6542291" lon="11.3173609"><ele>236.0</ele><time>2026-04-12T09:23:53.599Z</time></trkpt><trkpt lat="43.6542659" lon="11.3174786"><ele>236.0</ele><time>2026-04-12T09:23:55.6Z</time></trkpt><trkpt lat="43.6542898" lon="11.3176462"><ele>236.0</ele><time>2026-04-12T09:23:57.599Z</time></trkpt><trkpt lat="43.6543076" lon="11.3177377"><ele>236.00000000000003</ele><time>2026-04-12T09:23:58.599Z</time></trkpt><trkpt lat="43.6543313" lon="11.3178215"><ele>236.0</ele><time>2026-04-12T09:23:59.599Z</time></trkpt><trkpt lat="43.6543463" lon="11.317914"><ele>236.00000000000003</ele><time>2026-04-12T09:24:00.599Z</time></trkpt><trkpt lat="43.6543505" lon="11.3180104"><ele>236.0</ele><time>2026-04-12T09:24:01.599Z</time></trkpt><trkpt lat="43.6543491" lon="11.3181112"><ele>236.0</ele><time>2026-04-12T09:24:02.599Z</time></trkpt><trkpt lat="43.6543459" lon="11.3182123"><ele>236.0</ele><time>2026-04-12T09:24:03.599Z</time></trkpt><trkpt lat="43.654332" lon="11.3183161"><ele>236.00000000000003</ele><time>2026-04-12T09:24:04.599Z</time></trkpt><trkpt lat="43.6543214" lon="11.3184241"><ele>236.0</ele><time>2026-04-12T09:24:05.6Z</time></trkpt><trkpt lat="43.6543055" lon="11.3185305"><ele>237.50000000000003</ele><time>2026-04-12T09:24:06.599Z</time></trkpt><trkpt lat="43.6542902" lon="11.3186407"><ele>239.0</ele><time>2026-04-12T09:24:07.6Z</time></trkpt><trkpt lat="43.6542725" lon="11.318742"><ele>240.5</ele><time>2026-04-12T09:24:08.6Z</time></trkpt><trkpt lat="43.6542386" lon="11.318841"><ele>242.0</ele><time>2026-04-12T09:24:09.599Z</time></trkpt><trkpt lat="43.654187" lon="11.318924"><ele>243.50000000000003</ele><time>2026-04-12T09:24:10.599Z</time></trkpt><trkpt lat="43.6541298" lon="11.3190106"><ele>245.0</ele><time>2026-04-12T09:24:11.599Z</time></trkpt><trkpt lat="43.6540606" lon="11.3190862"><ele>246.4</ele><time>2026-04-12T09:24:12.6Z</time></trkpt><trkpt lat="43.6539869" lon="11.3191711"><ele>247.8</ele><time>2026-04-12T09:24:13.599Z</time></trkpt><trkpt lat="43.6539021" lon="11.3192536"><ele>249.2</ele><time>2026-04-12T09:24:14.599Z</time></trkpt><trkpt lat="43.6538217" lon="11.3193477"><ele>250.6</ele><time>2026-04-12T09:24:15.6Z</time></trkpt><trkpt lat="43.6537366" lon="11.3194309"><ele>252.0</ele><time>2026-04-12T09:24:16.599Z</time></trkpt><trkpt lat="43.6536535" lon="11.3195101"><ele>251.66666666666666</ele><time>2026-04-12T09:24:17.599Z</time></trkpt><trkpt lat="43.6535787" lon="11.319584"><ele>251.33333333333331</ele><time>2026-04-12T09:24:18.6Z</time></trkpt><trkpt lat="43.6535125" lon="11.3196356"><ele>251.0</ele><time>2026-04-12T09:24:19.6Z</time></trkpt><trkpt lat="43.6534454" lon="11.3197023"><ele>250.66666666666666</ele><time>2026-04-12T09:24:20.599Z</time></trkpt><trkpt lat="43.653368" lon="11.31977"><ele>250.33333333333331</ele><time>2026-04-12T09:24:21.6Z</time></trkpt><trkpt lat="43.6533081" lon="11.319854"><ele>250.0</ele><time>2026-04-12T09:24:22.6Z</time></trkpt><trkpt lat="43.6532595" lon="11.3199539"><ele>251.16666666666666</ele><time>2026-04-12T09:24:23.599Z</time></trkpt><trkpt lat="43.6532102" lon="11.3200582"><ele>252.33333333333331</ele><time>2026-04-12T09:24:24.599Z</time></trkpt><trkpt lat="43.6531502" lon="11.3201554"><ele>253.5</ele><time>2026-04-12T09:24:25.599Z</time></trkpt><trkpt lat="43.6530945" lon="11.3202403"><ele>254.66666666666669</ele><time>2026-04-12T09:24:26.6Z</time></trkpt><trkpt lat="43.653035" lon="11.3203153"><ele>255.83333333333334</ele><time>2026-04-12T09:24:27.6Z</time></trkpt><trkpt lat="43.6529795" lon="11.3203882"><ele>257.0</ele><time>2026-04-12T09:24:28.599Z</time></trkpt><trkpt lat="43.6529292" lon="11.3204717"><ele>258.0</ele><time>2026-04-12T09:24:29.6Z</time></trkpt><trkpt lat="43.6528976" lon="11.3205709"><ele>259.0</ele><time>2026-04-12T09:24:30.599Z</time></trkpt><trkpt lat="43.6528807" lon="11.3206707"><ele>260.0</ele><time>2026-04-12T09:24:31.599Z</time></trkpt><trkpt lat="43.6528743" lon="11.3207801"><ele>261.0</ele><time>2026-04-12T09:24:32.599Z</time></trkpt><trkpt lat="43.6528768" lon="11.3208885"><ele>262.0</ele><time>2026-04-12T09:24:33.599Z</time></trkpt><trkpt lat="43.6528732" lon="11.3210055"><ele>263.0</ele><time>2026-04-12T09:24:34.6Z</time></trkpt><trkpt lat="43.6528648" lon="11.3211226"><ele>263.0</ele><time>2026-04-12T09:24:35.599Z</time></trkpt><trkpt lat="43.6528425" lon="11.3212475"><ele>263.0</ele><time>2026-04-12T09:24:36.599Z</time></trkpt><trkpt lat="43.6528181" lon="11.3213723"><ele>263.0</ele><time>2026-04-12T09:24:37.599Z</time></trkpt><trkpt lat="43.6527743" lon="11.3214878"><ele>263.0</ele><time>2026-04-12T09:24:38.6Z</time></trkpt><trkpt lat="43.6527271" lon="11.3215887"><ele>263.0</ele><time>2026-04-12T09:24:39.599Z</time></trkpt><trkpt lat="43.6526871" lon="11.3216908"><ele>262.83333333333337</ele><time>2026-04-12T09:24:40.599Z</time></trkpt><trkpt lat="43.6526467" lon="11.3217923"><ele>262.6666666666667</ele><time>2026-04-12T09:24:41.599Z</time></trkpt><trkpt lat="43.6526185" lon="11.3218945"><ele>262.5</ele><time>2026-04-12T09:24:42.599Z</time></trkpt><trkpt lat="43.6526029" lon="11.3220021"><ele>262.3333333333333</ele><time>2026-04-12T09:24:43.599Z</time></trkpt><trkpt lat="43.6525982" lon="11.3221004"><ele>262.16666666666663</ele><time>2026-04-12T09:24:44.599Z</time></trkpt><trkpt lat="43.6525838" lon="11.3222083"><ele>262.0</ele><time>2026-04-12T09:24:45.6Z</time></trkpt><trkpt lat="43.6525695" lon="11.322316"><ele>262.5</ele><time>2026-04-12T09:24:46.599Z</time></trkpt><trkpt lat="43.6525548" lon="11.3224158"><ele>263.0</ele><time>2026-04-12T09:24:47.599Z</time></trkpt><trkpt lat="43.6525473" lon="11.3225267"><ele>263.5</ele><time>2026-04-12T09:24:48.599Z</time></trkpt><trkpt lat="43.6525587" lon="11.3226501"><ele>264.0</ele><time>2026-04-12T09:24:49.599Z</time></trkpt><trkpt lat="43.6525538" lon="11.322775"><ele>264.5</ele><time>2026-04-12T09:24:50.599Z</time></trkpt><trkpt lat="43.6525541" lon="11.3228957"><ele>265.0</ele><time>2026-04-12T09:24:51.6Z</time></trkpt><trkpt lat="43.652548" lon="11.3230122"><ele>265.66666666666663</ele><time>2026-04-12T09:24:52.6Z</time></trkpt><trkpt lat="43.6525355" lon="11.3231201"><ele>266.3333333333333</ele><time>2026-04-12T09:24:53.599Z</time></trkpt><trkpt lat="43.6525133" lon="11.3232173"><ele>267.0</ele><time>2026-04-12T09:24:54.6Z</time></trkpt><trkpt lat="43.6524821" lon="11.3233281"><ele>267.6666666666667</ele><time>2026-04-12T09:24:55.6Z</time></trkpt><trkpt lat="43.65245" lon="11.3234313"><ele>268.33333333333337</ele><time>2026-04-12T09:24:56.6Z</time></trkpt><trkpt lat="43.6524007" lon="11.3235306"><ele>269.0</ele><time>2026-04-12T09:24:57.6Z</time></trkpt><trkpt lat="43.6523564" lon="11.3236299"><ele>269.0</ele><time>2026-04-12T09:24:58.599Z</time></trkpt><trkpt lat="43.652317" lon="11.3237307"><ele>269.0</ele><time>2026-04-12T09:24:59.6Z</time></trkpt><trkpt lat="43.6522809" lon="11.323838"><ele>269.0</ele><time>2026-04-12T09:25:00.6Z</time></trkpt><trkpt lat="43.6522573" lon="11.3239626"><ele>269.0</ele><time>2026-04-12T09:25:01.599Z</time></trkpt><trkpt lat="43.6522401" lon="11.324089"><ele>269.0</ele><time>2026-04-12T09:25:02.599Z</time></trkpt><trkpt lat="43.6522262" lon="11.324213"><ele>269.0</ele><time>2026-04-12T09:25:03.599Z</time></trkpt><trkpt lat="43.6522126" lon="11.3243217"><ele>268.4</ele><time>2026-04-12T09:25:04.6Z</time></trkpt><trkpt lat="43.6521885" lon="11.3244233"><ele>267.79999999999995</ele><time>2026-04-12T09:25:05.599Z</time></trkpt><trkpt lat="43.6521711" lon="11.3245143"><ele>267.20000000000005</ele><time>2026-04-12T09:25:06.599Z</time></trkpt><trkpt lat="43.6521567" lon="11.324652"><ele>266.6</ele><time>2026-04-12T09:25:08.599Z</time></trkpt><trkpt lat="43.6521429" lon="11.3248013"><ele>266.0</ele><time>2026-04-12T09:25:10.6Z</time></trkpt><trkpt lat="43.6521285" lon="11.3249495"><ele>265.40000000000003</ele><time>2026-04-12T09:25:12.6Z</time></trkpt><trkpt lat="43.6521094" lon="11.3250853"><ele>264.8</ele><time>2026-04-12T09:25:14.599Z</time></trkpt><trkpt lat="43.6520936" lon="11.3252098"><ele>264.20000000000005</ele><time>2026-04-12T09:25:16.6Z</time></trkpt><trkpt lat="43.6520722" lon="11.3253481"><ele>263.6</ele><time>2026-04-12T09:25:18.599Z</time></trkpt><trkpt lat="43.6520375" lon="11.3254835"><ele>263.0</ele><time>2026-04-12T09:25:20.6Z</time></trkpt><trkpt lat="43.6519726" lon="11.3255968"><ele>263.4</ele><time>2026-04-12T09:25:22.6Z</time></trkpt><trkpt lat="43.6518869" lon="11.3256777"><ele>263.8</ele><time>2026-04-12T09:25:24.599Z</time></trkpt><trkpt lat="43.6518028" lon="11.3257299"><ele>264.2</ele><time>2026-04-12T09:25:26.599Z</time></trkpt><trkpt lat="43.6517227" lon="11.3257662"><ele>264.6</ele><time>2026-04-12T09:25:28.599Z</time></trkpt><trkpt lat="43.6516365" lon="11.3258241"><ele>265.0</ele><time>2026-04-12T09:25:30.599Z</time></trkpt><trkpt lat="43.6515531" lon="11.3259068"><ele>265.0</ele><time>2026-04-12T09:25:32.6Z</time></trkpt><trkpt lat="43.6514709" lon="11.3260096"><ele>265.0</ele><time>2026-04-12T09:25:34.6Z</time></trkpt><trkpt lat="43.6514054" lon="11.326113"><ele>265.0</ele><time>2026-04-12T09:25:36.6Z</time></trkpt><trkpt lat="43.6513308" lon="11.326222"><ele>265.0</ele><time>2026-04-12T09:25:38.599Z</time></trkpt><trkpt lat="43.6512442" lon="11.3263308"><ele>265.0</ele><time>2026-04-12T09:25:40.6Z</time></trkpt><trkpt lat="43.6511505" lon="11.3264294"><ele>265.2</ele><time>2026-04-12T09:25:42.6Z</time></trkpt><trkpt lat="43.6510593" lon="11.326514"><ele>265.4</ele><time>2026-04-12T09:25:44.599Z</time></trkpt><trkpt lat="43.6509906" lon="11.3266433"><ele>265.6</ele><time>2026-04-12T09:25:46.6Z</time></trkpt><trkpt lat="43.6509408" lon="11.3267947"><ele>265.8</ele><time>2026-04-12T09:25:48.6Z</time></trkpt><trkpt lat="43.6509153" lon="11.3268785"><ele>266.0</ele><time>2026-04-12T09:25:49.599Z</time></trkpt><trkpt lat="43.6508743" lon="11.327027"><ele>266.0</ele><time>2026-04-12T09:25:51.599Z</time></trkpt><trkpt lat="43.6508365" lon="11.3271971"><ele>266.0</ele><time>2026-04-12T09:25:53.599Z</time></trkpt><trkpt lat="43.6508104" lon="11.3272764"><ele>266.0</ele><time>2026-04-12T09:25:54.599Z</time></trkpt><trkpt lat="43.6507587" lon="11.3274257"><ele>266.0</ele><time>2026-04-12T09:25:56.599Z</time></trkpt><trkpt lat="43.650701" lon="11.3275545"><ele>266.0</ele><time>2026-04-12T09:25:58.599Z</time></trkpt><trkpt lat="43.6506373" lon="11.3276743"><ele>265.83333333333337</ele><time>2026-04-12T09:26:00.599Z</time></trkpt><trkpt lat="43.6505746" lon="11.3277515"><ele>265.6666666666667</ele><time>2026-04-12T09:26:02.599Z</time></trkpt><trkpt lat="43.650502" lon="11.3277947"><ele>265.5</ele><time>2026-04-12T09:26:04.599Z</time></trkpt><trkpt lat="43.6504187" lon="11.3278253"><ele>265.3333333333333</ele><time>2026-04-12T09:26:06.599Z</time></trkpt><trkpt lat="43.6503102" lon="11.3278363"><ele>265.16666666666663</ele><time>2026-04-12T09:26:08.6Z</time></trkpt><trkpt lat="43.6502425" lon="11.3278354"><ele>265.0</ele><time>2026-04-12T09:26:09.6Z</time></trkpt><trkpt lat="43.6501776" lon="11.3278316"><ele>265.0</ele><time>2026-04-12T09:26:10.6Z</time></trkpt><trkpt lat="43.6500728" lon="11.3278698"><ele>265.0</ele><time>2026-04-12T09:26:12.599Z</time></trkpt><trkpt lat="43.6499795" lon="11.32797"><ele>265.0</ele><time>2026-04-12T09:26:14.599Z</time></trkpt><trkpt lat="43.6499185" lon="11.3281006"><ele>265.0</ele><time>2026-04-12T09:26:16.599Z</time></trkpt><trkpt lat="43.6498887" lon="11.3281887"><ele>265.0</ele><time>2026-04-12T09:26:17.599Z</time></trkpt><trkpt lat="43.6498254" lon="11.3283336"><ele>266.0</ele><time>2026-04-12T09:26:19.6Z</time></trkpt><trkpt lat="43.649785" lon="11.3284026"><ele>267.0</ele><time>2026-04-12T09:26:20.6Z</time></trkpt><trkpt lat="43.649684" lon="11.3285057"><ele>268.0</ele><time>2026-04-12T09:26:22.599Z</time></trkpt><trkpt lat="43.6496316" lon="11.3285614"><ele>269.0</ele><time>2026-04-12T09:26:23.6Z</time></trkpt><trkpt lat="43.6495737" lon="11.3286215"><ele>270.0</ele><time>2026-04-12T09:26:24.599Z</time></trkpt><trkpt lat="43.6495142" lon="11.3286761"><ele>271.0</ele><time>2026-04-12T09:26:25.6Z</time></trkpt><trkpt lat="43.6494508" lon="11.3287297"><ele>271.0</ele><time>2026-04-12T09:26:26.599Z</time></trkpt><trkpt lat="43.6493943" lon="11.3287782"><ele>271.0</ele><time>2026-04-12T09:26:27.6Z</time></trkpt><trkpt lat="43.6492989" lon="11.3288491"><ele>271.0</ele><time>2026-04-12T09:26:29.6Z</time></trkpt><trkpt lat="43.6491866" lon="11.328914"><ele>271.0</ele><time>2026-04-12T09:26:31.599Z</time></trkpt><trkpt lat="43.6490957" lon="11.3289631"><ele>271.0</ele><time>2026-04-12T09:26:33.599Z</time></trkpt><trkpt lat="43.6489978" lon="11.3289997"><ele>271.3333333333333</ele><time>2026-04-12T09:26:35.599Z</time></trkpt><trkpt lat="43.6488929" lon="11.329033"><ele>271.66666666666663</ele><time>2026-04-12T09:26:37.599Z</time></trkpt><trkpt lat="43.6488189" lon="11.3290517"><ele>272.0</ele><time>2026-04-12T09:26:38.599Z</time></trkpt><trkpt lat="43.6487489" lon="11.3290746"><ele>272.3333333333333</ele><time>2026-04-12T09:26:39.6Z</time></trkpt><trkpt lat="43.6486792" lon="11.3290981"><ele>272.6666666666667</ele><time>2026-04-12T09:26:40.6Z</time></trkpt><trkpt lat="43.648571" lon="11.329125"><ele>273.0</ele><time>2026-04-12T09:26:42.6Z</time></trkpt><trkpt lat="43.6484899" lon="11.3291472"><ele>273.0</ele><time>2026-04-12T09:26:44.599Z</time></trkpt><trkpt lat="43.6484216" lon="11.3291729"><ele>273.0</ele><time>2026-04-12T09:26:47.599Z</time></trkpt><trkpt lat="43.6483628" lon="11.3292222"><ele>273.0</ele><time>2026-04-12T09:26:49.599Z</time></trkpt><trkpt lat="43.6482894" lon="11.3293353"><ele>273.0</ele><time>2026-04-12T09:26:51.599Z</time></trkpt><trkpt lat="43.648218" lon="11.3294333"><ele>273.0</ele><time>2026-04-12T09:26:53.599Z</time></trkpt><trkpt lat="43.6481765" lon="11.3295016"><ele>273.0</ele><time>2026-04-12T09:26:55.6Z</time></trkpt><trkpt lat="43.6481319" lon="11.3295976"><ele>273.0</ele><time>2026-04-12T09:26:58.599Z</time></trkpt><trkpt lat="43.6481197" lon="11.3296914"><ele>273.0</ele><time>2026-04-12T09:27:00.599Z</time></trkpt><trkpt lat="43.6481203" lon="11.3297894"><ele>273.0</ele><time>2026-04-12T09:27:02.599Z</time></trkpt><trkpt lat="43.6481114" lon="11.3299017"><ele>273.0</ele><time>2026-04-12T09:27:04.6Z</time></trkpt><trkpt lat="43.6481035" lon="11.3300195"><ele>273.0</ele><time>2026-04-12T09:27:06.6Z</time></trkpt><trkpt lat="43.6480715" lon="11.3301169"><ele>273.0</ele><time>2026-04-12T09:27:08.6Z</time></trkpt><trkpt lat="43.648026" lon="11.3302034"><ele>271.7142857142857</ele><time>2026-04-12T09:27:10.599Z</time></trkpt><trkpt lat="43.6479489" lon="11.3302488"><ele>270.42857142857144</ele><time>2026-04-12T09:27:12.6Z</time></trkpt><trkpt lat="43.6478731" lon="11.3302882"><ele>269.1428571428571</ele><time>2026-04-12T09:27:14.599Z</time></trkpt><trkpt lat="43.6478033" lon="11.3303206"><ele>267.8571428571429</ele><time>2026-04-12T09:27:16.6Z</time></trkpt><trkpt lat="43.6477409" lon="11.3303587"><ele>266.57142857142856</ele><time>2026-04-12T09:27:18.6Z</time></trkpt><trkpt lat="43.6476769" lon="11.3303945"><ele>265.2857142857143</ele><time>2026-04-12T09:27:20.599Z</time></trkpt><trkpt lat="43.647617" lon="11.3304368"><ele>264.0</ele><time>2026-04-12T09:27:27.6Z</time></trkpt><trkpt lat="43.6475518" lon="11.330513"><ele>265.1428571428571</ele><time>2026-04-12T09:27:29.599Z</time></trkpt><trkpt lat="43.6474921" lon="11.3305794"><ele>266.2857142857143</ele><time>2026-04-12T09:27:31.599Z</time></trkpt><trkpt lat="43.6474361" lon="11.3306287"><ele>267.42857142857144</ele><time>2026-04-12T09:27:33.6Z</time></trkpt><trkpt lat="43.647372" lon="11.3306686"><ele>268.57142857142856</ele><time>2026-04-12T09:27:35.6Z</time></trkpt><trkpt lat="43.6473089" lon="11.330713"><ele>269.7142857142857</ele><time>2026-04-12T09:27:37.599Z</time></trkpt><trkpt lat="43.6472602" lon="11.3307751"><ele>270.85714285714283</ele><time>2026-04-12T09:27:39.599Z</time></trkpt><trkpt lat="43.6473077" lon="11.3307149"><ele>272.0</ele><time>2026-04-12T09:28:32.599Z</time></trkpt><trkpt lat="43.6473779" lon="11.3306745"><ele>272.0</ele><time>2026-04-12T09:28:36.599Z</time></trkpt><trkpt lat="43.6474474" lon="11.3306088"><ele>272.0</ele><time>2026-04-12T09:28:38.6Z</time></trkpt><trkpt lat="43.6475191" lon="11.3305234"><ele>272.0</ele><time>2026-04-12T09:28:40.6Z</time></trkpt><trkpt lat="43.6476166" lon="11.3304232"><ele>272.0</ele><time>2026-04-12T09:28:42.599Z</time></trkpt><trkpt lat="43.6476798" lon="11.3303788"><ele>272.0</ele><time>2026-04-12T09:28:43.6Z</time></trkpt><trkpt lat="43.6477397" lon="11.3303358"><ele>272.0</ele><time>2026-04-12T09:28:44.6Z</time></trkpt><trkpt lat="43.647851" lon="11.3302746"><ele>273.99999999999994</ele><time>2026-04-12T09:28:46.599Z</time></trkpt><trkpt lat="43.647912" lon="11.3302484"><ele>276.0</ele><time>2026-04-12T09:28:47.599Z</time></trkpt><trkpt lat="43.6479683" lon="11.3302089"><ele>278.0</ele><time>2026-04-12T09:28:48.6Z</time></trkpt><trkpt lat="43.6480196" lon="11.3301486"><ele>280.0</ele><time>2026-04-12T09:28:49.6Z</time></trkpt><trkpt lat="43.6480629" lon="11.3300801"><ele>282.0</ele><time>2026-04-12T09:28:50.599Z</time></trkpt><trkpt lat="43.6480909" lon="11.3299945"><ele>283.99999999999994</ele><time>2026-04-12T09:28:51.599Z</time></trkpt><trkpt lat="43.6481003" lon="11.329897"><ele>286.0</ele><time>2026-04-12T09:28:52.6Z</time></trkpt><trkpt lat="43.6481063" lon="11.3298011"><ele>283.8333333333333</ele><time>2026-04-12T09:28:53.6Z</time></trkpt><trkpt lat="43.6481078" lon="11.329707"><ele>281.66666666666663</ele><time>2026-04-12T09:28:54.6Z</time></trkpt><trkpt lat="43.6481177" lon="11.3296205"><ele>279.5</ele><time>2026-04-12T09:28:55.599Z</time></trkpt><trkpt lat="43.6481499" lon="11.329539"><ele>277.3333333333333</ele><time>2026-04-12T09:28:56.599Z</time></trkpt><trkpt lat="43.6482236" lon="11.329396"><ele>275.1666666666667</ele><time>2026-04-12T09:28:58.599Z</time></trkpt><trkpt lat="43.6482648" lon="11.3293195"><ele>273.0</ele><time>2026-04-12T09:28:59.6Z</time></trkpt><trkpt lat="43.648311" lon="11.3292539"><ele>273.0</ele><time>2026-04-12T09:29:00.599Z</time></trkpt><trkpt lat="43.6483811" lon="11.3291565"><ele>273.0</ele><time>2026-04-12T09:29:02.599Z</time></trkpt><trkpt lat="43.6484656" lon="11.329102"><ele>273.0</ele><time>2026-04-12T09:29:04.599Z</time></trkpt><trkpt lat="43.648576" lon="11.32906"><ele>273.0</ele><time>2026-04-12T09:29:06.6Z</time></trkpt><trkpt lat="43.6486858" lon="11.3290122"><ele>273.0</ele><time>2026-04-12T09:29:08.6Z</time></trkpt><trkpt lat="43.6487508" lon="11.3289937"><ele>272.6666666666667</ele><time>2026-04-12T09:29:09.599Z</time></trkpt><trkpt lat="43.6488331" lon="11.3289828"><ele>272.3333333333333</ele><time>2026-04-12T09:29:10.599Z</time></trkpt><trkpt lat="43.6489148" lon="11.3289629"><ele>272.0</ele><time>2026-04-12T09:29:11.6Z</time></trkpt><trkpt lat="43.6489965" lon="11.3289392"><ele>271.66666666666663</ele><time>2026-04-12T09:29:12.599Z</time></trkpt><trkpt lat="43.6490595" lon="11.3289046"><ele>271.3333333333333</ele><time>2026-04-12T09:29:13.599Z</time></trkpt><trkpt lat="43.6491253" lon="11.328871"><ele>271.0</ele><time>2026-04-12T09:29:14.6Z</time></trkpt><trkpt lat="43.6491855" lon="11.328837"><ele>271.0</ele><time>2026-04-12T09:29:15.599Z</time></trkpt><trkpt lat="43.6492602" lon="11.3288008"><ele>271.0</ele><time>2026-04-12T09:29:16.599Z</time></trkpt><trkpt lat="43.6493263" lon="11.3287614"><ele>271.0</ele><time>2026-04-12T09:29:17.6Z</time></trkpt><trkpt lat="43.6493974" lon="11.3287079"><ele>271.0</ele><time>2026-04-12T09:29:18.599Z</time></trkpt><trkpt lat="43.649477" lon="11.328646"><ele>271.0</ele><time>2026-04-12T09:29:19.6Z</time></trkpt><trkpt lat="43.6495635" lon="11.3285848"><ele>271.0</ele><time>2026-04-12T09:29:20.599Z</time></trkpt><trkpt lat="43.6496328" lon="11.3285262"><ele>270.0</ele><time>2026-04-12T09:29:21.6Z</time></trkpt><trkpt lat="43.6497006" lon="11.3284658"><ele>269.0</ele><time>2026-04-12T09:29:22.599Z</time></trkpt><trkpt lat="43.6497599" lon="11.3283937"><ele>268.0</ele><time>2026-04-12T09:29:23.6Z</time></trkpt><trkpt lat="43.6498097" lon="11.3283063"><ele>267.0</ele><time>2026-04-12T09:29:24.599Z</time></trkpt><trkpt lat="43.6498444" lon="11.3282143"><ele>266.0</ele><time>2026-04-12T09:29:25.599Z</time></trkpt><trkpt lat="43.6498746" lon="11.3281186"><ele>265.0</ele><time>2026-04-12T09:29:26.599Z</time></trkpt><trkpt lat="43.6499077" lon="11.3280416"><ele>265.0</ele><time>2026-04-12T09:29:27.6Z</time></trkpt><trkpt lat="43.6499987" lon="11.3279249"><ele>265.0</ele><time>2026-04-12T09:29:29.6Z</time></trkpt><trkpt lat="43.650107" lon="11.3278473"><ele>265.0</ele><time>2026-04-12T09:29:31.599Z</time></trkpt><trkpt lat="43.6502304" lon="11.3278347"><ele>265.0</ele><time>2026-04-12T09:29:33.6Z</time></trkpt><trkpt lat="43.6502939" lon="11.3278379"><ele>265.0</ele><time>2026-04-12T09:29:34.599Z</time></trkpt><trkpt lat="43.6504013" lon="11.3278317"><ele>265.5</ele><time>2026-04-12T09:29:36.599Z</time></trkpt><trkpt lat="43.6504821" lon="11.3278"><ele>266.0</ele><time>2026-04-12T09:29:38.6Z</time></trkpt><trkpt lat="43.6505537" lon="11.3277391"><ele>266.5</ele><time>2026-04-12T09:29:40.599Z</time></trkpt><trkpt lat="43.650612" lon="11.3276142"><ele>267.0</ele><time>2026-04-12T09:29:42.599Z</time></trkpt><trkpt lat="43.6506599" lon="11.3275207"><ele>267.5</ele><time>2026-04-12T09:29:44.599Z</time></trkpt><trkpt lat="43.6507082" lon="11.327456"><ele>268.0</ele><time>2026-04-12T09:29:46.6Z</time></trkpt><trkpt lat="43.6507603" lon="11.3273921"><ele>268.0</ele><time>2026-04-12T09:29:48.599Z</time></trkpt><trkpt lat="43.6508029" lon="11.3272875"><ele>268.0</ele><time>2026-04-12T09:29:50.599Z</time></trkpt><trkpt lat="43.6508194" lon="11.3271922"><ele>268.0</ele><time>2026-04-12T09:29:52.599Z</time></trkpt><trkpt lat="43.6508085" lon="11.3273357"><ele>268.0</ele><time>2026-04-12T09:30:00.599Z</time></trkpt><trkpt lat="43.650756" lon="11.3274434"><ele>268.0</ele><time>2026-04-12T09:30:02.599Z</time></trkpt><trkpt lat="43.6506976" lon="11.3275511"><ele>268.0</ele><time>2026-04-12T09:30:04.6Z</time></trkpt><trkpt lat="43.6506449" lon="11.3276625"><ele>268.0</ele><time>2026-04-12T09:30:06.599Z</time></trkpt><trkpt lat="43.6505803" lon="11.3277903"><ele>268.0</ele><time>2026-04-12T09:30:08.599Z</time></trkpt><trkpt lat="43.6505707" lon="11.3278876"><ele>268.0</ele><time>2026-04-12T09:30:09.599Z</time></trkpt><trkpt lat="43.6505253" lon="11.3280141"><ele>268.0</ele><time>2026-04-12T09:30:11.6Z</time></trkpt><trkpt lat="43.6504848" lon="11.3280825"><ele>268.0</ele><time>2026-04-12T09:30:12.599Z</time></trkpt><trkpt lat="43.6504412" lon="11.3281575"><ele>268.4</ele><time>2026-04-12T09:30:13.6Z</time></trkpt><trkpt lat="43.6504018" lon="11.3282286"><ele>268.8</ele><time>2026-04-12T09:30:14.6Z</time></trkpt><trkpt lat="43.6503634" lon="11.3282987"><ele>269.2</ele><time>2026-04-12T09:30:15.599Z</time></trkpt><trkpt lat="43.6502978" lon="11.3284281"><ele>269.6</ele><time>2026-04-12T09:30:17.6Z</time></trkpt><trkpt lat="43.6502244" lon="11.3285438"><ele>270.0</ele><time>2026-04-12T09:30:19.599Z</time></trkpt><trkpt lat="43.6501442" lon="11.3286442"><ele>272.4</ele><time>2026-04-12T09:30:21.6Z</time></trkpt><trkpt lat="43.6500721" lon="11.3287463"><ele>274.8</ele><time>2026-04-12T09:30:23.6Z</time></trkpt><trkpt lat="43.6500095" lon="11.3288233"><ele>277.2</ele><time>2026-04-12T09:30:25.6Z</time></trkpt><trkpt lat="43.6499342" lon="11.3288943"><ele>279.6</ele><time>2026-04-12T09:30:27.6Z</time></trkpt><trkpt lat="43.6498504" lon="11.3290182"><ele>282.0</ele><time>2026-04-12T09:30:29.6Z</time></trkpt><trkpt lat="43.6498028" lon="11.329089"><ele>282.57142857142856</ele><time>2026-04-12T09:30:30.599Z</time></trkpt><trkpt lat="43.6497559" lon="11.3291603"><ele>283.1428571428571</ele><time>2026-04-12T09:30:31.6Z</time></trkpt><trkpt lat="43.6497089" lon="11.3292242"><ele>283.71428571428567</ele><time>2026-04-12T09:30:32.6Z</time></trkpt><trkpt lat="43.6496637" lon="11.3293029"><ele>284.2857142857143</ele><time>2026-04-12T09:30:33.599Z</time></trkpt><trkpt lat="43.6496176" lon="11.3293853"><ele>284.85714285714283</ele><time>2026-04-12T09:30:34.599Z</time></trkpt><trkpt lat="43.6495735" lon="11.3294749"><ele>285.4285714285714</ele><time>2026-04-12T09:30:35.599Z</time></trkpt><trkpt lat="43.6495314" lon="11.3295629"><ele>286.0</ele><time>2026-04-12T09:30:36.599Z</time></trkpt><trkpt lat="43.6494905" lon="11.3296587"><ele>287.99999999999994</ele><time>2026-04-12T09:30:37.6Z</time></trkpt><trkpt lat="43.649456" lon="11.329751"><ele>290.0</ele><time>2026-04-12T09:30:38.599Z</time></trkpt><trkpt lat="43.649417" lon="11.3298458"><ele>292.0</ele><time>2026-04-12T09:30:39.599Z</time></trkpt><trkpt lat="43.6493893" lon="11.3299482"><ele>294.0</ele><time>2026-04-12T09:30:40.6Z</time></trkpt><trkpt lat="43.64937" lon="11.330039"><ele>296.0</ele><time>2026-04-12T09:30:41.6Z</time></trkpt><trkpt lat="43.6493478" lon="11.3301278"><ele>297.99999999999994</ele><time>2026-04-12T09:30:42.6Z</time></trkpt><trkpt lat="43.6493207" lon="11.3302151"><ele>300.0</ele><time>2026-04-12T09:30:43.599Z</time></trkpt><trkpt lat="43.6492566" lon="11.3303487"><ele>300.0</ele><time>2026-04-12T09:30:45.599Z</time></trkpt><trkpt lat="43.6491941" lon="11.3305027"><ele>300.0</ele><time>2026-04-12T09:30:47.599Z</time></trkpt><trkpt lat="43.6491554" lon="11.3305831"><ele>300.0</ele><time>2026-04-12T09:30:48.6Z</time></trkpt><trkpt lat="43.6490862" lon="11.3307147"><ele>300.0</ele><time>2026-04-12T09:30:50.599Z</time></trkpt><trkpt lat="43.6490158" lon="11.3308187"><ele>300.0</ele><time>2026-04-12T09:30:52.599Z</time></trkpt><trkpt lat="43.648962" lon="11.3308741"><ele>299.6666666666667</ele><time>2026-04-12T09:30:54.599Z</time></trkpt><trkpt lat="43.6489167" lon="11.3309786"><ele>299.3333333333333</ele><time>2026-04-12T09:30:58.6Z</time></trkpt><trkpt lat="43.6489125" lon="11.3310789"><ele>299.0</ele><time>2026-04-12T09:31:00.6Z</time></trkpt><trkpt lat="43.6489083" lon="11.3311698"><ele>298.66666666666663</ele><time>2026-04-12T09:31:02.599Z</time></trkpt><trkpt lat="43.6488641" lon="11.3312822"><ele>298.3333333333333</ele><time>2026-04-12T09:31:13.599Z</time></trkpt><trkpt lat="43.6488632" lon="11.331384"><ele>298.0</ele><time>2026-04-12T09:31:16.6Z</time></trkpt><trkpt lat="43.6488566" lon="11.331289"><ele>298.0</ele><time>2026-04-12T09:31:23.599Z</time></trkpt><trkpt lat="43.648926" lon="11.3312857"><ele>298.0</ele><time>2026-04-12T09:31:35.6Z</time></trkpt><trkpt lat="43.6488977" lon="11.33119"><ele>298.0</ele><time>2026-04-12T09:31:58.599Z</time></trkpt><trkpt lat="43.6488888" lon="11.3310883"><ele>298.0</ele><time>2026-04-12T09:32:00.599Z</time></trkpt><trkpt lat="43.6488884" lon="11.3309798"><ele>298.0</ele><time>2026-04-12T09:32:02.6Z</time></trkpt><trkpt lat="43.6489271" lon="11.3308887"><ele>298.0</ele><time>2026-04-12T09:32:04.6Z</time></trkpt><trkpt lat="43.6490128" lon="11.3307888"><ele>298.0</ele><time>2026-04-12T09:32:06.6Z</time></trkpt><trkpt lat="43.6490571" lon="11.3307237"><ele>298.0</ele><time>2026-04-12T09:32:07.599Z</time></trkpt><trkpt lat="43.6490998" lon="11.3306478"><ele>298.0</ele><time>2026-04-12T09:32:08.599Z</time></trkpt><trkpt lat="43.649138" lon="11.3305629"><ele>298.0</ele><time>2026-04-12T09:32:09.599Z</time></trkpt><trkpt lat="43.6491788" lon="11.3304899"><ele>298.0</ele><time>2026-04-12T09:32:10.6Z</time></trkpt><trkpt lat="43.6492173" lon="11.3304169"><ele>298.0</ele><time>2026-04-12T09:32:11.6Z</time></trkpt><trkpt lat="43.649289" lon="11.3302737"><ele>298.3333333333333</ele><time>2026-04-12T09:32:13.6Z</time></trkpt><trkpt lat="43.6493213" lon="11.3301894"><ele>298.66666666666663</ele><time>2026-04-12T09:32:14.6Z</time></trkpt><trkpt lat="43.6493574" lon="11.3300986"><ele>299.0</ele><time>2026-04-12T09:32:15.6Z</time></trkpt><trkpt lat="43.649394" lon="11.3300009"><ele>299.3333333333333</ele><time>2026-04-12T09:32:16.6Z</time></trkpt><trkpt lat="43.6494153" lon="11.3298991"><ele>299.6666666666667</ele><time>2026-04-12T09:32:17.599Z</time></trkpt><trkpt lat="43.6494485" lon="11.329807"><ele>300.0</ele><time>2026-04-12T09:32:18.599Z</time></trkpt><trkpt lat="43.6494911" lon="11.3297063"><ele>297.6666666666667</ele><time>2026-04-12T09:32:19.599Z</time></trkpt><trkpt lat="43.6495305" lon="11.3296043"><ele>295.3333333333333</ele><time>2026-04-12T09:32:20.6Z</time></trkpt><trkpt lat="43.6495697" lon="11.3295122"><ele>293.0</ele><time>2026-04-12T09:32:21.599Z</time></trkpt><trkpt lat="43.649614" lon="11.3294163"><ele>290.66666666666663</ele><time>2026-04-12T09:32:22.599Z</time></trkpt><trkpt lat="43.649657" lon="11.3293298"><ele>288.3333333333333</ele><time>2026-04-12T09:32:23.6Z</time></trkpt><trkpt lat="43.6497005" lon="11.3292415"><ele>286.0</ele><time>2026-04-12T09:32:24.6Z</time></trkpt><trkpt lat="43.6497471" lon="11.3291655"><ele>285.99999999999994</ele><time>2026-04-12T09:32:25.6Z</time></trkpt><trkpt lat="43.6497971" lon="11.3290932"><ele>286.0</ele><time>2026-04-12T09:32:26.6Z</time></trkpt><trkpt lat="43.6498491" lon="11.3290245"><ele>286.0</ele><time>2026-04-12T09:32:27.599Z</time></trkpt><trkpt lat="43.6498979" lon="11.3289513"><ele>286.0</ele><time>2026-04-12T09:32:28.599Z</time></trkpt><trkpt lat="43.6499516" lon="11.3288812"><ele>286.0</ele><time>2026-04-12T09:32:29.599Z</time></trkpt><trkpt lat="43.6500075" lon="11.32882"><ele>285.99999999999994</ele><time>2026-04-12T09:32:30.6Z</time></trkpt><trkpt lat="43.65006" lon="11.3287445"><ele>286.0</ele><time>2026-04-12T09:32:31.599Z</time></trkpt><trkpt lat="43.6501245" lon="11.3286646"><ele>285.2</ele><time>2026-04-12T09:32:32.599Z</time></trkpt><trkpt lat="43.650192" lon="11.328579"><ele>284.40000000000003</ele><time>2026-04-12T09:32:33.599Z</time></trkpt><trkpt lat="43.6502638" lon="11.328499"><ele>283.6</ele><time>2026-04-12T09:32:34.6Z</time></trkpt><trkpt lat="43.6503323" lon="11.328409"><ele>282.8</ele><time>2026-04-12T09:32:35.6Z</time></trkpt><trkpt lat="43.650384" lon="11.3282979"><ele>282.0</ele><time>2026-04-12T09:32:36.6Z</time></trkpt><trkpt lat="43.6504337" lon="11.3281964"><ele>279.6</ele><time>2026-04-12T09:32:37.599Z</time></trkpt><trkpt lat="43.6504765" lon="11.3281142"><ele>277.2</ele><time>2026-04-12T09:32:38.599Z</time></trkpt><trkpt lat="43.650523" lon="11.3280452"><ele>274.8</ele><time>2026-04-12T09:32:39.599Z</time></trkpt><trkpt lat="43.6505809" lon="11.327916"><ele>272.4</ele><time>2026-04-12T09:32:41.599Z</time></trkpt><trkpt lat="43.6505976" lon="11.3277329"><ele>270.0</ele><time>2026-04-12T09:32:43.6Z</time></trkpt><trkpt lat="43.6506332" lon="11.327641"><ele>269.6</ele><time>2026-04-12T09:32:44.599Z</time></trkpt><trkpt lat="43.6506778" lon="11.327542"><ele>269.2</ele><time>2026-04-12T09:32:45.599Z</time></trkpt><trkpt lat="43.6507258" lon="11.3274379"><ele>268.8</ele><time>2026-04-12T09:32:46.599Z</time></trkpt><trkpt lat="43.6507735" lon="11.3273286"><ele>268.4</ele><time>2026-04-12T09:32:47.6Z</time></trkpt><trkpt lat="43.6508166" lon="11.3272107"><ele>268.0</ele><time>2026-04-12T09:32:48.599Z</time></trkpt><trkpt lat="43.6508568" lon="11.3270965"><ele>267.66666666666663</ele><time>2026-04-12T09:32:49.599Z</time></trkpt><trkpt lat="43.6508952" lon="11.3269722"><ele>267.3333333333333</ele><time>2026-04-12T09:32:50.6Z</time></trkpt><trkpt lat="43.650927" lon="11.3268499"><ele>267.0</ele><time>2026-04-12T09:32:51.599Z</time></trkpt><trkpt lat="43.6509614" lon="11.3267427"><ele>266.6666666666667</ele><time>2026-04-12T09:32:52.599Z</time></trkpt><trkpt lat="43.6509945" lon="11.3266393"><ele>266.33333333333337</ele><time>2026-04-12T09:32:53.599Z</time></trkpt><trkpt lat="43.6510392" lon="11.326546"><ele>266.0</ele><time>2026-04-12T09:32:54.599Z</time></trkpt><trkpt lat="43.6511076" lon="11.3264805"><ele>265.83333333333337</ele><time>2026-04-12T09:32:55.599Z</time></trkpt><trkpt lat="43.6511796" lon="11.3264248"><ele>265.6666666666667</ele><time>2026-04-12T09:32:56.6Z</time></trkpt><trkpt lat="43.651247" lon="11.3263633"><ele>265.5</ele><time>2026-04-12T09:32:57.6Z</time></trkpt><trkpt lat="43.6513082" lon="11.3262742"><ele>265.3333333333333</ele><time>2026-04-12T09:32:58.599Z</time></trkpt><trkpt lat="43.6513644" lon="11.3261838"><ele>265.16666666666663</ele><time>2026-04-12T09:32:59.6Z</time></trkpt><trkpt lat="43.6514201" lon="11.3260883"><ele>265.0</ele><time>2026-04-12T09:33:00.6Z</time></trkpt><trkpt lat="43.6514891" lon="11.3259877"><ele>265.0</ele><time>2026-04-12T09:33:01.6Z</time></trkpt><trkpt lat="43.6515616" lon="11.3258973"><ele>265.0</ele><time>2026-04-12T09:33:02.6Z</time></trkpt><trkpt lat="43.6516356" lon="11.3258166"><ele>265.0</ele><time>2026-04-12T09:33:03.599Z</time></trkpt><trkpt lat="43.6517074" lon="11.3257452"><ele>265.0</ele><time>2026-04-12T09:33:04.599Z</time></trkpt><trkpt lat="43.6517893" lon="11.3256948"><ele>265.0</ele><time>2026-04-12T09:33:05.599Z</time></trkpt><trkpt lat="43.651866" lon="11.3256463"><ele>265.0</ele><time>2026-04-12T09:33:06.599Z</time></trkpt><trkpt lat="43.6519358" lon="11.3256004"><ele>265.0</ele><time>2026-04-12T09:33:07.599Z</time></trkpt><trkpt lat="43.6520268" lon="11.3254926"><ele>265.0</ele><time>2026-04-12T09:33:09.599Z</time></trkpt><trkpt lat="43.6520614" lon="11.3253055"><ele>265.0</ele><time>2026-04-12T09:33:11.599Z</time></trkpt><trkpt lat="43.6520803" lon="11.3252018"><ele>265.0</ele><time>2026-04-12T09:33:12.599Z</time></trkpt><trkpt lat="43.652099" lon="11.3250832"><ele>265.2</ele><time>2026-04-12T09:33:13.6Z</time></trkpt><trkpt lat="43.6521157" lon="11.3249604"><ele>265.4</ele><time>2026-04-12T09:33:14.6Z</time></trkpt><trkpt lat="43.6521291" lon="11.3248268"><ele>265.6</ele><time>2026-04-12T09:33:15.599Z</time></trkpt><trkpt lat="43.6521485" lon="11.324701"><ele>265.8</ele><time>2026-04-12T09:33:16.6Z</time></trkpt><trkpt lat="43.6521747" lon="11.3245682"><ele>266.0</ele><time>2026-04-12T09:33:17.6Z</time></trkpt><trkpt lat="43.6522067" lon="11.3244302"><ele>266.0</ele><time>2026-04-12T09:33:18.599Z</time></trkpt><trkpt lat="43.6522366" lon="11.3242929"><ele>266.0</ele><time>2026-04-12T09:33:19.6Z</time></trkpt><trkpt lat="43.6522566" lon="11.3241577"><ele>266.0</ele><time>2026-04-12T09:33:20.599Z</time></trkpt><trkpt lat="43.6522836" lon="11.3240172"><ele>266.0</ele><time>2026-04-12T09:33:21.6Z</time></trkpt><trkpt lat="43.6523077" lon="11.3238959"><ele>266.0</ele><time>2026-04-12T09:33:22.599Z</time></trkpt><trkpt lat="43.6523365" lon="11.3237737"><ele>266.6</ele><time>2026-04-12T09:33:23.599Z</time></trkpt><trkpt lat="43.6523807" lon="11.3236519"><ele>267.20000000000005</ele><time>2026-04-12T09:33:24.599Z</time></trkpt><trkpt lat="43.6524225" lon="11.3235361"><ele>267.79999999999995</ele><time>2026-04-12T09:33:25.599Z</time></trkpt><trkpt lat="43.6524706" lon="11.3234054"><ele>268.4</ele><time>2026-04-12T09:33:26.599Z</time></trkpt><trkpt lat="43.6525146" lon="11.3232705"><ele>269.0</ele><time>2026-04-12T09:33:27.599Z</time></trkpt><trkpt lat="43.6525485" lon="11.3231399"><ele>268.2</ele><time>2026-04-12T09:33:28.599Z</time></trkpt><trkpt lat="43.6525706" lon="11.3230023"><ele>267.4</ele><time>2026-04-12T09:33:29.599Z</time></trkpt><trkpt lat="43.6525869" lon="11.3228737"><ele>266.6</ele><time>2026-04-12T09:33:30.6Z</time></trkpt><trkpt lat="43.6525879" lon="11.3227621"><ele>265.8</ele><time>2026-04-12T09:33:31.6Z</time></trkpt><trkpt lat="43.6525794" lon="11.3226512"><ele>265.0</ele><time>2026-04-12T09:33:32.599Z</time></trkpt><trkpt lat="43.652579" lon="11.3225207"><ele>265.0</ele><time>2026-04-12T09:33:33.599Z</time></trkpt><trkpt lat="43.6525828" lon="11.3223778"><ele>265.0</ele><time>2026-04-12T09:33:34.599Z</time></trkpt><trkpt lat="43.6525902" lon="11.3222457"><ele>265.0</ele><time>2026-04-12T09:33:35.6Z</time></trkpt><trkpt lat="43.6526195" lon="11.3221114"><ele>265.0</ele><time>2026-04-12T09:33:36.6Z</time></trkpt><trkpt lat="43.6526332" lon="11.3219716"><ele>265.0</ele><time>2026-04-12T09:33:37.6Z</time></trkpt><trkpt lat="43.6526526" lon="11.3218436"><ele>264.6</ele><time>2026-04-12T09:33:38.6Z</time></trkpt><trkpt lat="43.6526799" lon="11.3217212"><ele>264.2</ele><time>2026-04-12T09:33:39.599Z</time></trkpt><trkpt lat="43.6527207" lon="11.3215965"><ele>263.8</ele><time>2026-04-12T09:33:40.6Z</time></trkpt><trkpt lat="43.6527738" lon="11.3214709"><ele>263.4</ele><time>2026-04-12T09:33:41.599Z</time></trkpt><trkpt lat="43.6528219" lon="11.3213382"><ele>263.0</ele><time>2026-04-12T09:33:42.599Z</time></trkpt><trkpt lat="43.652858" lon="11.3212032"><ele>263.0</ele><time>2026-04-12T09:33:43.6Z</time></trkpt><trkpt lat="43.6528707" lon="11.3210586"><ele>263.0</ele><time>2026-04-12T09:33:44.599Z</time></trkpt><trkpt lat="43.6528831" lon="11.3209231"><ele>263.0</ele><time>2026-04-12T09:33:45.599Z</time></trkpt><trkpt lat="43.6528835" lon="11.3207869"><ele>263.0</ele><time>2026-04-12T09:33:46.598Z</time></trkpt><trkpt lat="43.6528868" lon="11.3206658"><ele>263.0</ele><time>2026-04-12T09:33:47.599Z</time></trkpt><trkpt lat="43.652907" lon="11.3205496"><ele>261.8</ele><time>2026-04-12T09:33:48.598Z</time></trkpt><trkpt lat="43.652951" lon="11.3204426"><ele>260.6</ele><time>2026-04-12T09:33:49.598Z</time></trkpt><trkpt lat="43.6530132" lon="11.3203352"><ele>259.4</ele><time>2026-04-12T09:33:50.598Z</time></trkpt><trkpt lat="43.653083" lon="11.3202415"><ele>258.2</ele><time>2026-04-12T09:33:51.599Z</time></trkpt><trkpt lat="43.6531464" lon="11.3201439"><ele>257.0</ele><time>2026-04-12T09:33:52.598Z</time></trkpt><trkpt lat="43.6532049" lon="11.3200418"><ele>257.0</ele><time>2026-04-12T09:33:53.598Z</time></trkpt><trkpt lat="43.6532529" lon="11.3199291"><ele>257.0</ele><time>2026-04-12T09:33:54.598Z</time></trkpt><trkpt lat="43.6533051" lon="11.3198223"><ele>257.0</ele><time>2026-04-12T09:33:55.599Z</time></trkpt><trkpt lat="43.6533703" lon="11.3197281"><ele>257.0</ele><time>2026-04-12T09:33:56.598Z</time></trkpt><trkpt lat="43.6534479" lon="11.3196595"><ele>257.0</ele><time>2026-04-12T09:33:57.599Z</time></trkpt><trkpt lat="43.6535333" lon="11.3195918"><ele>256.0</ele><time>2026-04-12T09:33:58.598Z</time></trkpt><trkpt lat="43.6536188" lon="11.3195235"><ele>255.0</ele><time>2026-04-12T09:33:59.599Z</time></trkpt><trkpt lat="43.6536965" lon="11.319442"><ele>254.0</ele><time>2026-04-12T09:34:00.599Z</time></trkpt><trkpt lat="43.6537772" lon="11.3193569"><ele>253.0</ele><time>2026-04-12T09:34:01.599Z</time></trkpt><trkpt lat="43.65386" lon="11.3192736"><ele>252.0</ele><time>2026-04-12T09:34:02.598Z</time></trkpt><trkpt lat="43.6539364" lon="11.3191898"><ele>252.0</ele><time>2026-04-12T09:34:03.599Z</time></trkpt><trkpt lat="43.6540121" lon="11.3191053"><ele>252.0</ele><time>2026-04-12T09:34:04.599Z</time></trkpt><trkpt lat="43.6540836" lon="11.3190218"><ele>252.0</ele><time>2026-04-12T09:34:05.599Z</time></trkpt><trkpt lat="43.6541502" lon="11.3189445"><ele>252.0</ele><time>2026-04-12T09:34:06.598Z</time></trkpt><trkpt lat="43.6542137" lon="11.318873"><ele>252.0</ele><time>2026-04-12T09:34:07.598Z</time></trkpt><trkpt lat="43.6542607" lon="11.3187956"><ele>252.0</ele><time>2026-04-12T09:34:08.598Z</time></trkpt><trkpt lat="43.6542819" lon="11.3186996"><ele>250.83333333333334</ele><time>2026-04-12T09:34:09.598Z</time></trkpt><trkpt lat="43.6543063" lon="11.3186026"><ele>249.66666666666669</ele><time>2026-04-12T09:34:10.598Z</time></trkpt><trkpt lat="43.654322" lon="11.3184958"><ele>248.5</ele><time>2026-04-12T09:34:11.598Z</time></trkpt><trkpt lat="43.654336" lon="11.3183787"><ele>247.33333333333334</ele><time>2026-04-12T09:34:12.598Z</time></trkpt><trkpt lat="43.654348" lon="11.3182691"><ele>246.16666666666669</ele><time>2026-04-12T09:34:13.598Z</time></trkpt><trkpt lat="43.6543605" lon="11.3181517"><ele>245.0</ele><time>2026-04-12T09:34:14.599Z</time></trkpt><trkpt lat="43.6543716" lon="11.3180372"><ele>243.50000000000003</ele><time>2026-04-12T09:34:15.599Z</time></trkpt><trkpt lat="43.6543728" lon="11.3179253"><ele>242.0</ele><time>2026-04-12T09:34:16.599Z</time></trkpt><trkpt lat="43.6543621" lon="11.3178058"><ele>240.5</ele><time>2026-04-12T09:34:17.598Z</time></trkpt><trkpt lat="43.6543513" lon="11.3176923"><ele>239.0</ele><time>2026-04-12T09:34:18.599Z</time></trkpt><trkpt lat="43.6543232" lon="11.3175814"><ele>237.50000000000003</ele><time>2026-04-12T09:34:19.599Z</time></trkpt><trkpt lat="43.6542962" lon="11.3174768"><ele>236.0</ele><time>2026-04-12T09:34:20.598Z</time></trkpt><trkpt lat="43.6542673" lon="11.3173564"><ele>236.00000000000003</ele><time>2026-04-12T09:34:22.598Z</time></trkpt><trkpt lat="43.6543046" lon="11.3172775"><ele>236.0</ele><time>2026-04-12T09:34:24.598Z</time></trkpt><trkpt lat="43.6544365" lon="11.3172392"><ele>236.0</ele><time>2026-04-12T09:34:26.598Z</time></trkpt><trkpt lat="43.6545149" lon="11.3172427"><ele>236.0</ele><time>2026-04-12T09:34:27.599Z</time></trkpt><trkpt lat="43.6545949" lon="11.3172508"><ele>236.00000000000003</ele><time>2026-04-12T09:34:28.598Z</time></trkpt><trkpt lat="43.654677" lon="11.3172514"><ele>236.0</ele><time>2026-04-12T09:34:29.599Z</time></trkpt><trkpt lat="43.654769" lon="11.3172594"><ele>234.66666666666669</ele><time>2026-04-12T09:34:30.598Z</time></trkpt><trkpt lat="43.6548649" lon="11.3172724"><ele>233.33333333333334</ele><time>2026-04-12T09:34:31.599Z</time></trkpt><trkpt lat="43.6549593" lon="11.3172856"><ele>232.0</ele><time>2026-04-12T09:34:32.598Z</time></trkpt><trkpt lat="43.6550388" lon="11.3172884"><ele>230.66666666666669</ele><time>2026-04-12T09:34:33.599Z</time></trkpt><trkpt lat="43.6551149" lon="11.3172864"><ele>229.33333333333334</ele><time>2026-04-12T09:34:34.598Z</time></trkpt><trkpt lat="43.6551785" lon="11.317283"><ele>228.0</ele><time>2026-04-12T09:34:35.598Z</time></trkpt><trkpt lat="43.6552965" lon="11.3172679"><ele>225.2</ele><time>2026-04-12T09:34:37.598Z</time></trkpt><trkpt lat="43.6554155" lon="11.317282"><ele>222.4</ele><time>2026-04-12T09:34:39.599Z</time></trkpt><trkpt lat="43.6554838" lon="11.3172986"><ele>219.59999999999997</ele><time>2026-04-12T09:34:40.599Z</time></trkpt><trkpt lat="43.6555517" lon="11.3173236"><ele>216.79999999999998</ele><time>2026-04-12T09:34:41.599Z</time></trkpt><trkpt lat="43.6556626" lon="11.3174082"><ele>214.0</ele><time>2026-04-12T09:34:43.599Z</time></trkpt><trkpt lat="43.6557159" lon="11.3174645"><ele>214.0</ele><time>2026-04-12T09:34:44.598Z</time></trkpt><trkpt lat="43.6557872" lon="11.3175454"><ele>213.99999999999997</ele><time>2026-04-12T09:34:46.599Z</time></trkpt><trkpt lat="43.6558547" lon="11.3176114"><ele>213.99999999999997</ele><time>2026-04-12T09:34:48.598Z</time></trkpt><trkpt lat="43.6559276" lon="11.3176779"><ele>214.0</ele><time>2026-04-12T09:34:50.598Z</time></trkpt><trkpt lat="43.6560445" lon="11.3177403"><ele>214.0</ele><time>2026-04-12T09:34:52.599Z</time></trkpt><trkpt lat="43.65612" lon="11.3177674"><ele>211.39999999999998</ele><time>2026-04-12T09:34:53.598Z</time></trkpt><trkpt lat="43.6562041" lon="11.3177938"><ele>208.79999999999998</ele><time>2026-04-12T09:34:54.598Z</time></trkpt><trkpt lat="43.6562951" lon="11.3178201"><ele>206.2</ele><time>2026-04-12T09:34:55.599Z</time></trkpt><trkpt lat="43.6564007" lon="11.3178254"><ele>203.60000000000002</ele><time>2026-04-12T09:34:56.598Z</time></trkpt><trkpt lat="43.6565285" lon="11.3178184"><ele>201.0</ele><time>2026-04-12T09:34:57.598Z</time></trkpt><trkpt lat="43.6566543" lon="11.3178116"><ele>201.0</ele><time>2026-04-12T09:34:58.598Z</time></trkpt><trkpt lat="43.6567766" lon="11.3178124"><ele>201.0</ele><time>2026-04-12T09:34:59.599Z</time></trkpt><trkpt lat="43.6569058" lon="11.3178263"><ele>201.0</ele><time>2026-04-12T09:35:00.599Z</time></trkpt><trkpt lat="43.6570312" lon="11.317843"><ele>201.0</ele><time>2026-04-12T09:35:01.598Z</time></trkpt><trkpt lat="43.6571455" lon="11.3178599"><ele>199.4</ele><time>2026-04-12T09:35:02.599Z</time></trkpt><trkpt lat="43.6572544" lon="11.3178927"><ele>197.8</ele><time>2026-04-12T09:35:03.598Z</time></trkpt><trkpt lat="43.6573634" lon="11.3179467"><ele>196.20000000000002</ele><time>2026-04-12T09:35:04.598Z</time></trkpt><trkpt lat="43.6574569" lon="11.3180243"><ele>194.60000000000002</ele><time>2026-04-12T09:35:05.598Z</time></trkpt><trkpt lat="43.6575392" lon="11.3181291"><ele>193.0</ele><time>2026-04-12T09:35:06.599Z</time></trkpt><trkpt lat="43.6576224" lon="11.318252"><ele>192.75</ele><time>2026-04-12T09:35:07.598Z</time></trkpt><trkpt lat="43.6577123" lon="11.3183662"><ele>192.5</ele><time>2026-04-12T09:35:08.598Z</time></trkpt><trkpt lat="43.6578157" lon="11.3184788"><ele>192.25</ele><time>2026-04-12T09:35:09.598Z</time></trkpt><trkpt lat="43.657935" lon="11.3185769"><ele>192.0</ele><time>2026-04-12T09:35:10.598Z</time></trkpt><trkpt lat="43.6580604" lon="11.3186629"><ele>191.0</ele><time>2026-04-12T09:35:11.598Z</time></trkpt><trkpt lat="43.6581878" lon="11.3187393"><ele>190.0</ele><time>2026-04-12T09:35:12.598Z</time></trkpt><trkpt lat="43.6583137" lon="11.3188049"><ele>189.0</ele><time>2026-04-12T09:35:13.598Z</time></trkpt><trkpt lat="43.6584382" lon="11.3188794"><ele>188.0</ele><time>2026-04-12T09:35:14.598Z</time></trkpt><trkpt lat="43.6585587" lon="11.318973"><ele>186.25</ele><time>2026-04-12T09:35:15.599Z</time></trkpt><trkpt lat="43.658678" lon="11.319068"><ele>184.5</ele><time>2026-04-12T09:35:16.599Z</time></trkpt><trkpt lat="43.6587971" lon="11.3191526"><ele>182.75</ele><time>2026-04-12T09:35:17.599Z</time></trkpt><trkpt lat="43.6589159" lon="11.3192274"><ele>181.0</ele><time>2026-04-12T09:35:18.598Z</time></trkpt><trkpt lat="43.6590365" lon="11.3192813"><ele>181.0</ele><time>2026-04-12T09:35:19.598Z</time></trkpt><trkpt lat="43.6591665" lon="11.3193128"><ele>181.0</ele><time>2026-04-12T09:35:20.599Z</time></trkpt><trkpt lat="43.6593001" lon="11.3193262"><ele>181.0</ele><time>2026-04-12T09:35:21.598Z</time></trkpt><trkpt lat="43.6594241" lon="11.3193183"><ele>181.0</ele><time>2026-04-12T09:35:22.598Z</time></trkpt><trkpt lat="43.6595432" lon="11.3193122"><ele>180.25</ele><time>2026-04-12T09:35:23.599Z</time></trkpt><trkpt lat="43.6596578" lon="11.3193257"><ele>179.5</ele><time>2026-04-12T09:35:24.598Z</time></trkpt><trkpt lat="43.6597611" lon="11.3193826"><ele>178.75</ele><time>2026-04-12T09:35:25.599Z</time></trkpt><trkpt lat="43.6598577" lon="11.3194795"><ele>178.0</ele><time>2026-04-12T09:35:26.599Z</time></trkpt><trkpt lat="43.659968" lon="11.319584"><ele>178.0</ele><time>2026-04-12T09:35:27.598Z</time></trkpt><trkpt lat="43.6600946" lon="11.3196638"><ele>178.0</ele><time>2026-04-12T09:35:28.598Z</time></trkpt><trkpt lat="43.6602284" lon="11.3197519"><ele>178.0</ele><time>2026-04-12T09:35:29.598Z</time></trkpt><trkpt lat="43.6603628" lon="11.3198425"><ele>178.0</ele><time>2026-04-12T09:35:30.598Z</time></trkpt><trkpt lat="43.6604812" lon="11.3199321"><ele>175.75</ele><time>2026-04-12T09:35:31.599Z</time></trkpt><trkpt lat="43.660594" lon="11.3200292"><ele>173.5</ele><time>2026-04-12T09:35:32.598Z</time></trkpt><trkpt lat="43.6607078" lon="11.3201005"><ele>171.25</ele><time>2026-04-12T09:35:33.598Z</time></trkpt><trkpt lat="43.6608227" lon="11.3201483"><ele>169.0</ele><time>2026-04-12T09:35:34.598Z</time></trkpt><trkpt lat="43.660944" lon="11.3201691"><ele>169.0</ele><time>2026-04-12T09:35:35.598Z</time></trkpt><trkpt lat="43.6610632" lon="11.3201624"><ele>169.0</ele><time>2026-04-12T09:35:36.598Z</time></trkpt><trkpt lat="43.6611835" lon="11.3201503"><ele>169.0</ele><time>2026-04-12T09:35:37.598Z</time></trkpt><trkpt lat="43.6613055" lon="11.3201302"><ele>169.0</ele><time>2026-04-12T09:35:38.599Z</time></trkpt><trkpt lat="43.6614172" lon="11.3201022"><ele>167.79999999999998</ele><time>2026-04-12T09:35:39.599Z</time></trkpt><trkpt lat="43.661514" lon="11.3200712"><ele>166.6</ele><time>2026-04-12T09:35:40.598Z</time></trkpt><trkpt lat="43.6615882" lon="11.3200683"><ele>165.4</ele><time>2026-04-12T09:35:41.598Z</time></trkpt><trkpt lat="43.661704" lon="11.3201506"><ele>164.2</ele><time>2026-04-12T09:35:43.599Z</time></trkpt><trkpt lat="43.6617331" lon="11.3202458"><ele>163.0</ele><time>2026-04-12T09:35:44.599Z</time></trkpt><trkpt lat="43.6616812" lon="11.320371"><ele>163.0</ele><time>2026-04-12T09:35:45.598Z</time></trkpt><trkpt lat="43.6616217" lon="11.320488"><ele>163.0</ele><time>2026-04-12T09:35:46.598Z</time></trkpt><trkpt lat="43.6615535" lon="11.3206129"><ele>163.0</ele><time>2026-04-12T09:35:47.599Z</time></trkpt><trkpt lat="43.6614889" lon="11.3207253"><ele>163.0</ele><time>2026-04-12T09:35:48.598Z</time></trkpt><trkpt lat="43.6614249" lon="11.320829"><ele>163.0</ele><time>2026-04-12T09:35:49.598Z</time></trkpt><trkpt lat="43.6613688" lon="11.3209244"><ele>162.14285714285714</ele><time>2026-04-12T09:35:50.598Z</time></trkpt><trkpt lat="43.6613528" lon="11.3210241"><ele>161.28571428571428</ele><time>2026-04-12T09:35:51.599Z</time></trkpt><trkpt lat="43.6613655" lon="11.3211147"><ele>160.42857142857142</ele><time>2026-04-12T09:35:52.599Z</time></trkpt><trkpt lat="43.6613996" lon="11.3212087"><ele>159.57142857142856</ele><time>2026-04-12T09:35:53.598Z</time></trkpt><trkpt lat="43.6614384" lon="11.3212867"><ele>158.71428571428572</ele><time>2026-04-12T09:35:54.598Z</time></trkpt><trkpt lat="43.6615023" lon="11.3213324"><ele>157.85714285714283</ele><time>2026-04-12T09:35:55.599Z</time></trkpt><trkpt lat="43.6615779" lon="11.3213428"><ele>157.0</ele><time>2026-04-12T09:35:56.598Z</time></trkpt><trkpt lat="43.6616629" lon="11.3213186"><ele>157.0</ele><time>2026-04-12T09:35:57.598Z</time></trkpt><trkpt lat="43.6617554" lon="11.3212603"><ele>157.0</ele><time>2026-04-12T09:35:58.598Z</time></trkpt><trkpt lat="43.6618612" lon="11.3211813"><ele>157.0</ele><time>2026-04-12T09:35:59.599Z</time></trkpt><trkpt lat="43.6619587" lon="11.3211065"><ele>157.0</ele><time>2026-04-12T09:36:00.598Z</time></trkpt><trkpt lat="43.6620568" lon="11.3210599"><ele>157.0</ele><time>2026-04-12T09:36:01.598Z</time></trkpt><trkpt lat="43.6621673" lon="11.321054"><ele>155.75</ele><time>2026-04-12T09:36:02.599Z</time></trkpt><trkpt lat="43.6622872" lon="11.3210754"><ele>154.5</ele><time>2026-04-12T09:36:03.598Z</time></trkpt><trkpt lat="43.6624095" lon="11.3211349"><ele>153.25</ele><time>2026-04-12T09:36:04.598Z</time></trkpt><trkpt lat="43.662533" lon="11.3211637"><ele>152.0</ele><time>2026-04-12T09:36:05.599Z</time></trkpt><trkpt lat="43.6626438" lon="11.3211715"><ele>152.0</ele><time>2026-04-12T09:36:06.599Z</time></trkpt><trkpt lat="43.662753" lon="11.3211857"><ele>152.0</ele><time>2026-04-12T09:36:07.598Z</time></trkpt><trkpt lat="43.6628651" lon="11.3212069"><ele>152.0</ele><time>2026-04-12T09:36:08.599Z</time></trkpt><trkpt lat="43.6629583" lon="11.3212343"><ele>152.0</ele><time>2026-04-12T09:36:09.599Z</time></trkpt><trkpt lat="43.6630591" lon="11.3212575"><ele>152.0</ele><time>2026-04-12T09:36:10.599Z</time></trkpt><trkpt lat="43.6631572" lon="11.3213107"><ele>151.6</ele><time>2026-04-12T09:36:11.599Z</time></trkpt><trkpt lat="43.6632372" lon="11.3213876"><ele>151.2</ele><time>2026-04-12T09:36:12.599Z</time></trkpt><trkpt lat="43.6633199" lon="11.321452"><ele>150.8</ele><time>2026-04-12T09:36:13.598Z</time></trkpt><trkpt lat="43.663426" lon="11.3214421"><ele>150.4</ele><time>2026-04-12T09:36:14.598Z</time></trkpt><trkpt lat="43.6635261" lon="11.3214035"><ele>150.0</ele><time>2026-04-12T09:36:15.598Z</time></trkpt><trkpt lat="43.6636267" lon="11.3213912"><ele>149.6</ele><time>2026-04-12T09:36:16.599Z</time></trkpt><trkpt lat="43.6637355" lon="11.3213793"><ele>149.2</ele><time>2026-04-12T09:36:17.598Z</time></trkpt><trkpt lat="43.663844" lon="11.3213791"><ele>148.8</ele><time>2026-04-12T09:36:18.599Z</time></trkpt><trkpt lat="43.6639466" lon="11.3213629"><ele>148.4</ele><time>2026-04-12T09:36:19.599Z</time></trkpt><trkpt lat="43.6640613" lon="11.3213511"><ele>148.0</ele><time>2026-04-12T09:36:20.599Z</time></trkpt><trkpt lat="43.6641787" lon="11.3213513"><ele>148.0</ele><time>2026-04-12T09:36:21.599Z</time></trkpt><trkpt lat="43.6643013" lon="11.3213799"><ele>148.0</ele><time>2026-04-12T09:36:22.599Z</time></trkpt><trkpt lat="43.6644195" lon="11.3214097"><ele>148.0</ele><time>2026-04-12T09:36:23.598Z</time></trkpt><trkpt lat="43.6645235" lon="11.3214647"><ele>148.0</ele><time>2026-04-12T09:36:24.599Z</time></trkpt><trkpt lat="43.6646229" lon="11.321538"><ele>148.75</ele><time>2026-04-12T09:36:25.598Z</time></trkpt><trkpt lat="43.6647137" lon="11.3216395"><ele>149.5</ele><time>2026-04-12T09:36:26.599Z</time></trkpt><trkpt lat="43.6647971" lon="11.3217436"><ele>150.25</ele><time>2026-04-12T09:36:27.598Z</time></trkpt><trkpt lat="43.6648875" lon="11.3218567"><ele>151.0</ele><time>2026-04-12T09:36:28.599Z</time></trkpt><trkpt lat="43.6649774" lon="11.3219628"><ele>151.0</ele><time>2026-04-12T09:36:29.598Z</time></trkpt><trkpt lat="43.6650815" lon="11.3220913"><ele>151.0</ele><time>2026-04-12T09:36:30.598Z</time></trkpt><trkpt lat="43.6651782" lon="11.3221974"><ele>151.0</ele><time>2026-04-12T09:36:31.599Z</time></trkpt><trkpt lat="43.6652703" lon="11.3223097"><ele>151.0</ele><time>2026-04-12T09:36:32.599Z</time></trkpt><trkpt lat="43.6653696" lon="11.3224093"><ele>151.0</ele><time>2026-04-12T09:36:33.598Z</time></trkpt><trkpt lat="43.665484" lon="11.3225033"><ele>151.0</ele><time>2026-04-12T09:36:34.599Z</time></trkpt><trkpt lat="43.6655986" lon="11.3225756"><ele>151.0</ele><time>2026-04-12T09:36:35.598Z</time></trkpt><trkpt lat="43.665717" lon="11.3226527"><ele>151.0</ele><time>2026-04-12T09:36:36.598Z</time></trkpt><trkpt lat="43.6658384" lon="11.3227309"><ele>151.0</ele><time>2026-04-12T09:36:37.599Z</time></trkpt><trkpt lat="43.6659518" lon="11.3228019"><ele>151.0</ele><time>2026-04-12T09:36:38.599Z</time></trkpt><trkpt lat="43.6660601" lon="11.3228659"><ele>151.0</ele><time>2026-04-12T09:36:39.599Z</time></trkpt><trkpt lat="43.6661708" lon="11.3229122"><ele>151.0</ele><time>2026-04-12T09:36:40.599Z</time></trkpt><trkpt lat="43.6662748" lon="11.3229436"><ele>151.33333333333334</ele><time>2026-04-12T09:36:41.599Z</time></trkpt><trkpt lat="43.6663754" lon="11.3229728"><ele>151.66666666666669</ele><time>2026-04-12T09:36:42.598Z</time></trkpt><trkpt lat="43.6664641" lon="11.322997"><ele>152.0</ele><time>2026-04-12T09:36:43.598Z</time></trkpt><trkpt lat="43.6665354" lon="11.3230111"><ele>152.33333333333334</ele><time>2026-04-12T09:36:44.599Z</time></trkpt><trkpt lat="43.666619" lon="11.3230154"><ele>152.66666666666666</ele><time>2026-04-12T09:36:46.598Z</time></trkpt><trkpt lat="43.6666995" lon="11.3229748"><ele>153.0</ele><time>2026-04-12T09:36:54.599Z</time></trkpt><trkpt lat="43.6667551" lon="11.3228811"><ele>153.0</ele><time>2026-04-12T09:36:55.598Z</time></trkpt><trkpt lat="43.6667942" lon="11.3227489"><ele>153.0</ele><time>2026-04-12T09:36:56.598Z</time></trkpt><trkpt lat="43.6668108" lon="11.322603"><ele>153.0</ele><time>2026-04-12T09:36:57.599Z</time></trkpt><trkpt lat="43.666832" lon="11.3224402"><ele>153.0</ele><time>2026-04-12T09:36:58.598Z</time></trkpt><trkpt lat="43.6668429" lon="11.3222537"><ele>152.5</ele><time>2026-04-12T09:36:59.598Z</time></trkpt><trkpt lat="43.6668398" lon="11.3220681"><ele>152.0</ele><time>2026-04-12T09:37:00.599Z</time></trkpt><trkpt lat="43.6668283" lon="11.321885"><ele>151.5</ele><time>2026-04-12T09:37:01.598Z</time></trkpt><trkpt lat="43.666807" lon="11.321698"><ele>151.0</ele><time>2026-04-12T09:37:02.598Z</time></trkpt><trkpt lat="43.6667765" lon="11.3215121"><ele>150.75</ele><time>2026-04-12T09:37:03.598Z</time></trkpt><trkpt lat="43.6667317" lon="11.3213194"><ele>150.5</ele><time>2026-04-12T09:37:04.598Z</time></trkpt><trkpt lat="43.66668" lon="11.3211242"><ele>150.25</ele><time>2026-04-12T09:37:05.599Z</time></trkpt><trkpt lat="43.6666366" lon="11.3209256"><ele>150.0</ele><time>2026-04-12T09:37:06.598Z</time></trkpt><trkpt lat="43.666591" lon="11.3207259"><ele>150.0</ele><time>2026-04-12T09:37:07.599Z</time></trkpt><trkpt lat="43.6665442" lon="11.3205286"><ele>150.0</ele><time>2026-04-12T09:37:08.599Z</time></trkpt><trkpt lat="43.6664945" lon="11.3203236"><ele>150.0</ele><time>2026-04-12T09:37:09.598Z</time></trkpt><trkpt lat="43.6664488" lon="11.3201181"><ele>150.0</ele><time>2026-04-12T09:37:10.598Z</time></trkpt><trkpt lat="43.6663995" lon="11.3199155"><ele>150.0</ele><time>2026-04-12T09:37:11.598Z</time></trkpt><trkpt lat="43.6663457" lon="11.3197094"><ele>150.0</ele><time>2026-04-12T09:37:12.599Z</time></trkpt><trkpt lat="43.6662956" lon="11.319497"><ele>150.66666666666666</ele><time>2026-04-12T09:37:13.598Z</time></trkpt><trkpt lat="43.666243" lon="11.3192799"><ele>151.33333333333331</ele><time>2026-04-12T09:37:14.598Z</time></trkpt><trkpt lat="43.666193" lon="11.3190674"><ele>152.0</ele><time>2026-04-12T09:37:15.598Z</time></trkpt><trkpt lat="43.6661392" lon="11.3188483"><ele>150.0</ele><time>2026-04-12T09:37:16.598Z</time></trkpt><trkpt lat="43.6660889" lon="11.3186293"><ele>148.0</ele><time>2026-04-12T09:37:17.598Z</time></trkpt><trkpt lat="43.6660388" lon="11.3184087"><ele>146.0</ele><time>2026-04-12T09:37:18.598Z</time></trkpt><trkpt lat="43.6659842" lon="11.318198"><ele>146.33333333333331</ele><time>2026-04-12T09:37:19.598Z</time></trkpt><trkpt lat="43.6659334" lon="11.3179844"><ele>146.66666666666666</ele><time>2026-04-12T09:37:20.598Z</time></trkpt><trkpt lat="43.6658901" lon="11.3177736"><ele>147.0</ele><time>2026-04-12T09:37:21.599Z</time></trkpt><trkpt lat="43.6658425" lon="11.3175522"><ele>147.0</ele><time>2026-04-12T09:37:22.598Z</time></trkpt><trkpt lat="43.6657889" lon="11.3173274"><ele>147.0</ele><time>2026-04-12T09:37:23.598Z</time></trkpt><trkpt lat="43.6657348" lon="11.3170997"><ele>147.0</ele><time>2026-04-12T09:37:24.598Z</time></trkpt><trkpt lat="43.6656816" lon="11.3168763"><ele>146.66666666666666</ele><time>2026-04-12T09:37:25.598Z</time></trkpt><trkpt lat="43.665626" lon="11.3166486"><ele>146.33333333333331</ele><time>2026-04-12T09:37:26.598Z</time></trkpt><trkpt lat="43.6655703" lon="11.3164205"><ele>146.0</ele><time>2026-04-12T09:37:27.599Z</time></trkpt><trkpt lat="43.6655131" lon="11.3161911"><ele>146.0</ele><time>2026-04-12T09:37:28.599Z</time></trkpt><trkpt lat="43.6654651" lon="11.3159578"><ele>146.0</ele><time>2026-04-12T09:37:29.599Z</time></trkpt><trkpt lat="43.6654161" lon="11.3157351"><ele>146.0</ele><time>2026-04-12T09:37:30.598Z</time></trkpt><trkpt lat="43.6653674" lon="11.3155225"><ele>144.66666666666666</ele><time>2026-04-12T09:37:31.599Z</time></trkpt><trkpt lat="43.6653125" lon="11.3153186"><ele>143.33333333333334</ele><time>2026-04-12T09:37:32.598Z</time></trkpt><trkpt lat="43.6652372" lon="11.3151348"><ele>142.0</ele><time>2026-04-12T09:37:33.598Z</time></trkpt><trkpt lat="43.6651292" lon="11.3149644"><ele>141.66666666666669</ele><time>2026-04-12T09:37:34.598Z</time></trkpt><trkpt lat="43.6649907" lon="11.3148214"><ele>141.33333333333334</ele><time>2026-04-12T09:37:35.599Z</time></trkpt><trkpt lat="43.6648382" lon="11.3147243"><ele>141.0</ele><time>2026-04-12T09:37:36.598Z</time></trkpt><trkpt lat="43.6646733" lon="11.314655"><ele>140.66666666666666</ele><time>2026-04-12T09:37:37.598Z</time></trkpt><trkpt lat="43.6645029" lon="11.3145968"><ele>140.33333333333331</ele><time>2026-04-12T09:37:38.599Z</time></trkpt><trkpt lat="43.664344" lon="11.3145702"><ele>140.0</ele><time>2026-04-12T09:37:39.598Z</time></trkpt><trkpt lat="43.6641942" lon="11.3145511"><ele>141.0</ele><time>2026-04-12T09:37:40.599Z</time></trkpt><trkpt lat="43.6640603" lon="11.3145337"><ele>142.0</ele><time>2026-04-12T09:37:41.599Z</time></trkpt><trkpt lat="43.6639323" lon="11.3145127"><ele>143.0</ele><time>2026-04-12T09:37:42.599Z</time></trkpt><trkpt lat="43.6638103" lon="11.3145086"><ele>144.0</ele><time>2026-04-12T09:37:43.599Z</time></trkpt><trkpt lat="43.663684" lon="11.3145461"><ele>144.5</ele><time>2026-04-12T09:37:44.599Z</time></trkpt><trkpt lat="43.6635568" lon="11.3146171"><ele>145.0</ele><time>2026-04-12T09:37:45.598Z</time></trkpt><trkpt lat="43.6634177" lon="11.3146973"><ele>145.5</ele><time>2026-04-12T09:37:46.598Z</time></trkpt><trkpt lat="43.6632714" lon="11.3147784"><ele>146.0</ele><time>2026-04-12T09:37:47.599Z</time></trkpt><trkpt lat="43.6631206" lon="11.314835"><ele>146.0</ele><time>2026-04-12T09:37:48.599Z</time></trkpt><trkpt lat="43.662959" lon="11.3148435"><ele>146.0</ele><time>2026-04-12T09:37:49.599Z</time></trkpt><trkpt lat="43.6627971" lon="11.3148172"><ele>146.0</ele><time>2026-04-12T09:37:50.599Z</time></trkpt><trkpt lat="43.6626445" lon="11.31476"><ele>150.33333333333331</ele><time>2026-04-12T09:37:51.599Z</time></trkpt><trkpt lat="43.6625003" lon="11.314671"><ele>154.66666666666666</ele><time>2026-04-12T09:37:52.598Z</time></trkpt><trkpt lat="43.6623558" lon="11.314576"><ele>159.0</ele><time>2026-04-12T09:37:53.598Z</time></trkpt><trkpt lat="43.6622185" lon="11.3144804"><ele>159.0</ele><time>2026-04-12T09:37:54.598Z</time></trkpt><trkpt lat="43.6620753" lon="11.3143874"><ele>159.0</ele><time>2026-04-12T09:37:55.599Z</time></trkpt><trkpt lat="43.6619235" lon="11.3142945"><ele>159.0</ele><time>2026-04-12T09:37:56.599Z</time></trkpt><trkpt lat="43.6617717" lon="11.3142115"><ele>158.0</ele><time>2026-04-12T09:37:57.598Z</time></trkpt><trkpt lat="43.6616175" lon="11.31413"><ele>157.0</ele><time>2026-04-12T09:37:58.598Z</time></trkpt><trkpt lat="43.6614643" lon="11.3140574"><ele>156.0</ele><time>2026-04-12T09:37:59.599Z</time></trkpt><trkpt lat="43.6613102" lon="11.3139875"><ele>156.0</ele><time>2026-04-12T09:38:00.598Z</time></trkpt><trkpt lat="43.6611601" lon="11.3139204"><ele>156.0</ele><time>2026-04-12T09:38:01.599Z</time></trkpt><trkpt lat="43.6610183" lon="11.3138726"><ele>156.0</ele><time>2026-04-12T09:38:02.599Z</time></trkpt><trkpt lat="43.6608651" lon="11.3138437"><ele>162.66666666666666</ele><time>2026-04-12T09:38:03.598Z</time></trkpt><trkpt lat="43.660708" lon="11.3138333"><ele>169.33333333333331</ele><time>2026-04-12T09:38:04.599Z</time></trkpt><trkpt lat="43.6605566" lon="11.3138201"><ele>176.0</ele><time>2026-04-12T09:38:05.599Z</time></trkpt><trkpt lat="43.6603957" lon="11.3138085"><ele>175.33333333333331</ele><time>2026-04-12T09:38:06.598Z</time></trkpt><trkpt lat="43.6602291" lon="11.3138008"><ele>174.66666666666666</ele><time>2026-04-12T09:38:07.598Z</time></trkpt><trkpt lat="43.6600655" lon="11.3137861"><ele>174.0</ele><time>2026-04-12T09:38:08.599Z</time></trkpt><trkpt lat="43.6599113" lon="11.3137221"><ele>174.0</ele><time>2026-04-12T09:38:09.598Z</time></trkpt><trkpt lat="43.6597592" lon="11.3136363"><ele>174.0</ele><time>2026-04-12T09:38:10.599Z</time></trkpt><trkpt lat="43.659612" lon="11.3135449"><ele>174.0</ele><time>2026-04-12T09:38:11.598Z</time></trkpt><trkpt lat="43.6594641" lon="11.3134457"><ele>172.33333333333334</ele><time>2026-04-12T09:38:12.598Z</time></trkpt><trkpt lat="43.6593236" lon="11.313342"><ele>170.66666666666669</ele><time>2026-04-12T09:38:13.598Z</time></trkpt><trkpt lat="43.6591892" lon="11.3132379"><ele>169.0</ele><time>2026-04-12T09:38:14.598Z</time></trkpt><trkpt lat="43.659072" lon="11.3131117"><ele>172.66666666666669</ele><time>2026-04-12T09:38:15.598Z</time></trkpt><trkpt lat="43.6589598" lon="11.3129791"><ele>176.33333333333334</ele><time>2026-04-12T09:38:16.598Z</time></trkpt><trkpt lat="43.6588488" lon="11.3128326"><ele>180.0</ele><time>2026-04-12T09:38:17.598Z</time></trkpt><trkpt lat="43.6587415" lon="11.3126864"><ele>180.0</ele><time>2026-04-12T09:38:18.598Z</time></trkpt><trkpt lat="43.6586313" lon="11.3125306"><ele>180.0</ele><time>2026-04-12T09:38:19.598Z</time></trkpt><trkpt lat="43.6585263" lon="11.3123788"><ele>180.0</ele><time>2026-04-12T09:38:20.598Z</time></trkpt><trkpt lat="43.6584222" lon="11.3122216"><ele>181.0</ele><time>2026-04-12T09:38:21.598Z</time></trkpt><trkpt lat="43.6583181" lon="11.312061"><ele>182.0</ele><time>2026-04-12T09:38:22.598Z</time></trkpt><trkpt lat="43.6582142" lon="11.3119048"><ele>183.0</ele><time>2026-04-12T09:38:23.599Z</time></trkpt><trkpt lat="43.6581067" lon="11.3117512"><ele>183.0</ele><time>2026-04-12T09:38:24.598Z</time></trkpt><trkpt lat="43.6580061" lon="11.3115912"><ele>183.0</ele><time>2026-04-12T09:38:25.599Z</time></trkpt><trkpt lat="43.6579323" lon="11.3114135"><ele>183.0</ele><time>2026-04-12T09:38:26.598Z</time></trkpt><trkpt lat="43.6578846" lon="11.3112263"><ele>183.0</ele><time>2026-04-12T09:38:27.598Z</time></trkpt><trkpt lat="43.6578703" lon="11.3110269"><ele>185.75</ele><time>2026-04-12T09:38:28.599Z</time></trkpt><trkpt lat="43.6578539" lon="11.3108402"><ele>188.5</ele><time>2026-04-12T09:38:29.598Z</time></trkpt><trkpt lat="43.6578315" lon="11.3106748"><ele>191.25</ele><time>2026-04-12T09:38:30.599Z</time></trkpt><trkpt lat="43.6577666" lon="11.3105362"><ele>194.0</ele><time>2026-04-12T09:38:31.598Z</time></trkpt><trkpt lat="43.6576789" lon="11.3104287"><ele>194.0</ele><time>2026-04-12T09:38:32.599Z</time></trkpt><trkpt lat="43.6575664" lon="11.3103515"><ele>194.0</ele><time>2026-04-12T09:38:33.598Z</time></trkpt><trkpt lat="43.6574408" lon="11.3103114"><ele>194.0</ele><time>2026-04-12T09:38:34.599Z</time></trkpt><trkpt lat="43.6573045" lon="11.3102806"><ele>194.0</ele><time>2026-04-12T09:38:35.599Z</time></trkpt><trkpt lat="43.6571685" lon="11.3102426"><ele>194.0</ele><time>2026-04-12T09:38:36.598Z</time></trkpt><trkpt lat="43.6570374" lon="11.3101818"><ele>194.0</ele><time>2026-04-12T09:38:37.598Z</time></trkpt><trkpt lat="43.656909" lon="11.3100739"><ele>194.0</ele><time>2026-04-12T09:38:38.599Z</time></trkpt><trkpt lat="43.656778" lon="11.309951"><ele>194.0</ele><time>2026-04-12T09:38:39.598Z</time></trkpt><trkpt lat="43.6566517" lon="11.3098259"><ele>197.33333333333334</ele><time>2026-04-12T09:38:40.598Z</time></trkpt><trkpt lat="43.6565227" lon="11.3097015"><ele>200.66666666666669</ele><time>2026-04-12T09:38:41.598Z</time></trkpt><trkpt lat="43.6563932" lon="11.3095897"><ele>204.0</ele><time>2026-04-12T09:38:42.598Z</time></trkpt><trkpt lat="43.6562515" lon="11.3094847"><ele>202.66666666666669</ele><time>2026-04-12T09:38:43.598Z</time></trkpt><trkpt lat="43.656112" lon="11.3093905"><ele>201.33333333333334</ele><time>2026-04-12T09:38:44.599Z</time></trkpt><trkpt lat="43.6559669" lon="11.3092953"><ele>200.0</ele><time>2026-04-12T09:38:45.598Z</time></trkpt><trkpt lat="43.6558165" lon="11.3092055"><ele>200.0</ele><time>2026-04-12T09:38:46.599Z</time></trkpt><trkpt lat="43.6556626" lon="11.3091201"><ele>200.0</ele><time>2026-04-12T09:38:47.599Z</time></trkpt><trkpt lat="43.6555123" lon="11.3090389"><ele>200.0</ele><time>2026-04-12T09:38:48.599Z</time></trkpt><trkpt lat="43.6553627" lon="11.3089593"><ele>202.5</ele><time>2026-04-12T09:38:49.599Z</time></trkpt><trkpt lat="43.6552158" lon="11.3088907"><ele>205.0</ele><time>2026-04-12T09:38:50.599Z</time></trkpt><trkpt lat="43.6550712" lon="11.308827"><ele>207.5</ele><time>2026-04-12T09:38:51.599Z</time></trkpt><trkpt lat="43.6549362" lon="11.3087681"><ele>210.0</ele><time>2026-04-12T09:38:52.598Z</time></trkpt><trkpt lat="43.6548007" lon="11.3087096"><ele>210.0</ele><time>2026-04-12T09:38:53.598Z</time></trkpt><trkpt lat="43.6546671" lon="11.3086529"><ele>210.0</ele><time>2026-04-12T09:38:54.598Z</time></trkpt><trkpt lat="43.6545386" lon="11.3085999"><ele>210.0</ele><time>2026-04-12T09:38:55.599Z</time></trkpt><trkpt lat="43.6544125" lon="11.3085489"><ele>210.0</ele><time>2026-04-12T09:38:56.598Z</time></trkpt><trkpt lat="43.6542915" lon="11.3084979"><ele>209.75</ele><time>2026-04-12T09:38:57.598Z</time></trkpt><trkpt lat="43.6541751" lon="11.3084412"><ele>209.5</ele><time>2026-04-12T09:38:58.598Z</time></trkpt><trkpt lat="43.6540554" lon="11.3083924"><ele>209.25</ele><time>2026-04-12T09:38:59.598Z</time></trkpt><trkpt lat="43.6539378" lon="11.3083499"><ele>209.0</ele><time>2026-04-12T09:39:00.598Z</time></trkpt><trkpt lat="43.6538204" lon="11.3083083"><ele>209.0</ele><time>2026-04-12T09:39:01.599Z</time></trkpt><trkpt lat="43.6536972" lon="11.3082708"><ele>209.0</ele><time>2026-04-12T09:39:02.599Z</time></trkpt><trkpt lat="43.6535869" lon="11.3082493"><ele>209.0</ele><time>2026-04-12T09:39:03.598Z</time></trkpt><trkpt lat="43.6534821" lon="11.3082277"><ele>209.0</ele><time>2026-04-12T09:39:04.599Z</time></trkpt><trkpt lat="43.6533895" lon="11.3082069"><ele>209.0</ele><time>2026-04-12T09:39:05.598Z</time></trkpt><trkpt lat="43.653297" lon="11.3081864"><ele>209.50000000000003</ele><time>2026-04-12T09:39:06.597Z</time></trkpt><trkpt lat="43.6532104" lon="11.3081783"><ele>210.0</ele><time>2026-04-12T09:39:07.598Z</time></trkpt><trkpt lat="43.6531347" lon="11.3081587"><ele>210.5</ele><time>2026-04-12T09:39:08.599Z</time></trkpt><trkpt lat="43.6530709" lon="11.308135"><ele>211.0</ele><time>2026-04-12T09:39:09.599Z</time></trkpt><trkpt lat="43.6529948" lon="11.3081044"><ele>211.50000000000003</ele><time>2026-04-12T09:39:11.599Z</time></trkpt><trkpt lat="43.6530067" lon="11.3080077"><ele>212.0</ele><time>2026-04-12T09:39:14.599Z</time></trkpt><trkpt lat="43.6531331" lon="11.307945"><ele>213.39999999999998</ele><time>2026-04-12T09:39:16.598Z</time></trkpt><trkpt lat="43.6532073" lon="11.3079026"><ele>214.79999999999998</ele><time>2026-04-12T09:39:17.599Z</time></trkpt><trkpt lat="43.6533112" lon="11.3078444"><ele>216.2</ele><time>2026-04-12T09:39:18.599Z</time></trkpt><trkpt lat="43.6534106" lon="11.3077968"><ele>217.6</ele><time>2026-04-12T09:39:19.598Z</time></trkpt><trkpt lat="43.6535133" lon="11.3077445"><ele>219.0</ele><time>2026-04-12T09:39:20.598Z</time></trkpt><trkpt lat="43.6536265" lon="11.3077042"><ele>219.5</ele><time>2026-04-12T09:39:21.599Z</time></trkpt><trkpt lat="43.6537431" lon="11.3076511"><ele>220.0</ele><time>2026-04-12T09:39:22.598Z</time></trkpt><trkpt lat="43.6538622" lon="11.307604"><ele>220.5</ele><time>2026-04-12T09:39:23.598Z</time></trkpt><trkpt lat="43.6539852" lon="11.3075581"><ele>221.0</ele><time>2026-04-12T09:39:24.598Z</time></trkpt><trkpt lat="43.6541075" lon="11.3075138"><ele>221.0</ele><time>2026-04-12T09:39:25.598Z</time></trkpt><trkpt lat="43.6542322" lon="11.3074701"><ele>221.0</ele><time>2026-04-12T09:39:26.599Z</time></trkpt><trkpt lat="43.6543573" lon="11.3074133"><ele>221.0</ele><time>2026-04-12T09:39:27.599Z</time></trkpt><trkpt lat="43.6544789" lon="11.3073647"><ele>221.0</ele><time>2026-04-12T09:39:28.599Z</time></trkpt><trkpt lat="43.654584" lon="11.3072797"><ele>222.25</ele><time>2026-04-12T09:39:29.599Z</time></trkpt><trkpt lat="43.6546757" lon="11.3071602"><ele>223.5</ele><time>2026-04-12T09:39:30.598Z</time></trkpt><trkpt lat="43.6547532" lon="11.3070052"><ele>224.75</ele><time>2026-04-12T09:39:31.598Z</time></trkpt><trkpt lat="43.6548252" lon="11.3068343"><ele>226.0</ele><time>2026-04-12T09:39:32.599Z</time></trkpt><trkpt lat="43.6549051" lon="11.3066514"><ele>226.0</ele><time>2026-04-12T09:39:33.598Z</time></trkpt><trkpt lat="43.6549971" lon="11.3064746"><ele>226.0</ele><time>2026-04-12T09:39:34.599Z</time></trkpt><trkpt lat="43.6550868" lon="11.3062917"><ele>226.0</ele><time>2026-04-12T09:39:35.599Z</time></trkpt><trkpt lat="43.6551694" lon="11.3060964"><ele>224.66666666666666</ele><time>2026-04-12T09:39:36.599Z</time></trkpt><trkpt lat="43.6552539" lon="11.3058966"><ele>223.33333333333331</ele><time>2026-04-12T09:39:37.598Z</time></trkpt><trkpt lat="43.6553356" lon="11.3056933"><ele>222.0</ele><time>2026-04-12T09:39:38.599Z</time></trkpt><trkpt lat="43.6554125" lon="11.3054905"><ele>225.33333333333331</ele><time>2026-04-12T09:39:39.598Z</time></trkpt><trkpt lat="43.6554879" lon="11.3052792"><ele>228.66666666666666</ele><time>2026-04-12T09:39:40.599Z</time></trkpt><trkpt lat="43.6555545" lon="11.30507"><ele>232.0</ele><time>2026-04-12T09:39:41.599Z</time></trkpt><trkpt lat="43.655612" lon="11.3048628"><ele>232.0</ele><time>2026-04-12T09:39:42.599Z</time></trkpt><trkpt lat="43.6556761" lon="11.3046522"><ele>232.0</ele><time>2026-04-12T09:39:43.599Z</time></trkpt><trkpt lat="43.6557319" lon="11.3044453"><ele>232.0</ele><time>2026-04-12T09:39:44.599Z</time></trkpt><trkpt lat="43.6557859" lon="11.3042397"><ele>232.0</ele><time>2026-04-12T09:39:45.598Z</time></trkpt><trkpt lat="43.6558475" lon="11.3040382"><ele>232.0</ele><time>2026-04-12T09:39:46.599Z</time></trkpt><trkpt lat="43.6558982" lon="11.3038407"><ele>232.0</ele><time>2026-04-12T09:39:47.599Z</time></trkpt><trkpt lat="43.6559572" lon="11.3036462"><ele>233.0</ele><time>2026-04-12T09:39:48.598Z</time></trkpt><trkpt lat="43.656016" lon="11.3034572"><ele>234.0</ele><time>2026-04-12T09:39:49.598Z</time></trkpt><trkpt lat="43.656072" lon="11.3032762"><ele>235.0</ele><time>2026-04-12T09:39:50.599Z</time></trkpt><trkpt lat="43.6561277" lon="11.303087"><ele>236.0</ele><time>2026-04-12T09:39:51.598Z</time></trkpt><trkpt lat="43.6561813" lon="11.3028977"><ele>237.0</ele><time>2026-04-12T09:39:52.599Z</time></trkpt><trkpt lat="43.6562392" lon="11.3027221"><ele>238.0</ele><time>2026-04-12T09:39:53.598Z</time></trkpt><trkpt lat="43.6562998" lon="11.3025524"><ele>239.0</ele><time>2026-04-12T09:39:54.599Z</time></trkpt><trkpt lat="43.6563599" lon="11.3023794"><ele>240.0</ele><time>2026-04-12T09:39:55.599Z</time></trkpt><trkpt lat="43.6564257" lon="11.3022172"><ele>240.0</ele><time>2026-04-12T09:39:56.598Z</time></trkpt><trkpt lat="43.6564971" lon="11.302045"><ele>240.0</ele><time>2026-04-12T09:39:57.598Z</time></trkpt><trkpt lat="43.6565707" lon="11.3018754"><ele>240.0</ele><time>2026-04-12T09:39:58.599Z</time></trkpt><trkpt lat="43.6566475" lon="11.3017049"><ele>240.0</ele><time>2026-04-12T09:39:59.598Z</time></trkpt><trkpt lat="43.6567177" lon="11.3015484"><ele>238.75</ele><time>2026-04-12T09:40:00.599Z</time></trkpt><trkpt lat="43.6567776" lon="11.3013931"><ele>237.5</ele><time>2026-04-12T09:40:01.599Z</time></trkpt><trkpt lat="43.6568394" lon="11.3012454"><ele>236.25</ele><time>2026-04-12T09:40:02.599Z</time></trkpt><trkpt lat="43.6568985" lon="11.3011083"><ele>235.0</ele><time>2026-04-12T09:40:03.598Z</time></trkpt><trkpt lat="43.6569609" lon="11.3009845"><ele>235.0</ele><time>2026-04-12T09:40:04.599Z</time></trkpt><trkpt lat="43.6570198" lon="11.3008617"><ele>235.0</ele><time>2026-04-12T09:40:05.598Z</time></trkpt><trkpt lat="43.6570798" lon="11.3007396"><ele>235.0</ele><time>2026-04-12T09:40:06.599Z</time></trkpt><trkpt lat="43.657131" lon="11.3006238"><ele>235.0</ele><time>2026-04-12T09:40:07.599Z</time></trkpt><trkpt lat="43.657177" lon="11.3005122"><ele>235.0</ele><time>2026-04-12T09:40:08.598Z</time></trkpt><trkpt lat="43.6572239" lon="11.300409"><ele>235.6</ele><time>2026-04-12T09:40:09.598Z</time></trkpt><trkpt lat="43.6572681" lon="11.3003104"><ele>236.2</ele><time>2026-04-12T09:40:10.599Z</time></trkpt><trkpt lat="43.6573059" lon="11.3002224"><ele>236.8</ele><time>2026-04-12T09:40:11.598Z</time></trkpt><trkpt lat="43.6573222" lon="11.300098"><ele>237.4</ele><time>2026-04-12T09:40:13.598Z</time></trkpt><trkpt lat="43.6572449" lon="11.3000315"><ele>238.0</ele><time>2026-04-12T09:40:15.599Z</time></trkpt><trkpt lat="43.6571398" lon="11.299924"><ele>238.0</ele><time>2026-04-12T09:40:17.599Z</time></trkpt><trkpt lat="43.6570715" lon="11.2998665"><ele>238.0</ele><time>2026-04-12T09:40:18.599Z</time></trkpt><trkpt lat="43.6570003" lon="11.2998129"><ele>238.0</ele><time>2026-04-12T09:40:19.598Z</time></trkpt><trkpt lat="43.6569222" lon="11.2997523"><ele>238.0</ele><time>2026-04-12T09:40:20.598Z</time></trkpt><trkpt lat="43.6568379" lon="11.2996814"><ele>238.0</ele><time>2026-04-12T09:40:21.599Z</time></trkpt><trkpt lat="43.6567512" lon="11.2996107"><ele>235.25</ele><time>2026-04-12T09:40:22.599Z</time></trkpt><trkpt lat="43.6566547" lon="11.2995429"><ele>232.5</ele><time>2026-04-12T09:40:23.598Z</time></trkpt><trkpt lat="43.6565579" lon="11.2994685"><ele>229.75</ele><time>2026-04-12T09:40:24.599Z</time></trkpt><trkpt lat="43.6564597" lon="11.2993853"><ele>227.0</ele><time>2026-04-12T09:40:25.598Z</time></trkpt><trkpt lat="43.6563583" lon="11.2992885"><ele>227.0</ele><time>2026-04-12T09:40:26.599Z</time></trkpt><trkpt lat="43.6562646" lon="11.2991855"><ele>227.0</ele><time>2026-04-12T09:40:27.599Z</time></trkpt><trkpt lat="43.656188" lon="11.2990848"><ele>227.0</ele><time>2026-04-12T09:40:28.599Z</time></trkpt><trkpt lat="43.6561124" lon="11.2989834"><ele>227.0</ele><time>2026-04-12T09:40:29.599Z</time></trkpt><trkpt lat="43.6560455" lon="11.2988969"><ele>227.0</ele><time>2026-04-12T09:40:30.599Z</time></trkpt><trkpt lat="43.6559784" lon="11.2988231"><ele>223.66666666666669</ele><time>2026-04-12T09:40:31.598Z</time></trkpt><trkpt lat="43.6559053" lon="11.2987113"><ele>220.33333333333334</ele><time>2026-04-12T09:40:33.598Z</time></trkpt><trkpt lat="43.6558532" lon="11.2986362"><ele>217.0</ele><time>2026-04-12T09:40:36.598Z</time></trkpt><trkpt lat="43.6557752" lon="11.2986374"><ele>213.66666666666669</ele><time>2026-04-12T09:40:38.598Z</time></trkpt><trkpt lat="43.6557234" lon="11.2986991"><ele>210.33333333333334</ele><time>2026-04-12T09:40:39.599Z</time></trkpt><trkpt lat="43.6556651" lon="11.2987757"><ele>207.0</ele><time>2026-04-12T09:40:40.598Z</time></trkpt><trkpt lat="43.6556008" lon="11.2988671"><ele>207.5</ele><time>2026-04-12T09:40:41.598Z</time></trkpt><trkpt lat="43.6555196" lon="11.2989712"><ele>208.0</ele><time>2026-04-12T09:40:42.599Z</time></trkpt><trkpt lat="43.6554251" lon="11.2990846"><ele>208.5</ele><time>2026-04-12T09:40:43.598Z</time></trkpt><trkpt lat="43.6553355" lon="11.2992038"><ele>209.0</ele><time>2026-04-12T09:40:44.598Z</time></trkpt><trkpt lat="43.6552415" lon="11.2993176"><ele>209.0</ele><time>2026-04-12T09:40:45.599Z</time></trkpt><trkpt lat="43.655144" lon="11.2994421"><ele>209.0</ele><time>2026-04-12T09:40:46.598Z</time></trkpt><trkpt lat="43.655046" lon="11.2995649"><ele>209.0</ele><time>2026-04-12T09:40:47.599Z</time></trkpt><trkpt lat="43.6549469" lon="11.2996931"><ele>209.0</ele><time>2026-04-12T09:40:48.598Z</time></trkpt><trkpt lat="43.6548499" lon="11.2998236"><ele>208.5</ele><time>2026-04-12T09:40:49.599Z</time></trkpt><trkpt lat="43.6547513" lon="11.2999571"><ele>208.0</ele><time>2026-04-12T09:40:50.599Z</time></trkpt><trkpt lat="43.6546431" lon="11.3000854"><ele>207.5</ele><time>2026-04-12T09:40:51.599Z</time></trkpt><trkpt lat="43.6545332" lon="11.3002034"><ele>207.0</ele><time>2026-04-12T09:40:52.598Z</time></trkpt><trkpt lat="43.6544269" lon="11.3003253"><ele>207.0</ele><time>2026-04-12T09:40:53.598Z</time></trkpt><trkpt lat="43.6543274" lon="11.3004524"><ele>207.0</ele><time>2026-04-12T09:40:54.599Z</time></trkpt><trkpt lat="43.6542391" lon="11.300589"><ele>207.0</ele><time>2026-04-12T09:40:55.599Z</time></trkpt><trkpt lat="43.6541551" lon="11.3007433"><ele>207.0</ele><time>2026-04-12T09:40:56.599Z</time></trkpt><trkpt lat="43.6540757" lon="11.3009117"><ele>208.66666666666669</ele><time>2026-04-12T09:40:57.598Z</time></trkpt><trkpt lat="43.6540088" lon="11.3011014"><ele>210.33333333333334</ele><time>2026-04-12T09:40:58.598Z</time></trkpt><trkpt lat="43.6539475" lon="11.3013129"><ele>212.0</ele><time>2026-04-12T09:40:59.598Z</time></trkpt><trkpt lat="43.6538969" lon="11.3015298"><ele>213.0</ele><time>2026-04-12T09:41:00.598Z</time></trkpt><trkpt lat="43.6538557" lon="11.3017492"><ele>214.0</ele><time>2026-04-12T09:41:01.599Z</time></trkpt><trkpt lat="43.6538248" lon="11.3019593"><ele>215.0</ele><time>2026-04-12T09:41:02.598Z</time></trkpt><trkpt lat="43.6537934" lon="11.3021674"><ele>215.5</ele><time>2026-04-12T09:41:03.599Z</time></trkpt><trkpt lat="43.6537602" lon="11.3023676"><ele>216.0</ele><time>2026-04-12T09:41:04.598Z</time></trkpt><trkpt lat="43.6537272" lon="11.3025623"><ele>216.5</ele><time>2026-04-12T09:41:05.598Z</time></trkpt><trkpt lat="43.6536972" lon="11.3027558"><ele>217.0</ele><time>2026-04-12T09:41:06.598Z</time></trkpt><trkpt lat="43.6536698" lon="11.3029386"><ele>215.25</ele><time>2026-04-12T09:41:07.599Z</time></trkpt><trkpt lat="43.653641" lon="11.3031185"><ele>213.5</ele><time>2026-04-12T09:41:08.599Z</time></trkpt><trkpt lat="43.653611" lon="11.3033137"><ele>211.75</ele><time>2026-04-12T09:41:09.599Z</time></trkpt><trkpt lat="43.653578" lon="11.3035236"><ele>210.0</ele><time>2026-04-12T09:41:10.598Z</time></trkpt><trkpt lat="43.653543" lon="11.3037417"><ele>207.0</ele><time>2026-04-12T09:41:11.599Z</time></trkpt><trkpt lat="43.653502" lon="11.3039714"><ele>204.0</ele><time>2026-04-12T09:41:12.598Z</time></trkpt><trkpt lat="43.6534527" lon="11.3042022"><ele>201.0</ele><time>2026-04-12T09:41:13.599Z</time></trkpt><trkpt lat="43.6533963" lon="11.3044327"><ele>201.0</ele><time>2026-04-12T09:41:14.598Z</time></trkpt><trkpt lat="43.6533291" lon="11.3046657"><ele>201.0</ele><time>2026-04-12T09:41:15.599Z</time></trkpt><trkpt lat="43.6532514" lon="11.304898"><ele>201.0</ele><time>2026-04-12T09:41:16.599Z</time></trkpt><trkpt lat="43.6531654" lon="11.3051335"><ele>203.33333333333331</ele><time>2026-04-12T09:41:17.599Z</time></trkpt><trkpt lat="43.653085" lon="11.3053757"><ele>205.66666666666666</ele><time>2026-04-12T09:41:18.598Z</time></trkpt><trkpt lat="43.6530042" lon="11.3056143"><ele>208.0</ele><time>2026-04-12T09:41:19.599Z</time></trkpt><trkpt lat="43.6529233" lon="11.305852"><ele>208.66666666666666</ele><time>2026-04-12T09:41:20.599Z</time></trkpt><trkpt lat="43.6528405" lon="11.306095"><ele>209.33333333333331</ele><time>2026-04-12T09:41:21.599Z</time></trkpt><trkpt lat="43.6527566" lon="11.3063338"><ele>210.0</ele><time>2026-04-12T09:41:22.598Z</time></trkpt><trkpt lat="43.6526739" lon="11.3065778"><ele>210.0</ele><time>2026-04-12T09:41:23.598Z</time></trkpt><trkpt lat="43.6525918" lon="11.3068182"><ele>210.0</ele><time>2026-04-12T09:41:24.598Z</time></trkpt><trkpt lat="43.6525126" lon="11.3070552"><ele>210.0</ele><time>2026-04-12T09:41:25.598Z</time></trkpt><trkpt lat="43.6524271" lon="11.3072894"><ele>211.0</ele><time>2026-04-12T09:41:26.599Z</time></trkpt><trkpt lat="43.6523352" lon="11.3075071"><ele>212.0</ele><time>2026-04-12T09:41:27.599Z</time></trkpt><trkpt lat="43.6522514" lon="11.3077151"><ele>213.0</ele><time>2026-04-12T09:41:28.599Z</time></trkpt><trkpt lat="43.6521626" lon="11.3079178"><ele>213.33333333333331</ele><time>2026-04-12T09:41:29.598Z</time></trkpt><trkpt lat="43.652076" lon="11.3081104"><ele>213.66666666666666</ele><time>2026-04-12T09:41:30.599Z</time></trkpt><trkpt lat="43.6519807" lon="11.3083044"><ele>214.0</ele><time>2026-04-12T09:41:31.598Z</time></trkpt><trkpt lat="43.6518789" lon="11.3084929"><ele>214.0</ele><time>2026-04-12T09:41:32.598Z</time></trkpt><trkpt lat="43.6517581" lon="11.3086764"><ele>214.0</ele><time>2026-04-12T09:41:33.599Z</time></trkpt><trkpt lat="43.6516375" lon="11.3088482"><ele>214.0</ele><time>2026-04-12T09:41:34.598Z</time></trkpt><trkpt lat="43.6515094" lon="11.308998"><ele>214.33333333333331</ele><time>2026-04-12T09:41:35.598Z</time></trkpt><trkpt lat="43.6513659" lon="11.3091404"><ele>214.66666666666669</ele><time>2026-04-12T09:41:36.599Z</time></trkpt><trkpt lat="43.6512225" lon="11.3092749"><ele>215.0</ele><time>2026-04-12T09:41:37.598Z</time></trkpt><trkpt lat="43.6510785" lon="11.3094113"><ele>216.0</ele><time>2026-04-12T09:41:38.599Z</time></trkpt><trkpt lat="43.6509363" lon="11.3095472"><ele>217.0</ele><time>2026-04-12T09:41:39.598Z</time></trkpt><trkpt lat="43.6507956" lon="11.3096771"><ele>218.0</ele><time>2026-04-12T09:41:40.598Z</time></trkpt><trkpt lat="43.6506585" lon="11.3098065"><ele>218.66666666666669</ele><time>2026-04-12T09:41:41.598Z</time></trkpt><trkpt lat="43.6505127" lon="11.3099338"><ele>219.33333333333331</ele><time>2026-04-12T09:41:42.598Z</time></trkpt><trkpt lat="43.6503721" lon="11.3100637"><ele>220.0</ele><time>2026-04-12T09:41:43.598Z</time></trkpt><trkpt lat="43.6502327" lon="11.3101935"><ele>220.66666666666666</ele><time>2026-04-12T09:41:44.599Z</time></trkpt><trkpt lat="43.6500901" lon="11.3103219"><ele>221.33333333333331</ele><time>2026-04-12T09:41:45.598Z</time></trkpt><trkpt lat="43.649947" lon="11.310452"><ele>222.0</ele><time>2026-04-12T09:41:46.599Z</time></trkpt><trkpt lat="43.6498044" lon="11.3105768"><ele>223.0</ele><time>2026-04-12T09:41:47.599Z</time></trkpt><trkpt lat="43.6496746" lon="11.3106924"><ele>224.0</ele><time>2026-04-12T09:41:48.599Z</time></trkpt><trkpt lat="43.6495456" lon="11.3107949"><ele>225.0</ele><time>2026-04-12T09:41:49.599Z</time></trkpt><trkpt lat="43.6494185" lon="11.310871"><ele>226.0</ele><time>2026-04-12T09:41:50.598Z</time></trkpt><trkpt lat="43.6492857" lon="11.3109142"><ele>226.66666666666666</ele><time>2026-04-12T09:41:51.599Z</time></trkpt><trkpt lat="43.6491442" lon="11.3109435"><ele>227.33333333333331</ele><time>2026-04-12T09:41:52.598Z</time></trkpt><trkpt lat="43.6489954" lon="11.3109659"><ele>228.0</ele><time>2026-04-12T09:41:53.599Z</time></trkpt><trkpt lat="43.6488393" lon="11.3109942"><ele>228.0</ele><time>2026-04-12T09:41:54.598Z</time></trkpt><trkpt lat="43.6486867" lon="11.3110279"><ele>228.0</ele><time>2026-04-12T09:41:55.599Z</time></trkpt><trkpt lat="43.6485348" lon="11.3110618"><ele>228.0</ele><time>2026-04-12T09:41:56.598Z</time></trkpt><trkpt lat="43.6483849" lon="11.3110947"><ele>229.0</ele><time>2026-04-12T09:41:57.599Z</time></trkpt><trkpt lat="43.64824" lon="11.3111242"><ele>230.0</ele><time>2026-04-12T09:41:58.598Z</time></trkpt><trkpt lat="43.6480913" lon="11.3111486"><ele>231.0</ele><time>2026-04-12T09:41:59.599Z</time></trkpt><trkpt lat="43.6479402" lon="11.3111798"><ele>232.0</ele><time>2026-04-12T09:42:00.598Z</time></trkpt><trkpt lat="43.6477972" lon="11.3112175"><ele>233.33333333333331</ele><time>2026-04-12T09:42:01.599Z</time></trkpt><trkpt lat="43.6476508" lon="11.3112539"><ele>234.66666666666669</ele><time>2026-04-12T09:42:02.599Z</time></trkpt><trkpt lat="43.6475008" lon="11.3113022"><ele>236.0</ele><time>2026-04-12T09:42:03.599Z</time></trkpt><trkpt lat="43.6473548" lon="11.3113515"><ele>236.0</ele><time>2026-04-12T09:42:04.598Z</time></trkpt><trkpt lat="43.6472101" lon="11.3114049"><ele>236.0</ele><time>2026-04-12T09:42:05.598Z</time></trkpt><trkpt lat="43.6470665" lon="11.3114502"><ele>236.0</ele><time>2026-04-12T09:42:06.598Z</time></trkpt><trkpt lat="43.6469235" lon="11.3114945"><ele>236.0</ele><time>2026-04-12T09:42:07.599Z</time></trkpt><trkpt lat="43.6467793" lon="11.3115438"><ele>238.25</ele><time>2026-04-12T09:42:08.598Z</time></trkpt><trkpt lat="43.6466357" lon="11.3115898"><ele>240.5</ele><time>2026-04-12T09:42:09.598Z</time></trkpt><trkpt lat="43.6464965" lon="11.3116455"><ele>242.75</ele><time>2026-04-12T09:42:10.598Z</time></trkpt><trkpt lat="43.6463555" lon="11.3116989"><ele>245.0</ele><time>2026-04-12T09:42:11.599Z</time></trkpt><trkpt lat="43.6462165" lon="11.3117561"><ele>244.5</ele><time>2026-04-12T09:42:12.598Z</time></trkpt><trkpt lat="43.6460768" lon="11.311818"><ele>244.0</ele><time>2026-04-12T09:42:13.599Z</time></trkpt><trkpt lat="43.6459405" lon="11.3118817"><ele>243.5</ele><time>2026-04-12T09:42:14.598Z</time></trkpt><trkpt lat="43.6458028" lon="11.3119479"><ele>243.0</ele><time>2026-04-12T09:42:15.599Z</time></trkpt><trkpt lat="43.6456647" lon="11.3120151"><ele>243.0</ele><time>2026-04-12T09:42:16.599Z</time></trkpt><trkpt lat="43.6455218" lon="11.312073"><ele>243.0</ele><time>2026-04-12T09:42:17.599Z</time></trkpt><trkpt lat="43.6453813" lon="11.3121273"><ele>243.0</ele><time>2026-04-12T09:42:18.598Z</time></trkpt><trkpt lat="43.6452342" lon="11.3121606"><ele>243.0</ele><time>2026-04-12T09:42:19.599Z</time></trkpt><trkpt lat="43.6450789" lon="11.3121834"><ele>243.0</ele><time>2026-04-12T09:42:20.598Z</time></trkpt><trkpt lat="43.6449301" lon="11.3122079"><ele>243.0</ele><time>2026-04-12T09:42:21.599Z</time></trkpt><trkpt lat="43.6447747" lon="11.312235"><ele>243.0</ele><time>2026-04-12T09:42:22.599Z</time></trkpt><trkpt lat="43.6446225" lon="11.3122604"><ele>244.66666666666669</ele><time>2026-04-12T09:42:23.599Z</time></trkpt><trkpt lat="43.6444709" lon="11.3122805"><ele>246.33333333333334</ele><time>2026-04-12T09:42:24.598Z</time></trkpt><trkpt lat="43.6443255" lon="11.3123113"><ele>248.0</ele><time>2026-04-12T09:42:25.598Z</time></trkpt><trkpt lat="43.644176" lon="11.3123397"><ele>249.25</ele><time>2026-04-12T09:42:26.598Z</time></trkpt><trkpt lat="43.6440267" lon="11.3123676"><ele>250.5</ele><time>2026-04-12T09:42:27.598Z</time></trkpt><trkpt lat="43.6438794" lon="11.3123944"><ele>251.75</ele><time>2026-04-12T09:42:28.598Z</time></trkpt><trkpt lat="43.6437402" lon="11.3124127"><ele>253.0</ele><time>2026-04-12T09:42:29.599Z</time></trkpt><trkpt lat="43.6435955" lon="11.3124334"><ele>253.25</ele><time>2026-04-12T09:42:30.598Z</time></trkpt><trkpt lat="43.6434481" lon="11.3124595"><ele>253.5</ele><time>2026-04-12T09:42:31.598Z</time></trkpt><trkpt lat="43.6433034" lon="11.3124857"><ele>253.75</ele><time>2026-04-12T09:42:32.599Z</time></trkpt><trkpt lat="43.6431646" lon="11.3125079"><ele>254.0</ele><time>2026-04-12T09:42:33.598Z</time></trkpt><trkpt lat="43.6430318" lon="11.3125344"><ele>254.0</ele><time>2026-04-12T09:42:34.599Z</time></trkpt><trkpt lat="43.6428972" lon="11.3125554"><ele>254.0</ele><time>2026-04-12T09:42:35.599Z</time></trkpt><trkpt lat="43.6427592" lon="11.3125857"><ele>254.0</ele><time>2026-04-12T09:42:36.599Z</time></trkpt><trkpt lat="43.6426121" lon="11.3126163"><ele>254.0</ele><time>2026-04-12T09:42:37.599Z</time></trkpt><trkpt lat="43.6424592" lon="11.3126418"><ele>255.66666666666669</ele><time>2026-04-12T09:42:38.598Z</time></trkpt><trkpt lat="43.6423064" lon="11.3126665"><ele>257.3333333333333</ele><time>2026-04-12T09:42:39.599Z</time></trkpt><trkpt lat="43.6421575" lon="11.3126902"><ele>259.0</ele><time>2026-04-12T09:42:40.598Z</time></trkpt><trkpt lat="43.6420087" lon="11.3127174"><ele>260.75</ele><time>2026-04-12T09:42:41.598Z</time></trkpt><trkpt lat="43.6418595" lon="11.312732"><ele>262.5</ele><time>2026-04-12T09:42:42.599Z</time></trkpt><trkpt lat="43.6417131" lon="11.3127451"><ele>264.25</ele><time>2026-04-12T09:42:43.598Z</time></trkpt><trkpt lat="43.6415659" lon="11.3127641"><ele>266.0</ele><time>2026-04-12T09:42:44.599Z</time></trkpt><trkpt lat="43.6414183" lon="11.312799"><ele>266.0</ele><time>2026-04-12T09:42:45.599Z</time></trkpt><trkpt lat="43.6412678" lon="11.3128362"><ele>266.0</ele><time>2026-04-12T09:42:46.599Z</time></trkpt><trkpt lat="43.6411203" lon="11.3128908"><ele>266.0</ele><time>2026-04-12T09:42:47.599Z</time></trkpt><trkpt lat="43.6409809" lon="11.3129756"><ele>267.33333333333337</ele><time>2026-04-12T09:42:48.599Z</time></trkpt><trkpt lat="43.6408312" lon="11.3130726"><ele>268.6666666666667</ele><time>2026-04-12T09:42:49.598Z</time></trkpt><trkpt lat="43.640685" lon="11.3131571"><ele>270.0</ele><time>2026-04-12T09:42:50.598Z</time></trkpt><trkpt lat="43.640538" lon="11.3132225"><ele>270.0</ele><time>2026-04-12T09:42:51.598Z</time></trkpt><trkpt lat="43.6403853" lon="11.3132679"><ele>270.0</ele><time>2026-04-12T09:42:52.598Z</time></trkpt><trkpt lat="43.6402241" lon="11.3132928"><ele>270.0</ele><time>2026-04-12T09:42:53.598Z</time></trkpt><trkpt lat="43.6400778" lon="11.3133034"><ele>271.6</ele><time>2026-04-12T09:42:54.598Z</time></trkpt><trkpt lat="43.6399643" lon="11.3133224"><ele>273.2</ele><time>2026-04-12T09:42:55.598Z</time></trkpt><trkpt lat="43.6398634" lon="11.3133397"><ele>274.8</ele><time>2026-04-12T09:42:56.598Z</time></trkpt><trkpt lat="43.6397591" lon="11.3133482"><ele>276.4</ele><time>2026-04-12T09:42:57.599Z</time></trkpt><trkpt lat="43.639669" lon="11.3133646"><ele>278.0</ele><time>2026-04-12T09:42:58.599Z</time></trkpt><trkpt lat="43.6395788" lon="11.3133833"><ele>278.0</ele><time>2026-04-12T09:42:59.599Z</time></trkpt><trkpt lat="43.6394961" lon="11.3134011"><ele>278.0</ele><time>2026-04-12T09:43:00.598Z</time></trkpt><trkpt lat="43.6394122" lon="11.313426"><ele>278.0</ele><time>2026-04-12T09:43:01.598Z</time></trkpt><trkpt lat="43.6393206" lon="11.3134546"><ele>278.0</ele><time>2026-04-12T09:43:02.598Z</time></trkpt><trkpt lat="43.6392201" lon="11.3134869"><ele>278.0</ele><time>2026-04-12T09:43:03.598Z</time></trkpt><trkpt lat="43.639118" lon="11.3135203"><ele>277.75</ele><time>2026-04-12T09:43:04.598Z</time></trkpt><trkpt lat="43.6390084" lon="11.3135676"><ele>277.5</ele><time>2026-04-12T09:43:05.599Z</time></trkpt><trkpt lat="43.6389013" lon="11.3136151"><ele>277.25</ele><time>2026-04-12T09:43:06.599Z</time></trkpt><trkpt lat="43.6387934" lon="11.3136697"><ele>277.0</ele><time>2026-04-12T09:43:07.599Z</time></trkpt><trkpt lat="43.6386801" lon="11.3137264"><ele>275.75</ele><time>2026-04-12T09:43:08.599Z</time></trkpt><trkpt lat="43.6385691" lon="11.3137928"><ele>274.5</ele><time>2026-04-12T09:43:09.598Z</time></trkpt><trkpt lat="43.6384578" lon="11.3138528"><ele>273.25</ele><time>2026-04-12T09:43:10.599Z</time></trkpt><trkpt lat="43.6383488" lon="11.3139063"><ele>272.0</ele><time>2026-04-12T09:43:11.598Z</time></trkpt><trkpt lat="43.6382443" lon="11.3139444"><ele>274.2</ele><time>2026-04-12T09:43:12.599Z</time></trkpt><trkpt lat="43.638144" lon="11.313971"><ele>276.4</ele><time>2026-04-12T09:43:13.598Z</time></trkpt><trkpt lat="43.6380385" lon="11.3139846"><ele>278.6</ele><time>2026-04-12T09:43:14.599Z</time></trkpt><trkpt lat="43.6379285" lon="11.3139954"><ele>280.8</ele><time>2026-04-12T09:43:15.599Z</time></trkpt><trkpt lat="43.6378176" lon="11.314009"><ele>283.0</ele><time>2026-04-12T09:43:16.599Z</time></trkpt><trkpt lat="43.6377046" lon="11.3140232"><ele>284.0</ele><time>2026-04-12T09:43:17.598Z</time></trkpt><trkpt lat="43.6375951" lon="11.3140249"><ele>285.0</ele><time>2026-04-12T09:43:18.599Z</time></trkpt><trkpt lat="43.6374932" lon="11.3140326"><ele>286.0</ele><time>2026-04-12T09:43:19.598Z</time></trkpt><trkpt lat="43.6373923" lon="11.3140408"><ele>287.0</ele><time>2026-04-12T09:43:20.599Z</time></trkpt><trkpt lat="43.6372921" lon="11.3140462"><ele>288.0</ele><time>2026-04-12T09:43:21.599Z</time></trkpt><trkpt lat="43.6371879" lon="11.3140486"><ele>288.0</ele><time>2026-04-12T09:43:22.598Z</time></trkpt><trkpt lat="43.6370829" lon="11.3140413"><ele>288.0</ele><time>2026-04-12T09:43:23.598Z</time></trkpt><trkpt lat="43.636984" lon="11.3140289"><ele>288.0</ele><time>2026-04-12T09:43:24.599Z</time></trkpt><trkpt lat="43.6368778" lon="11.3139994"><ele>288.0</ele><time>2026-04-12T09:43:25.598Z</time></trkpt><trkpt lat="43.636777" lon="11.3139424"><ele>288.0</ele><time>2026-04-12T09:43:26.599Z</time></trkpt><trkpt lat="43.6366712" lon="11.3138681"><ele>288.4</ele><time>2026-04-12T09:43:27.599Z</time></trkpt><trkpt lat="43.6365734" lon="11.3137952"><ele>288.8</ele><time>2026-04-12T09:43:28.598Z</time></trkpt><trkpt lat="43.6364818" lon="11.313738"><ele>289.2</ele><time>2026-04-12T09:43:29.599Z</time></trkpt><trkpt lat="43.6363991" lon="11.3136823"><ele>289.6</ele><time>2026-04-12T09:43:30.598Z</time></trkpt><trkpt lat="43.6363155" lon="11.3136347"><ele>290.0</ele><time>2026-04-12T09:43:31.599Z</time></trkpt><trkpt lat="43.6362293" lon="11.3135922"><ele>290.0</ele><time>2026-04-12T09:43:32.599Z</time></trkpt><trkpt lat="43.6361444" lon="11.3135607"><ele>290.0</ele><time>2026-04-12T09:43:33.599Z</time></trkpt><trkpt lat="43.6360562" lon="11.3135348"><ele>290.0</ele><time>2026-04-12T09:43:34.599Z</time></trkpt><trkpt lat="43.6359518" lon="11.3135161"><ele>290.0</ele><time>2026-04-12T09:43:35.598Z</time></trkpt><trkpt lat="43.635837" lon="11.3134884"><ele>290.0</ele><time>2026-04-12T09:43:36.599Z</time></trkpt><trkpt lat="43.6357251" lon="11.3134668"><ele>292.5</ele><time>2026-04-12T09:43:37.599Z</time></trkpt><trkpt lat="43.63562" lon="11.3134533"><ele>295.0</ele><time>2026-04-12T09:43:38.599Z</time></trkpt><trkpt lat="43.6355108" lon="11.3134398"><ele>297.5</ele><time>2026-04-12T09:43:39.599Z</time></trkpt><trkpt lat="43.6353877" lon="11.3134383"><ele>300.0</ele><time>2026-04-12T09:43:40.598Z</time></trkpt><trkpt lat="43.6352594" lon="11.3134682"><ele>300.0</ele><time>2026-04-12T09:43:41.598Z</time></trkpt><trkpt lat="43.6351244" lon="11.313532"><ele>300.0</ele><time>2026-04-12T09:43:42.598Z</time></trkpt><trkpt lat="43.6349766" lon="11.313607"><ele>300.0</ele><time>2026-04-12T09:43:43.598Z</time></trkpt><trkpt lat="43.6348295" lon="11.3137021"><ele>300.0</ele><time>2026-04-12T09:43:44.599Z</time></trkpt><trkpt lat="43.6346826" lon="11.3138043"><ele>300.0</ele><time>2026-04-12T09:43:45.598Z</time></trkpt><trkpt lat="43.6345321" lon="11.3139089"><ele>300.0</ele><time>2026-04-12T09:43:46.598Z</time></trkpt><trkpt lat="43.6343824" lon="11.313988"><ele>301.6666666666667</ele><time>2026-04-12T09:43:47.598Z</time></trkpt><trkpt lat="43.6342255" lon="11.3140087"><ele>303.33333333333337</ele><time>2026-04-12T09:43:48.598Z</time></trkpt><trkpt lat="43.634066" lon="11.3139828"><ele>305.0</ele><time>2026-04-12T09:43:49.598Z</time></trkpt><trkpt lat="43.6339148" lon="11.3138855"><ele>304.33333333333337</ele><time>2026-04-12T09:43:50.598Z</time></trkpt><trkpt lat="43.6337568" lon="11.3138007"><ele>303.6666666666667</ele><time>2026-04-12T09:43:51.598Z</time></trkpt><trkpt lat="43.6335995" lon="11.3137699"><ele>303.0</ele><time>2026-04-12T09:43:52.599Z</time></trkpt><trkpt lat="43.633438" lon="11.3137815"><ele>303.0</ele><time>2026-04-12T09:43:53.599Z</time></trkpt><trkpt lat="43.6332821" lon="11.3138114"><ele>303.0</ele><time>2026-04-12T09:43:54.598Z</time></trkpt><trkpt lat="43.6331359" lon="11.3138503"><ele>303.0</ele><time>2026-04-12T09:43:55.599Z</time></trkpt><trkpt lat="43.6329694" lon="11.3138577"><ele>303.0</ele><time>2026-04-12T09:43:56.598Z</time></trkpt><trkpt lat="43.6328094" lon="11.3138232"><ele>303.0</ele><time>2026-04-12T09:43:57.598Z</time></trkpt><trkpt lat="43.6326497" lon="11.3137496"><ele>303.0</ele><time>2026-04-12T09:43:58.599Z</time></trkpt><trkpt lat="43.632493" lon="11.3136393"><ele>304.3333333333333</ele><time>2026-04-12T09:43:59.598Z</time></trkpt><trkpt lat="43.6323354" lon="11.3135058"><ele>305.66666666666663</ele><time>2026-04-12T09:44:00.598Z</time></trkpt><trkpt lat="43.632181" lon="11.3134011"><ele>307.0</ele><time>2026-04-12T09:44:01.599Z</time></trkpt><trkpt lat="43.6320156" lon="11.3133142"><ele>310.3333333333333</ele><time>2026-04-12T09:44:02.598Z</time></trkpt><trkpt lat="43.631837" lon="11.3132403"><ele>313.6666666666667</ele><time>2026-04-12T09:44:03.598Z</time></trkpt><trkpt lat="43.6316611" lon="11.3131741"><ele>317.0</ele><time>2026-04-12T09:44:04.599Z</time></trkpt><trkpt lat="43.6314951" lon="11.3131051"><ele>318.0</ele><time>2026-04-12T09:44:05.598Z</time></trkpt><trkpt lat="43.6313605" lon="11.3130072"><ele>319.0</ele><time>2026-04-12T09:44:06.598Z</time></trkpt><trkpt lat="43.6312516" lon="11.3128766"><ele>320.0</ele><time>2026-04-12T09:44:07.598Z</time></trkpt><trkpt lat="43.6311556" lon="11.3127585"><ele>321.0</ele><time>2026-04-12T09:44:08.599Z</time></trkpt><trkpt lat="43.6310586" lon="11.312672"><ele>321.0</ele><time>2026-04-12T09:44:09.599Z</time></trkpt><trkpt lat="43.6309379" lon="11.3126064"><ele>321.0</ele><time>2026-04-12T09:44:10.599Z</time></trkpt><trkpt lat="43.6307941" lon="11.3125482"><ele>321.0</ele><time>2026-04-12T09:44:11.599Z</time></trkpt><trkpt lat="43.6306389" lon="11.312482"><ele>321.0</ele><time>2026-04-12T09:44:12.599Z</time></trkpt><trkpt lat="43.630487" lon="11.3124267"><ele>321.0</ele><time>2026-04-12T09:44:13.598Z</time></trkpt><trkpt lat="43.6303212" lon="11.3123518"><ele>321.0</ele><time>2026-04-12T09:44:14.598Z</time></trkpt><trkpt lat="43.6301505" lon="11.312253"><ele>321.0</ele><time>2026-04-12T09:44:15.598Z</time></trkpt><trkpt lat="43.6299709" lon="11.3121419"><ele>321.6666666666667</ele><time>2026-04-12T09:44:16.598Z</time></trkpt><trkpt lat="43.6298007" lon="11.3120286"><ele>322.33333333333337</ele><time>2026-04-12T09:44:17.598Z</time></trkpt><trkpt lat="43.6296414" lon="11.3118973"><ele>323.0</ele><time>2026-04-12T09:44:18.599Z</time></trkpt><trkpt lat="43.629513" lon="11.311763"><ele>328.33333333333337</ele><time>2026-04-12T09:44:19.598Z</time></trkpt><trkpt lat="43.6293836" lon="11.3116486"><ele>333.6666666666667</ele><time>2026-04-12T09:44:20.598Z</time></trkpt><trkpt lat="43.6292429" lon="11.3115745"><ele>339.0</ele><time>2026-04-12T09:44:21.598Z</time></trkpt><trkpt lat="43.629097" lon="11.3115407"><ele>339.0</ele><time>2026-04-12T09:44:22.598Z</time></trkpt><trkpt lat="43.6289474" lon="11.3115238"><ele>339.0</ele><time>2026-04-12T09:44:23.599Z</time></trkpt><trkpt lat="43.6287946" lon="11.3115038"><ele>339.0</ele><time>2026-04-12T09:44:24.598Z</time></trkpt><trkpt lat="43.6286463" lon="11.3114851"><ele>340.0</ele><time>2026-04-12T09:44:25.599Z</time></trkpt><trkpt lat="43.6285051" lon="11.3114754"><ele>341.0</ele><time>2026-04-12T09:44:26.598Z</time></trkpt><trkpt lat="43.6283782" lon="11.311465"><ele>342.0</ele><time>2026-04-12T09:44:27.598Z</time></trkpt><trkpt lat="43.6282489" lon="11.3114189"><ele>343.0</ele><time>2026-04-12T09:44:28.599Z</time></trkpt><trkpt lat="43.6281149" lon="11.3113399"><ele>343.0</ele><time>2026-04-12T09:44:29.598Z</time></trkpt><trkpt lat="43.6279813" lon="11.3112264"><ele>343.0</ele><time>2026-04-12T09:44:30.599Z</time></trkpt><trkpt lat="43.6278485" lon="11.3111099"><ele>343.0</ele><time>2026-04-12T09:44:31.598Z</time></trkpt><trkpt lat="43.6277222" lon="11.3109683"><ele>339.0</ele><time>2026-04-12T09:44:32.599Z</time></trkpt><trkpt lat="43.6276061" lon="11.3107956"><ele>335.0</ele><time>2026-04-12T09:44:33.598Z</time></trkpt><trkpt lat="43.6274955" lon="11.3106132"><ele>331.0</ele><time>2026-04-12T09:44:34.598Z</time></trkpt><trkpt lat="43.6273905" lon="11.3104273"><ele>331.0</ele><time>2026-04-12T09:44:35.598Z</time></trkpt><trkpt lat="43.6272918" lon="11.3102407"><ele>331.0</ele><time>2026-04-12T09:44:36.598Z</time></trkpt><trkpt lat="43.6271932" lon="11.3100713"><ele>331.0</ele><time>2026-04-12T09:44:37.599Z</time></trkpt><trkpt lat="43.6270665" lon="11.3099363"><ele>327.0</ele><time>2026-04-12T09:44:38.598Z</time></trkpt><trkpt lat="43.626903" lon="11.3098618"><ele>323.0</ele><time>2026-04-12T09:44:39.598Z</time></trkpt><trkpt lat="43.626728" lon="11.3098118"><ele>319.0</ele><time>2026-04-12T09:44:40.599Z</time></trkpt><trkpt lat="43.6265581" lon="11.3097419"><ele>318.0</ele><time>2026-04-12T09:44:41.598Z</time></trkpt><trkpt lat="43.6263859" lon="11.3096618"><ele>317.0</ele><time>2026-04-12T09:44:42.599Z</time></trkpt><trkpt lat="43.6262159" lon="11.3095681"><ele>316.0</ele><time>2026-04-12T09:44:43.599Z</time></trkpt><trkpt lat="43.6260484" lon="11.3094995"><ele>316.0</ele><time>2026-04-12T09:44:44.598Z</time></trkpt><trkpt lat="43.625881" lon="11.3094375"><ele>316.0</ele><time>2026-04-12T09:44:45.599Z</time></trkpt><trkpt lat="43.6257174" lon="11.3093929"><ele>316.0</ele><time>2026-04-12T09:44:46.598Z</time></trkpt><trkpt lat="43.625556" lon="11.3093481"><ele>316.0</ele><time>2026-04-12T09:44:47.598Z</time></trkpt><trkpt lat="43.6253921" lon="11.3092978"><ele>316.0</ele><time>2026-04-12T09:44:48.598Z</time></trkpt><trkpt lat="43.625225" lon="11.3092402"><ele>316.0</ele><time>2026-04-12T09:44:49.598Z</time></trkpt><trkpt lat="43.6250541" lon="11.309175"><ele>313.0</ele><time>2026-04-12T09:44:50.599Z</time></trkpt><trkpt lat="43.6248716" lon="11.3091059"><ele>310.0</ele><time>2026-04-12T09:44:51.598Z</time></trkpt><trkpt lat="43.6246881" lon="11.3090366"><ele>307.0</ele><time>2026-04-12T09:44:52.598Z</time></trkpt><trkpt lat="43.6245003" lon="11.3089613"><ele>302.66666666666663</ele><time>2026-04-12T09:44:53.598Z</time></trkpt><trkpt lat="43.6243167" lon="11.3088894"><ele>298.3333333333333</ele><time>2026-04-12T09:44:54.599Z</time></trkpt><trkpt lat="43.6241409" lon="11.3088209"><ele>294.0</ele><time>2026-04-12T09:44:55.599Z</time></trkpt><trkpt lat="43.623963" lon="11.3087444"><ele>294.0</ele><time>2026-04-12T09:44:56.599Z</time></trkpt><trkpt lat="43.6237884" lon="11.3086504"><ele>294.0</ele><time>2026-04-12T09:44:57.598Z</time></trkpt><trkpt lat="43.6236227" lon="11.3085421"><ele>294.0</ele><time>2026-04-12T09:44:58.599Z</time></trkpt><trkpt lat="43.623474" lon="11.308401"><ele>292.6666666666667</ele><time>2026-04-12T09:44:59.599Z</time></trkpt><trkpt lat="43.6233334" lon="11.3082457"><ele>291.33333333333337</ele><time>2026-04-12T09:45:00.599Z</time></trkpt><trkpt lat="43.6231948" lon="11.3080837"><ele>290.0</ele><time>2026-04-12T09:45:01.599Z</time></trkpt><trkpt lat="43.6230522" lon="11.307918"><ele>288.6666666666667</ele><time>2026-04-12T09:45:02.598Z</time></trkpt><trkpt lat="43.6229122" lon="11.3077451"><ele>287.3333333333333</ele><time>2026-04-12T09:45:03.598Z</time></trkpt><trkpt lat="43.6227955" lon="11.3075569"><ele>286.0</ele><time>2026-04-12T09:45:04.599Z</time></trkpt><trkpt lat="43.6226891" lon="11.3073443"><ele>286.66666666666663</ele><time>2026-04-12T09:45:05.598Z</time></trkpt><trkpt lat="43.6225972" lon="11.307116"><ele>287.3333333333333</ele><time>2026-04-12T09:45:06.598Z</time></trkpt><trkpt lat="43.6225034" lon="11.306892"><ele>288.0</ele><time>2026-04-12T09:45:07.599Z</time></trkpt><trkpt lat="43.6224121" lon="11.3066739"><ele>288.0</ele><time>2026-04-12T09:45:08.598Z</time></trkpt><trkpt lat="43.6223239" lon="11.3064613"><ele>288.0</ele><time>2026-04-12T09:45:09.599Z</time></trkpt><trkpt lat="43.6222482" lon="11.306248"><ele>288.0</ele><time>2026-04-12T09:45:10.598Z</time></trkpt><trkpt lat="43.6221758" lon="11.3060308"><ele>287.6666666666667</ele><time>2026-04-12T09:45:11.599Z</time></trkpt><trkpt lat="43.6221076" lon="11.3058189"><ele>287.33333333333337</ele><time>2026-04-12T09:45:12.599Z</time></trkpt><trkpt lat="43.6220429" lon="11.3056034"><ele>287.0</ele><time>2026-04-12T09:45:13.599Z</time></trkpt><trkpt lat="43.6219844" lon="11.3053981"><ele>287.25</ele><time>2026-04-12T09:45:14.598Z</time></trkpt><trkpt lat="43.6219297" lon="11.3051975"><ele>287.5</ele><time>2026-04-12T09:45:15.599Z</time></trkpt><trkpt lat="43.6218794" lon="11.3050135"><ele>287.75</ele><time>2026-04-12T09:45:16.598Z</time></trkpt><trkpt lat="43.6218203" lon="11.3048404"><ele>288.0</ele><time>2026-04-12T09:45:17.599Z</time></trkpt><trkpt lat="43.6217395" lon="11.3046789"><ele>288.0</ele><time>2026-04-12T09:45:18.598Z</time></trkpt><trkpt lat="43.6216293" lon="11.3045475"><ele>288.0</ele><time>2026-04-12T09:45:19.599Z</time></trkpt><trkpt lat="43.6214984" lon="11.3044395"><ele>288.0</ele><time>2026-04-12T09:45:20.598Z</time></trkpt><trkpt lat="43.6213588" lon="11.3043355"><ele>288.0</ele><time>2026-04-12T09:45:21.599Z</time></trkpt><trkpt lat="43.6212109" lon="11.3042127"><ele>288.0</ele><time>2026-04-12T09:45:22.599Z</time></trkpt><trkpt lat="43.6210572" lon="11.3040797"><ele>288.0</ele><time>2026-04-12T09:45:23.598Z</time></trkpt><trkpt lat="43.6208974" lon="11.3039482"><ele>284.0</ele><time>2026-04-12T09:45:24.598Z</time></trkpt><trkpt lat="43.6207372" lon="11.3038045"><ele>280.0</ele><time>2026-04-12T09:45:25.598Z</time></trkpt><trkpt lat="43.6205813" lon="11.3036671"><ele>276.0</ele><time>2026-04-12T09:45:26.598Z</time></trkpt><trkpt lat="43.6204256" lon="11.3035323"><ele>275.6666666666667</ele><time>2026-04-12T09:45:27.599Z</time></trkpt><trkpt lat="43.6202745" lon="11.30339"><ele>275.33333333333337</ele><time>2026-04-12T09:45:28.598Z</time></trkpt><trkpt lat="43.6201207" lon="11.3032511"><ele>275.0</ele><time>2026-04-12T09:45:29.598Z</time></trkpt><trkpt lat="43.6199673" lon="11.3031126"><ele>272.6666666666667</ele><time>2026-04-12T09:45:30.598Z</time></trkpt><trkpt lat="43.6198067" lon="11.3030032"><ele>270.3333333333333</ele><time>2026-04-12T09:45:31.599Z</time></trkpt><trkpt lat="43.6196429" lon="11.3029156"><ele>268.0</ele><time>2026-04-12T09:45:32.598Z</time></trkpt><trkpt lat="43.6194772" lon="11.3028409"><ele>267.66666666666663</ele><time>2026-04-12T09:45:33.598Z</time></trkpt><trkpt lat="43.6193121" lon="11.3027689"><ele>267.3333333333333</ele><time>2026-04-12T09:45:34.599Z</time></trkpt><trkpt lat="43.6191574" lon="11.3026832"><ele>267.0</ele><time>2026-04-12T09:45:35.599Z</time></trkpt><trkpt lat="43.6190091" lon="11.3025769"><ele>267.0</ele><time>2026-04-12T09:45:36.598Z</time></trkpt><trkpt lat="43.6188693" lon="11.3024491"><ele>267.0</ele><time>2026-04-12T09:45:37.598Z</time></trkpt><trkpt lat="43.6187499" lon="11.3022928"><ele>267.0</ele><time>2026-04-12T09:45:38.599Z</time></trkpt><trkpt lat="43.618634" lon="11.3021171"><ele>266.3333333333333</ele><time>2026-04-12T09:45:39.599Z</time></trkpt><trkpt lat="43.6185203" lon="11.3019493"><ele>265.66666666666663</ele><time>2026-04-12T09:45:40.599Z</time></trkpt><trkpt lat="43.6184157" lon="11.3017824"><ele>265.0</ele><time>2026-04-12T09:45:41.598Z</time></trkpt><trkpt lat="43.618306" lon="11.3016167"><ele>265.0</ele><time>2026-04-12T09:45:42.598Z</time></trkpt><trkpt lat="43.6181869" lon="11.3014519"><ele>265.0</ele><time>2026-04-12T09:45:43.599Z</time></trkpt><trkpt lat="43.6180737" lon="11.3012838"><ele>265.0</ele><time>2026-04-12T09:45:44.598Z</time></trkpt><trkpt lat="43.617963" lon="11.3011263"><ele>264.66666666666663</ele><time>2026-04-12T09:45:45.599Z</time></trkpt><trkpt lat="43.6178473" lon="11.3009737"><ele>264.3333333333333</ele><time>2026-04-12T09:45:46.598Z</time></trkpt><trkpt lat="43.617721" lon="11.3008329"><ele>264.0</ele><time>2026-04-12T09:45:47.599Z</time></trkpt><trkpt lat="43.6175922" lon="11.3006855"><ele>262.6666666666667</ele><time>2026-04-12T09:45:48.598Z</time></trkpt><trkpt lat="43.6174588" lon="11.3005389"><ele>261.33333333333337</ele><time>2026-04-12T09:45:49.598Z</time></trkpt><trkpt lat="43.617328" lon="11.3003927"><ele>260.0</ele><time>2026-04-12T09:45:50.599Z</time></trkpt><trkpt lat="43.6171928" lon="11.3002489"><ele>260.0</ele><time>2026-04-12T09:45:51.598Z</time></trkpt><trkpt lat="43.6170512" lon="11.3001042"><ele>260.0</ele><time>2026-04-12T09:45:52.598Z</time></trkpt><trkpt lat="43.616914" lon="11.2999688"><ele>260.0</ele><time>2026-04-12T09:45:53.598Z</time></trkpt><trkpt lat="43.6167759" lon="11.299856"><ele>259.6666666666667</ele><time>2026-04-12T09:45:54.598Z</time></trkpt><trkpt lat="43.6166274" lon="11.2997644"><ele>259.3333333333333</ele><time>2026-04-12T09:45:55.599Z</time></trkpt><trkpt lat="43.6164621" lon="11.2996976"><ele>259.0</ele><time>2026-04-12T09:45:56.598Z</time></trkpt><trkpt lat="43.6162929" lon="11.2996531"><ele>258.66666666666663</ele><time>2026-04-12T09:45:57.598Z</time></trkpt><trkpt lat="43.6161186" lon="11.2996073"><ele>258.3333333333333</ele><time>2026-04-12T09:45:58.598Z</time></trkpt><trkpt lat="43.6159547" lon="11.2995534"><ele>258.0</ele><time>2026-04-12T09:45:59.599Z</time></trkpt><trkpt lat="43.6157859" lon="11.2994933"><ele>258.0</ele><time>2026-04-12T09:46:00.599Z</time></trkpt><trkpt lat="43.6156161" lon="11.2994337"><ele>258.0</ele><time>2026-04-12T09:46:01.598Z</time></trkpt><trkpt lat="43.6154453" lon="11.2993617"><ele>258.0</ele><time>2026-04-12T09:46:02.598Z</time></trkpt><trkpt lat="43.6152736" lon="11.2992891"><ele>256.0</ele><time>2026-04-12T09:46:03.598Z</time></trkpt><trkpt lat="43.6151094" lon="11.2992109"><ele>254.0</ele><time>2026-04-12T09:46:04.599Z</time></trkpt><trkpt lat="43.614949" lon="11.2991384"><ele>252.0</ele><time>2026-04-12T09:46:05.599Z</time></trkpt><trkpt lat="43.6147888" lon="11.2990645"><ele>252.0</ele><time>2026-04-12T09:46:06.599Z</time></trkpt><trkpt lat="43.6146364" lon="11.2989985"><ele>252.0</ele><time>2026-04-12T09:46:07.598Z</time></trkpt><trkpt lat="43.614488" lon="11.2989285"><ele>252.0</ele><time>2026-04-12T09:46:08.598Z</time></trkpt><trkpt lat="43.6143453" lon="11.2988689"><ele>251.0</ele><time>2026-04-12T09:46:09.598Z</time></trkpt><trkpt lat="43.6142075" lon="11.2988005"><ele>250.0</ele><time>2026-04-12T09:46:10.598Z</time></trkpt><trkpt lat="43.6140867" lon="11.2986854"><ele>249.0</ele><time>2026-04-12T09:46:11.599Z</time></trkpt><trkpt lat="43.6139846" lon="11.298551"><ele>248.0</ele><time>2026-04-12T09:46:12.598Z</time></trkpt><trkpt lat="43.6138928" lon="11.2984029"><ele>248.0</ele><time>2026-04-12T09:46:13.598Z</time></trkpt><trkpt lat="43.6138081" lon="11.2982602"><ele>248.0</ele><time>2026-04-12T09:46:14.599Z</time></trkpt><trkpt lat="43.6137193" lon="11.2981186"><ele>248.0</ele><time>2026-04-12T09:46:15.598Z</time></trkpt><trkpt lat="43.6136375" lon="11.2979789"><ele>248.0</ele><time>2026-04-12T09:46:16.598Z</time></trkpt><trkpt lat="43.6135541" lon="11.2978542"><ele>246.8</ele><time>2026-04-12T09:46:17.599Z</time></trkpt><trkpt lat="43.6134552" lon="11.2977702"><ele>245.60000000000002</ele><time>2026-04-12T09:46:18.598Z</time></trkpt><trkpt lat="43.6133597" lon="11.2977539"><ele>244.39999999999998</ele><time>2026-04-12T09:46:19.598Z</time></trkpt><trkpt lat="43.6132538" lon="11.297789"><ele>243.2</ele><time>2026-04-12T09:46:20.599Z</time></trkpt><trkpt lat="43.6131614" lon="11.2978681"><ele>242.0</ele><time>2026-04-12T09:46:21.598Z</time></trkpt><trkpt lat="43.613097" lon="11.29797"><ele>242.00000000000003</ele><time>2026-04-12T09:46:22.598Z</time></trkpt><trkpt lat="43.6130594" lon="11.2980804"><ele>242.0</ele><time>2026-04-12T09:46:23.598Z</time></trkpt><trkpt lat="43.6130491" lon="11.2982011"><ele>242.0</ele><time>2026-04-12T09:46:24.598Z</time></trkpt><trkpt lat="43.6130482" lon="11.2983126"><ele>242.0</ele><time>2026-04-12T09:46:25.598Z</time></trkpt><trkpt lat="43.6130614" lon="11.298427"><ele>242.00000000000003</ele><time>2026-04-12T09:46:26.598Z</time></trkpt><trkpt lat="43.6131041" lon="11.2985447"><ele>242.0</ele><time>2026-04-12T09:46:27.599Z</time></trkpt><trkpt lat="43.6131797" lon="11.2986735"><ele>241.5</ele><time>2026-04-12T09:46:28.598Z</time></trkpt><trkpt lat="43.6132804" lon="11.2988273"><ele>241.0</ele><time>2026-04-12T09:46:29.598Z</time></trkpt><trkpt lat="43.6133551" lon="11.2989717"><ele>240.5</ele><time>2026-04-12T09:46:30.598Z</time></trkpt><trkpt lat="43.6134165" lon="11.2991079"><ele>240.0</ele><time>2026-04-12T09:46:31.599Z</time></trkpt><trkpt lat="43.6134888" lon="11.2992314"><ele>240.0</ele><time>2026-04-12T09:46:32.599Z</time></trkpt><trkpt lat="43.6135602" lon="11.2993507"><ele>240.0</ele><time>2026-04-12T09:46:33.598Z</time></trkpt><trkpt lat="43.6136541" lon="11.2994552"><ele>240.0</ele><time>2026-04-12T09:46:34.598Z</time></trkpt><trkpt lat="43.6137573" lon="11.2995426"><ele>240.0</ele><time>2026-04-12T09:46:35.598Z</time></trkpt><trkpt lat="43.6138472" lon="11.2996155"><ele>239.66666666666666</ele><time>2026-04-12T09:46:36.598Z</time></trkpt><trkpt lat="43.6139261" lon="11.299678"><ele>239.33333333333331</ele><time>2026-04-12T09:46:37.598Z</time></trkpt><trkpt lat="43.6139906" lon="11.2997266"><ele>239.0</ele><time>2026-04-12T09:46:38.598Z</time></trkpt><trkpt lat="43.6140585" lon="11.2997716"><ele>238.66666666666666</ele><time>2026-04-12T09:46:39.598Z</time></trkpt><trkpt lat="43.6141286" lon="11.2998167"><ele>238.33333333333331</ele><time>2026-04-12T09:46:40.598Z</time></trkpt><trkpt lat="43.6141949" lon="11.2998709"><ele>238.0</ele><time>2026-04-12T09:46:41.599Z</time></trkpt><trkpt lat="43.6142538" lon="11.2999206"><ele>237.99999999999997</ele><time>2026-04-12T09:46:42.599Z</time></trkpt><trkpt lat="43.6143107" lon="11.2999745"><ele>238.0</ele><time>2026-04-12T09:46:43.598Z</time></trkpt><trkpt lat="43.6143359" lon="11.3000543"><ele>238.0</ele><time>2026-04-12T09:46:44.598Z</time></trkpt><trkpt lat="43.614347" lon="11.3001519"><ele>238.0</ele><time>2026-04-12T09:46:45.598Z</time></trkpt><trkpt lat="43.6143222" lon="11.3002463"><ele>237.99999999999997</ele><time>2026-04-12T09:46:46.599Z</time></trkpt><trkpt lat="43.6142472" lon="11.300322"><ele>238.0</ele><time>2026-04-12T09:46:47.599Z</time></trkpt><trkpt lat="43.614158" lon="11.3003519"><ele>238.0</ele><time>2026-04-12T09:46:48.599Z</time></trkpt><trkpt lat="43.614048" lon="11.3003014"><ele>238.0</ele><time>2026-04-12T09:46:49.598Z</time></trkpt><trkpt lat="43.6139255" lon="11.3002248"><ele>238.0</ele><time>2026-04-12T09:46:50.598Z</time></trkpt><trkpt lat="43.6137805" lon="11.3001414"><ele>238.0</ele><time>2026-04-12T09:46:51.599Z</time></trkpt><trkpt lat="43.6136038" lon="11.300043"><ele>238.66666666666666</ele><time>2026-04-12T09:46:52.598Z</time></trkpt><trkpt lat="43.6134259" lon="11.2999358"><ele>239.33333333333331</ele><time>2026-04-12T09:46:53.598Z</time></trkpt><trkpt lat="43.6132466" lon="11.2998174"><ele>240.0</ele><time>2026-04-12T09:46:54.599Z</time></trkpt><trkpt lat="43.6130692" lon="11.2997178"><ele>240.0</ele><time>2026-04-12T09:46:55.599Z</time></trkpt><trkpt lat="43.6128715" lon="11.2996194"><ele>240.0</ele><time>2026-04-12T09:46:56.599Z</time></trkpt><trkpt lat="43.6126733" lon="11.2995214"><ele>240.0</ele><time>2026-04-12T09:46:57.599Z</time></trkpt><trkpt lat="43.6124832" lon="11.2994241"><ele>236.33333333333331</ele><time>2026-04-12T09:46:58.599Z</time></trkpt><trkpt lat="43.612303" lon="11.2993325"><ele>232.66666666666666</ele><time>2026-04-12T09:46:59.599Z</time></trkpt><trkpt lat="43.6121467" lon="11.2992637"><ele>229.0</ele><time>2026-04-12T09:47:00.598Z</time></trkpt><trkpt lat="43.6120083" lon="11.299236"><ele>228.5</ele><time>2026-04-12T09:47:01.598Z</time></trkpt><trkpt lat="43.6118709" lon="11.2992799"><ele>228.0</ele><time>2026-04-12T09:47:02.598Z</time></trkpt><trkpt lat="43.611734" lon="11.2993539"><ele>227.5</ele><time>2026-04-12T09:47:03.598Z</time></trkpt><trkpt lat="43.6115932" lon="11.2994592"><ele>227.0</ele><time>2026-04-12T09:47:04.598Z</time></trkpt><trkpt lat="43.6114447" lon="11.2995315"><ele>227.0</ele><time>2026-04-12T09:47:05.598Z</time></trkpt><trkpt lat="43.6113019" lon="11.2995221"><ele>227.0</ele><time>2026-04-12T09:47:06.598Z</time></trkpt><trkpt lat="43.6111741" lon="11.2994661"><ele>227.0</ele><time>2026-04-12T09:47:07.598Z</time></trkpt><trkpt lat="43.6110439" lon="11.29941"><ele>227.0</ele><time>2026-04-12T09:47:08.598Z</time></trkpt><trkpt lat="43.6109132" lon="11.2993922"><ele>225.33333333333334</ele><time>2026-04-12T09:47:09.598Z</time></trkpt><trkpt lat="43.6107711" lon="11.2994425"><ele>223.66666666666669</ele><time>2026-04-12T09:47:10.599Z</time></trkpt><trkpt lat="43.6106229" lon="11.2995179"><ele>222.0</ele><time>2026-04-12T09:47:11.599Z</time></trkpt><trkpt lat="43.61046" lon="11.2996154"><ele>222.33333333333331</ele><time>2026-04-12T09:47:12.598Z</time></trkpt><trkpt lat="43.6102981" lon="11.2997118"><ele>222.66666666666666</ele><time>2026-04-12T09:47:13.599Z</time></trkpt><trkpt lat="43.6101448" lon="11.2998066"><ele>223.0</ele><time>2026-04-12T09:47:14.599Z</time></trkpt><trkpt lat="43.609987" lon="11.2998872"><ele>219.0</ele><time>2026-04-12T09:47:15.598Z</time></trkpt><trkpt lat="43.6098403" lon="11.2999219"><ele>215.0</ele><time>2026-04-12T09:47:16.598Z</time></trkpt><trkpt lat="43.6096886" lon="11.299938"><ele>211.0</ele><time>2026-04-12T09:47:17.599Z</time></trkpt><trkpt lat="43.6095367" lon="11.2999093"><ele>212.0</ele><time>2026-04-12T09:47:18.599Z</time></trkpt><trkpt lat="43.6093932" lon="11.2998612"><ele>213.0</ele><time>2026-04-12T09:47:19.599Z</time></trkpt><trkpt lat="43.6092593" lon="11.2998028"><ele>214.0</ele><time>2026-04-12T09:47:20.599Z</time></trkpt><trkpt lat="43.6091316" lon="11.2997511"><ele>215.0</ele><time>2026-04-12T09:47:21.599Z</time></trkpt><trkpt lat="43.6090191" lon="11.299709"><ele>215.0</ele><time>2026-04-12T09:47:22.6Z</time></trkpt><trkpt lat="43.6089107" lon="11.2996996"><ele>215.0</ele><time>2026-04-12T09:47:23.599Z</time></trkpt><trkpt lat="43.6088077" lon="11.2997391"><ele>215.0</ele><time>2026-04-12T09:47:24.6Z</time></trkpt><trkpt lat="43.6087319" lon="11.2998196"><ele>215.0</ele><time>2026-04-12T09:47:25.6Z</time></trkpt><trkpt lat="43.6086561" lon="11.2999445"><ele>215.0</ele><time>2026-04-12T09:47:26.6Z</time></trkpt><trkpt lat="43.6085751" lon="11.3000809"><ele>213.25</ele><time>2026-04-12T09:47:27.6Z</time></trkpt><trkpt lat="43.6084973" lon="11.3002243"><ele>211.5</ele><time>2026-04-12T09:47:28.599Z</time></trkpt><trkpt lat="43.6084182" lon="11.3003632"><ele>209.75</ele><time>2026-04-12T09:47:29.6Z</time></trkpt><trkpt lat="43.6083447" lon="11.3005016"><ele>208.0</ele><time>2026-04-12T09:47:30.6Z</time></trkpt><trkpt lat="43.6082769" lon="11.3006348"><ele>207.99999999999997</ele><time>2026-04-12T09:47:31.599Z</time></trkpt><trkpt lat="43.6082237" lon="11.3007492"><ele>208.0</ele><time>2026-04-12T09:47:32.6Z</time></trkpt><trkpt lat="43.6081792" lon="11.3008556"><ele>208.0</ele><time>2026-04-12T09:47:33.599Z</time></trkpt><trkpt lat="43.6081408" lon="11.3009556"><ele>208.0</ele><time>2026-04-12T09:47:34.599Z</time></trkpt><trkpt lat="43.6080995" lon="11.3010634"><ele>207.99999999999997</ele><time>2026-04-12T09:47:35.6Z</time></trkpt><trkpt lat="43.6080641" lon="11.3011804"><ele>208.0</ele><time>2026-04-12T09:47:36.6Z</time></trkpt><trkpt lat="43.6080326" lon="11.3013252"><ele>210.0</ele><time>2026-04-12T09:47:37.6Z</time></trkpt><trkpt lat="43.6079936" lon="11.3015039"><ele>212.0</ele><time>2026-04-12T09:47:38.6Z</time></trkpt><trkpt lat="43.6079528" lon="11.3017221"><ele>214.0</ele><time>2026-04-12T09:47:39.599Z</time></trkpt><trkpt lat="43.607914" lon="11.3019481"><ele>214.0</ele><time>2026-04-12T09:47:40.599Z</time></trkpt><trkpt lat="43.6078806" lon="11.3021791"><ele>214.0</ele><time>2026-04-12T09:47:41.6Z</time></trkpt><trkpt lat="43.6078346" lon="11.3023949"><ele>214.0</ele><time>2026-04-12T09:47:42.6Z</time></trkpt><trkpt lat="43.6077699" lon="11.3026114"><ele>212.33333333333331</ele><time>2026-04-12T09:47:43.6Z</time></trkpt><trkpt lat="43.6076769" lon="11.3028126"><ele>210.66666666666669</ele><time>2026-04-12T09:47:44.599Z</time></trkpt><trkpt lat="43.6075587" lon="11.3030131"><ele>209.0</ele><time>2026-04-12T09:47:45.599Z</time></trkpt><trkpt lat="43.6074519" lon="11.303211"><ele>209.0</ele><time>2026-04-12T09:47:46.599Z</time></trkpt><trkpt lat="43.6073437" lon="11.3034161"><ele>209.0</ele><time>2026-04-12T09:47:47.599Z</time></trkpt><trkpt lat="43.6072328" lon="11.3036283"><ele>209.0</ele><time>2026-04-12T09:47:48.599Z</time></trkpt><trkpt lat="43.6071265" lon="11.3038367"><ele>209.0</ele><time>2026-04-12T09:47:49.6Z</time></trkpt><trkpt lat="43.6070233" lon="11.3040473"><ele>209.0</ele><time>2026-04-12T09:47:50.599Z</time></trkpt><trkpt lat="43.6069133" lon="11.304254"><ele>209.0</ele><time>2026-04-12T09:47:51.599Z</time></trkpt><trkpt lat="43.6068029" lon="11.3044478"><ele>209.0</ele><time>2026-04-12T09:47:52.6Z</time></trkpt><trkpt lat="43.6066684" lon="11.3046225"><ele>209.0</ele><time>2026-04-12T09:47:53.599Z</time></trkpt><trkpt lat="43.6065188" lon="11.3047801"><ele>209.0</ele><time>2026-04-12T09:47:54.599Z</time></trkpt><trkpt lat="43.6063659" lon="11.3049238"><ele>208.66666666666669</ele><time>2026-04-12T09:47:55.6Z</time></trkpt><trkpt lat="43.6062057" lon="11.3050535"><ele>208.33333333333331</ele><time>2026-04-12T09:47:56.6Z</time></trkpt><trkpt lat="43.6060445" lon="11.305188"><ele>208.0</ele><time>2026-04-12T09:47:57.6Z</time></trkpt><trkpt lat="43.605885" lon="11.3053226"><ele>208.0</ele><time>2026-04-12T09:47:58.6Z</time></trkpt><trkpt lat="43.6057247" lon="11.3054569"><ele>208.0</ele><time>2026-04-12T09:47:59.6Z</time></trkpt><trkpt lat="43.6055606" lon="11.3055909"><ele>208.0</ele><time>2026-04-12T09:48:00.599Z</time></trkpt><trkpt lat="43.6054001" lon="11.3057278"><ele>208.0</ele><time>2026-04-12T09:48:01.599Z</time></trkpt><trkpt lat="43.6052361" lon="11.3058651"><ele>208.0</ele><time>2026-04-12T09:48:02.6Z</time></trkpt><trkpt lat="43.6050747" lon="11.3060001"><ele>208.0</ele><time>2026-04-12T09:48:03.599Z</time></trkpt><trkpt lat="43.6049174" lon="11.3061266"><ele>208.0</ele><time>2026-04-12T09:48:04.6Z</time></trkpt><trkpt lat="43.6047648" lon="11.3062525"><ele>208.0</ele><time>2026-04-12T09:48:05.599Z</time></trkpt><trkpt lat="43.6046085" lon="11.3063825"><ele>208.0</ele><time>2026-04-12T09:48:06.6Z</time></trkpt><trkpt lat="43.6044606" lon="11.3065139"><ele>208.33333333333331</ele><time>2026-04-12T09:48:07.6Z</time></trkpt><trkpt lat="43.6043423" lon="11.3066556"><ele>208.66666666666669</ele><time>2026-04-12T09:48:08.599Z</time></trkpt><trkpt lat="43.6042504" lon="11.3068177"><ele>209.0</ele><time>2026-04-12T09:48:09.6Z</time></trkpt><trkpt lat="43.6041972" lon="11.3070105"><ele>209.0</ele><time>2026-04-12T09:48:10.599Z</time></trkpt><trkpt lat="43.6041789" lon="11.3072335"><ele>209.0</ele><time>2026-04-12T09:48:11.6Z</time></trkpt><trkpt lat="43.6041638" lon="11.3074619"><ele>209.0</ele><time>2026-04-12T09:48:12.599Z</time></trkpt><trkpt lat="43.6041589" lon="11.3076983"><ele>210.66666666666669</ele><time>2026-04-12T09:48:13.6Z</time></trkpt><trkpt lat="43.6041591" lon="11.3079365"><ele>212.33333333333331</ele><time>2026-04-12T09:48:14.599Z</time></trkpt><trkpt lat="43.6041572" lon="11.3081664"><ele>214.0</ele><time>2026-04-12T09:48:15.599Z</time></trkpt><trkpt lat="43.6041239" lon="11.3083996"><ele>214.66666666666666</ele><time>2026-04-12T09:48:16.6Z</time></trkpt><trkpt lat="43.6040657" lon="11.3086202"><ele>215.33333333333331</ele><time>2026-04-12T09:48:17.599Z</time></trkpt><trkpt lat="43.6039749" lon="11.3088289"><ele>216.0</ele><time>2026-04-12T09:48:18.599Z</time></trkpt><trkpt lat="43.6038832" lon="11.309005"><ele>216.0</ele><time>2026-04-12T09:48:19.599Z</time></trkpt><trkpt lat="43.6037734" lon="11.3091668"><ele>216.0</ele><time>2026-04-12T09:48:20.599Z</time></trkpt><trkpt lat="43.6036325" lon="11.3092807"><ele>216.0</ele><time>2026-04-12T09:48:21.6Z</time></trkpt><trkpt lat="43.6034725" lon="11.309374"><ele>215.0</ele><time>2026-04-12T09:48:22.599Z</time></trkpt><trkpt lat="43.6033133" lon="11.3094683"><ele>214.0</ele><time>2026-04-12T09:48:23.599Z</time></trkpt><trkpt lat="43.6031562" lon="11.309559"><ele>213.0</ele><time>2026-04-12T09:48:24.599Z</time></trkpt><trkpt lat="43.6030018" lon="11.3096509"><ele>213.0</ele><time>2026-04-12T09:48:25.599Z</time></trkpt><trkpt lat="43.6028359" lon="11.3097417"><ele>213.0</ele><time>2026-04-12T09:48:26.6Z</time></trkpt><trkpt lat="43.602681" lon="11.3098344"><ele>213.0</ele><time>2026-04-12T09:48:27.6Z</time></trkpt><trkpt lat="43.6025184" lon="11.3099193"><ele>213.33333333333331</ele><time>2026-04-12T09:48:28.599Z</time></trkpt><trkpt lat="43.6023576" lon="11.3100056"><ele>213.66666666666666</ele><time>2026-04-12T09:48:29.599Z</time></trkpt><trkpt lat="43.6021958" lon="11.3101046"><ele>214.0</ele><time>2026-04-12T09:48:30.6Z</time></trkpt><trkpt lat="43.602032" lon="11.3101921"><ele>213.33333333333331</ele><time>2026-04-12T09:48:31.6Z</time></trkpt><trkpt lat="43.6018701" lon="11.3102795"><ele>212.66666666666669</ele><time>2026-04-12T09:48:32.599Z</time></trkpt><trkpt lat="43.6017205" lon="11.3103562"><ele>212.0</ele><time>2026-04-12T09:48:33.599Z</time></trkpt><trkpt lat="43.6015794" lon="11.3104316"><ele>212.0</ele><time>2026-04-12T09:48:34.599Z</time></trkpt><trkpt lat="43.6014502" lon="11.3105068"><ele>212.0</ele><time>2026-04-12T09:48:35.6Z</time></trkpt><trkpt lat="43.6013222" lon="11.3105758"><ele>212.0</ele><time>2026-04-12T09:48:36.6Z</time></trkpt><trkpt lat="43.6012018" lon="11.3106469"><ele>212.0</ele><time>2026-04-12T09:48:37.6Z</time></trkpt><trkpt lat="43.6010823" lon="11.3107206"><ele>212.75</ele><time>2026-04-12T09:48:38.599Z</time></trkpt><trkpt lat="43.6009677" lon="11.3108108"><ele>213.5</ele><time>2026-04-12T09:48:39.599Z</time></trkpt><trkpt lat="43.6008592" lon="11.3109256"><ele>214.25</ele><time>2026-04-12T09:48:40.6Z</time></trkpt><trkpt lat="43.6007576" lon="11.3110641"><ele>215.0</ele><time>2026-04-12T09:48:41.599Z</time></trkpt><trkpt lat="43.60066" lon="11.3112179"><ele>215.0</ele><time>2026-04-12T09:48:42.6Z</time></trkpt><trkpt lat="43.6005701" lon="11.3113768"><ele>215.0</ele><time>2026-04-12T09:48:43.599Z</time></trkpt><trkpt lat="43.6004897" lon="11.3115305"><ele>215.0</ele><time>2026-04-12T09:48:44.6Z</time></trkpt><trkpt lat="43.6004091" lon="11.3116743"><ele>215.0</ele><time>2026-04-12T09:48:45.6Z</time></trkpt><trkpt lat="43.600323" lon="11.3118204"><ele>214.5</ele><time>2026-04-12T09:48:46.599Z</time></trkpt><trkpt lat="43.6002358" lon="11.3119765"><ele>214.0</ele><time>2026-04-12T09:48:47.599Z</time></trkpt><trkpt lat="43.6001536" lon="11.3121363"><ele>213.5</ele><time>2026-04-12T09:48:48.599Z</time></trkpt><trkpt lat="43.6000736" lon="11.3122904"><ele>213.0</ele><time>2026-04-12T09:48:49.599Z</time></trkpt><trkpt lat="43.5999892" lon="11.3124456"><ele>213.0</ele><time>2026-04-12T09:48:50.6Z</time></trkpt><trkpt lat="43.5999064" lon="11.3126059"><ele>213.0</ele><time>2026-04-12T09:48:51.599Z</time></trkpt><trkpt lat="43.599817" lon="11.3127656"><ele>213.0</ele><time>2026-04-12T09:48:52.599Z</time></trkpt><trkpt lat="43.5997272" lon="11.3129254"><ele>213.0</ele><time>2026-04-12T09:48:53.599Z</time></trkpt><trkpt lat="43.5996375" lon="11.3130898"><ele>213.25</ele><time>2026-04-12T09:48:54.6Z</time></trkpt><trkpt lat="43.5995507" lon="11.3132552"><ele>213.5</ele><time>2026-04-12T09:48:55.599Z</time></trkpt><trkpt lat="43.5994646" lon="11.3134108"><ele>213.75</ele><time>2026-04-12T09:48:56.6Z</time></trkpt><trkpt lat="43.5993762" lon="11.3135676"><ele>214.0</ele><time>2026-04-12T09:48:57.6Z</time></trkpt><trkpt lat="43.5992873" lon="11.3137185"><ele>214.0</ele><time>2026-04-12T09:48:58.6Z</time></trkpt><trkpt lat="43.5992203" lon="11.3138517"><ele>214.0</ele><time>2026-04-12T09:48:59.599Z</time></trkpt><trkpt lat="43.5991505" lon="11.3139866"><ele>214.0</ele><time>2026-04-12T09:49:00.599Z</time></trkpt><trkpt lat="43.5990793" lon="11.3141127"><ele>214.0</ele><time>2026-04-12T09:49:01.599Z</time></trkpt><trkpt lat="43.5990127" lon="11.3142282"><ele>214.2</ele><time>2026-04-12T09:49:02.599Z</time></trkpt><trkpt lat="43.5989507" lon="11.3143372"><ele>214.39999999999998</ele><time>2026-04-12T09:49:03.6Z</time></trkpt><trkpt lat="43.598877" lon="11.3144206"><ele>214.6</ele><time>2026-04-12T09:49:04.599Z</time></trkpt><trkpt lat="43.5988022" lon="11.3144746"><ele>214.8</ele><time>2026-04-12T09:49:05.599Z</time></trkpt><trkpt lat="43.5987309" lon="11.3145323"><ele>215.0</ele><time>2026-04-12T09:49:06.6Z</time></trkpt><trkpt lat="43.5986482" lon="11.3146236"><ele>215.16666666666669</ele><time>2026-04-12T09:49:08.6Z</time></trkpt><trkpt lat="43.5986032" lon="11.3147518"><ele>215.33333333333334</ele><time>2026-04-12T09:49:10.6Z</time></trkpt><trkpt lat="43.598588" lon="11.3148699"><ele>215.5</ele><time>2026-04-12T09:49:12.6Z</time></trkpt><trkpt lat="43.5986498" lon="11.3148904"><ele>215.66666666666669</ele><time>2026-04-12T09:49:15.6Z</time></trkpt><trkpt lat="43.5987208" lon="11.3147881"><ele>215.83333333333334</ele><time>2026-04-12T09:49:17.599Z</time></trkpt><trkpt lat="43.5987726" lon="11.3146857"><ele>216.0</ele><time>2026-04-12T09:49:18.6Z</time></trkpt><trkpt lat="43.5988355" lon="11.3145818"><ele>216.25</ele><time>2026-04-12T09:49:19.599Z</time></trkpt><trkpt lat="43.5989081" lon="11.3144588"><ele>216.5</ele><time>2026-04-12T09:49:20.599Z</time></trkpt><trkpt lat="43.5989843" lon="11.3143263"><ele>216.75</ele><time>2026-04-12T09:49:21.6Z</time></trkpt><trkpt lat="43.5990618" lon="11.3141869"><ele>217.0</ele><time>2026-04-12T09:49:22.599Z</time></trkpt><trkpt lat="43.5991389" lon="11.3140333"><ele>216.25</ele><time>2026-04-12T09:49:23.599Z</time></trkpt><trkpt lat="43.5992253" lon="11.3138797"><ele>215.5</ele><time>2026-04-12T09:49:24.599Z</time></trkpt><trkpt lat="43.5993162" lon="11.3137217"><ele>214.75</ele><time>2026-04-12T09:49:25.6Z</time></trkpt><trkpt lat="43.5994028" lon="11.3135661"><ele>214.0</ele><time>2026-04-12T09:49:26.599Z</time></trkpt><trkpt lat="43.5994849" lon="11.3134143"><ele>213.75</ele><time>2026-04-12T09:49:27.6Z</time></trkpt><trkpt lat="43.5995674" lon="11.3132648"><ele>213.5</ele><time>2026-04-12T09:49:28.599Z</time></trkpt><trkpt lat="43.5996475" lon="11.3131215"><ele>213.25</ele><time>2026-04-12T09:49:29.6Z</time></trkpt><trkpt lat="43.5997122" lon="11.3130068"><ele>213.0</ele><time>2026-04-12T09:49:30.599Z</time></trkpt><trkpt lat="43.599765" lon="11.3129025"><ele>213.0</ele><time>2026-04-12T09:49:31.599Z</time></trkpt><trkpt lat="43.5998214" lon="11.312816"><ele>213.0</ele><time>2026-04-12T09:49:32.599Z</time></trkpt><trkpt lat="43.599884" lon="11.3127714"><ele>213.0</ele><time>2026-04-12T09:49:33.6Z</time></trkpt><trkpt lat="43.5999546" lon="11.3127728"><ele>213.0</ele><time>2026-04-12T09:49:34.599Z</time></trkpt><trkpt lat="43.6000681" lon="11.3127967"><ele>213.0</ele><time>2026-04-12T09:49:36.6Z</time></trkpt><trkpt lat="43.6001459" lon="11.3127577"><ele>213.0</ele><time>2026-04-12T09:49:38.599Z</time></trkpt><trkpt lat="43.6001999" lon="11.3127005"><ele>213.0</ele><time>2026-04-12T09:49:41.6Z</time></trkpt><trkpt lat="43.6002521" lon="11.3126066"><ele>213.0</ele><time>2026-04-12T09:57:26.6Z</time></trkpt><trkpt lat="43.6002275" lon="11.3125135"><ele>213.0</ele><time>2026-04-12T09:57:28.599Z</time></trkpt><trkpt lat="43.6001776" lon="11.3123649"><ele>213.0</ele><time>2026-04-12T09:57:30.599Z</time></trkpt><trkpt lat="43.6001694" lon="11.3122018"><ele>213.0</ele><time>2026-04-12T09:57:32.6Z</time></trkpt><trkpt lat="43.6002273" lon="11.3120967"><ele>213.0</ele><time>2026-04-12T09:57:33.599Z</time></trkpt><trkpt lat="43.6002951" lon="11.3120003"><ele>213.0</ele><time>2026-04-12T09:57:34.599Z</time></trkpt><trkpt lat="43.6003539" lon="11.3118755"><ele>213.0</ele><time>2026-04-12T09:57:35.599Z</time></trkpt><trkpt lat="43.6004263" lon="11.3117268"><ele>213.0</ele><time>2026-04-12T09:57:36.6Z</time></trkpt><trkpt lat="43.6005103" lon="11.311577"><ele>213.5</ele><time>2026-04-12T09:57:37.599Z</time></trkpt><trkpt lat="43.6005953" lon="11.3114252"><ele>214.0</ele><time>2026-04-12T09:57:38.599Z</time></trkpt><trkpt lat="43.6006848" lon="11.3112674"><ele>214.5</ele><time>2026-04-12T09:57:39.599Z</time></trkpt><trkpt lat="43.6007812" lon="11.3111157"><ele>215.0</ele><time>2026-04-12T09:57:40.6Z</time></trkpt><trkpt lat="43.6008826" lon="11.3109759"><ele>215.0</ele><time>2026-04-12T09:57:41.599Z</time></trkpt><trkpt lat="43.6010006" lon="11.3108615"><ele>215.0</ele><time>2026-04-12T09:57:42.599Z</time></trkpt><trkpt lat="43.6011361" lon="11.310764"><ele>215.0</ele><time>2026-04-12T09:57:43.6Z</time></trkpt><trkpt lat="43.6012823" lon="11.3106734"><ele>214.0</ele><time>2026-04-12T09:57:44.6Z</time></trkpt><trkpt lat="43.6014353" lon="11.3105883"><ele>213.0</ele><time>2026-04-12T09:57:45.6Z</time></trkpt><trkpt lat="43.6015855" lon="11.3105002"><ele>212.0</ele><time>2026-04-12T09:57:46.599Z</time></trkpt><trkpt lat="43.6017372" lon="11.3103976"><ele>212.0</ele><time>2026-04-12T09:57:47.599Z</time></trkpt><trkpt lat="43.6018949" lon="11.3103027"><ele>212.0</ele><time>2026-04-12T09:57:48.599Z</time></trkpt><trkpt lat="43.602053" lon="11.3102119"><ele>212.0</ele><time>2026-04-12T09:57:49.6Z</time></trkpt><trkpt lat="43.6022101" lon="11.3101256"><ele>212.66666666666669</ele><time>2026-04-12T09:57:50.599Z</time></trkpt><trkpt lat="43.6023728" lon="11.310046"><ele>213.33333333333331</ele><time>2026-04-12T09:57:51.599Z</time></trkpt><trkpt lat="43.6025316" lon="11.3099579"><ele>214.0</ele><time>2026-04-12T09:57:52.599Z</time></trkpt><trkpt lat="43.6026898" lon="11.3098742"><ele>213.66666666666666</ele><time>2026-04-12T09:57:53.6Z</time></trkpt><trkpt lat="43.6028456" lon="11.309789"><ele>213.33333333333331</ele><time>2026-04-12T09:57:54.599Z</time></trkpt><trkpt lat="43.603" lon="11.3097013"><ele>213.0</ele><time>2026-04-12T09:57:55.6Z</time></trkpt><trkpt lat="43.603146" lon="11.3096211"><ele>213.0</ele><time>2026-04-12T09:57:56.599Z</time></trkpt><trkpt lat="43.6032862" lon="11.3095443"><ele>213.0</ele><time>2026-04-12T09:57:57.599Z</time></trkpt><trkpt lat="43.6034161" lon="11.3094725"><ele>213.0</ele><time>2026-04-12T09:57:58.6Z</time></trkpt><trkpt lat="43.6035444" lon="11.3093994"><ele>213.0</ele><time>2026-04-12T09:57:59.599Z</time></trkpt><trkpt lat="43.6036673" lon="11.3093154"><ele>213.75</ele><time>2026-04-12T09:58:00.599Z</time></trkpt><trkpt lat="43.6037807" lon="11.3092071"><ele>214.5</ele><time>2026-04-12T09:58:01.599Z</time></trkpt><trkpt lat="43.6038777" lon="11.3090876"><ele>215.25</ele><time>2026-04-12T09:58:02.6Z</time></trkpt><trkpt lat="43.6039656" lon="11.308955"><ele>216.0</ele><time>2026-04-12T09:58:03.599Z</time></trkpt><trkpt lat="43.604027" lon="11.3088115"><ele>216.0</ele><time>2026-04-12T09:58:04.599Z</time></trkpt><trkpt lat="43.6040788" lon="11.3086742"><ele>216.00000000000003</ele><time>2026-04-12T09:58:05.599Z</time></trkpt><trkpt lat="43.6041279" lon="11.3085575"><ele>216.00000000000003</ele><time>2026-04-12T09:58:06.6Z</time></trkpt><trkpt lat="43.6041763" lon="11.3084482"><ele>216.0</ele><time>2026-04-12T09:58:07.6Z</time></trkpt><trkpt lat="43.6042208" lon="11.3083551"><ele>216.0</ele><time>2026-04-12T09:58:08.599Z</time></trkpt><trkpt lat="43.6042543" lon="11.3082656"><ele>216.0</ele><time>2026-04-12T09:58:09.599Z</time></trkpt><trkpt lat="43.604271" lon="11.3080947"><ele>216.00000000000003</ele><time>2026-04-12T09:58:11.599Z</time></trkpt><trkpt lat="43.6043124" lon="11.3079597"><ele>216.00000000000003</ele><time>2026-04-12T09:58:13.6Z</time></trkpt><trkpt lat="43.6044296" lon="11.3079397"><ele>216.0</ele><time>2026-04-12T09:58:15.599Z</time></trkpt><trkpt lat="43.604502" lon="11.3079548"><ele>216.0</ele><time>2026-04-12T09:58:16.599Z</time></trkpt><trkpt lat="43.60463" lon="11.3079817"><ele>217.33333333333334</ele><time>2026-04-12T09:58:18.599Z</time></trkpt><trkpt lat="43.6047091" lon="11.3079764"><ele>218.66666666666669</ele><time>2026-04-12T09:58:19.599Z</time></trkpt><trkpt lat="43.6047896" lon="11.3079654"><ele>220.0</ele><time>2026-04-12T09:58:20.599Z</time></trkpt><trkpt lat="43.6048771" lon="11.3079503"><ele>221.33333333333334</ele><time>2026-04-12T09:58:21.6Z</time></trkpt><trkpt lat="43.6049555" lon="11.307929"><ele>222.66666666666669</ele><time>2026-04-12T09:58:22.599Z</time></trkpt><trkpt lat="43.6050393" lon="11.3079105"><ele>224.0</ele><time>2026-04-12T09:58:23.599Z</time></trkpt><trkpt lat="43.6051243" lon="11.3079124"><ele>224.0</ele><time>2026-04-12T09:58:24.599Z</time></trkpt><trkpt lat="43.605198" lon="11.3079568"><ele>223.99999999999997</ele><time>2026-04-12T09:58:25.6Z</time></trkpt><trkpt lat="43.6052749" lon="11.3080163"><ele>223.99999999999997</ele><time>2026-04-12T09:58:26.599Z</time></trkpt><trkpt lat="43.6053535" lon="11.3081031"><ele>224.0</ele><time>2026-04-12T09:58:27.599Z</time></trkpt><trkpt lat="43.6054396" lon="11.3082098"><ele>224.0</ele><time>2026-04-12T09:58:28.599Z</time></trkpt><trkpt lat="43.605526" lon="11.3083127"><ele>224.75</ele><time>2026-04-12T09:58:29.6Z</time></trkpt><trkpt lat="43.6056121" lon="11.3084193"><ele>225.5</ele><time>2026-04-12T09:58:30.6Z</time></trkpt><trkpt lat="43.6057119" lon="11.3085312"><ele>226.25</ele><time>2026-04-12T09:58:31.599Z</time></trkpt><trkpt lat="43.605804" lon="11.3086402"><ele>227.0</ele><time>2026-04-12T09:58:32.6Z</time></trkpt><trkpt lat="43.6058959" lon="11.3087597"><ele>227.0</ele><time>2026-04-12T09:58:33.6Z</time></trkpt><trkpt lat="43.6059811" lon="11.3088826"><ele>227.0</ele><time>2026-04-12T09:58:34.599Z</time></trkpt><trkpt lat="43.6060657" lon="11.309009"><ele>227.0</ele><time>2026-04-12T09:58:35.6Z</time></trkpt><trkpt lat="43.6061481" lon="11.3091271"><ele>227.0</ele><time>2026-04-12T09:58:36.6Z</time></trkpt><trkpt lat="43.6062298" lon="11.309232"><ele>227.75</ele><time>2026-04-12T09:58:37.599Z</time></trkpt><trkpt lat="43.6063145" lon="11.3093215"><ele>228.5</ele><time>2026-04-12T09:58:38.599Z</time></trkpt><trkpt lat="43.6064135" lon="11.3094094"><ele>229.25</ele><time>2026-04-12T09:58:39.6Z</time></trkpt><trkpt lat="43.6065221" lon="11.3095016"><ele>230.0</ele><time>2026-04-12T09:58:40.6Z</time></trkpt><trkpt lat="43.6066242" lon="11.3096073"><ele>230.00000000000003</ele><time>2026-04-12T09:58:41.6Z</time></trkpt><trkpt lat="43.6067107" lon="11.3097167"><ele>230.0</ele><time>2026-04-12T09:58:42.599Z</time></trkpt><trkpt lat="43.6067762" lon="11.3098106"><ele>230.0</ele><time>2026-04-12T09:58:43.599Z</time></trkpt><trkpt lat="43.6068184" lon="11.30989"><ele>230.0</ele><time>2026-04-12T09:58:44.6Z</time></trkpt><trkpt lat="43.6068556" lon="11.3099695"><ele>230.00000000000003</ele><time>2026-04-12T09:58:45.6Z</time></trkpt><trkpt lat="43.6068903" lon="11.3100479"><ele>230.0</ele><time>2026-04-12T09:58:46.599Z</time></trkpt><trkpt lat="43.6069273" lon="11.3101257"><ele>232.25</ele><time>2026-04-12T09:58:47.599Z</time></trkpt><trkpt lat="43.6069707" lon="11.3101935"><ele>234.5</ele><time>2026-04-12T09:58:48.6Z</time></trkpt><trkpt lat="43.6071181" lon="11.3104133"><ele>236.75</ele><time>2026-04-12T09:58:51.599Z</time></trkpt><trkpt lat="43.6071776" lon="11.3105038"><ele>239.0</ele><time>2026-04-12T09:58:52.599Z</time></trkpt><trkpt lat="43.6072439" lon="11.3105904"><ele>241.39999999999998</ele><time>2026-04-12T09:58:53.599Z</time></trkpt><trkpt lat="43.6073203" lon="11.3106842"><ele>243.79999999999998</ele><time>2026-04-12T09:58:54.599Z</time></trkpt><trkpt lat="43.6073875" lon="11.3107711"><ele>246.20000000000002</ele><time>2026-04-12T09:58:55.6Z</time></trkpt><trkpt lat="43.6074537" lon="11.3108572"><ele>248.60000000000002</ele><time>2026-04-12T09:58:56.6Z</time></trkpt><trkpt lat="43.6075187" lon="11.3109413"><ele>251.0</ele><time>2026-04-12T09:58:57.6Z</time></trkpt><trkpt lat="43.607587" lon="11.3110376"><ele>251.0</ele><time>2026-04-12T09:58:58.6Z</time></trkpt><trkpt lat="43.6076571" lon="11.3111552"><ele>251.0</ele><time>2026-04-12T09:58:59.6Z</time></trkpt><trkpt lat="43.6077216" lon="11.3112907"><ele>251.0</ele><time>2026-04-12T09:59:00.599Z</time></trkpt><trkpt lat="43.6077914" lon="11.3114414"><ele>251.0</ele><time>2026-04-12T09:59:01.6Z</time></trkpt><trkpt lat="43.6078619" lon="11.3115854"><ele>254.0</ele><time>2026-04-12T09:59:02.599Z</time></trkpt><trkpt lat="43.607934" lon="11.3117351"><ele>257.0</ele><time>2026-04-12T09:59:03.6Z</time></trkpt><trkpt lat="43.6080013" lon="11.3118839"><ele>260.0</ele><time>2026-04-12T09:59:04.6Z</time></trkpt><trkpt lat="43.6080677" lon="11.3120304"><ele>263.0</ele><time>2026-04-12T09:59:05.599Z</time></trkpt><trkpt lat="43.6081389" lon="11.3121632"><ele>263.25</ele><time>2026-04-12T09:59:06.599Z</time></trkpt><trkpt lat="43.6082123" lon="11.3122798"><ele>263.5</ele><time>2026-04-12T09:59:07.599Z</time></trkpt><trkpt lat="43.6083009" lon="11.3123804"><ele>263.75</ele><time>2026-04-12T09:59:08.599Z</time></trkpt><trkpt lat="43.6083944" lon="11.3124701"><ele>264.0</ele><time>2026-04-12T09:59:09.599Z</time></trkpt><trkpt lat="43.6084992" lon="11.3125773"><ele>264.0</ele><time>2026-04-12T09:59:10.6Z</time></trkpt><trkpt lat="43.6086057" lon="11.3126815"><ele>264.0</ele><time>2026-04-12T09:59:11.599Z</time></trkpt><trkpt lat="43.6086985" lon="11.3128146"><ele>264.0</ele><time>2026-04-12T09:59:12.599Z</time></trkpt><trkpt lat="43.6087875" lon="11.3129505"><ele>264.0</ele><time>2026-04-12T09:59:13.6Z</time></trkpt><trkpt lat="43.6088684" lon="11.3130859"><ele>267.4</ele><time>2026-04-12T09:59:14.599Z</time></trkpt><trkpt lat="43.6089456" lon="11.3132202"><ele>270.79999999999995</ele><time>2026-04-12T09:59:15.599Z</time></trkpt><trkpt lat="43.609014" lon="11.3133371"><ele>274.20000000000005</ele><time>2026-04-12T09:59:16.599Z</time></trkpt><trkpt lat="43.6090873" lon="11.3134363"><ele>277.6</ele><time>2026-04-12T09:59:17.6Z</time></trkpt><trkpt lat="43.60917" lon="11.3135225"><ele>281.0</ele><time>2026-04-12T09:59:18.6Z</time></trkpt><trkpt lat="43.6092774" lon="11.3136064"><ele>281.0</ele><time>2026-04-12T09:59:19.6Z</time></trkpt><trkpt lat="43.6093882" lon="11.3136859"><ele>281.0</ele><time>2026-04-12T09:59:20.6Z</time></trkpt><trkpt lat="43.6094975" lon="11.3137608"><ele>281.0</ele><time>2026-04-12T09:59:21.599Z</time></trkpt><trkpt lat="43.6095976" lon="11.3138128"><ele>281.0</ele><time>2026-04-12T09:59:22.599Z</time></trkpt><trkpt lat="43.6096835" lon="11.3138569"><ele>281.0</ele><time>2026-04-12T09:59:23.599Z</time></trkpt><trkpt lat="43.6097597" lon="11.3138938"><ele>283.40000000000003</ele><time>2026-04-12T09:59:24.6Z</time></trkpt><trkpt lat="43.6098417" lon="11.3139576"><ele>285.8</ele><time>2026-04-12T09:59:25.6Z</time></trkpt><trkpt lat="43.6099188" lon="11.3140293"><ele>288.20000000000005</ele><time>2026-04-12T09:59:26.599Z</time></trkpt><trkpt lat="43.6100066" lon="11.3141211"><ele>290.6</ele><time>2026-04-12T09:59:27.599Z</time></trkpt><trkpt lat="43.6101008" lon="11.31422"><ele>293.0</ele><time>2026-04-12T09:59:28.599Z</time></trkpt><trkpt lat="43.6101953" lon="11.3143279"><ele>293.0</ele><time>2026-04-12T09:59:29.599Z</time></trkpt><trkpt lat="43.6102888" lon="11.3144367"><ele>293.0</ele><time>2026-04-12T09:59:30.599Z</time></trkpt><trkpt lat="43.6103942" lon="11.3145556"><ele>293.0</ele><time>2026-04-12T09:59:31.599Z</time></trkpt><trkpt lat="43.6105017" lon="11.3146712"><ele>293.0</ele><time>2026-04-12T09:59:32.6Z</time></trkpt><trkpt lat="43.6105997" lon="11.3147965"><ele>295.6</ele><time>2026-04-12T09:59:33.599Z</time></trkpt><trkpt lat="43.6106849" lon="11.3148897"><ele>298.20000000000005</ele><time>2026-04-12T09:59:34.599Z</time></trkpt><trkpt lat="43.610767" lon="11.3149644"><ele>300.8</ele><time>2026-04-12T09:59:35.599Z</time></trkpt><trkpt lat="43.6108451" lon="11.3150276"><ele>303.40000000000003</ele><time>2026-04-12T09:59:36.599Z</time></trkpt><trkpt lat="43.6109303" lon="11.3150917"><ele>306.0</ele><time>2026-04-12T09:59:37.599Z</time></trkpt><trkpt lat="43.6110123" lon="11.3151613"><ele>306.0</ele><time>2026-04-12T09:59:38.599Z</time></trkpt><trkpt lat="43.6110927" lon="11.3152467"><ele>306.0</ele><time>2026-04-12T09:59:39.6Z</time></trkpt><trkpt lat="43.6111744" lon="11.3153281"><ele>306.0</ele><time>2026-04-12T09:59:40.599Z</time></trkpt><trkpt lat="43.6112656" lon="11.3153951"><ele>306.0</ele><time>2026-04-12T09:59:41.6Z</time></trkpt><trkpt lat="43.6113694" lon="11.3154467"><ele>306.0</ele><time>2026-04-12T09:59:42.599Z</time></trkpt><trkpt lat="43.6114854" lon="11.3154949"><ele>306.75</ele><time>2026-04-12T09:59:43.599Z</time></trkpt><trkpt lat="43.611611" lon="11.3155428"><ele>307.5</ele><time>2026-04-12T09:59:44.599Z</time></trkpt><trkpt lat="43.6117402" lon="11.3156124"><ele>308.25</ele><time>2026-04-12T09:59:45.6Z</time></trkpt><trkpt lat="43.6118641" lon="11.3156949"><ele>309.0</ele><time>2026-04-12T09:59:46.6Z</time></trkpt><trkpt lat="43.611983" lon="11.315772"><ele>311.0</ele><time>2026-04-12T09:59:47.599Z</time></trkpt><trkpt lat="43.612078" lon="11.3158271"><ele>313.0</ele><time>2026-04-12T09:59:48.599Z</time></trkpt><trkpt lat="43.6121701" lon="11.3158667"><ele>315.0</ele><time>2026-04-12T09:59:49.599Z</time></trkpt><trkpt lat="43.6122765" lon="11.3158876"><ele>317.0</ele><time>2026-04-12T09:59:50.599Z</time></trkpt><trkpt lat="43.61239" lon="11.3159079"><ele>319.0</ele><time>2026-04-12T09:59:51.599Z</time></trkpt><trkpt lat="43.6125045" lon="11.3159201"><ele>319.0</ele><time>2026-04-12T09:59:52.599Z</time></trkpt><trkpt lat="43.6126242" lon="11.3159477"><ele>319.0</ele><time>2026-04-12T09:59:53.6Z</time></trkpt><trkpt lat="43.6127464" lon="11.3159737"><ele>319.0</ele><time>2026-04-12T09:59:54.599Z</time></trkpt><trkpt lat="43.6128743" lon="11.316003"><ele>319.0</ele><time>2026-04-12T09:59:55.599Z</time></trkpt><trkpt lat="43.6130134" lon="11.3160498"><ele>321.0</ele><time>2026-04-12T09:59:56.599Z</time></trkpt><trkpt lat="43.6131615" lon="11.3160993"><ele>323.0</ele><time>2026-04-12T09:59:57.599Z</time></trkpt><trkpt lat="43.6133172" lon="11.3161502"><ele>325.0</ele><time>2026-04-12T09:59:58.599Z</time></trkpt><trkpt lat="43.613479" lon="11.3161884"><ele>325.0</ele><time>2026-04-12T09:59:59.599Z</time></trkpt><trkpt lat="43.6136313" lon="11.3162268"><ele>325.0</ele><time>2026-04-12T10:00:00.599Z</time></trkpt><trkpt lat="43.6137811" lon="11.3162636"><ele>325.0</ele><time>2026-04-12T10:00:01.6Z</time></trkpt><trkpt lat="43.6139262" lon="11.3162985"><ele>327.25</ele><time>2026-04-12T10:00:02.6Z</time></trkpt><trkpt lat="43.6140651" lon="11.31633"><ele>329.5</ele><time>2026-04-12T10:00:03.6Z</time></trkpt><trkpt lat="43.6142063" lon="11.3163338"><ele>331.75</ele><time>2026-04-12T10:00:04.599Z</time></trkpt><trkpt lat="43.6143556" lon="11.3163272"><ele>334.0</ele><time>2026-04-12T10:00:05.599Z</time></trkpt><trkpt lat="43.614503" lon="11.3163268"><ele>335.75</ele><time>2026-04-12T10:00:06.6Z</time></trkpt><trkpt lat="43.6146479" lon="11.3163473"><ele>337.5</ele><time>2026-04-12T10:00:07.6Z</time></trkpt><trkpt lat="43.6147876" lon="11.3163822"><ele>339.25</ele><time>2026-04-12T10:00:08.6Z</time></trkpt><trkpt lat="43.6149272" lon="11.3164029"><ele>341.0</ele><time>2026-04-12T10:00:09.6Z</time></trkpt><trkpt lat="43.6150615" lon="11.3164147"><ele>341.0</ele><time>2026-04-12T10:00:10.599Z</time></trkpt><trkpt lat="43.6151835" lon="11.3164192"><ele>341.0</ele><time>2026-04-12T10:00:11.6Z</time></trkpt><trkpt lat="43.6153044" lon="11.3164091"><ele>341.0</ele><time>2026-04-12T10:00:12.599Z</time></trkpt><trkpt lat="43.6154272" lon="11.3163998"><ele>341.0</ele><time>2026-04-12T10:00:13.6Z</time></trkpt><trkpt lat="43.615542" lon="11.3164035"><ele>344.75</ele><time>2026-04-12T10:00:14.599Z</time></trkpt><trkpt lat="43.615656" lon="11.3164278"><ele>348.5</ele><time>2026-04-12T10:00:15.6Z</time></trkpt><trkpt lat="43.6157644" lon="11.3164787"><ele>352.25</ele><time>2026-04-12T10:00:16.599Z</time></trkpt><trkpt lat="43.6158662" lon="11.3165495"><ele>356.0</ele><time>2026-04-12T10:00:17.599Z</time></trkpt><trkpt lat="43.6159685" lon="11.3166253"><ele>356.0</ele><time>2026-04-12T10:00:18.6Z</time></trkpt><trkpt lat="43.6160721" lon="11.3166833"><ele>356.0</ele><time>2026-04-12T10:00:19.599Z</time></trkpt><trkpt lat="43.6161673" lon="11.3167277"><ele>356.0</ele><time>2026-04-12T10:00:20.599Z</time></trkpt><trkpt lat="43.6162508" lon="11.3167524"><ele>356.0</ele><time>2026-04-12T10:00:21.6Z</time></trkpt><trkpt lat="43.616335" lon="11.3167683"><ele>356.0</ele><time>2026-04-12T10:00:22.6Z</time></trkpt><trkpt lat="43.6164039" lon="11.3168258"><ele>356.6</ele><time>2026-04-12T10:00:23.6Z</time></trkpt><trkpt lat="43.6164707" lon="11.3169127"><ele>357.20000000000005</ele><time>2026-04-12T10:00:24.6Z</time></trkpt><trkpt lat="43.616544" lon="11.3170318"><ele>357.79999999999995</ele><time>2026-04-12T10:00:25.599Z</time></trkpt><trkpt lat="43.6166219" lon="11.3171429"><ele>358.4</ele><time>2026-04-12T10:00:26.599Z</time></trkpt><trkpt lat="43.6167059" lon="11.3172429"><ele>359.0</ele><time>2026-04-12T10:00:27.599Z</time></trkpt><trkpt lat="43.6167862" lon="11.3173469"><ele>359.4</ele><time>2026-04-12T10:00:28.599Z</time></trkpt><trkpt lat="43.6168638" lon="11.317455"><ele>359.79999999999995</ele><time>2026-04-12T10:00:29.599Z</time></trkpt><trkpt lat="43.6169426" lon="11.317563"><ele>360.20000000000005</ele><time>2026-04-12T10:00:30.599Z</time></trkpt><trkpt lat="43.6170109" lon="11.3176373"><ele>360.6</ele><time>2026-04-12T10:00:31.599Z</time></trkpt><trkpt lat="43.61707" lon="11.3176804"><ele>361.0</ele><time>2026-04-12T10:00:32.599Z</time></trkpt><trkpt lat="43.6171963" lon="11.3177327"><ele>361.0</ele><time>2026-04-12T10:00:34.599Z</time></trkpt><trkpt lat="43.6172616" lon="11.3177599"><ele>361.0</ele><time>2026-04-12T10:00:35.6Z</time></trkpt><trkpt lat="43.6173277" lon="11.3178079"><ele>361.0</ele><time>2026-04-12T10:00:36.599Z</time></trkpt><trkpt lat="43.6173991" lon="11.3178646"><ele>361.0</ele><time>2026-04-12T10:00:37.599Z</time></trkpt><trkpt lat="43.6174753" lon="11.3179352"><ele>361.0</ele><time>2026-04-12T10:00:38.599Z</time></trkpt><trkpt lat="43.6175604" lon="11.3179999"><ele>361.0</ele><time>2026-04-12T10:00:39.6Z</time></trkpt><trkpt lat="43.617649" lon="11.3180691"><ele>361.20000000000005</ele><time>2026-04-12T10:00:40.6Z</time></trkpt><trkpt lat="43.6177321" lon="11.3181375"><ele>361.40000000000003</ele><time>2026-04-12T10:00:41.599Z</time></trkpt><trkpt lat="43.6178161" lon="11.3182005"><ele>361.6</ele><time>2026-04-12T10:00:42.6Z</time></trkpt><trkpt lat="43.6178995" lon="11.3182618"><ele>361.8</ele><time>2026-04-12T10:00:43.6Z</time></trkpt><trkpt lat="43.6179852" lon="11.3183102"><ele>362.0</ele><time>2026-04-12T10:00:44.599Z</time></trkpt><trkpt lat="43.6180638" lon="11.3183555"><ele>362.0</ele><time>2026-04-12T10:00:45.599Z</time></trkpt><trkpt lat="43.6181298" lon="11.3184178"><ele>362.0</ele><time>2026-04-12T10:00:46.6Z</time></trkpt><trkpt lat="43.6181999" lon="11.3184917"><ele>362.0</ele><time>2026-04-12T10:00:47.6Z</time></trkpt><trkpt lat="43.6182702" lon="11.3185741"><ele>362.0</ele><time>2026-04-12T10:00:48.6Z</time></trkpt><trkpt lat="43.6183461" lon="11.3186711"><ele>362.0</ele><time>2026-04-12T10:00:49.599Z</time></trkpt><trkpt lat="43.6184189" lon="11.3187765"><ele>362.0</ele><time>2026-04-12T10:00:50.599Z</time></trkpt><trkpt lat="43.6184865" lon="11.3188734"><ele>362.0</ele><time>2026-04-12T10:00:51.599Z</time></trkpt><trkpt lat="43.6185499" lon="11.3189671"><ele>362.0</ele><time>2026-04-12T10:00:52.599Z</time></trkpt><trkpt lat="43.6186136" lon="11.3190471"><ele>362.0</ele><time>2026-04-12T10:00:53.6Z</time></trkpt><trkpt lat="43.6186748" lon="11.3191214"><ele>362.0</ele><time>2026-04-12T10:00:54.6Z</time></trkpt><trkpt lat="43.6187311" lon="11.3191926"><ele>362.0</ele><time>2026-04-12T10:00:55.599Z</time></trkpt><trkpt lat="43.6187792" lon="11.3192544"><ele>361.1666666666667</ele><time>2026-04-12T10:00:56.599Z</time></trkpt><trkpt lat="43.6188276" lon="11.3193131"><ele>360.33333333333337</ele><time>2026-04-12T10:00:57.599Z</time></trkpt><trkpt lat="43.61892" lon="11.3194167"><ele>359.5</ele><time>2026-04-12T10:00:59.599Z</time></trkpt><trkpt lat="43.6190082" lon="11.3195387"><ele>358.6666666666667</ele><time>2026-04-12T10:01:01.599Z</time></trkpt><trkpt lat="43.6190598" lon="11.3196032"><ele>357.8333333333333</ele><time>2026-04-12T10:01:02.599Z</time></trkpt><trkpt lat="43.61911" lon="11.3196612"><ele>357.0</ele><time>2026-04-12T10:01:03.599Z</time></trkpt><trkpt lat="43.6191648" lon="11.3197249"><ele>357.20000000000005</ele><time>2026-04-12T10:01:04.599Z</time></trkpt><trkpt lat="43.6192154" lon="11.3197773"><ele>357.4</ele><time>2026-04-12T10:01:05.599Z</time></trkpt><trkpt lat="43.6193048" lon="11.319893"><ele>357.6</ele><time>2026-04-12T10:01:07.599Z</time></trkpt><trkpt lat="43.619381" lon="11.320015"><ele>357.79999999999995</ele><time>2026-04-12T10:01:09.599Z</time></trkpt><trkpt lat="43.6194729" lon="11.3201388"><ele>358.0</ele><time>2026-04-12T10:01:11.599Z</time></trkpt><trkpt lat="43.6195216" lon="11.3202007"><ele>358.0</ele><time>2026-04-12T10:01:12.6Z</time></trkpt><trkpt lat="43.6196166" lon="11.3203193"><ele>358.0</ele><time>2026-04-12T10:01:14.6Z</time></trkpt><trkpt lat="43.6196567" lon="11.3203866"><ele>358.0</ele><time>2026-04-12T10:01:15.599Z</time></trkpt><trkpt lat="43.619724" lon="11.32054"><ele>358.0</ele><time>2026-04-12T10:01:17.6Z</time></trkpt><trkpt lat="43.6197544" lon="11.3206285"><ele>358.0</ele><time>2026-04-12T10:01:18.6Z</time></trkpt><trkpt lat="43.6197909" lon="11.320713"><ele>358.16666666666663</ele><time>2026-04-12T10:01:19.599Z</time></trkpt><trkpt lat="43.6198247" lon="11.3207947"><ele>358.3333333333333</ele><time>2026-04-12T10:01:20.599Z</time></trkpt><trkpt lat="43.6198595" lon="11.3208729"><ele>358.5</ele><time>2026-04-12T10:01:21.599Z</time></trkpt><trkpt lat="43.6198934" lon="11.3209526"><ele>358.6666666666667</ele><time>2026-04-12T10:01:22.599Z</time></trkpt><trkpt lat="43.6199473" lon="11.3210981"><ele>358.83333333333337</ele><time>2026-04-12T10:01:24.599Z</time></trkpt><trkpt lat="43.6199926" lon="11.3211938"><ele>359.0</ele><time>2026-04-12T10:01:26.599Z</time></trkpt><trkpt lat="43.6200626" lon="11.321208"><ele>359.0</ele><time>2026-04-12T10:02:16.6Z</time></trkpt><trkpt lat="43.6201482" lon="11.3211409"><ele>359.0</ele><time>2026-04-12T10:02:18.599Z</time></trkpt><trkpt lat="43.620211" lon="11.3210982"><ele>359.0</ele><time>2026-04-12T10:02:19.6Z</time></trkpt><trkpt lat="43.620271" lon="11.3210653"><ele>359.0</ele><time>2026-04-12T10:02:20.6Z</time></trkpt><trkpt lat="43.6203322" lon="11.3210399"><ele>359.0</ele><time>2026-04-12T10:02:21.599Z</time></trkpt><trkpt lat="43.6203971" lon="11.3210054"><ele>359.0</ele><time>2026-04-12T10:02:22.599Z</time></trkpt><trkpt lat="43.6204586" lon="11.3209783"><ele>359.0</ele><time>2026-04-12T10:02:23.6Z</time></trkpt><trkpt lat="43.6205225" lon="11.3209533"><ele>357.5</ele><time>2026-04-12T10:02:24.599Z</time></trkpt><trkpt lat="43.6206258" lon="11.3208946"><ele>356.0</ele><time>2026-04-12T10:02:26.6Z</time></trkpt><trkpt lat="43.6207232" lon="11.3208377"><ele>354.5</ele><time>2026-04-12T10:02:28.599Z</time></trkpt><trkpt lat="43.6207876" lon="11.3208147"><ele>353.0</ele><time>2026-04-12T10:02:29.599Z</time></trkpt><trkpt lat="43.6208556" lon="11.3207997"><ele>351.5</ele><time>2026-04-12T10:02:30.599Z</time></trkpt><trkpt lat="43.6209365" lon="11.320771"><ele>350.0</ele><time>2026-04-12T10:02:31.6Z</time></trkpt><trkpt lat="43.6210184" lon="11.3207587"><ele>350.0</ele><time>2026-04-12T10:02:32.599Z</time></trkpt><trkpt lat="43.6210928" lon="11.3207482"><ele>350.0</ele><time>2026-04-12T10:02:33.599Z</time></trkpt><trkpt lat="43.6211643" lon="11.3207315"><ele>350.0</ele><time>2026-04-12T10:02:34.599Z</time></trkpt><trkpt lat="43.6212359" lon="11.3207199"><ele>350.0</ele><time>2026-04-12T10:02:35.6Z</time></trkpt><trkpt lat="43.6212982" lon="11.3207048"><ele>350.0</ele><time>2026-04-12T10:02:36.599Z</time></trkpt><trkpt lat="43.6214004" lon="11.3206993"><ele>350.0</ele><time>2026-04-12T10:02:38.599Z</time></trkpt><trkpt lat="43.6214933" lon="11.3207075"><ele>347.0</ele><time>2026-04-12T10:02:40.6Z</time></trkpt><trkpt lat="43.6215859" lon="11.3208226"><ele>344.0</ele><time>2026-04-12T10:02:42.599Z</time></trkpt><trkpt lat="43.6216253" lon="11.3209053"><ele>341.0</ele><time>2026-04-12T10:02:43.6Z</time></trkpt><trkpt lat="43.6216739" lon="11.321068"><ele>338.0</ele><time>2026-04-12T10:02:45.599Z</time></trkpt><trkpt lat="43.6217237" lon="11.3212019"><ele>335.0</ele><time>2026-04-12T10:02:47.6Z</time></trkpt><trkpt lat="43.6217684" lon="11.3212959"><ele>334.99999999999994</ele><time>2026-04-12T10:02:49.599Z</time></trkpt><trkpt lat="43.6218438" lon="11.3212866"><ele>335.0</ele><time>2026-04-12T10:02:51.6Z</time></trkpt><trkpt lat="43.6219052" lon="11.321246"><ele>335.0</ele><time>2026-04-12T10:02:52.6Z</time></trkpt><trkpt lat="43.6219631" lon="11.3211956"><ele>335.0</ele><time>2026-04-12T10:02:53.6Z</time></trkpt><trkpt lat="43.6220134" lon="11.3211379"><ele>335.0</ele><time>2026-04-12T10:02:54.599Z</time></trkpt><trkpt lat="43.622075" lon="11.3210779"><ele>334.99999999999994</ele><time>2026-04-12T10:02:55.599Z</time></trkpt><trkpt lat="43.6221416" lon="11.3210027"><ele>335.0</ele><time>2026-04-12T10:02:56.6Z</time></trkpt><trkpt lat="43.6221933" lon="11.3209231"><ele>335.2</ele><time>2026-04-12T10:02:57.6Z</time></trkpt><trkpt lat="43.6222463" lon="11.3208076"><ele>335.4</ele><time>2026-04-12T10:02:58.6Z</time></trkpt><trkpt lat="43.62231" lon="11.3207032"><ele>335.6</ele><time>2026-04-12T10:02:59.599Z</time></trkpt><trkpt lat="43.6223606" lon="11.3205746"><ele>335.8</ele><time>2026-04-12T10:03:00.6Z</time></trkpt><trkpt lat="43.6224079" lon="11.32044"><ele>336.0</ele><time>2026-04-12T10:03:01.599Z</time></trkpt><trkpt lat="43.6224493" lon="11.3202976"><ele>334.20000000000005</ele><time>2026-04-12T10:03:02.599Z</time></trkpt><trkpt lat="43.6224871" lon="11.3201497"><ele>332.40000000000003</ele><time>2026-04-12T10:03:03.6Z</time></trkpt><trkpt lat="43.622521" lon="11.3199816"><ele>330.6</ele><time>2026-04-12T10:03:04.599Z</time></trkpt><trkpt lat="43.6225473" lon="11.3198537"><ele>328.8</ele><time>2026-04-12T10:03:05.6Z</time></trkpt><trkpt lat="43.6225918" lon="11.3197416"><ele>327.0</ele><time>2026-04-12T10:03:06.6Z</time></trkpt><trkpt lat="43.6226385" lon="11.3196342"><ele>325.8</ele><time>2026-04-12T10:03:07.6Z</time></trkpt><trkpt lat="43.6226951" lon="11.3195266"><ele>324.6</ele><time>2026-04-12T10:03:08.6Z</time></trkpt><trkpt lat="43.6227542" lon="11.3194663"><ele>323.40000000000003</ele><time>2026-04-12T10:03:09.599Z</time></trkpt><trkpt lat="43.6228346" lon="11.319465"><ele>322.20000000000005</ele><time>2026-04-12T10:03:11.6Z</time></trkpt><trkpt lat="43.6229186" lon="11.3195248"><ele>321.0</ele><time>2026-04-12T10:03:14.6Z</time></trkpt><trkpt lat="43.6230166" lon="11.3196157"><ele>321.0</ele><time>2026-04-12T10:03:16.6Z</time></trkpt><trkpt lat="43.623103" lon="11.3197072"><ele>321.0</ele><time>2026-04-12T10:03:18.599Z</time></trkpt><trkpt lat="43.6231707" lon="11.3197308"><ele>321.0</ele><time>2026-04-12T10:03:19.599Z</time></trkpt><trkpt lat="43.6232512" lon="11.3197582"><ele>321.0</ele><time>2026-04-12T10:03:20.6Z</time></trkpt><trkpt lat="43.6233368" lon="11.3197876"><ele>321.0</ele><time>2026-04-12T10:03:21.6Z</time></trkpt><trkpt lat="43.6234385" lon="11.3198203"><ele>323.6666666666667</ele><time>2026-04-12T10:03:22.599Z</time></trkpt><trkpt lat="43.6235211" lon="11.31982"><ele>326.3333333333333</ele><time>2026-04-12T10:03:23.599Z</time></trkpt><trkpt lat="43.6236001" lon="11.3198083"><ele>329.0</ele><time>2026-04-12T10:03:24.6Z</time></trkpt><trkpt lat="43.6236765" lon="11.3197916"><ele>331.66666666666663</ele><time>2026-04-12T10:03:25.6Z</time></trkpt><trkpt lat="43.6237562" lon="11.3197389"><ele>334.3333333333333</ele><time>2026-04-12T10:03:26.599Z</time></trkpt><trkpt lat="43.6238266" lon="11.3196528"><ele>337.0</ele><time>2026-04-12T10:03:27.6Z</time></trkpt><trkpt lat="43.6238736" lon="11.3195666"><ele>337.0</ele><time>2026-04-12T10:03:28.6Z</time></trkpt><trkpt lat="43.6239262" lon="11.3194929"><ele>337.0</ele><time>2026-04-12T10:03:29.6Z</time></trkpt><trkpt lat="43.6240186" lon="11.3194262"><ele>337.0</ele><time>2026-04-12T10:03:31.599Z</time></trkpt><trkpt lat="43.6241161" lon="11.3194324"><ele>337.0</ele><time>2026-04-12T10:03:33.6Z</time></trkpt><trkpt lat="43.624201" lon="11.3195149"><ele>337.0</ele><time>2026-04-12T10:03:35.6Z</time></trkpt><trkpt lat="43.6242346" lon="11.3196445"><ele>340.0</ele><time>2026-04-12T10:03:37.6Z</time></trkpt><trkpt lat="43.6242503" lon="11.3198217"><ele>343.0</ele><time>2026-04-12T10:03:39.599Z</time></trkpt><trkpt lat="43.6242591" lon="11.3199248"><ele>346.0</ele><time>2026-04-12T10:03:40.599Z</time></trkpt><trkpt lat="43.6242735" lon="11.3200133"><ele>349.0</ele><time>2026-04-12T10:03:41.599Z</time></trkpt><trkpt lat="43.6242833" lon="11.320125"><ele>352.0</ele><time>2026-04-12T10:03:42.598Z</time></trkpt><trkpt lat="43.6243197" lon="11.3202522"><ele>352.0</ele><time>2026-04-12T10:03:43.598Z</time></trkpt><trkpt lat="43.6243472" lon="11.3203948"><ele>352.0</ele><time>2026-04-12T10:03:44.599Z</time></trkpt><trkpt lat="43.6243959" lon="11.3205246"><ele>352.0</ele><time>2026-04-12T10:03:45.598Z</time></trkpt><trkpt lat="43.6244333" lon="11.3206516"><ele>352.0</ele><time>2026-04-12T10:03:46.598Z</time></trkpt><trkpt lat="43.6244817" lon="11.3207828"><ele>352.0</ele><time>2026-04-12T10:03:47.599Z</time></trkpt><trkpt lat="43.6245262" lon="11.3209207"><ele>353.0</ele><time>2026-04-12T10:03:48.598Z</time></trkpt><trkpt lat="43.6245822" lon="11.3210579"><ele>354.0</ele><time>2026-04-12T10:03:49.599Z</time></trkpt><trkpt lat="43.6246426" lon="11.321208"><ele>355.0</ele><time>2026-04-12T10:03:50.598Z</time></trkpt><trkpt lat="43.624693" lon="11.3213449"><ele>356.0</ele><time>2026-04-12T10:03:51.599Z</time></trkpt><trkpt lat="43.6247357" lon="11.3214809"><ele>357.8</ele><time>2026-04-12T10:03:52.599Z</time></trkpt><trkpt lat="43.6247853" lon="11.3216263"><ele>359.6</ele><time>2026-04-12T10:03:53.598Z</time></trkpt><trkpt lat="43.6248353" lon="11.3217462"><ele>361.4</ele><time>2026-04-12T10:03:54.599Z</time></trkpt><trkpt lat="43.6248764" lon="11.3218627"><ele>363.2</ele><time>2026-04-12T10:03:55.599Z</time></trkpt><trkpt lat="43.6249047" lon="11.3219669"><ele>365.0</ele><time>2026-04-12T10:03:56.598Z</time></trkpt><trkpt lat="43.6249452" lon="11.3220647"><ele>365.0</ele><time>2026-04-12T10:03:57.599Z</time></trkpt><trkpt lat="43.6249945" lon="11.322139"><ele>365.0</ele><time>2026-04-12T10:03:58.598Z</time></trkpt><trkpt lat="43.6250522" lon="11.3221997"><ele>365.0</ele><time>2026-04-12T10:03:59.599Z</time></trkpt><trkpt lat="43.6251548" lon="11.3222489"><ele>365.0</ele><time>2026-04-12T10:04:01.599Z</time></trkpt><trkpt lat="43.6252256" lon="11.3222448"><ele>365.0</ele><time>2026-04-12T10:04:03.598Z</time></trkpt><trkpt lat="43.625245" lon="11.3221223"><ele>365.0</ele><time>2026-04-12T10:04:06.599Z</time></trkpt><trkpt lat="43.6252056" lon="11.3219623"><ele>365.0</ele><time>2026-04-12T10:04:08.598Z</time></trkpt><trkpt lat="43.6251731" lon="11.321844"><ele>365.0</ele><time>2026-04-12T10:04:09.599Z</time></trkpt><trkpt lat="43.6251739" lon="11.3217261"><ele>365.0</ele><time>2026-04-12T10:04:10.599Z</time></trkpt><trkpt lat="43.6251748" lon="11.3216012"><ele>365.0</ele><time>2026-04-12T10:04:11.598Z</time></trkpt><trkpt lat="43.6251833" lon="11.3214865"><ele>365.0</ele><time>2026-04-12T10:04:12.598Z</time></trkpt><trkpt lat="43.6252064" lon="11.3213624"><ele>365.0</ele><time>2026-04-12T10:04:13.598Z</time></trkpt><trkpt lat="43.6252397" lon="11.3212472"><ele>365.8</ele><time>2026-04-12T10:04:14.599Z</time></trkpt><trkpt lat="43.6252849" lon="11.3211286"><ele>366.6</ele><time>2026-04-12T10:04:15.599Z</time></trkpt><trkpt lat="43.6253208" lon="11.3210153"><ele>367.4</ele><time>2026-04-12T10:04:16.598Z</time></trkpt><trkpt lat="43.62536" lon="11.3208892"><ele>368.2</ele><time>2026-04-12T10:04:17.599Z</time></trkpt><trkpt lat="43.6253963" lon="11.3207566"><ele>369.0</ele><time>2026-04-12T10:04:18.598Z</time></trkpt><trkpt lat="43.6254305" lon="11.3206209"><ele>367.8333333333333</ele><time>2026-04-12T10:04:19.598Z</time></trkpt><trkpt lat="43.6254649" lon="11.3204885"><ele>366.6666666666667</ele><time>2026-04-12T10:04:20.599Z</time></trkpt><trkpt lat="43.6254999" lon="11.3203645"><ele>365.5</ele><time>2026-04-12T10:04:21.598Z</time></trkpt><trkpt lat="43.625536" lon="11.3202523"><ele>364.33333333333337</ele><time>2026-04-12T10:04:22.598Z</time></trkpt><trkpt lat="43.6255663" lon="11.3201488"><ele>363.1666666666667</ele><time>2026-04-12T10:04:23.598Z</time></trkpt><trkpt lat="43.6255992" lon="11.3200642"><ele>362.0</ele><time>2026-04-12T10:04:24.598Z</time></trkpt><trkpt lat="43.6256419" lon="11.319998"><ele>362.0</ele><time>2026-04-12T10:04:25.598Z</time></trkpt><trkpt lat="43.6257203" lon="11.3198808"><ele>362.0</ele><time>2026-04-12T10:04:27.598Z</time></trkpt><trkpt lat="43.6257884" lon="11.3198238"><ele>362.0</ele><time>2026-04-12T10:04:29.598Z</time></trkpt><trkpt lat="43.6258594" lon="11.3198281"><ele>362.0</ele><time>2026-04-12T10:04:32.598Z</time></trkpt><trkpt lat="43.6258801" lon="11.3199124"><ele>362.0</ele><time>2026-04-12T10:04:38.598Z</time></trkpt><trkpt lat="43.6259503" lon="11.3199042"><ele>362.0</ele><time>2026-04-12T10:04:51.599Z</time></trkpt><trkpt lat="43.6260189" lon="11.3199857"><ele>362.0</ele><time>2026-04-12T10:04:54.598Z</time></trkpt><trkpt lat="43.6260912" lon="11.3201288"><ele>362.0</ele><time>2026-04-12T10:04:56.599Z</time></trkpt><trkpt lat="43.6261274" lon="11.3202275"><ele>362.0</ele><time>2026-04-12T10:04:57.598Z</time></trkpt><trkpt lat="43.6261585" lon="11.32032"><ele>362.0</ele><time>2026-04-12T10:04:58.598Z</time></trkpt><trkpt lat="43.6262085" lon="11.3204773"><ele>362.0</ele><time>2026-04-12T10:05:00.598Z</time></trkpt><trkpt lat="43.6262377" lon="11.3205547"><ele>362.57142857142856</ele><time>2026-04-12T10:05:01.598Z</time></trkpt><trkpt lat="43.62627" lon="11.320645"><ele>363.1428571428571</ele><time>2026-04-12T10:05:02.598Z</time></trkpt><trkpt lat="43.6263063" lon="11.3207256"><ele>363.7142857142857</ele><time>2026-04-12T10:05:03.599Z</time></trkpt><trkpt lat="43.6263583" lon="11.3208062"><ele>364.2857142857143</ele><time>2026-04-12T10:05:04.599Z</time></trkpt><trkpt lat="43.6264038" lon="11.3208711"><ele>364.8571428571429</ele><time>2026-04-12T10:05:05.598Z</time></trkpt><trkpt lat="43.6264526" lon="11.3209478"><ele>365.42857142857144</ele><time>2026-04-12T10:05:06.599Z</time></trkpt><trkpt lat="43.6264879" lon="11.3210347"><ele>366.0</ele><time>2026-04-12T10:05:07.598Z</time></trkpt><trkpt lat="43.6265144" lon="11.3211249"><ele>366.0</ele><time>2026-04-12T10:05:08.598Z</time></trkpt><trkpt lat="43.626545" lon="11.3212261"><ele>366.0</ele><time>2026-04-12T10:05:09.598Z</time></trkpt><trkpt lat="43.6265911" lon="11.3213371"><ele>366.0</ele><time>2026-04-12T10:05:10.598Z</time></trkpt><trkpt lat="43.6266601" lon="11.3214395"><ele>366.0</ele><time>2026-04-12T10:05:11.598Z</time></trkpt><trkpt lat="43.6267206" lon="11.3215179"><ele>366.0</ele><time>2026-04-12T10:05:12.598Z</time></trkpt><trkpt lat="43.6267839" lon="11.3216058"><ele>366.0</ele><time>2026-04-12T10:05:13.599Z</time></trkpt><trkpt lat="43.6268415" lon="11.3216925"><ele>368.0</ele><time>2026-04-12T10:05:14.598Z</time></trkpt><trkpt lat="43.6268838" lon="11.3217662"><ele>370.0</ele><time>2026-04-12T10:05:15.598Z</time></trkpt><trkpt lat="43.626972" lon="11.3218636"><ele>372.0</ele><time>2026-04-12T10:05:17.599Z</time></trkpt><trkpt lat="43.6270425" lon="11.3218459"><ele>374.0</ele><time>2026-04-12T10:05:19.599Z</time></trkpt><trkpt lat="43.6270831" lon="11.3217713"><ele>376.0</ele><time>2026-04-12T10:05:21.599Z</time></trkpt><trkpt lat="43.6270804" lon="11.3215737"><ele>376.66666666666663</ele><time>2026-04-12T10:05:23.599Z</time></trkpt><trkpt lat="43.6270836" lon="11.3214478"><ele>377.3333333333333</ele><time>2026-04-12T10:05:24.599Z</time></trkpt><trkpt lat="43.6270911" lon="11.3213328"><ele>378.0</ele><time>2026-04-12T10:05:25.598Z</time></trkpt><trkpt lat="43.6271007" lon="11.3212319"><ele>378.6666666666667</ele><time>2026-04-12T10:05:26.598Z</time></trkpt><trkpt lat="43.6271493" lon="11.3211052"><ele>379.33333333333337</ele><time>2026-04-12T10:05:28.598Z</time></trkpt><trkpt lat="43.6272157" lon="11.3210976"><ele>380.0</ele><time>2026-04-12T10:05:30.599Z</time></trkpt><trkpt lat="43.6272914" lon="11.3211631"><ele>377.8</ele><time>2026-04-12T10:05:32.598Z</time></trkpt><trkpt lat="43.627384" lon="11.3212499"><ele>375.6</ele><time>2026-04-12T10:05:34.599Z</time></trkpt><trkpt lat="43.6274746" lon="11.3212998"><ele>373.4</ele><time>2026-04-12T10:05:36.598Z</time></trkpt><trkpt lat="43.6275761" lon="11.3213633"><ele>371.2</ele><time>2026-04-12T10:05:38.598Z</time></trkpt><trkpt lat="43.6276991" lon="11.3213704"><ele>369.0</ele><time>2026-04-12T10:05:40.598Z</time></trkpt><trkpt lat="43.6277613" lon="11.3213219"><ele>371.6</ele><time>2026-04-12T10:05:41.598Z</time></trkpt><trkpt lat="43.6278404" lon="11.321247"><ele>374.2</ele><time>2026-04-12T10:05:42.598Z</time></trkpt><trkpt lat="43.6279021" lon="11.3211613"><ele>376.8</ele><time>2026-04-12T10:05:43.599Z</time></trkpt><trkpt lat="43.6279392" lon="11.3210583"><ele>379.40000000000003</ele><time>2026-04-12T10:05:44.599Z</time></trkpt><trkpt lat="43.6279705" lon="11.3209173"><ele>382.0</ele><time>2026-04-12T10:05:45.599Z</time></trkpt><trkpt lat="43.6280296" lon="11.320783"><ele>382.0</ele><time>2026-04-12T10:05:46.598Z</time></trkpt><trkpt lat="43.6280723" lon="11.3206774"><ele>382.0</ele><time>2026-04-12T10:05:47.599Z</time></trkpt><trkpt lat="43.6281155" lon="11.320574"><ele>382.0</ele><time>2026-04-12T10:05:48.598Z</time></trkpt><trkpt lat="43.6281508" lon="11.3204642"><ele>382.0</ele><time>2026-04-12T10:05:49.598Z</time></trkpt><trkpt lat="43.6281695" lon="11.3203434"><ele>382.0</ele><time>2026-04-12T10:05:50.599Z</time></trkpt><trkpt lat="43.6281754" lon="11.3202279"><ele>382.0</ele><time>2026-04-12T10:05:51.598Z</time></trkpt><trkpt lat="43.6281874" lon="11.3201284"><ele>380.20000000000005</ele><time>2026-04-12T10:05:52.598Z</time></trkpt><trkpt lat="43.6281994" lon="11.320037"><ele>378.4</ele><time>2026-04-12T10:05:53.598Z</time></trkpt><trkpt lat="43.6282688" lon="11.3198974"><ele>376.6</ele><time>2026-04-12T10:05:55.599Z</time></trkpt><trkpt lat="43.6283264" lon="11.3198539"><ele>374.79999999999995</ele><time>2026-04-12T10:05:56.598Z</time></trkpt><trkpt lat="43.6284578" lon="11.3198192"><ele>373.0</ele><time>2026-04-12T10:05:58.599Z</time></trkpt><trkpt lat="43.6285296" lon="11.3198097"><ele>373.0</ele><time>2026-04-12T10:05:59.598Z</time></trkpt><trkpt lat="43.6286062" lon="11.3198184"><ele>373.0</ele><time>2026-04-12T10:06:00.598Z</time></trkpt><trkpt lat="43.6286786" lon="11.319834"><ele>373.0</ele><time>2026-04-12T10:06:01.598Z</time></trkpt><trkpt lat="43.6287862" lon="11.319874"><ele>373.0</ele><time>2026-04-12T10:06:03.599Z</time></trkpt><trkpt lat="43.6288811" lon="11.3198615"><ele>373.0</ele><time>2026-04-12T10:06:05.598Z</time></trkpt><trkpt lat="43.6289511" lon="11.3197779"><ele>373.0</ele><time>2026-04-12T10:06:07.598Z</time></trkpt><trkpt lat="43.6289578" lon="11.3196909"><ele>373.2</ele><time>2026-04-12T10:06:08.599Z</time></trkpt><trkpt lat="43.6289534" lon="11.3195887"><ele>373.4</ele><time>2026-04-12T10:06:09.598Z</time></trkpt><trkpt lat="43.6289532" lon="11.3194683"><ele>373.59999999999997</ele><time>2026-04-12T10:06:10.598Z</time></trkpt><trkpt lat="43.628925" lon="11.3193437"><ele>373.79999999999995</ele><time>2026-04-12T10:06:11.599Z</time></trkpt><trkpt lat="43.6288944" lon="11.3192126"><ele>374.0</ele><time>2026-04-12T10:06:12.598Z</time></trkpt><trkpt lat="43.6288636" lon="11.3190841"><ele>374.0</ele><time>2026-04-12T10:06:13.599Z</time></trkpt><trkpt lat="43.628834" lon="11.3189619"><ele>374.0</ele><time>2026-04-12T10:06:14.599Z</time></trkpt><trkpt lat="43.628805" lon="11.3188545"><ele>374.0</ele><time>2026-04-12T10:06:15.598Z</time></trkpt><trkpt lat="43.6287794" lon="11.3187356"><ele>374.0</ele><time>2026-04-12T10:06:16.599Z</time></trkpt><trkpt lat="43.6287563" lon="11.3186031"><ele>374.0</ele><time>2026-04-12T10:06:17.599Z</time></trkpt><trkpt lat="43.6287216" lon="11.3184909"><ele>372.79999999999995</ele><time>2026-04-12T10:06:18.598Z</time></trkpt><trkpt lat="43.6286921" lon="11.3183981"><ele>371.59999999999997</ele><time>2026-04-12T10:06:19.599Z</time></trkpt><trkpt lat="43.6286683" lon="11.3183041"><ele>370.4</ele><time>2026-04-12T10:06:20.599Z</time></trkpt><trkpt lat="43.6286439" lon="11.318127"><ele>369.2</ele><time>2026-04-12T10:06:22.598Z</time></trkpt><trkpt lat="43.628658" lon="11.3179685"><ele>368.0</ele><time>2026-04-12T10:06:24.598Z</time></trkpt><trkpt lat="43.6286877" lon="11.3178896"><ele>366.14285714285717</ele><time>2026-04-12T10:06:25.599Z</time></trkpt><trkpt lat="43.6287326" lon="11.3178104"><ele>364.2857142857143</ele><time>2026-04-12T10:06:26.598Z</time></trkpt><trkpt lat="43.6287825" lon="11.3177431"><ele>362.42857142857144</ele><time>2026-04-12T10:06:27.598Z</time></trkpt><trkpt lat="43.6288411" lon="11.317683"><ele>360.57142857142856</ele><time>2026-04-12T10:06:28.598Z</time></trkpt><trkpt lat="43.6289076" lon="11.3176301"><ele>358.7142857142857</ele><time>2026-04-12T10:06:29.599Z</time></trkpt><trkpt lat="43.628967" lon="11.3175874"><ele>356.85714285714283</ele><time>2026-04-12T10:06:30.599Z</time></trkpt><trkpt lat="43.6290356" lon="11.3175649"><ele>355.0</ele><time>2026-04-12T10:06:31.598Z</time></trkpt><trkpt lat="43.6291052" lon="11.3175594"><ele>355.0</ele><time>2026-04-12T10:06:32.599Z</time></trkpt><trkpt lat="43.6291767" lon="11.3175747"><ele>355.0</ele><time>2026-04-12T10:06:33.599Z</time></trkpt><trkpt lat="43.6292417" lon="11.3175904"><ele>355.0</ele><time>2026-04-12T10:06:34.599Z</time></trkpt><trkpt lat="43.6292993" lon="11.3176282"><ele>355.0</ele><time>2026-04-12T10:06:35.598Z</time></trkpt><trkpt lat="43.6293749" lon="11.3176674"><ele>355.0</ele><time>2026-04-12T10:06:36.599Z</time></trkpt><trkpt lat="43.6294576" lon="11.317697"><ele>355.0</ele><time>2026-04-12T10:06:37.598Z</time></trkpt><trkpt lat="43.6295458" lon="11.3176957"><ele>355.8333333333333</ele><time>2026-04-12T10:06:38.598Z</time></trkpt><trkpt lat="43.6296304" lon="11.3176783"><ele>356.66666666666663</ele><time>2026-04-12T10:06:39.598Z</time></trkpt><trkpt lat="43.629706" lon="11.317632"><ele>357.5</ele><time>2026-04-12T10:06:40.598Z</time></trkpt><trkpt lat="43.6297641" lon="11.3175877"><ele>358.3333333333333</ele><time>2026-04-12T10:06:41.598Z</time></trkpt><trkpt lat="43.6298351" lon="11.3175139"><ele>359.1666666666667</ele><time>2026-04-12T10:06:43.599Z</time></trkpt><trkpt lat="43.6298506" lon="11.3173693"><ele>360.0</ele><time>2026-04-12T10:06:45.599Z</time></trkpt><trkpt lat="43.6298369" lon="11.3172822"><ele>358.8</ele><time>2026-04-12T10:06:46.598Z</time></trkpt><trkpt lat="43.6298271" lon="11.3171857"><ele>357.6</ele><time>2026-04-12T10:06:47.599Z</time></trkpt><trkpt lat="43.6298037" lon="11.3170973"><ele>356.4</ele><time>2026-04-12T10:06:48.599Z</time></trkpt><trkpt lat="43.6298619" lon="11.316963"><ele>355.2</ele><time>2026-04-12T10:06:50.598Z</time></trkpt><trkpt lat="43.629961" lon="11.3168998"><ele>354.0</ele><time>2026-04-12T10:06:52.598Z</time></trkpt><trkpt lat="43.6300687" lon="11.3168541"><ele>354.0</ele><time>2026-04-12T10:06:54.598Z</time></trkpt><trkpt lat="43.630148" lon="11.3168255"><ele>354.0</ele><time>2026-04-12T10:06:55.599Z</time></trkpt><trkpt lat="43.6302179" lon="11.3167819"><ele>354.0</ele><time>2026-04-12T10:06:56.599Z</time></trkpt><trkpt lat="43.6302785" lon="11.316709"><ele>354.0</ele><time>2026-04-12T10:06:57.598Z</time></trkpt><trkpt lat="43.6303289" lon="11.3166197"><ele>354.0</ele><time>2026-04-12T10:06:58.598Z</time></trkpt><trkpt lat="43.6303739" lon="11.3165261"><ele>354.0</ele><time>2026-04-12T10:06:59.599Z</time></trkpt><trkpt lat="43.6303945" lon="11.3164338"><ele>354.1666666666667</ele><time>2026-04-12T10:07:00.599Z</time></trkpt><trkpt lat="43.630391" lon="11.3163364"><ele>354.3333333333333</ele><time>2026-04-12T10:07:01.598Z</time></trkpt><trkpt lat="43.630354" lon="11.3162532"><ele>354.5</ele><time>2026-04-12T10:07:02.599Z</time></trkpt><trkpt lat="43.6302931" lon="11.3161841"><ele>354.66666666666663</ele><time>2026-04-12T10:07:03.599Z</time></trkpt><trkpt lat="43.630226" lon="11.3161056"><ele>354.8333333333333</ele><time>2026-04-12T10:07:04.598Z</time></trkpt><trkpt lat="43.6301643" lon="11.3160208"><ele>355.0</ele><time>2026-04-12T10:07:05.598Z</time></trkpt><trkpt lat="43.6301008" lon="11.3159304"><ele>355.0</ele><time>2026-04-12T10:07:06.598Z</time></trkpt><trkpt lat="43.630046" lon="11.3158311"><ele>355.0</ele><time>2026-04-12T10:07:07.598Z</time></trkpt><trkpt lat="43.6300007" lon="11.3157487"><ele>355.0</ele><time>2026-04-12T10:07:08.599Z</time></trkpt><trkpt lat="43.6299637" lon="11.3156722"><ele>355.0</ele><time>2026-04-12T10:07:09.598Z</time></trkpt><trkpt lat="43.6299018" lon="11.3155272"><ele>355.0</ele><time>2026-04-12T10:07:11.599Z</time></trkpt><trkpt lat="43.6298565" lon="11.3154539"><ele>355.0</ele><time>2026-04-12T10:07:12.599Z</time></trkpt><trkpt lat="43.6298122" lon="11.3153919"><ele>356.4</ele><time>2026-04-12T10:07:13.598Z</time></trkpt><trkpt lat="43.6297698" lon="11.3153233"><ele>357.8</ele><time>2026-04-12T10:07:14.599Z</time></trkpt><trkpt lat="43.6296869" lon="11.3151923"><ele>359.20000000000005</ele><time>2026-04-12T10:07:16.599Z</time></trkpt><trkpt lat="43.62963" lon="11.315052"><ele>360.6</ele><time>2026-04-12T10:07:18.598Z</time></trkpt><trkpt lat="43.6295608" lon="11.3149234"><ele>362.0</ele><time>2026-04-12T10:07:20.599Z</time></trkpt><trkpt lat="43.6295266" lon="11.3148477"><ele>362.0</ele><time>2026-04-12T10:07:21.598Z</time></trkpt><trkpt lat="43.6294851" lon="11.3147725"><ele>362.0</ele><time>2026-04-12T10:07:22.598Z</time></trkpt><trkpt lat="43.6294411" lon="11.3147097"><ele>362.0</ele><time>2026-04-12T10:07:23.598Z</time></trkpt><trkpt lat="43.6293653" lon="11.3145887"><ele>362.0</ele><time>2026-04-12T10:07:25.599Z</time></trkpt><trkpt lat="43.6292948" lon="11.3144733"><ele>362.0</ele><time>2026-04-12T10:07:27.599Z</time></trkpt><trkpt lat="43.6292341" lon="11.3143638"><ele>361.40000000000003</ele><time>2026-04-12T10:07:29.598Z</time></trkpt><trkpt lat="43.6291884" lon="11.3142649"><ele>360.8</ele><time>2026-04-12T10:07:31.598Z</time></trkpt><trkpt lat="43.6291338" lon="11.3141677"><ele>360.2</ele><time>2026-04-12T10:07:33.598Z</time></trkpt><trkpt lat="43.6290865" lon="11.314081"><ele>359.6</ele><time>2026-04-12T10:07:35.599Z</time></trkpt><trkpt lat="43.6290295" lon="11.3139519"><ele>359.0</ele><time>2026-04-12T10:07:37.598Z</time></trkpt><trkpt lat="43.6289773" lon="11.3138122"><ele>358.79999999999995</ele><time>2026-04-12T10:07:39.598Z</time></trkpt><trkpt lat="43.6289301" lon="11.3136792"><ele>358.59999999999997</ele><time>2026-04-12T10:07:41.598Z</time></trkpt><trkpt lat="43.6288858" lon="11.3135562"><ele>358.4</ele><time>2026-04-12T10:07:43.598Z</time></trkpt><trkpt lat="43.6288413" lon="11.3134487"><ele>358.2</ele><time>2026-04-12T10:07:45.598Z</time></trkpt><trkpt lat="43.6287911" lon="11.3133467"><ele>358.0</ele><time>2026-04-12T10:07:47.599Z</time></trkpt><trkpt lat="43.6287582" lon="11.3132545"><ele>358.0</ele><time>2026-04-12T10:07:49.598Z</time></trkpt><trkpt lat="43.6287521" lon="11.3131643"><ele>358.0</ele><time>2026-04-12T10:07:52.598Z</time></trkpt><trkpt lat="43.6288406" lon="11.3131825"><ele>358.0</ele><time>2026-04-12T10:08:43.599Z</time></trkpt><trkpt lat="43.6289157" lon="11.313235"><ele>358.0</ele><time>2026-04-12T10:08:45.598Z</time></trkpt><trkpt lat="43.629012" lon="11.3132892"><ele>358.0</ele><time>2026-04-12T10:08:47.599Z</time></trkpt><trkpt lat="43.6291056" lon="11.3133341"><ele>358.0</ele><time>2026-04-12T10:08:49.599Z</time></trkpt><trkpt lat="43.6292032" lon="11.3133751"><ele>358.0</ele><time>2026-04-12T10:08:51.598Z</time></trkpt><trkpt lat="43.6293036" lon="11.3134559"><ele>358.0</ele><time>2026-04-12T10:08:53.598Z</time></trkpt><trkpt lat="43.6294006" lon="11.3135285"><ele>358.0</ele><time>2026-04-12T10:08:55.599Z</time></trkpt><trkpt lat="43.6294818" lon="11.3136145"><ele>358.0</ele><time>2026-04-12T10:08:57.598Z</time></trkpt><trkpt lat="43.629556" lon="11.3137351"><ele>358.0</ele><time>2026-04-12T10:08:59.598Z</time></trkpt><trkpt lat="43.6295961" lon="11.3138097"><ele>358.3333333333333</ele><time>2026-04-12T10:09:00.599Z</time></trkpt><trkpt lat="43.6296577" lon="11.3139535"><ele>358.66666666666663</ele><time>2026-04-12T10:09:02.598Z</time></trkpt><trkpt lat="43.6296969" lon="11.3140297"><ele>359.0</ele><time>2026-04-12T10:09:03.598Z</time></trkpt><trkpt lat="43.6297356" lon="11.3140984"><ele>359.3333333333333</ele><time>2026-04-12T10:09:04.598Z</time></trkpt><trkpt lat="43.6297786" lon="11.3141739"><ele>359.6666666666667</ele><time>2026-04-12T10:09:05.598Z</time></trkpt><trkpt lat="43.6298496" lon="11.3143109"><ele>360.0</ele><time>2026-04-12T10:09:07.598Z</time></trkpt><trkpt lat="43.6298853" lon="11.3143926"><ele>360.0</ele><time>2026-04-12T10:09:08.599Z</time></trkpt><trkpt lat="43.6299216" lon="11.3144703"><ele>360.0</ele><time>2026-04-12T10:09:09.598Z</time></trkpt><trkpt lat="43.6299649" lon="11.314552"><ele>360.0</ele><time>2026-04-12T10:09:10.598Z</time></trkpt><trkpt lat="43.6300089" lon="11.3146267"><ele>360.0</ele><time>2026-04-12T10:09:11.598Z</time></trkpt><trkpt lat="43.6300441" lon="11.3147024"><ele>360.0</ele><time>2026-04-12T10:09:12.599Z</time></trkpt><trkpt lat="43.6300832" lon="11.314777"><ele>360.0</ele><time>2026-04-12T10:09:13.599Z</time></trkpt><trkpt lat="43.6301278" lon="11.3148551"><ele>360.0</ele><time>2026-04-12T10:09:14.599Z</time></trkpt><trkpt lat="43.6301685" lon="11.3149305"><ele>360.3333333333333</ele><time>2026-04-12T10:09:15.598Z</time></trkpt><trkpt lat="43.6302125" lon="11.3150172"><ele>360.6666666666667</ele><time>2026-04-12T10:09:16.598Z</time></trkpt><trkpt lat="43.6302535" lon="11.3151024"><ele>361.0</ele><time>2026-04-12T10:09:17.598Z</time></trkpt><trkpt lat="43.630297" lon="11.315193"><ele>361.33333333333337</ele><time>2026-04-12T10:09:18.598Z</time></trkpt><trkpt lat="43.6303354" lon="11.3152769"><ele>361.6666666666667</ele><time>2026-04-12T10:09:19.599Z</time></trkpt><trkpt lat="43.6303784" lon="11.3153539"><ele>362.0</ele><time>2026-04-12T10:09:20.598Z</time></trkpt><trkpt lat="43.6304359" lon="11.3154269"><ele>362.5</ele><time>2026-04-12T10:09:21.598Z</time></trkpt><trkpt lat="43.6304882" lon="11.3154907"><ele>363.0</ele><time>2026-04-12T10:09:22.599Z</time></trkpt><trkpt lat="43.6305401" lon="11.3155499"><ele>363.5</ele><time>2026-04-12T10:09:23.598Z</time></trkpt><trkpt lat="43.6306093" lon="11.3156321"><ele>364.0</ele><time>2026-04-12T10:09:25.598Z</time></trkpt><trkpt lat="43.6306693" lon="11.3156903"><ele>364.5</ele><time>2026-04-12T10:09:27.599Z</time></trkpt><trkpt lat="43.6307494" lon="11.3157396"><ele>365.0</ele><time>2026-04-12T10:09:30.598Z</time></trkpt><trkpt lat="43.6308302" lon="11.3157838"><ele>365.0</ele><time>2026-04-12T10:09:32.598Z</time></trkpt><trkpt lat="43.6309159" lon="11.3158627"><ele>365.0</ele><time>2026-04-12T10:09:34.599Z</time></trkpt><trkpt lat="43.6310029" lon="11.3159439"><ele>365.0</ele><time>2026-04-12T10:09:36.599Z</time></trkpt><trkpt lat="43.6310846" lon="11.3160289"><ele>365.0</ele><time>2026-04-12T10:09:38.598Z</time></trkpt><trkpt lat="43.6311594" lon="11.3161304"><ele>365.0</ele><time>2026-04-12T10:09:40.598Z</time></trkpt><trkpt lat="43.6312176" lon="11.3162512"><ele>365.4</ele><time>2026-04-12T10:09:42.599Z</time></trkpt><trkpt lat="43.6312902" lon="11.3163605"><ele>365.8</ele><time>2026-04-12T10:09:44.598Z</time></trkpt><trkpt lat="43.6313185" lon="11.3164425"><ele>366.20000000000005</ele><time>2026-04-12T10:09:46.599Z</time></trkpt><trkpt lat="43.6313426" lon="11.3165527"><ele>366.6</ele><time>2026-04-12T10:09:49.598Z</time></trkpt><trkpt lat="43.6313596" lon="11.3166878"><ele>367.0</ele><time>2026-04-12T10:09:51.599Z</time></trkpt><trkpt lat="43.6313758" lon="11.3168588"><ele>367.0</ele><time>2026-04-12T10:09:53.599Z</time></trkpt><trkpt lat="43.6313793" lon="11.3169507"><ele>367.0</ele><time>2026-04-12T10:09:54.598Z</time></trkpt><trkpt lat="43.6313873" lon="11.3170468"><ele>367.0</ele><time>2026-04-12T10:09:55.598Z</time></trkpt><trkpt lat="43.6314002" lon="11.3171326"><ele>367.0</ele><time>2026-04-12T10:09:56.598Z</time></trkpt><trkpt lat="43.6314069" lon="11.3172823"><ele>367.0</ele><time>2026-04-12T10:09:58.598Z</time></trkpt><trkpt lat="43.6314476" lon="11.3174602"><ele>367.0</ele><time>2026-04-12T10:10:00.598Z</time></trkpt><trkpt lat="43.6314807" lon="11.3176284"><ele>368.3333333333333</ele><time>2026-04-12T10:10:02.599Z</time></trkpt><trkpt lat="43.6315036" lon="11.3177171"><ele>369.66666666666663</ele><time>2026-04-12T10:10:03.599Z</time></trkpt><trkpt lat="43.6315177" lon="11.3178022"><ele>371.0</ele><time>2026-04-12T10:10:04.598Z</time></trkpt><trkpt lat="43.6315391" lon="11.3179716"><ele>372.3333333333333</ele><time>2026-04-12T10:10:06.598Z</time></trkpt><trkpt lat="43.6315541" lon="11.3180676"><ele>373.6666666666667</ele><time>2026-04-12T10:10:07.598Z</time></trkpt><trkpt lat="43.6315722" lon="11.3181592"><ele>375.0</ele><time>2026-04-12T10:10:08.598Z</time></trkpt><trkpt lat="43.6315865" lon="11.3182583"><ele>376.4</ele><time>2026-04-12T10:10:09.599Z</time></trkpt><trkpt lat="43.6315966" lon="11.3183546"><ele>377.8</ele><time>2026-04-12T10:10:10.598Z</time></trkpt><trkpt lat="43.6316358" lon="11.318494"><ele>379.20000000000005</ele><time>2026-04-12T10:10:12.598Z</time></trkpt><trkpt lat="43.6316517" lon="11.3186532"><ele>380.6</ele><time>2026-04-12T10:10:14.598Z</time></trkpt><trkpt lat="43.6316735" lon="11.3187717"><ele>382.0</ele><time>2026-04-12T10:10:16.599Z</time></trkpt><trkpt lat="43.6316688" lon="11.3188643"><ele>383.66666666666663</ele><time>2026-04-12T10:10:19.598Z</time></trkpt><trkpt lat="43.6317444" lon="11.3189116"><ele>385.3333333333333</ele><time>2026-04-12T10:10:30.599Z</time></trkpt><trkpt lat="43.6318135" lon="11.3189914"><ele>387.0</ele><time>2026-04-12T10:10:33.599Z</time></trkpt><trkpt lat="43.6318526" lon="11.3190707"><ele>388.66666666666663</ele><time>2026-04-12T10:10:35.599Z</time></trkpt><trkpt lat="43.6319008" lon="11.3191405"><ele>390.3333333333333</ele><time>2026-04-12T10:10:37.598Z</time></trkpt><trkpt lat="43.6319431" lon="11.31921"><ele>392.0</ele><time>2026-04-12T10:10:39.598Z</time></trkpt><trkpt lat="43.6319535" lon="11.3193205"><ele>391.99999999999994</ele><time>2026-04-12T10:10:42.598Z</time></trkpt><trkpt lat="43.6319271" lon="11.3194369"><ele>392.0</ele><time>2026-04-12T10:10:44.598Z</time></trkpt><trkpt lat="43.6319058" lon="11.3195288"><ele>392.0</ele><time>2026-04-12T10:10:46.598Z</time></trkpt><trkpt lat="43.6319134" lon="11.319642"><ele>392.0</ele><time>2026-04-12T10:10:48.599Z</time></trkpt><trkpt lat="43.6319012" lon="11.3197619"><ele>391.99999999999994</ele><time>2026-04-12T10:10:50.599Z</time></trkpt><trkpt lat="43.6318882" lon="11.3198754"><ele>392.0</ele><time>2026-04-12T10:10:52.598Z</time></trkpt><trkpt lat="43.6318797" lon="11.3199654"><ele>393.66666666666663</ele><time>2026-04-12T10:12:07.599Z</time></trkpt><trkpt lat="43.6318449" lon="11.3200461"><ele>395.3333333333333</ele><time>2026-04-12T10:12:10.598Z</time></trkpt><trkpt lat="43.6318686" lon="11.3199616"><ele>397.0</ele><time>2026-04-12T10:12:21.598Z</time></trkpt><trkpt lat="43.6318314" lon="11.3200321"><ele>398.66666666666663</ele><time>2026-04-12T10:13:12.598Z</time></trkpt><trkpt lat="43.6317667" lon="11.3200607"><ele>400.3333333333333</ele><time>2026-04-12T10:13:18.598Z</time></trkpt><trkpt lat="43.6317116" lon="11.3201686"><ele>402.0</ele><time>2026-04-12T10:13:25.599Z</time></trkpt><trkpt lat="43.6316529" lon="11.3202927"><ele>402.0</ele><time>2026-04-12T10:13:27.599Z</time></trkpt><trkpt lat="43.6316038" lon="11.3203869"><ele>402.0</ele><time>2026-04-12T10:13:29.598Z</time></trkpt><trkpt lat="43.6315571" lon="11.3204836"><ele>402.0</ele><time>2026-04-12T10:13:31.599Z</time></trkpt><trkpt lat="43.631521" lon="11.3205958"><ele>402.0</ele><time>2026-04-12T10:13:34.599Z</time></trkpt><trkpt lat="43.6315466" lon="11.3207024"><ele>402.0</ele><time>2026-04-12T10:13:37.599Z</time></trkpt><trkpt lat="43.6316001" lon="11.320758"><ele>402.0</ele><time>2026-04-12T10:13:39.598Z</time></trkpt><trkpt lat="43.6316717" lon="11.3208133"><ele>404.0</ele><time>2026-04-12T10:13:41.598Z</time></trkpt><trkpt lat="43.6317279" lon="11.3209148"><ele>406.0</ele><time>2026-04-12T10:13:43.599Z</time></trkpt><trkpt lat="43.6317911" lon="11.3210019"><ele>408.0</ele><time>2026-04-12T10:13:45.599Z</time></trkpt><trkpt lat="43.6318494" lon="11.3210652"><ele>410.0</ele><time>2026-04-12T10:13:47.599Z</time></trkpt><trkpt lat="43.6318797" lon="11.3211419"><ele>412.0</ele><time>2026-04-12T10:13:49.598Z</time></trkpt><trkpt lat="43.6319136" lon="11.3212277"><ele>414.0</ele><time>2026-04-12T10:13:51.599Z</time></trkpt><trkpt lat="43.6319543" lon="11.3213196"><ele>415.6</ele><time>2026-04-12T10:13:53.598Z</time></trkpt><trkpt lat="43.6320126" lon="11.3214203"><ele>417.2</ele><time>2026-04-12T10:13:55.599Z</time></trkpt><trkpt lat="43.6320591" lon="11.3214945"><ele>418.8</ele><time>2026-04-12T10:13:57.598Z</time></trkpt><trkpt lat="43.6321551" lon="11.321521"><ele>420.40000000000003</ele><time>2026-04-12T10:13:59.599Z</time></trkpt><trkpt lat="43.6322641" lon="11.3215717"><ele>422.0</ele><time>2026-04-12T10:14:01.599Z</time></trkpt><trkpt lat="43.632357" lon="11.3216359"><ele>422.0</ele><time>2026-04-12T10:14:03.599Z</time></trkpt><trkpt lat="43.6324414" lon="11.3217189"><ele>422.0</ele><time>2026-04-12T10:14:05.598Z</time></trkpt><trkpt lat="43.6325049" lon="11.3217651"><ele>422.0</ele><time>2026-04-12T10:14:09.598Z</time></trkpt><trkpt lat="43.6325826" lon="11.3218703"><ele>422.0</ele><time>2026-04-12T10:14:12.599Z</time></trkpt><trkpt lat="43.6326287" lon="11.3219663"><ele>422.0</ele><time>2026-04-12T10:14:14.598Z</time></trkpt><trkpt lat="43.6326649" lon="11.3220845"><ele>421.99999999999994</ele><time>2026-04-12T10:14:16.599Z</time></trkpt><trkpt lat="43.6326637" lon="11.3221886"><ele>422.0</ele><time>2026-04-12T10:14:19.598Z</time></trkpt><trkpt lat="43.6327022" lon="11.3222994"><ele>422.0</ele><time>2026-04-12T10:14:22.599Z</time></trkpt><trkpt lat="43.632747" lon="11.322382"><ele>422.0</ele><time>2026-04-12T10:14:24.598Z</time></trkpt><trkpt lat="43.6327979" lon="11.3224833"><ele>421.99999999999994</ele><time>2026-04-12T10:14:27.599Z</time></trkpt><trkpt lat="43.6328698" lon="11.3225504"><ele>422.0</ele><time>2026-04-12T10:14:30.598Z</time></trkpt><trkpt lat="43.6329272" lon="11.3225907"><ele>423.2857142857143</ele><time>2026-04-12T10:14:32.598Z</time></trkpt><trkpt lat="43.6330023" lon="11.3226175"><ele>424.57142857142856</ele><time>2026-04-12T10:14:34.599Z</time></trkpt><trkpt lat="43.6330644" lon="11.3226377"><ele>425.8571428571429</ele><time>2026-04-12T10:14:36.598Z</time></trkpt><trkpt lat="43.6330967" lon="11.3227282"><ele>427.1428571428571</ele><time>2026-04-12T10:14:39.599Z</time></trkpt><trkpt lat="43.6331331" lon="11.3228404"><ele>428.4285714285714</ele><time>2026-04-12T10:14:41.598Z</time></trkpt><trkpt lat="43.6331757" lon="11.3229094"><ele>429.7142857142857</ele><time>2026-04-12T10:14:42.598Z</time></trkpt><trkpt lat="43.633215" lon="11.3229954"><ele>431.0</ele><time>2026-04-12T10:14:44.599Z</time></trkpt><trkpt lat="43.6332346" lon="11.3230789"><ele>432.66666666666663</ele><time>2026-04-12T10:15:09.598Z</time></trkpt><trkpt lat="43.6332949" lon="11.3231709"><ele>434.3333333333333</ele><time>2026-04-12T10:15:11.598Z</time></trkpt><trkpt lat="43.6332853" lon="11.3232714"><ele>436.0</ele><time>2026-04-12T10:15:17.598Z</time></trkpt><trkpt lat="43.6332329" lon="11.3233742"><ele>437.66666666666663</ele><time>2026-04-12T10:15:20.599Z</time></trkpt><trkpt lat="43.6331638" lon="11.3234159"><ele>439.3333333333333</ele><time>2026-04-12T10:15:23.599Z</time></trkpt><trkpt lat="43.6330641" lon="11.3234133"><ele>441.0</ele><time>2026-04-12T10:15:26.599Z</time></trkpt><trkpt lat="43.633004" lon="11.3233453"><ele>441.0</ele><time>2026-04-12T10:15:28.598Z</time></trkpt><trkpt lat="43.6329409" lon="11.3232979"><ele>441.0</ele><time>2026-04-12T10:15:30.599Z</time></trkpt><trkpt lat="43.6328701" lon="11.3233187"><ele>441.0</ele><time>2026-04-12T10:15:32.598Z</time></trkpt><trkpt lat="43.6328048" lon="11.3233512"><ele>441.0</ele><time>2026-04-12T10:15:34.598Z</time></trkpt><trkpt lat="43.63273" lon="11.3233494"><ele>441.0</ele><time>2026-04-12T10:15:36.598Z</time></trkpt><trkpt lat="43.6326639" lon="11.3233312"><ele>441.0</ele><time>2026-04-12T10:15:38.598Z</time></trkpt><trkpt lat="43.6325675" lon="11.3233229"><ele>440.8</ele><time>2026-04-12T10:15:40.599Z</time></trkpt><trkpt lat="43.6324702" lon="11.3232381"><ele>440.6</ele><time>2026-04-12T10:15:42.598Z</time></trkpt><trkpt lat="43.6323762" lon="11.3231511"><ele>440.4</ele><time>2026-04-12T10:15:44.598Z</time></trkpt><trkpt lat="43.6323055" lon="11.3230836"><ele>440.2</ele><time>2026-04-12T10:15:46.598Z</time></trkpt><trkpt lat="43.6322327" lon="11.3230452"><ele>440.0</ele><time>2026-04-12T10:15:48.599Z</time></trkpt><trkpt lat="43.6321522" lon="11.3230786"><ele>442.49999999999994</ele><time>2026-04-12T10:15:51.599Z</time></trkpt><trkpt lat="43.6320972" lon="11.3231801"><ele>445.0</ele><time>2026-04-12T10:15:54.598Z</time></trkpt><trkpt lat="43.6320724" lon="11.323277"><ele>447.5</ele><time>2026-04-12T10:15:56.598Z</time></trkpt><trkpt lat="43.632071" lon="11.3233793"><ele>450.0</ele><time>2026-04-12T10:15:58.598Z</time></trkpt><trkpt lat="43.6321369" lon="11.3234722"><ele>452.49999999999994</ele><time>2026-04-12T10:16:01.598Z</time></trkpt><trkpt lat="43.6321877" lon="11.3235245"><ele>455.0</ele><time>2026-04-12T10:16:03.598Z</time></trkpt><trkpt lat="43.6322297" lon="11.3236016"><ele>454.99999999999994</ele><time>2026-04-12T10:16:05.598Z</time></trkpt><trkpt lat="43.632263" lon="11.3236949"><ele>455.0</ele><time>2026-04-12T10:16:07.598Z</time></trkpt><trkpt lat="43.632268" lon="11.3237936"><ele>455.0</ele><time>2026-04-12T10:16:09.598Z</time></trkpt><trkpt lat="43.632261" lon="11.3238865"><ele>455.0</ele><time>2026-04-12T10:16:11.598Z</time></trkpt><trkpt lat="43.6322446" lon="11.3240166"><ele>454.99999999999994</ele><time>2026-04-12T10:16:13.598Z</time></trkpt><trkpt lat="43.6322357" lon="11.3241559"><ele>455.0</ele><time>2026-04-12T10:16:15.598Z</time></trkpt><trkpt lat="43.6322515" lon="11.3242747"><ele>457.66666666666663</ele><time>2026-04-12T10:16:17.599Z</time></trkpt><trkpt lat="43.6322555" lon="11.3243648"><ele>460.3333333333333</ele><time>2026-04-12T10:16:19.598Z</time></trkpt><trkpt lat="43.6322609" lon="11.3245108"><ele>463.0</ele><time>2026-04-12T10:16:21.599Z</time></trkpt><trkpt lat="43.6322717" lon="11.3246345"><ele>465.66666666666663</ele><time>2026-04-12T10:16:23.599Z</time></trkpt><trkpt lat="43.6322663" lon="11.3247329"><ele>468.3333333333333</ele><time>2026-04-12T10:16:25.598Z</time></trkpt><trkpt lat="43.6322158" lon="11.3248194"><ele>471.0</ele><time>2026-04-12T10:16:29.598Z</time></trkpt><trkpt lat="43.6321286" lon="11.3248137"><ele>471.0</ele><time>2026-04-12T10:16:32.599Z</time></trkpt><trkpt lat="43.6323421" lon="11.3245651"><ele>471.0</ele><time>2026-04-12T10:26:03.597Z</time></trkpt><trkpt lat="43.6323279" lon="11.3246857"><ele>471.0</ele><time>2026-04-12T10:26:45.597Z</time></trkpt><trkpt lat="43.6323086" lon="11.3245867"><ele>471.0</ele><time>2026-04-12T10:27:18.598Z</time></trkpt><trkpt lat="43.6322949" lon="11.3244945"><ele>471.0</ele><time>2026-04-12T10:27:21.598Z</time></trkpt><trkpt lat="43.6322876" lon="11.324379"><ele>471.0</ele><time>2026-04-12T10:27:25.597Z</time></trkpt><trkpt lat="43.6322868" lon="11.3242712"><ele>471.0</ele><time>2026-04-12T10:27:27.598Z</time></trkpt><trkpt lat="43.6323029" lon="11.3241711"><ele>471.0</ele><time>2026-04-12T10:27:29.597Z</time></trkpt><trkpt lat="43.6323168" lon="11.3240508"><ele>471.0</ele><time>2026-04-12T10:27:32.597Z</time></trkpt><trkpt lat="43.6323475" lon="11.3239007"><ele>471.0</ele><time>2026-04-12T10:27:34.598Z</time></trkpt><trkpt lat="43.6323223" lon="11.3237672"><ele>468.3333333333333</ele><time>2026-04-12T10:27:36.598Z</time></trkpt><trkpt lat="43.6322777" lon="11.3236756"><ele>465.66666666666663</ele><time>2026-04-12T10:27:38.598Z</time></trkpt><trkpt lat="43.6322065" lon="11.3236063"><ele>463.0</ele><time>2026-04-12T10:27:41.597Z</time></trkpt><trkpt lat="43.6321426" lon="11.3235488"><ele>460.3333333333333</ele><time>2026-04-12T10:27:44.597Z</time></trkpt><trkpt lat="43.632078" lon="11.3234909"><ele>457.66666666666663</ele><time>2026-04-12T10:27:46.597Z</time></trkpt><trkpt lat="43.6320509" lon="11.3233819"><ele>455.0</ele><time>2026-04-12T10:27:49.597Z</time></trkpt><trkpt lat="43.6320637" lon="11.3232755"><ele>455.0</ele><time>2026-04-12T10:27:52.597Z</time></trkpt><trkpt lat="43.6321004" lon="11.3231783"><ele>455.0</ele><time>2026-04-12T10:27:55.598Z</time></trkpt><trkpt lat="43.6321496" lon="11.3230955"><ele>455.0</ele><time>2026-04-12T10:27:59.598Z</time></trkpt><trkpt lat="43.6322218" lon="11.3230833"><ele>455.0</ele><time>2026-04-12T10:28:04.597Z</time></trkpt><trkpt lat="43.632281" lon="11.3231319"><ele>455.0</ele><time>2026-04-12T10:28:07.597Z</time></trkpt><trkpt lat="43.6323325" lon="11.3231903"><ele>455.0</ele><time>2026-04-12T10:28:09.597Z</time></trkpt><trkpt lat="43.6324051" lon="11.3232388"><ele>455.0</ele><time>2026-04-12T10:28:11.598Z</time></trkpt><trkpt lat="43.63248" lon="11.3232643"><ele>454.99999999999994</ele><time>2026-04-12T10:28:13.597Z</time></trkpt><trkpt lat="43.6325865" lon="11.3232799"><ele>455.0</ele><time>2026-04-12T10:28:16.598Z</time></trkpt><trkpt lat="43.6326751" lon="11.3233069"><ele>455.0</ele><time>2026-04-12T10:28:18.597Z</time></trkpt><trkpt lat="43.6327405" lon="11.32332"><ele>455.0</ele><time>2026-04-12T10:28:20.597Z</time></trkpt><trkpt lat="43.632806" lon="11.323307"><ele>454.99999999999994</ele><time>2026-04-12T10:28:23.597Z</time></trkpt><trkpt lat="43.6328892" lon="11.3233374"><ele>455.0</ele><time>2026-04-12T10:28:26.598Z</time></trkpt><trkpt lat="43.6329594" lon="11.3234004"><ele>452.66666666666663</ele><time>2026-04-12T10:28:28.597Z</time></trkpt><trkpt lat="43.633041" lon="11.3234226"><ele>450.3333333333333</ele><time>2026-04-12T10:28:30.597Z</time></trkpt><trkpt lat="43.6331292" lon="11.3234059"><ele>448.0</ele><time>2026-04-12T10:28:32.598Z</time></trkpt><trkpt lat="43.6331987" lon="11.3233852"><ele>445.66666666666663</ele><time>2026-04-12T10:28:35.598Z</time></trkpt><trkpt lat="43.6332476" lon="11.3232981"><ele>443.3333333333333</ele><time>2026-04-12T10:28:39.598Z</time></trkpt><trkpt lat="43.6333081" lon="11.3232463"><ele>441.0</ele><time>2026-04-12T10:28:43.598Z</time></trkpt><trkpt lat="43.6333816" lon="11.3233046"><ele>441.0</ele><time>2026-04-12T10:28:49.598Z</time></trkpt><trkpt lat="43.6334252" lon="11.3234161"><ele>441.0</ele><time>2026-04-12T10:28:52.598Z</time></trkpt><trkpt lat="43.6334585" lon="11.3235126"><ele>441.0</ele><time>2026-04-12T10:28:54.598Z</time></trkpt><trkpt lat="43.633475" lon="11.3236172"><ele>441.0</ele><time>2026-04-12T10:28:56.597Z</time></trkpt><trkpt lat="43.6335106" lon="11.323728"><ele>441.0</ele><time>2026-04-12T10:28:58.598Z</time></trkpt><trkpt lat="43.6335259" lon="11.3238322"><ele>441.0</ele><time>2026-04-12T10:29:00.597Z</time></trkpt><trkpt lat="43.6335454" lon="11.3239229"><ele>441.0</ele><time>2026-04-12T10:29:02.597Z</time></trkpt><trkpt lat="43.6335829" lon="11.3240122"><ele>441.0</ele><time>2026-04-12T10:29:04.597Z</time></trkpt><trkpt lat="43.6336277" lon="11.3240956"><ele>441.0</ele><time>2026-04-12T10:29:06.598Z</time></trkpt><trkpt lat="43.6336611" lon="11.3242235"><ele>441.0</ele><time>2026-04-12T10:29:08.598Z</time></trkpt><trkpt lat="43.6337076" lon="11.3243637"><ele>441.0</ele><time>2026-04-12T10:29:10.597Z</time></trkpt><trkpt lat="43.6337758" lon="11.32447"><ele>441.0</ele><time>2026-04-12T10:29:12.598Z</time></trkpt><trkpt lat="43.6338354" lon="11.3245511"><ele>441.0</ele><time>2026-04-12T10:29:14.597Z</time></trkpt><trkpt lat="43.6339021" lon="11.3246513"><ele>441.0</ele><time>2026-04-12T10:29:16.597Z</time></trkpt><trkpt lat="43.6339286" lon="11.3247636"><ele>441.0</ele><time>2026-04-12T10:29:18.597Z</time></trkpt><trkpt lat="43.6339925" lon="11.3248516"><ele>441.0</ele><time>2026-04-12T10:29:20.598Z</time></trkpt><trkpt lat="43.6340683" lon="11.3248734"><ele>441.0</ele><time>2026-04-12T10:29:22.597Z</time></trkpt><trkpt lat="43.6341558" lon="11.3249005"><ele>443.20000000000005</ele><time>2026-04-12T10:29:24.598Z</time></trkpt><trkpt lat="43.6342853" lon="11.3249567"><ele>445.40000000000003</ele><time>2026-04-12T10:29:26.598Z</time></trkpt><trkpt lat="43.6343995" lon="11.3250147"><ele>447.6</ele><time>2026-04-12T10:29:28.598Z</time></trkpt><trkpt lat="43.6344652" lon="11.325056"><ele>449.8</ele><time>2026-04-12T10:29:29.598Z</time></trkpt><trkpt lat="43.6345629" lon="11.3251011"><ele>452.0</ele><time>2026-04-12T10:29:30.598Z</time></trkpt><trkpt lat="43.6346587" lon="11.3251094"><ele>452.0</ele><time>2026-04-12T10:29:31.597Z</time></trkpt><trkpt lat="43.6347361" lon="11.3251296"><ele>452.00000000000006</ele><time>2026-04-12T10:29:32.598Z</time></trkpt><trkpt lat="43.6348152" lon="11.3251524"><ele>452.00000000000006</ele><time>2026-04-12T10:29:33.598Z</time></trkpt><trkpt lat="43.6348793" lon="11.3251882"><ele>452.0</ele><time>2026-04-12T10:29:34.597Z</time></trkpt><trkpt lat="43.6349938" lon="11.3252511"><ele>452.0</ele><time>2026-04-12T10:29:36.597Z</time></trkpt><trkpt lat="43.6351021" lon="11.3252359"><ele>452.0</ele><time>2026-04-12T10:29:38.597Z</time></trkpt><trkpt lat="43.6352159" lon="11.3251327"><ele>452.00000000000006</ele><time>2026-04-12T10:29:40.597Z</time></trkpt><trkpt lat="43.6352869" lon="11.3250708"><ele>452.00000000000006</ele><time>2026-04-12T10:29:41.597Z</time></trkpt><trkpt lat="43.6353611" lon="11.3249968"><ele>452.0</ele><time>2026-04-12T10:29:42.597Z</time></trkpt><trkpt lat="43.6354355" lon="11.3249402"><ele>452.0</ele><time>2026-04-12T10:29:43.598Z</time></trkpt><trkpt lat="43.6355079" lon="11.3248918"><ele>450.66666666666663</ele><time>2026-04-12T10:29:44.597Z</time></trkpt><trkpt lat="43.6355797" lon="11.3248755"><ele>449.33333333333337</ele><time>2026-04-12T10:29:45.598Z</time></trkpt><trkpt lat="43.6356687" lon="11.3248819"><ele>448.0</ele><time>2026-04-12T10:29:47.598Z</time></trkpt><trkpt lat="43.6341897" lon="11.3305756"><ele>462.2</ele><time>2026-04-12T10:33:05.597Z</time></trkpt><trkpt lat="43.6343381" lon="11.3307142"><ele>476.4</ele><time>2026-04-12T10:33:06.614Z</time></trkpt><trkpt lat="43.634271" lon="11.330729"><ele>490.59999999999997</ele><time>2026-04-12T10:33:09.59Z</time></trkpt><trkpt lat="43.6343387" lon="11.3307816"><ele>504.79999999999995</ele><time>2026-04-12T10:33:11.59Z</time></trkpt><trkpt lat="43.6342992" lon="11.3306891"><ele>519.0</ele><time>2026-04-12T10:33:19.598Z</time></trkpt><trkpt lat="43.6342343" lon="11.3306527"><ele>519.0</ele><time>2026-04-12T10:33:42.597Z</time></trkpt><trkpt lat="43.6341799" lon="11.3305969"><ele>519.0</ele><time>2026-04-12T10:33:44.597Z</time></trkpt><trkpt lat="43.6340917" lon="11.3305273"><ele>519.0</ele><time>2026-04-12T10:33:46.597Z</time></trkpt><trkpt lat="43.6340412" lon="11.3304629"><ele>519.0</ele><time>2026-04-12T10:33:48.597Z</time></trkpt><trkpt lat="43.6339848" lon="11.3303633"><ele>519.0</ele><time>2026-04-12T10:33:51.597Z</time></trkpt><trkpt lat="43.6338925" lon="11.3303622"><ele>519.0</ele><time>2026-04-12T10:33:53.597Z</time></trkpt><trkpt lat="43.633798" lon="11.3303053"><ele>519.2</ele><time>2026-04-12T10:33:55.598Z</time></trkpt><trkpt lat="43.6337088" lon="11.330236"><ele>519.4</ele><time>2026-04-12T10:33:57.598Z</time></trkpt><trkpt lat="43.6336085" lon="11.3301689"><ele>519.6</ele><time>2026-04-12T10:33:59.597Z</time></trkpt><trkpt lat="43.6334984" lon="11.330091"><ele>519.8</ele><time>2026-04-12T10:34:01.598Z</time></trkpt><trkpt lat="43.6333941" lon="11.3300657"><ele>520.0</ele><time>2026-04-12T10:34:03.598Z</time></trkpt><trkpt lat="43.6332964" lon="11.3300463"><ele>524.6</ele><time>2026-04-12T10:34:05.597Z</time></trkpt><trkpt lat="43.6332065" lon="11.3300818"><ele>529.2</ele><time>2026-04-12T10:34:07.598Z</time></trkpt><trkpt lat="43.6331193" lon="11.3301345"><ele>533.8</ele><time>2026-04-12T10:34:09.598Z</time></trkpt><trkpt lat="43.6330121" lon="11.3301603"><ele>538.4</ele><time>2026-04-12T10:34:11.597Z</time></trkpt><trkpt lat="43.6329031" lon="11.3301667"><ele>543.0</ele><time>2026-04-12T10:34:13.597Z</time></trkpt><trkpt lat="43.6327921" lon="11.3301941"><ele>546.3333333333334</ele><time>2026-04-12T10:34:15.597Z</time></trkpt><trkpt lat="43.6327169" lon="11.3302571"><ele>549.6666666666666</ele><time>2026-04-12T10:34:17.597Z</time></trkpt><trkpt lat="43.6326361" lon="11.3302498"><ele>553.0</ele><time>2026-04-12T10:34:19.598Z</time></trkpt><trkpt lat="43.6325672" lon="11.3302272"><ele>556.3333333333333</ele><time>2026-04-12T10:34:21.597Z</time></trkpt><trkpt lat="43.6324862" lon="11.3301965"><ele>559.6666666666666</ele><time>2026-04-12T10:34:23.597Z</time></trkpt><trkpt lat="43.6324047" lon="11.3301734"><ele>563.0</ele><time>2026-04-12T10:34:25.597Z</time></trkpt><trkpt lat="43.6323177" lon="11.3301217"><ele>563.0</ele><time>2026-04-12T10:34:27.598Z</time></trkpt><trkpt lat="43.6322348" lon="11.3300882"><ele>563.0</ele><time>2026-04-12T10:34:29.597Z</time></trkpt><trkpt lat="43.632143" lon="11.3301162"><ele>563.0</ele><time>2026-04-12T10:34:31.597Z</time></trkpt><trkpt lat="43.6320751" lon="11.3301067"><ele>563.0</ele><time>2026-04-12T10:34:33.597Z</time></trkpt><trkpt lat="43.6320048" lon="11.3300783"><ele>563.0</ele><time>2026-04-12T10:34:35.597Z</time></trkpt><trkpt lat="43.6319198" lon="11.3300821"><ele>563.0</ele><time>2026-04-12T10:34:37.598Z</time></trkpt><trkpt lat="43.6318172" lon="11.3300803"><ele>565.5</ele><time>2026-04-12T10:34:39.598Z</time></trkpt><trkpt lat="43.6317081" lon="11.3300966"><ele>568.0</ele><time>2026-04-12T10:34:41.597Z</time></trkpt><trkpt lat="43.631622" lon="11.3301045"><ele>570.5</ele><time>2026-04-12T10:34:43.598Z</time></trkpt><trkpt lat="43.6315621" lon="11.3301489"><ele>573.0</ele><time>2026-04-12T10:34:45.598Z</time></trkpt><trkpt lat="43.6314976" lon="11.3301987"><ele>575.5</ele><time>2026-04-12T10:34:47.598Z</time></trkpt><trkpt lat="43.6314262" lon="11.3302457"><ele>578.0</ele><time>2026-04-12T10:34:49.597Z</time></trkpt><trkpt lat="43.6313528" lon="11.3302743"><ele>578.0</ele><time>2026-04-12T10:34:51.597Z</time></trkpt><trkpt lat="43.6312656" lon="11.3303018"><ele>578.0</ele><time>2026-04-12T10:34:53.597Z</time></trkpt><trkpt lat="43.6311855" lon="11.3303313"><ele>578.0</ele><time>2026-04-12T10:34:55.597Z</time></trkpt><trkpt lat="43.6311142" lon="11.3303123"><ele>578.0</ele><time>2026-04-12T10:34:57.597Z</time></trkpt><trkpt lat="43.6310547" lon="11.3302794"><ele>578.0</ele><time>2026-04-12T10:34:59.597Z</time></trkpt><trkpt lat="43.6309837" lon="11.3302618"><ele>578.0</ele><time>2026-04-12T10:35:01.598Z</time></trkpt><trkpt lat="43.6308777" lon="11.330261"><ele>578.8571428571429</ele><time>2026-04-12T10:35:03.597Z</time></trkpt><trkpt lat="43.6307977" lon="11.3302636"><ele>579.7142857142857</ele><time>2026-04-12T10:35:05.597Z</time></trkpt><trkpt lat="43.6307318" lon="11.3302648"><ele>580.5714285714286</ele><time>2026-04-12T10:35:09.597Z</time></trkpt><trkpt lat="43.6306785" lon="11.3302175"><ele>581.4285714285714</ele><time>2026-04-12T10:36:15.598Z</time></trkpt><trkpt lat="43.6306727" lon="11.3303145"><ele>582.2857142857143</ele><time>2026-04-12T10:36:33.597Z</time></trkpt><trkpt lat="43.6307017" lon="11.3302274"><ele>583.1428571428571</ele><time>2026-04-12T10:37:20.597Z</time></trkpt><trkpt lat="43.6307149" lon="11.3301397"><ele>584.0</ele><time>2026-04-12T10:37:29.598Z</time></trkpt><trkpt lat="43.6306922" lon="11.3300508"><ele>584.0</ele><time>2026-04-12T10:38:26.597Z</time></trkpt><trkpt lat="43.6306805" lon="11.3301534"><ele>584.0</ele><time>2026-04-12T10:39:08.611Z</time></trkpt><trkpt lat="43.6307063" lon="11.3302404"><ele>584.0</ele><time>2026-04-12T10:39:14.597Z</time></trkpt><trkpt lat="43.6306759" lon="11.3303686"><ele>584.0</ele><time>2026-04-12T10:40:16.598Z</time></trkpt><trkpt lat="43.63057" lon="11.3305556"><ele>584.0</ele><time>2026-04-12T10:40:19.597Z</time></trkpt><trkpt lat="43.6305241" lon="11.3306248"><ele>584.1666666666666</ele><time>2026-04-12T10:40:20.598Z</time></trkpt><trkpt lat="43.6304897" lon="11.3306996"><ele>584.3333333333333</ele><time>2026-04-12T10:40:21.597Z</time></trkpt><trkpt lat="43.6304649" lon="11.3307821"><ele>584.5</ele><time>2026-04-12T10:40:22.597Z</time></trkpt><trkpt lat="43.6304388" lon="11.3308756"><ele>584.6666666666666</ele><time>2026-04-12T10:40:23.597Z</time></trkpt><trkpt lat="43.63042" lon="11.3309703"><ele>584.8333333333334</ele><time>2026-04-12T10:40:24.597Z</time></trkpt><trkpt lat="43.6304128" lon="11.3310614"><ele>585.0</ele><time>2026-04-12T10:40:25.598Z</time></trkpt><trkpt lat="43.6303879" lon="11.3312316"><ele>585.0</ele><time>2026-04-12T10:40:27.597Z</time></trkpt><trkpt lat="43.6303567" lon="11.3313198"><ele>585.0</ele><time>2026-04-12T10:40:28.597Z</time></trkpt><trkpt lat="43.6303398" lon="11.3314037"><ele>585.0</ele><time>2026-04-12T10:40:29.597Z</time></trkpt><trkpt lat="43.630315" lon="11.3315231"><ele>585.0</ele><time>2026-04-12T10:40:31.597Z</time></trkpt><trkpt lat="43.6302712" lon="11.3316481"><ele>585.0</ele><time>2026-04-12T10:40:33.597Z</time></trkpt><trkpt lat="43.630221" lon="11.3318177"><ele>587.6666666666666</ele><time>2026-04-12T10:40:35.597Z</time></trkpt><trkpt lat="43.6301967" lon="11.331909"><ele>590.3333333333334</ele><time>2026-04-12T10:40:36.598Z</time></trkpt><trkpt lat="43.6301827" lon="11.3320012"><ele>593.0</ele><time>2026-04-12T10:40:37.598Z</time></trkpt><trkpt lat="43.630169" lon="11.3320913"><ele>595.6666666666667</ele><time>2026-04-12T10:40:38.598Z</time></trkpt><trkpt lat="43.6301582" lon="11.3322301"><ele>598.3333333333334</ele><time>2026-04-12T10:40:40.597Z</time></trkpt><trkpt lat="43.630135" lon="11.3323732"><ele>601.0</ele><time>2026-04-12T10:40:42.597Z</time></trkpt><trkpt lat="43.6300969" lon="11.3325139"><ele>601.1428571428571</ele><time>2026-04-12T10:40:44.597Z</time></trkpt><trkpt lat="43.6300954" lon="11.3326084"><ele>601.2857142857143</ele><time>2026-04-12T10:40:45.597Z</time></trkpt><trkpt lat="43.6301002" lon="11.3327104"><ele>601.4285714285714</ele><time>2026-04-12T10:40:46.597Z</time></trkpt><trkpt lat="43.6300995" lon="11.332814"><ele>601.5714285714286</ele><time>2026-04-12T10:40:47.598Z</time></trkpt><trkpt lat="43.6300791" lon="11.3329002"><ele>601.7142857142858</ele><time>2026-04-12T10:40:48.597Z</time></trkpt><trkpt lat="43.6300426" lon="11.3329753"><ele>601.8571428571429</ele><time>2026-04-12T10:40:49.597Z</time></trkpt><trkpt lat="43.6299968" lon="11.3330544"><ele>602.0</ele><time>2026-04-12T10:40:50.598Z</time></trkpt><trkpt lat="43.6299566" lon="11.3331363"><ele>601.6666666666666</ele><time>2026-04-12T10:40:51.598Z</time></trkpt><trkpt lat="43.6299152" lon="11.3332282"><ele>601.3333333333333</ele><time>2026-04-12T10:40:52.598Z</time></trkpt><trkpt lat="43.6298644" lon="11.3333301"><ele>601.0</ele><time>2026-04-12T10:40:53.598Z</time></trkpt><trkpt lat="43.6298075" lon="11.3334276"><ele>600.6666666666666</ele><time>2026-04-12T10:40:54.597Z</time></trkpt><trkpt lat="43.6297706" lon="11.3335052"><ele>600.3333333333334</ele><time>2026-04-12T10:40:55.598Z</time></trkpt><trkpt lat="43.6297185" lon="11.3335816"><ele>600.0</ele><time>2026-04-12T10:40:56.598Z</time></trkpt><trkpt lat="43.6296675" lon="11.3336351"><ele>600.0</ele><time>2026-04-12T10:40:57.598Z</time></trkpt><trkpt lat="43.6296147" lon="11.3336825"><ele>600.0</ele><time>2026-04-12T10:40:58.597Z</time></trkpt><trkpt lat="43.6295437" lon="11.3337274"><ele>600.0</ele><time>2026-04-12T10:40:59.597Z</time></trkpt><trkpt lat="43.6294772" lon="11.3337682"><ele>600.0</ele><time>2026-04-12T10:41:00.597Z</time></trkpt><trkpt lat="43.6293986" lon="11.3338096"><ele>600.0</ele><time>2026-04-12T10:41:01.597Z</time></trkpt><trkpt lat="43.6293244" lon="11.3338619"><ele>600.0</ele><time>2026-04-12T10:41:02.598Z</time></trkpt><trkpt lat="43.6292565" lon="11.3339205"><ele>600.6666666666666</ele><time>2026-04-12T10:41:03.598Z</time></trkpt><trkpt lat="43.629194" lon="11.3340081"><ele>601.3333333333334</ele><time>2026-04-12T10:41:04.598Z</time></trkpt><trkpt lat="43.6291334" lon="11.3340947"><ele>602.0</ele><time>2026-04-12T10:41:05.598Z</time></trkpt><trkpt lat="43.6290749" lon="11.3341852"><ele>602.6666666666667</ele><time>2026-04-12T10:41:06.598Z</time></trkpt><trkpt lat="43.6290223" lon="11.3342675"><ele>603.3333333333334</ele><time>2026-04-12T10:41:07.597Z</time></trkpt><trkpt lat="43.6289644" lon="11.3343288"><ele>604.0</ele><time>2026-04-12T10:41:08.598Z</time></trkpt><trkpt lat="43.628906" lon="11.3343683"><ele>604.0</ele><time>2026-04-12T10:41:09.598Z</time></trkpt><trkpt lat="43.6288411" lon="11.3344062"><ele>604.0</ele><time>2026-04-12T10:41:10.597Z</time></trkpt><trkpt lat="43.6287697" lon="11.3344445"><ele>604.0</ele><time>2026-04-12T10:41:11.597Z</time></trkpt><trkpt lat="43.6287014" lon="11.3345073"><ele>604.0</ele><time>2026-04-12T10:41:12.598Z</time></trkpt><trkpt lat="43.6286456" lon="11.3345654"><ele>604.0</ele><time>2026-04-12T10:41:13.598Z</time></trkpt><trkpt lat="43.6285569" lon="11.3346602"><ele>604.0</ele><time>2026-04-12T10:41:15.598Z</time></trkpt><trkpt lat="43.6284602" lon="11.3347736"><ele>604.8333333333334</ele><time>2026-04-12T10:41:17.597Z</time></trkpt><trkpt lat="43.6283972" lon="11.334827"><ele>605.6666666666667</ele><time>2026-04-12T10:41:18.598Z</time></trkpt><trkpt lat="43.6283411" lon="11.3348832"><ele>606.5</ele><time>2026-04-12T10:41:19.598Z</time></trkpt><trkpt lat="43.6282588" lon="11.3349909"><ele>607.3333333333334</ele><time>2026-04-12T10:41:21.598Z</time></trkpt><trkpt lat="43.6281696" lon="11.3350354"><ele>608.1666666666666</ele><time>2026-04-12T10:41:23.598Z</time></trkpt><trkpt lat="43.6280938" lon="11.3351181"><ele>609.0</ele><time>2026-04-12T10:41:25.597Z</time></trkpt><trkpt lat="43.6280201" lon="11.3352385"><ele>609.0</ele><time>2026-04-12T10:41:27.597Z</time></trkpt><trkpt lat="43.6279482" lon="11.3353371"><ele>609.0</ele><time>2026-04-12T10:41:28.597Z</time></trkpt><trkpt lat="43.6278935" lon="11.3354142"><ele>609.0</ele><time>2026-04-12T10:41:29.598Z</time></trkpt><trkpt lat="43.6278346" lon="11.3355051"><ele>609.0</ele><time>2026-04-12T10:41:30.597Z</time></trkpt><trkpt lat="43.6277629" lon="11.3355988"><ele>609.0</ele><time>2026-04-12T10:41:32.597Z</time></trkpt><trkpt lat="43.6277149" lon="11.3356663"><ele>609.0</ele><time>2026-04-12T10:41:33.597Z</time></trkpt><trkpt lat="43.6276372" lon="11.3357656"><ele>608.8333333333334</ele><time>2026-04-12T10:41:35.598Z</time></trkpt><trkpt lat="43.6276274" lon="11.3358699"><ele>608.6666666666666</ele><time>2026-04-12T10:41:43.597Z</time></trkpt><trkpt lat="43.6275417" lon="11.3359065"><ele>608.5</ele><time>2026-04-12T10:41:51.598Z</time></trkpt><trkpt lat="43.6275761" lon="11.3358138"><ele>608.3333333333333</ele><time>2026-04-12T10:41:53.597Z</time></trkpt><trkpt lat="43.6275165" lon="11.3357802"><ele>608.1666666666666</ele><time>2026-04-12T10:43:07.597Z</time></trkpt><trkpt lat="43.6274401" lon="11.3358451"><ele>608.0</ele><time>2026-04-12T10:43:09.598Z</time></trkpt><trkpt lat="43.6273593" lon="11.3359024"><ele>608.0</ele><time>2026-04-12T10:43:11.597Z</time></trkpt><trkpt lat="43.6272471" lon="11.3359419"><ele>608.0</ele><time>2026-04-12T10:43:13.597Z</time></trkpt><trkpt lat="43.627142" lon="11.335921"><ele>608.0</ele><time>2026-04-12T10:43:15.598Z</time></trkpt><trkpt lat="43.627081" lon="11.3358909"><ele>608.0</ele><time>2026-04-12T10:43:16.597Z</time></trkpt><trkpt lat="43.6270011" lon="11.3358936"><ele>608.0</ele><time>2026-04-12T10:43:17.598Z</time></trkpt><trkpt lat="43.6269311" lon="11.3359206"><ele>608.0</ele><time>2026-04-12T10:43:18.597Z</time></trkpt><trkpt lat="43.6268531" lon="11.3359527"><ele>607.1999999999999</ele><time>2026-04-12T10:43:19.597Z</time></trkpt><trkpt lat="43.6267619" lon="11.3360003"><ele>606.4</ele><time>2026-04-12T10:43:20.598Z</time></trkpt><trkpt lat="43.6266813" lon="11.3360611"><ele>605.5999999999999</ele><time>2026-04-12T10:43:21.597Z</time></trkpt><trkpt lat="43.6265925" lon="11.3361068"><ele>604.8</ele><time>2026-04-12T10:43:22.598Z</time></trkpt><trkpt lat="43.626509" lon="11.3361439"><ele>604.0</ele><time>2026-04-12T10:43:23.597Z</time></trkpt><trkpt lat="43.6242242" lon="11.3380677"><ele>606.6666666666667</ele><time>2026-04-12T10:46:51.598Z</time></trkpt><trkpt lat="43.624294" lon="11.3381837"><ele>609.3333333333334</ele><time>2026-04-12T10:47:04.882Z</time></trkpt><trkpt lat="43.6242219" lon="11.338139"><ele>612.0</ele><time>2026-04-12T10:47:05.598Z</time></trkpt><trkpt lat="43.6242505" lon="11.3380165"><ele>614.6666666666666</ele><time>2026-04-12T10:47:26.598Z</time></trkpt><trkpt lat="43.6242646" lon="11.3379307"><ele>617.3333333333333</ele><time>2026-04-12T10:47:28.597Z</time></trkpt><trkpt lat="43.624293" lon="11.3378154"><ele>620.0</ele><time>2026-04-12T10:47:31.598Z</time></trkpt><trkpt lat="43.6242238" lon="11.337775"><ele>620.0</ele><time>2026-04-12T10:47:43.597Z</time></trkpt><trkpt lat="43.6241404" lon="11.3377808"><ele>620.0</ele><time>2026-04-12T10:47:45.598Z</time></trkpt><trkpt lat="43.6240737" lon="11.3377621"><ele>620.0</ele><time>2026-04-12T10:47:47.597Z</time></trkpt><trkpt lat="43.6239964" lon="11.3377405"><ele>620.0</ele><time>2026-04-12T10:47:49.597Z</time></trkpt><trkpt lat="43.6239461" lon="11.3376662"><ele>620.0</ele><time>2026-04-12T10:47:51.598Z</time></trkpt><trkpt lat="43.6239054" lon="11.3375791"><ele>620.0</ele><time>2026-04-12T10:47:53.597Z</time></trkpt><trkpt lat="43.6238656" lon="11.3374813"><ele>620.0</ele><time>2026-04-12T10:47:55.598Z</time></trkpt><trkpt lat="43.6237997" lon="11.3374125"><ele>620.0</ele><time>2026-04-12T10:47:57.597Z</time></trkpt><trkpt lat="43.6237393" lon="11.3373375"><ele>620.0</ele><time>2026-04-12T10:47:59.597Z</time></trkpt><trkpt lat="43.6236952" lon="11.3372511"><ele>620.0</ele><time>2026-04-12T10:48:01.597Z</time></trkpt><trkpt lat="43.6236407" lon="11.3371862"><ele>620.0</ele><time>2026-04-12T10:48:03.597Z</time></trkpt><trkpt lat="43.6235708" lon="11.3371896"><ele>620.0</ele><time>2026-04-12T10:48:05.597Z</time></trkpt><trkpt lat="43.6235036" lon="11.3371917"><ele>620.0</ele><time>2026-04-12T10:48:06.597Z</time></trkpt><trkpt lat="43.6234344" lon="11.3371851"><ele>617.6</ele><time>2026-04-12T10:48:07.598Z</time></trkpt><trkpt lat="43.6233367" lon="11.3371479"><ele>615.2</ele><time>2026-04-12T10:48:09.597Z</time></trkpt><trkpt lat="43.6232421" lon="11.3370709"><ele>612.8</ele><time>2026-04-12T10:48:11.598Z</time></trkpt><trkpt lat="43.6231346" lon="11.3370444"><ele>610.4</ele><time>2026-04-12T10:48:13.598Z</time></trkpt><trkpt lat="43.6230734" lon="11.3370167"><ele>608.0</ele><time>2026-04-12T10:48:14.597Z</time></trkpt><trkpt lat="43.6230084" lon="11.3369938"><ele>608.0</ele><time>2026-04-12T10:48:15.598Z</time></trkpt><trkpt lat="43.6229475" lon="11.336966"><ele>608.0</ele><time>2026-04-12T10:48:16.598Z</time></trkpt><trkpt lat="43.6228849" lon="11.3369378"><ele>608.0</ele><time>2026-04-12T10:48:17.597Z</time></trkpt><trkpt lat="43.6228134" lon="11.336916"><ele>608.0</ele><time>2026-04-12T10:48:18.597Z</time></trkpt><trkpt lat="43.6227454" lon="11.3369091"><ele>608.0</ele><time>2026-04-12T10:48:19.597Z</time></trkpt><trkpt lat="43.6226809" lon="11.3368975"><ele>608.0</ele><time>2026-04-12T10:48:20.597Z</time></trkpt><trkpt lat="43.6225639" lon="11.3368622"><ele>609.3333333333333</ele><time>2026-04-12T10:48:22.597Z</time></trkpt><trkpt lat="43.6224791" lon="11.3368314"><ele>610.6666666666666</ele><time>2026-04-12T10:48:24.597Z</time></trkpt><trkpt lat="43.6223934" lon="11.3368483"><ele>612.0</ele><time>2026-04-12T10:48:26.597Z</time></trkpt><trkpt lat="43.6223307" lon="11.3368658"><ele>613.3333333333334</ele><time>2026-04-12T10:48:28.597Z</time></trkpt><trkpt lat="43.6222511" lon="11.3368797"><ele>614.6666666666667</ele><time>2026-04-12T10:48:31.597Z</time></trkpt><trkpt lat="43.6221695" lon="11.3368826"><ele>616.0</ele><time>2026-04-12T10:48:34.598Z</time></trkpt><trkpt lat="43.6220776" lon="11.3368967"><ele>616.0</ele><time>2026-04-12T10:48:36.598Z</time></trkpt><trkpt lat="43.6219918" lon="11.336927"><ele>616.0</ele><time>2026-04-12T10:48:38.598Z</time></trkpt><trkpt lat="43.6219267" lon="11.3369772"><ele>616.0</ele><time>2026-04-12T10:48:40.598Z</time></trkpt><trkpt lat="43.6218536" lon="11.337064"><ele>616.0</ele><time>2026-04-12T10:48:42.598Z</time></trkpt><trkpt lat="43.6217727" lon="11.337112"><ele>616.0</ele><time>2026-04-12T10:48:44.598Z</time></trkpt><trkpt lat="43.6217167" lon="11.3372138"><ele>616.0</ele><time>2026-04-12T10:48:46.597Z</time></trkpt><trkpt lat="43.6216975" lon="11.3373174"><ele>619.0</ele><time>2026-04-12T10:48:48.597Z</time></trkpt><trkpt lat="43.6216474" lon="11.3374419"><ele>622.0</ele><time>2026-04-12T10:48:51.597Z</time></trkpt><trkpt lat="43.6215698" lon="11.3375641"><ele>625.0</ele><time>2026-04-12T10:48:53.598Z</time></trkpt><trkpt lat="43.6215001" lon="11.3376634"><ele>628.0</ele><time>2026-04-12T10:48:55.597Z</time></trkpt><trkpt lat="43.6213998" lon="11.337721"><ele>631.0</ele><time>2026-04-12T10:48:57.598Z</time></trkpt><trkpt lat="43.6213408" lon="11.337762"><ele>631.0</ele><time>2026-04-12T10:48:58.598Z</time></trkpt><trkpt lat="43.6212773" lon="11.3378386"><ele>631.0</ele><time>2026-04-12T10:48:59.597Z</time></trkpt><trkpt lat="43.6212061" lon="11.3378546"><ele>631.0</ele><time>2026-04-12T10:49:01.598Z</time></trkpt><trkpt lat="43.6211198" lon="11.337819"><ele>631.0</ele><time>2026-04-12T10:49:02.598Z</time></trkpt><trkpt lat="43.6210368" lon="11.3377805"><ele>631.0</ele><time>2026-04-12T10:49:03.598Z</time></trkpt><trkpt lat="43.6209609" lon="11.3377815"><ele>631.0</ele><time>2026-04-12T10:49:04.597Z</time></trkpt><trkpt lat="43.6208815" lon="11.3377469"><ele>629.8333333333334</ele><time>2026-04-12T10:49:05.598Z</time></trkpt><trkpt lat="43.6208027" lon="11.3376934"><ele>628.6666666666667</ele><time>2026-04-12T10:49:06.598Z</time></trkpt><trkpt lat="43.620725" lon="11.3376649"><ele>627.5</ele><time>2026-04-12T10:49:07.597Z</time></trkpt><trkpt lat="43.6206337" lon="11.3376385"><ele>626.3333333333334</ele><time>2026-04-12T10:49:08.598Z</time></trkpt><trkpt lat="43.6205417" lon="11.3376258"><ele>625.1666666666666</ele><time>2026-04-12T10:49:09.597Z</time></trkpt><trkpt lat="43.6204599" lon="11.3376144"><ele>624.0</ele><time>2026-04-12T10:49:10.598Z</time></trkpt><trkpt lat="43.620388" lon="11.3376012"><ele>624.0</ele><time>2026-04-12T10:49:11.598Z</time></trkpt><trkpt lat="43.6203174" lon="11.3375846"><ele>624.0</ele><time>2026-04-12T10:49:12.598Z</time></trkpt><trkpt lat="43.6201977" lon="11.3375766"><ele>624.0</ele><time>2026-04-12T10:49:14.597Z</time></trkpt><trkpt lat="43.6200848" lon="11.3376194"><ele>624.0</ele><time>2026-04-12T10:49:16.597Z</time></trkpt><trkpt lat="43.6199679" lon="11.33766"><ele>624.0</ele><time>2026-04-12T10:49:18.597Z</time></trkpt><trkpt lat="43.6198564" lon="11.3376882"><ele>623.8333333333334</ele><time>2026-04-12T10:49:20.598Z</time></trkpt><trkpt lat="43.6197847" lon="11.3376776"><ele>623.6666666666666</ele><time>2026-04-12T10:49:21.597Z</time></trkpt><trkpt lat="43.6197035" lon="11.3376689"><ele>623.5</ele><time>2026-04-12T10:49:22.597Z</time></trkpt><trkpt lat="43.6196347" lon="11.3376703"><ele>623.3333333333333</ele><time>2026-04-12T10:49:23.598Z</time></trkpt><trkpt lat="43.6195387" lon="11.3377007"><ele>623.1666666666666</ele><time>2026-04-12T10:49:25.598Z</time></trkpt><trkpt lat="43.6194453" lon="11.3377353"><ele>623.0</ele><time>2026-04-12T10:49:27.597Z</time></trkpt><trkpt lat="43.6193673" lon="11.3377845"><ele>622.1999999999999</ele><time>2026-04-12T10:49:29.598Z</time></trkpt><trkpt lat="43.61929" lon="11.337852"><ele>621.4</ele><time>2026-04-12T10:49:31.597Z</time></trkpt><trkpt lat="43.6192227" lon="11.3379343"><ele>620.5999999999999</ele><time>2026-04-12T10:49:33.597Z</time></trkpt><trkpt lat="43.6191472" lon="11.3380198"><ele>619.8</ele><time>2026-04-12T10:49:35.597Z</time></trkpt><trkpt lat="43.6190981" lon="11.3380839"><ele>619.0</ele><time>2026-04-12T10:49:36.597Z</time></trkpt><trkpt lat="43.6190224" lon="11.3382164"><ele>621.6666666666667</ele><time>2026-04-12T10:49:38.598Z</time></trkpt><trkpt lat="43.6189747" lon="11.3382789"><ele>624.3333333333334</ele><time>2026-04-12T10:49:39.598Z</time></trkpt><trkpt lat="43.6189314" lon="11.3383547"><ele>627.0</ele><time>2026-04-12T10:49:40.598Z</time></trkpt><trkpt lat="43.618863" lon="11.3384624"><ele>629.6666666666666</ele><time>2026-04-12T10:49:42.598Z</time></trkpt><trkpt lat="43.6188101" lon="11.3385794"><ele>632.3333333333333</ele><time>2026-04-12T10:49:44.597Z</time></trkpt><trkpt lat="43.6187897" lon="11.3387244"><ele>635.0</ele><time>2026-04-12T10:49:46.597Z</time></trkpt><trkpt lat="43.6188173" lon="11.3388751"><ele>636.0</ele><time>2026-04-12T10:49:48.598Z</time></trkpt><trkpt lat="43.6188525" lon="11.3390293"><ele>637.0</ele><time>2026-04-12T10:49:50.597Z</time></trkpt><trkpt lat="43.6189152" lon="11.3391563"><ele>638.0</ele><time>2026-04-12T10:49:52.597Z</time></trkpt><trkpt lat="43.6189686" lon="11.3392494"><ele>639.0</ele><time>2026-04-12T10:49:54.597Z</time></trkpt><trkpt lat="43.6190087" lon="11.3393934"><ele>640.0</ele><time>2026-04-12T10:49:56.597Z</time></trkpt><trkpt lat="43.6190062" lon="11.3394928"><ele>640.0</ele><time>2026-04-12T10:49:57.598Z</time></trkpt><trkpt lat="43.6189772" lon="11.3396468"><ele>640.0</ele><time>2026-04-12T10:49:59.598Z</time></trkpt><trkpt lat="43.6189422" lon="11.339734"><ele>640.0</ele><time>2026-04-12T10:50:00.597Z</time></trkpt><trkpt lat="43.6189029" lon="11.3398347"><ele>640.0</ele><time>2026-04-12T10:50:01.597Z</time></trkpt><trkpt lat="43.6188621" lon="11.3399501"><ele>640.0</ele><time>2026-04-12T10:50:02.598Z</time></trkpt><trkpt lat="43.6188264" lon="11.3400606"><ele>640.0</ele><time>2026-04-12T10:50:03.598Z</time></trkpt><trkpt lat="43.6187865" lon="11.3401521"><ele>640.0</ele><time>2026-04-12T10:50:04.597Z</time></trkpt><trkpt lat="43.618742" lon="11.3402521"><ele>640.0</ele><time>2026-04-12T10:50:05.598Z</time></trkpt><trkpt lat="43.618709" lon="11.3403436"><ele>640.0</ele><time>2026-04-12T10:50:06.597Z</time></trkpt><trkpt lat="43.6186771" lon="11.3404498"><ele>640.0</ele><time>2026-04-12T10:50:07.598Z</time></trkpt><trkpt lat="43.6186586" lon="11.3405714"><ele>640.0</ele><time>2026-04-12T10:50:08.597Z</time></trkpt><trkpt lat="43.6186518" lon="11.3406805"><ele>638.0</ele><time>2026-04-12T10:50:09.597Z</time></trkpt><trkpt lat="43.61865" lon="11.3407847"><ele>636.0</ele><time>2026-04-12T10:50:10.597Z</time></trkpt><trkpt lat="43.6186443" lon="11.3408954"><ele>634.0</ele><time>2026-04-12T10:50:11.597Z</time></trkpt><trkpt lat="43.6186298" lon="11.3410213"><ele>632.0</ele><time>2026-04-12T10:50:12.597Z</time></trkpt><trkpt lat="43.6186097" lon="11.3411346"><ele>630.0</ele><time>2026-04-12T10:50:13.598Z</time></trkpt><trkpt lat="43.6185961" lon="11.3412449"><ele>628.0</ele><time>2026-04-12T10:50:14.597Z</time></trkpt><trkpt lat="43.6185854" lon="11.3413504"><ele>629.1666666666667</ele><time>2026-04-12T10:50:15.598Z</time></trkpt><trkpt lat="43.618587" lon="11.3414442"><ele>630.3333333333334</ele><time>2026-04-12T10:50:16.598Z</time></trkpt><trkpt lat="43.6185902" lon="11.3415454"><ele>631.5</ele><time>2026-04-12T10:50:17.597Z</time></trkpt><trkpt lat="43.6185404" lon="11.3417041"><ele>632.6666666666666</ele><time>2026-04-12T10:50:19.597Z</time></trkpt><trkpt lat="43.6184988" lon="11.3417961"><ele>633.8333333333333</ele><time>2026-04-12T10:50:21.598Z</time></trkpt><trkpt lat="43.6184672" lon="11.3419118"><ele>635.0</ele><time>2026-04-12T10:50:23.598Z</time></trkpt><trkpt lat="43.6184372" lon="11.341989"><ele>635.0</ele><time>2026-04-12T10:50:24.597Z</time></trkpt><trkpt lat="43.6183895" lon="11.3420791"><ele>635.0</ele><time>2026-04-12T10:50:26.597Z</time></trkpt><trkpt lat="43.6183356" lon="11.3421278"><ele>635.0</ele><time>2026-04-12T10:51:07.597Z</time></trkpt><trkpt lat="43.6182975" lon="11.342235"><ele>635.0</ele><time>2026-04-12T10:51:10.598Z</time></trkpt><trkpt lat="43.6182201" lon="11.3423146"><ele>635.0</ele><time>2026-04-12T10:51:12.597Z</time></trkpt><trkpt lat="43.6181391" lon="11.3424073"><ele>635.0</ele><time>2026-04-12T10:51:14.598Z</time></trkpt><trkpt lat="43.6180776" lon="11.3425236"><ele>635.4</ele><time>2026-04-12T10:51:16.597Z</time></trkpt><trkpt lat="43.6180585" lon="11.3426873"><ele>635.8</ele><time>2026-04-12T10:51:18.598Z</time></trkpt><trkpt lat="43.6179953" lon="11.3428252"><ele>636.2</ele><time>2026-04-12T10:51:20.598Z</time></trkpt><trkpt lat="43.6178901" lon="11.3429208"><ele>636.6</ele><time>2026-04-12T10:51:22.598Z</time></trkpt><trkpt lat="43.6178223" lon="11.3429648"><ele>637.0</ele><time>2026-04-12T10:51:23.597Z</time></trkpt><trkpt lat="43.6177595" lon="11.3430095"><ele>638.0</ele><time>2026-04-12T10:51:24.598Z</time></trkpt><trkpt lat="43.6176932" lon="11.3430587"><ele>639.0</ele><time>2026-04-12T10:51:25.598Z</time></trkpt><trkpt lat="43.6176258" lon="11.3431198"><ele>640.0</ele><time>2026-04-12T10:51:26.598Z</time></trkpt><trkpt lat="43.6175674" lon="11.3431779"><ele>641.0</ele><time>2026-04-12T10:51:27.598Z</time></trkpt><trkpt lat="43.6175111" lon="11.3432396"><ele>642.0</ele><time>2026-04-12T10:51:28.597Z</time></trkpt><trkpt lat="43.6174561" lon="11.3432852"><ele>643.0</ele><time>2026-04-12T10:51:29.597Z</time></trkpt><trkpt lat="43.6173347" lon="11.3433557"><ele>643.0</ele><time>2026-04-12T10:51:31.598Z</time></trkpt><trkpt lat="43.617232" lon="11.3434425"><ele>643.0</ele><time>2026-04-12T10:51:33.597Z</time></trkpt><trkpt lat="43.6171421" lon="11.3435172"><ele>643.0</ele><time>2026-04-12T10:51:35.598Z</time></trkpt><trkpt lat="43.6170312" lon="11.3435339"><ele>643.0</ele><time>2026-04-12T10:51:37.598Z</time></trkpt><trkpt lat="43.6169542" lon="11.343564"><ele>643.0</ele><time>2026-04-12T10:51:39.598Z</time></trkpt><trkpt lat="43.6168796" lon="11.3436158"><ele>642.6666666666667</ele><time>2026-04-12T10:51:41.597Z</time></trkpt><trkpt lat="43.6168167" lon="11.3436748"><ele>642.3333333333334</ele><time>2026-04-12T10:51:43.598Z</time></trkpt><trkpt lat="43.616752" lon="11.3437274"><ele>642.0</ele><time>2026-04-12T10:51:45.597Z</time></trkpt><trkpt lat="43.6166721" lon="11.3437772"><ele>641.6666666666666</ele><time>2026-04-12T10:51:47.598Z</time></trkpt><trkpt lat="43.6165951" lon="11.3438331"><ele>641.3333333333333</ele><time>2026-04-12T10:51:49.597Z</time></trkpt><trkpt lat="43.6165285" lon="11.3438651"><ele>641.0</ele><time>2026-04-12T10:51:51.597Z</time></trkpt><trkpt lat="43.6164357" lon="11.3439683"><ele>641.8333333333333</ele><time>2026-04-12T10:51:53.598Z</time></trkpt><trkpt lat="43.6163869" lon="11.3441056"><ele>642.6666666666666</ele><time>2026-04-12T10:51:55.598Z</time></trkpt><trkpt lat="43.6163345" lon="11.3442026"><ele>643.5</ele><time>2026-04-12T10:51:57.597Z</time></trkpt><trkpt lat="43.6163009" lon="11.3442894"><ele>644.3333333333334</ele><time>2026-04-12T10:51:59.597Z</time></trkpt><trkpt lat="43.6162312" lon="11.34435"><ele>645.1666666666667</ele><time>2026-04-12T10:53:07.597Z</time></trkpt><trkpt lat="43.6161516" lon="11.3444169"><ele>646.0</ele><time>2026-04-12T10:53:11.598Z</time></trkpt><trkpt lat="43.6160744" lon="11.3444709"><ele>646.1666666666667</ele><time>2026-04-12T10:53:13.598Z</time></trkpt><trkpt lat="43.6160133" lon="11.3445278"><ele>646.3333333333334</ele><time>2026-04-12T10:53:14.597Z</time></trkpt><trkpt lat="43.6159616" lon="11.3445946"><ele>646.5</ele><time>2026-04-12T10:53:15.598Z</time></trkpt><trkpt lat="43.6158758" lon="11.3446613"><ele>646.6666666666666</ele><time>2026-04-12T10:53:17.597Z</time></trkpt><trkpt lat="43.6157727" lon="11.3446847"><ele>646.8333333333333</ele><time>2026-04-12T10:53:19.598Z</time></trkpt><trkpt lat="43.6156873" lon="11.3447438"><ele>647.0</ele><time>2026-04-12T10:53:21.598Z</time></trkpt><trkpt lat="43.6156144" lon="11.3448498"><ele>648.2</ele><time>2026-04-12T10:53:23.597Z</time></trkpt><trkpt lat="43.6155212" lon="11.3449168"><ele>649.4000000000001</ele><time>2026-04-12T10:53:25.597Z</time></trkpt><trkpt lat="43.6154248" lon="11.3450007"><ele>650.5999999999999</ele><time>2026-04-12T10:53:27.598Z</time></trkpt><trkpt lat="43.6153668" lon="11.3450671"><ele>651.8</ele><time>2026-04-12T10:53:29.597Z</time></trkpt><trkpt lat="43.6152838" lon="11.345125"><ele>653.0</ele><time>2026-04-12T10:53:31.598Z</time></trkpt><trkpt lat="43.6152251" lon="11.3451879"><ele>654.3333333333333</ele><time>2026-04-12T10:53:33.598Z</time></trkpt><trkpt lat="43.6151473" lon="11.3452131"><ele>655.6666666666666</ele><time>2026-04-12T10:53:36.598Z</time></trkpt><trkpt lat="43.6150705" lon="11.3452877"><ele>657.0</ele><time>2026-04-12T10:53:39.597Z</time></trkpt><trkpt lat="43.6149997" lon="11.3453542"><ele>658.3333333333334</ele><time>2026-04-12T10:53:41.598Z</time></trkpt><trkpt lat="43.6149185" lon="11.3454213"><ele>659.6666666666667</ele><time>2026-04-12T10:53:43.597Z</time></trkpt><trkpt lat="43.6148869" lon="11.3455075"><ele>661.0</ele><time>2026-04-12T10:53:45.597Z</time></trkpt><trkpt lat="43.6148135" lon="11.3456039"><ele>662.3333333333334</ele><time>2026-04-12T10:53:48.597Z</time></trkpt><trkpt lat="43.6147298" lon="11.3456876"><ele>663.6666666666667</ele><time>2026-04-12T10:53:50.598Z</time></trkpt><trkpt lat="43.6146765" lon="11.3457354"><ele>665.0</ele><time>2026-04-12T10:53:52.598Z</time></trkpt><trkpt lat="43.6146039" lon="11.3458064"><ele>666.3333333333334</ele><time>2026-04-12T10:53:54.597Z</time></trkpt><trkpt lat="43.6145268" lon="11.3459005"><ele>667.6666666666666</ele><time>2026-04-12T10:53:56.597Z</time></trkpt><trkpt lat="43.6144814" lon="11.3459925"><ele>669.0</ele><time>2026-04-12T10:53:58.598Z</time></trkpt><trkpt lat="43.6144525" lon="11.3460892"><ele>670.2</ele><time>2026-04-12T10:54:00.597Z</time></trkpt><trkpt lat="43.6143852" lon="11.3461765"><ele>671.4000000000001</ele><time>2026-04-12T10:54:03.597Z</time></trkpt><trkpt lat="43.6143166" lon="11.3462021"><ele>672.6</ele><time>2026-04-12T10:54:05.597Z</time></trkpt><trkpt lat="43.6142156" lon="11.3461818"><ele>673.8</ele><time>2026-04-12T10:54:07.597Z</time></trkpt><trkpt lat="43.6141271" lon="11.3462576"><ele>675.0</ele><time>2026-04-12T10:54:09.597Z</time></trkpt><trkpt lat="43.6140342" lon="11.3462908"><ele>675.0</ele><time>2026-04-12T10:54:11.598Z</time></trkpt><trkpt lat="43.6139179" lon="11.3463062"><ele>675.0</ele><time>2026-04-12T10:54:13.597Z</time></trkpt><trkpt lat="43.6138481" lon="11.3463178"><ele>675.0</ele><time>2026-04-12T10:54:14.598Z</time></trkpt><trkpt lat="43.6137451" lon="11.3463246"><ele>675.0</ele><time>2026-04-12T10:54:16.597Z</time></trkpt><trkpt lat="43.6136278" lon="11.3463645"><ele>675.0</ele><time>2026-04-12T10:54:18.597Z</time></trkpt><trkpt lat="43.6135271" lon="11.346415"><ele>676.4</ele><time>2026-04-12T10:54:20.598Z</time></trkpt><trkpt lat="43.6134437" lon="11.3465215"><ele>677.8</ele><time>2026-04-12T10:54:22.597Z</time></trkpt><trkpt lat="43.6133708" lon="11.3466426"><ele>679.2</ele><time>2026-04-12T10:54:24.598Z</time></trkpt><trkpt lat="43.6133266" lon="11.3467148"><ele>680.6</ele><time>2026-04-12T10:54:25.598Z</time></trkpt><trkpt lat="43.6132096" lon="11.3468143"><ele>682.0</ele><time>2026-04-12T10:54:27.597Z</time></trkpt><trkpt lat="43.6131361" lon="11.3468639"><ele>682.0</ele><time>2026-04-12T10:54:28.597Z</time></trkpt><trkpt lat="43.6130259" lon="11.3469467"><ele>682.0</ele><time>2026-04-12T10:54:30.598Z</time></trkpt><trkpt lat="43.6129754" lon="11.3470231"><ele>682.0</ele><time>2026-04-12T10:54:31.597Z</time></trkpt><trkpt lat="43.6129284" lon="11.3471076"><ele>682.0</ele><time>2026-04-12T10:54:32.597Z</time></trkpt><trkpt lat="43.6128879" lon="11.3471833"><ele>682.0</ele><time>2026-04-12T10:54:33.598Z</time></trkpt><trkpt lat="43.612855" lon="11.3472758"><ele>682.0</ele><time>2026-04-12T10:54:34.598Z</time></trkpt><trkpt lat="43.6128333" lon="11.3473649"><ele>681.8333333333334</ele><time>2026-04-12T10:54:35.598Z</time></trkpt><trkpt lat="43.6128076" lon="11.3474545"><ele>681.6666666666667</ele><time>2026-04-12T10:54:36.598Z</time></trkpt><trkpt lat="43.6127507" lon="11.3476426"><ele>681.5</ele><time>2026-04-12T10:54:38.597Z</time></trkpt><trkpt lat="43.6127355" lon="11.3477417"><ele>681.3333333333334</ele><time>2026-04-12T10:54:39.597Z</time></trkpt><trkpt lat="43.6127301" lon="11.3478421"><ele>681.1666666666666</ele><time>2026-04-12T10:54:40.598Z</time></trkpt><trkpt lat="43.6127198" lon="11.3479492"><ele>681.0</ele><time>2026-04-12T10:54:41.597Z</time></trkpt><trkpt lat="43.6127102" lon="11.3480446"><ele>681.0</ele><time>2026-04-12T10:54:42.597Z</time></trkpt><trkpt lat="43.6127216" lon="11.3482115"><ele>681.0</ele><time>2026-04-12T10:54:44.598Z</time></trkpt><trkpt lat="43.612736" lon="11.3483243"><ele>681.0</ele><time>2026-04-12T10:54:45.597Z</time></trkpt><trkpt lat="43.6127581" lon="11.3484644"><ele>681.0</ele><time>2026-04-12T10:54:47.598Z</time></trkpt><trkpt lat="43.6127257" lon="11.3486078"><ele>681.0</ele><time>2026-04-12T10:54:49.597Z</time></trkpt><trkpt lat="43.61268" lon="11.3487526"><ele>681.0000000000001</ele><time>2026-04-12T10:54:51.597Z</time></trkpt><trkpt lat="43.6127011" lon="11.3488376"><ele>681.0</ele><time>2026-04-12T10:54:52.598Z</time></trkpt><trkpt lat="43.6127185" lon="11.3489226"><ele>681.0</ele><time>2026-04-12T10:54:53.597Z</time></trkpt><trkpt lat="43.6126993" lon="11.3490706"><ele>681.0</ele><time>2026-04-12T10:54:55.597Z</time></trkpt><trkpt lat="43.6126577" lon="11.3491422"><ele>681.0</ele><time>2026-04-12T10:54:56.598Z</time></trkpt><trkpt lat="43.6126135" lon="11.3492071"><ele>681.0000000000001</ele><time>2026-04-12T10:54:57.598Z</time></trkpt><trkpt lat="43.6125681" lon="11.3492878"><ele>681.0</ele><time>2026-04-12T10:54:58.598Z</time></trkpt><trkpt lat="43.6125222" lon="11.3493597"><ele>681.6666666666666</ele><time>2026-04-12T10:54:59.598Z</time></trkpt><trkpt lat="43.6124798" lon="11.3494242"><ele>682.3333333333334</ele><time>2026-04-12T10:55:00.598Z</time></trkpt><trkpt lat="43.6124366" lon="11.3495005"><ele>683.0</ele><time>2026-04-12T10:55:01.598Z</time></trkpt><trkpt lat="43.61235" lon="11.3495944"><ele>683.6666666666667</ele><time>2026-04-12T10:55:03.598Z</time></trkpt><trkpt lat="43.6122328" lon="11.3496136"><ele>684.3333333333334</ele><time>2026-04-12T10:55:05.598Z</time></trkpt><trkpt lat="43.6121538" lon="11.349667"><ele>685.0</ele><time>2026-04-12T10:55:06.597Z</time></trkpt><trkpt lat="43.6120938" lon="11.3497091"><ele>685.0</ele><time>2026-04-12T10:55:07.598Z</time></trkpt><trkpt lat="43.6120219" lon="11.3497399"><ele>685.0</ele><time>2026-04-12T10:55:08.598Z</time></trkpt><trkpt lat="43.6119124" lon="11.3498015"><ele>685.0</ele><time>2026-04-12T10:55:10.597Z</time></trkpt><trkpt lat="43.6118063" lon="11.3498964"><ele>685.0</ele><time>2026-04-12T10:55:12.598Z</time></trkpt><trkpt lat="43.6117493" lon="11.3499462"><ele>685.0</ele><time>2026-04-12T10:55:13.597Z</time></trkpt><trkpt lat="43.6116632" lon="11.3500233"><ele>687.2</ele><time>2026-04-12T10:55:15.597Z</time></trkpt><trkpt lat="43.611554" lon="11.3501039"><ele>689.4</ele><time>2026-04-12T10:55:17.598Z</time></trkpt><trkpt lat="43.6114908" lon="11.3501359"><ele>691.5999999999999</ele><time>2026-04-12T10:55:19.597Z</time></trkpt><trkpt lat="43.6113819" lon="11.3501782"><ele>693.8</ele><time>2026-04-12T10:55:21.598Z</time></trkpt><trkpt lat="43.6113183" lon="11.3501896"><ele>696.0</ele><time>2026-04-12T10:55:23.597Z</time></trkpt><trkpt lat="43.6111989" lon="11.3502039"><ele>694.4</ele><time>2026-04-12T10:55:26.611Z</time></trkpt><trkpt lat="43.6111388" lon="11.3502383"><ele>692.8</ele><time>2026-04-12T10:55:27.619Z</time></trkpt><trkpt lat="43.6110447" lon="11.3502371"><ele>691.1999999999999</ele><time>2026-04-12T10:55:29.597Z</time></trkpt><trkpt lat="43.6109018" lon="11.3502301"><ele>689.5999999999999</ele><time>2026-04-12T10:55:31.598Z</time></trkpt><trkpt lat="43.6108094" lon="11.3502797"><ele>688.0</ele><time>2026-04-12T10:55:32.598Z</time></trkpt><trkpt lat="43.6107297" lon="11.3503257"><ele>688.0</ele><time>2026-04-12T10:55:33.598Z</time></trkpt><trkpt lat="43.6106503" lon="11.3503687"><ele>688.0</ele><time>2026-04-12T10:55:34.598Z</time></trkpt><trkpt lat="43.6105903" lon="11.350425"><ele>688.0</ele><time>2026-04-12T10:55:35.597Z</time></trkpt><trkpt lat="43.6105309" lon="11.3504785"><ele>688.0</ele><time>2026-04-12T10:55:36.598Z</time></trkpt><trkpt lat="43.6104563" lon="11.3504995"><ele>688.0</ele><time>2026-04-12T10:55:37.598Z</time></trkpt><trkpt lat="43.6103882" lon="11.3505219"><ele>688.0</ele><time>2026-04-12T10:55:38.597Z</time></trkpt><trkpt lat="43.6102798" lon="11.3505887"><ele>685.0</ele><time>2026-04-12T10:55:40.597Z</time></trkpt><trkpt lat="43.610151" lon="11.3506618"><ele>682.0</ele><time>2026-04-12T10:55:42.598Z</time></trkpt><trkpt lat="43.6100652" lon="11.350771"><ele>679.0</ele><time>2026-04-12T10:55:44.598Z</time></trkpt><trkpt lat="43.6100453" lon="11.3508698"><ele>676.0</ele><time>2026-04-12T10:55:46.597Z</time></trkpt><trkpt lat="43.6100357" lon="11.3509806"><ele>673.0</ele><time>2026-04-12T10:55:49.597Z</time></trkpt><trkpt lat="43.6099764" lon="11.3510291"><ele>673.0</ele><time>2026-04-12T10:55:54.597Z</time></trkpt><trkpt lat="43.6099083" lon="11.3510301"><ele>673.0</ele><time>2026-04-12T10:56:00.597Z</time></trkpt><trkpt lat="43.6098464" lon="11.3510973"><ele>673.0</ele><time>2026-04-12T10:56:05.601Z</time></trkpt><trkpt lat="43.609799" lon="11.3511551"><ele>673.0</ele><time>2026-04-12T10:56:07.6Z</time></trkpt><trkpt lat="43.6097461" lon="11.3512313"><ele>673.0</ele><time>2026-04-12T10:56:09.6Z</time></trkpt><trkpt lat="43.6096794" lon="11.3513115"><ele>673.0</ele><time>2026-04-12T10:56:11.6Z</time></trkpt><trkpt lat="43.6096171" lon="11.3513647"><ele>673.0</ele><time>2026-04-12T10:56:12.601Z</time></trkpt><trkpt lat="43.6095589" lon="11.3514043"><ele>672.6666666666667</ele><time>2026-04-12T10:56:13.601Z</time></trkpt><trkpt lat="43.609507" lon="11.3514587"><ele>672.3333333333334</ele><time>2026-04-12T10:56:14.601Z</time></trkpt><trkpt lat="43.6094596" lon="11.3515432"><ele>672.0</ele><time>2026-04-12T10:56:15.6Z</time></trkpt><trkpt lat="43.6093853" lon="11.3516459"><ele>671.6666666666666</ele><time>2026-04-12T10:56:17.601Z</time></trkpt><trkpt lat="43.6093388" lon="11.351711"><ele>671.3333333333333</ele><time>2026-04-12T10:56:18.601Z</time></trkpt><trkpt lat="43.6092773" lon="11.3518063"><ele>671.0</ele><time>2026-04-12T10:56:20.601Z</time></trkpt><trkpt lat="43.6092313" lon="11.3518937"><ele>672.1666666666666</ele><time>2026-04-12T10:56:23.6Z</time></trkpt><trkpt lat="43.6091562" lon="11.3519009"><ele>673.3333333333333</ele><time>2026-04-12T10:56:27.6Z</time></trkpt><trkpt lat="43.6090812" lon="11.351932"><ele>674.5</ele><time>2026-04-12T10:56:29.6Z</time></trkpt><trkpt lat="43.6089934" lon="11.3519792"><ele>675.6666666666666</ele><time>2026-04-12T10:56:31.601Z</time></trkpt><trkpt lat="43.6089176" lon="11.3519933"><ele>676.8333333333334</ele><time>2026-04-12T10:56:33.601Z</time></trkpt><trkpt lat="43.6088343" lon="11.3520234"><ele>678.0</ele><time>2026-04-12T10:56:35.6Z</time></trkpt><trkpt lat="43.6087776" lon="11.3520655"><ele>678.0</ele><time>2026-04-12T10:56:36.6Z</time></trkpt><trkpt lat="43.6086835" lon="11.3521451"><ele>678.0</ele><time>2026-04-12T10:56:38.6Z</time></trkpt><trkpt lat="43.6086294" lon="11.3521976"><ele>678.0</ele><time>2026-04-12T10:56:39.6Z</time></trkpt><trkpt lat="43.6085262" lon="11.3522701"><ele>678.0</ele><time>2026-04-12T10:56:41.6Z</time></trkpt><trkpt lat="43.6084068" lon="11.3522915"><ele>678.0</ele><time>2026-04-12T10:56:43.6Z</time></trkpt><trkpt lat="43.6083225" lon="11.352327"><ele>677.5999999999999</ele><time>2026-04-12T10:56:45.601Z</time></trkpt><trkpt lat="43.6082245" lon="11.3524012"><ele>677.1999999999999</ele><time>2026-04-12T10:56:47.601Z</time></trkpt><trkpt lat="43.6081418" lon="11.3524931"><ele>676.8</ele><time>2026-04-12T10:56:49.601Z</time></trkpt><trkpt lat="43.6080761" lon="11.3525512"><ele>676.4</ele><time>2026-04-12T10:56:50.601Z</time></trkpt><trkpt lat="43.6080118" lon="11.352575"><ele>676.0</ele><time>2026-04-12T10:56:51.601Z</time></trkpt><trkpt lat="43.607895" lon="11.3526396"><ele>674.3333333333334</ele><time>2026-04-12T10:56:53.601Z</time></trkpt><trkpt lat="43.6077837" lon="11.3526654"><ele>672.6666666666667</ele><time>2026-04-12T10:56:55.6Z</time></trkpt><trkpt lat="43.6077197" lon="11.3527164"><ele>671.0</ele><time>2026-04-12T10:56:57.601Z</time></trkpt><trkpt lat="43.6076681" lon="11.3527755"><ele>669.3333333333334</ele><time>2026-04-12T10:57:01.6Z</time></trkpt><trkpt lat="43.607616" lon="11.3528453"><ele>667.6666666666666</ele><time>2026-04-12T10:57:14.6Z</time></trkpt><trkpt lat="43.6075511" lon="11.3528743"><ele>666.0</ele><time>2026-04-12T10:57:20.6Z</time></trkpt><trkpt lat="43.6074918" lon="11.3529284"><ele>666.0</ele><time>2026-04-12T10:57:24.6Z</time></trkpt><trkpt lat="43.6074346" lon="11.3530379"><ele>666.0</ele><time>2026-04-12T10:57:26.601Z</time></trkpt><trkpt lat="43.6073835" lon="11.3531516"><ele>666.0</ele><time>2026-04-12T10:57:28.601Z</time></trkpt><trkpt lat="43.6074106" lon="11.3532535"><ele>666.0</ele><time>2026-04-12T10:57:30.601Z</time></trkpt><trkpt lat="43.6074524" lon="11.3533757"><ele>666.0</ele><time>2026-04-12T10:57:32.601Z</time></trkpt><trkpt lat="43.6075004" lon="11.3535248"><ele>665.1666666666666</ele><time>2026-04-12T10:57:34.601Z</time></trkpt><trkpt lat="43.6075674" lon="11.3536296"><ele>664.3333333333334</ele><time>2026-04-12T10:57:36.601Z</time></trkpt><trkpt lat="43.6076289" lon="11.3537238"><ele>663.5</ele><time>2026-04-12T10:57:38.6Z</time></trkpt><trkpt lat="43.6076845" lon="11.3538173"><ele>662.6666666666667</ele><time>2026-04-12T10:57:41.601Z</time></trkpt><trkpt lat="43.6077271" lon="11.3538855"><ele>661.8333333333334</ele><time>2026-04-12T10:57:43.601Z</time></trkpt><trkpt lat="43.6077657" lon="11.3539545"><ele>661.0</ele><time>2026-04-12T10:57:45.6Z</time></trkpt><trkpt lat="43.6077459" lon="11.3540722"><ele>658.8</ele><time>2026-04-12T10:57:48.601Z</time></trkpt><trkpt lat="43.6076786" lon="11.3541915"><ele>656.5999999999999</ele><time>2026-04-12T10:57:50.6Z</time></trkpt><trkpt lat="43.6075845" lon="11.354264"><ele>654.4</ele><time>2026-04-12T10:57:52.6Z</time></trkpt><trkpt lat="43.6075144" lon="11.3543333"><ele>652.2</ele><time>2026-04-12T10:57:54.6Z</time></trkpt><trkpt lat="43.6074393" lon="11.3543481"><ele>650.0</ele><time>2026-04-12T10:57:56.6Z</time></trkpt><trkpt lat="43.6073663" lon="11.3543402"><ele>650.0</ele><time>2026-04-12T10:57:58.6Z</time></trkpt><trkpt lat="43.6073045" lon="11.3543627"><ele>650.0</ele><time>2026-04-12T10:58:00.601Z</time></trkpt><trkpt lat="43.6072477" lon="11.3544147"><ele>650.0</ele><time>2026-04-12T10:58:02.6Z</time></trkpt><trkpt lat="43.6071873" lon="11.3544582"><ele>650.0</ele><time>2026-04-12T10:58:04.601Z</time></trkpt><trkpt lat="43.6071235" lon="11.3545313"><ele>650.0</ele><time>2026-04-12T10:58:07.6Z</time></trkpt><trkpt lat="43.6070681" lon="11.3545739"><ele>650.0</ele><time>2026-04-12T10:58:10.6Z</time></trkpt><trkpt lat="43.6069908" lon="11.3545946"><ele>650.0</ele><time>2026-04-12T10:58:12.6Z</time></trkpt><trkpt lat="43.6069153" lon="11.3546164"><ele>648.4</ele><time>2026-04-12T10:58:14.601Z</time></trkpt><trkpt lat="43.6068263" lon="11.3546285"><ele>646.8</ele><time>2026-04-12T10:58:16.601Z</time></trkpt><trkpt lat="43.6067287" lon="11.3546497"><ele>645.2</ele><time>2026-04-12T10:58:18.601Z</time></trkpt><trkpt lat="43.6066176" lon="11.3546471"><ele>643.6</ele><time>2026-04-12T10:58:20.6Z</time></trkpt><trkpt lat="43.6065337" lon="11.354661"><ele>642.0</ele><time>2026-04-12T10:58:22.601Z</time></trkpt><trkpt lat="43.6064598" lon="11.3546702"><ele>641.9999999999999</ele><time>2026-04-12T10:58:24.601Z</time></trkpt><trkpt lat="43.6063902" lon="11.3546719"><ele>642.0</ele><time>2026-04-12T10:58:26.601Z</time></trkpt><trkpt lat="43.6063259" lon="11.3546782"><ele>642.0</ele><time>2026-04-12T10:58:27.601Z</time></trkpt><trkpt lat="43.6062392" lon="11.3546542"><ele>642.0</ele><time>2026-04-12T10:58:29.6Z</time></trkpt><trkpt lat="43.6061721" lon="11.3546326"><ele>642.0</ele><time>2026-04-12T10:58:31.6Z</time></trkpt><trkpt lat="43.606108" lon="11.3545901"><ele>641.9999999999999</ele><time>2026-04-12T10:58:33.601Z</time></trkpt><trkpt lat="43.60607" lon="11.3545013"><ele>642.0</ele><time>2026-04-12T10:58:35.601Z</time></trkpt><trkpt lat="43.6060647" lon="11.3543938"><ele>638.8333333333334</ele><time>2026-04-12T10:58:37.601Z</time></trkpt><trkpt lat="43.6060236" lon="11.3543137"><ele>635.6666666666666</ele><time>2026-04-12T10:58:40.601Z</time></trkpt><trkpt lat="43.6059379" lon="11.3543438"><ele>632.5</ele><time>2026-04-12T10:58:42.601Z</time></trkpt><trkpt lat="43.6058483" lon="11.3543728"><ele>629.3333333333333</ele><time>2026-04-12T10:58:44.601Z</time></trkpt><trkpt lat="43.6057803" lon="11.3544223"><ele>626.1666666666666</ele><time>2026-04-12T10:58:46.6Z</time></trkpt><trkpt lat="43.6057147" lon="11.3544538"><ele>623.0</ele><time>2026-04-12T10:58:49.601Z</time></trkpt><trkpt lat="43.6056415" lon="11.3544322"><ele>623.0</ele><time>2026-04-12T10:58:51.6Z</time></trkpt><trkpt lat="43.6055764" lon="11.3544483"><ele>623.0</ele><time>2026-04-12T10:58:55.601Z</time></trkpt><trkpt lat="43.6054943" lon="11.3545117"><ele>623.0</ele><time>2026-04-12T10:58:57.601Z</time></trkpt><trkpt lat="43.605424" lon="11.3545607"><ele>623.0</ele><time>2026-04-12T10:58:59.601Z</time></trkpt><trkpt lat="43.6053557" lon="11.3546234"><ele>623.0</ele><time>2026-04-12T10:59:01.601Z</time></trkpt><trkpt lat="43.6053294" lon="11.3547161"><ele>623.0</ele><time>2026-04-12T10:59:03.601Z</time></trkpt><trkpt lat="43.605347" lon="11.3548131"><ele>622.4</ele><time>2026-04-12T10:59:05.601Z</time></trkpt><trkpt lat="43.6054129" lon="11.3548843"><ele>621.8</ele><time>2026-04-12T10:59:07.601Z</time></trkpt><trkpt lat="43.6054825" lon="11.3549807"><ele>621.2</ele><time>2026-04-12T10:59:09.6Z</time></trkpt><trkpt lat="43.6055564" lon="11.3550812"><ele>620.6</ele><time>2026-04-12T10:59:11.601Z</time></trkpt><trkpt lat="43.6056279" lon="11.3551909"><ele>620.0</ele><time>2026-04-12T10:59:13.6Z</time></trkpt><trkpt lat="43.6057274" lon="11.3552982"><ele>620.0</ele><time>2026-04-12T10:59:15.6Z</time></trkpt><trkpt lat="43.605832" lon="11.3553725"><ele>620.0</ele><time>2026-04-12T10:59:17.6Z</time></trkpt><trkpt lat="43.6059364" lon="11.3554447"><ele>620.0</ele><time>2026-04-12T10:59:19.601Z</time></trkpt><trkpt lat="43.6059994" lon="11.3554754"><ele>620.0</ele><time>2026-04-12T10:59:20.6Z</time></trkpt><trkpt lat="43.6060619" lon="11.3555111"><ele>620.0</ele><time>2026-04-12T10:59:21.601Z</time></trkpt><trkpt lat="43.6061286" lon="11.3555584"><ele>620.0</ele><time>2026-04-12T10:59:22.6Z</time></trkpt><trkpt lat="43.6061902" lon="11.3556107"><ele>618.2</ele><time>2026-04-12T10:59:23.6Z</time></trkpt><trkpt lat="43.6062641" lon="11.3556693"><ele>616.4</ele><time>2026-04-12T10:59:24.601Z</time></trkpt><trkpt lat="43.606341" lon="11.3557225"><ele>614.6</ele><time>2026-04-12T10:59:25.601Z</time></trkpt><trkpt lat="43.6064158" lon="11.3557777"><ele>612.8</ele><time>2026-04-12T10:59:26.6Z</time></trkpt><trkpt lat="43.6064829" lon="11.3558166"><ele>611.0</ele><time>2026-04-12T10:59:27.6Z</time></trkpt><trkpt lat="43.6066131" lon="11.3559079"><ele>611.0000000000001</ele><time>2026-04-12T10:59:29.601Z</time></trkpt><trkpt lat="43.6066825" lon="11.3559617"><ele>611.0</ele><time>2026-04-12T10:59:30.601Z</time></trkpt><trkpt lat="43.6067497" lon="11.3560167"><ele>611.0</ele><time>2026-04-12T10:59:31.601Z</time></trkpt><trkpt lat="43.6068092" lon="11.3560696"><ele>611.0</ele><time>2026-04-12T10:59:32.6Z</time></trkpt><trkpt lat="43.6068659" lon="11.3561197"><ele>611.0</ele><time>2026-04-12T10:59:33.6Z</time></trkpt><trkpt lat="43.6069362" lon="11.3561983"><ele>611.0000000000001</ele><time>2026-04-12T10:59:35.601Z</time></trkpt><trkpt lat="43.6069692" lon="11.3562728"><ele>611.0</ele><time>2026-04-12T10:59:37.601Z</time></trkpt><trkpt lat="43.607017" lon="11.3563396"><ele>610.5</ele><time>2026-04-12T10:59:57.601Z</time></trkpt><trkpt lat="43.6070787" lon="11.3563173"><ele>610.0</ele><time>2026-04-12T11:02:03.601Z</time></trkpt><trkpt lat="43.6070264" lon="11.3563898"><ele>609.5</ele><time>2026-04-12T11:02:06.601Z</time></trkpt><trkpt lat="43.606979" lon="11.3565061"><ele>609.0</ele><time>2026-04-12T11:02:08.6Z</time></trkpt><trkpt lat="43.6068917" lon="11.3566507"><ele>608.5</ele><time>2026-04-12T11:02:10.601Z</time></trkpt><trkpt lat="43.6068494" lon="11.3567216"><ele>608.0</ele><time>2026-04-12T11:02:11.601Z</time></trkpt><trkpt lat="43.6067903" lon="11.3567809"><ele>606.4285714285714</ele><time>2026-04-12T11:02:12.6Z</time></trkpt><trkpt lat="43.6067305" lon="11.3568153"><ele>604.8571428571429</ele><time>2026-04-12T11:02:13.601Z</time></trkpt><trkpt lat="43.6066684" lon="11.3568533"><ele>603.2857142857143</ele><time>2026-04-12T11:02:14.6Z</time></trkpt><trkpt lat="43.6066074" lon="11.3569075"><ele>601.7142857142858</ele><time>2026-04-12T11:02:15.601Z</time></trkpt><trkpt lat="43.6065422" lon="11.3569738"><ele>600.1428571428571</ele><time>2026-04-12T11:02:16.6Z</time></trkpt><trkpt lat="43.6064766" lon="11.3570496"><ele>598.5714285714287</ele><time>2026-04-12T11:02:17.6Z</time></trkpt><trkpt lat="43.6064216" lon="11.3571186"><ele>597.0</ele><time>2026-04-12T11:02:18.601Z</time></trkpt><trkpt lat="43.6063547" lon="11.3572032"><ele>596.8000000000001</ele><time>2026-04-12T11:02:19.6Z</time></trkpt><trkpt lat="43.6062946" lon="11.35729"><ele>596.6</ele><time>2026-04-12T11:02:20.601Z</time></trkpt><trkpt lat="43.6062215" lon="11.357378"><ele>596.4000000000001</ele><time>2026-04-12T11:02:21.6Z</time></trkpt><trkpt lat="43.6061603" lon="11.3574682"><ele>596.2</ele><time>2026-04-12T11:02:22.601Z</time></trkpt><trkpt lat="43.6060888" lon="11.3575525"><ele>596.0</ele><time>2026-04-12T11:02:23.6Z</time></trkpt><trkpt lat="43.6060274" lon="11.3576334"><ele>594.0</ele><time>2026-04-12T11:02:24.6Z</time></trkpt><trkpt lat="43.6059648" lon="11.3577187"><ele>592.0</ele><time>2026-04-12T11:02:25.6Z</time></trkpt><trkpt lat="43.6059104" lon="11.3577961"><ele>590.0</ele><time>2026-04-12T11:02:26.6Z</time></trkpt><trkpt lat="43.6058505" lon="11.357862"><ele>588.0</ele><time>2026-04-12T11:02:27.6Z</time></trkpt><trkpt lat="43.6057802" lon="11.357921"><ele>586.0</ele><time>2026-04-12T11:02:28.601Z</time></trkpt><trkpt lat="43.6057079" lon="11.3579818"><ele>584.0</ele><time>2026-04-12T11:02:29.601Z</time></trkpt><trkpt lat="43.6056378" lon="11.3580449"><ele>583.3333333333333</ele><time>2026-04-12T11:02:30.6Z</time></trkpt><trkpt lat="43.6055599" lon="11.3581111"><ele>582.6666666666666</ele><time>2026-04-12T11:02:31.6Z</time></trkpt><trkpt lat="43.6054842" lon="11.35817"><ele>582.0</ele><time>2026-04-12T11:02:32.601Z</time></trkpt><trkpt lat="43.6054066" lon="11.3582286"><ele>581.3333333333334</ele><time>2026-04-12T11:02:33.6Z</time></trkpt><trkpt lat="43.6053314" lon="11.3582873"><ele>580.6666666666667</ele><time>2026-04-12T11:02:34.6Z</time></trkpt><trkpt lat="43.6052549" lon="11.3583434"><ele>580.0</ele><time>2026-04-12T11:02:35.6Z</time></trkpt><trkpt lat="43.6051778" lon="11.3583876"><ele>578.5</ele><time>2026-04-12T11:02:36.601Z</time></trkpt><trkpt lat="43.6051045" lon="11.3584305"><ele>577.0</ele><time>2026-04-12T11:02:37.6Z</time></trkpt><trkpt lat="43.6050341" lon="11.358475"><ele>575.5</ele><time>2026-04-12T11:02:38.6Z</time></trkpt><trkpt lat="43.6049445" lon="11.3585213"><ele>574.0</ele><time>2026-04-12T11:02:40.601Z</time></trkpt><trkpt lat="43.6050115" lon="11.3585743"><ele>572.5</ele><time>2026-04-12T11:02:56.601Z</time></trkpt><trkpt lat="43.6049468" lon="11.358691"><ele>571.0</ele><time>2026-04-12T11:02:59.6Z</time></trkpt><trkpt lat="43.6048993" lon="11.3587534"><ele>571.0</ele><time>2026-04-12T11:03:00.6Z</time></trkpt><trkpt lat="43.6048082" lon="11.3588543"><ele>571.0</ele><time>2026-04-12T11:03:02.6Z</time></trkpt><trkpt lat="43.6047136" lon="11.3589201"><ele>571.0</ele><time>2026-04-12T11:03:04.601Z</time></trkpt><trkpt lat="43.6046114" lon="11.3589899"><ele>571.0</ele><time>2026-04-12T11:03:06.6Z</time></trkpt><trkpt lat="43.6045122" lon="11.3590607"><ele>571.0</ele><time>2026-04-12T11:03:08.601Z</time></trkpt><trkpt lat="43.6044154" lon="11.3591201"><ele>570.4</ele><time>2026-04-12T11:03:10.601Z</time></trkpt><trkpt lat="43.6042991" lon="11.3591399"><ele>569.8</ele><time>2026-04-12T11:03:12.601Z</time></trkpt><trkpt lat="43.6041942" lon="11.3592194"><ele>569.1999999999999</ele><time>2026-04-12T11:03:14.601Z</time></trkpt><trkpt lat="43.6041339" lon="11.3593184"><ele>568.6</ele><time>2026-04-12T11:03:16.601Z</time></trkpt><trkpt lat="43.6040655" lon="11.3594194"><ele>568.0</ele><time>2026-04-12T11:03:18.6Z</time></trkpt><trkpt lat="43.6039626" lon="11.3594967"><ele>568.0</ele><time>2026-04-12T11:03:20.6Z</time></trkpt><trkpt lat="43.6038678" lon="11.3595449"><ele>568.0</ele><time>2026-04-12T11:03:22.601Z</time></trkpt><trkpt lat="43.6037717" lon="11.3595889"><ele>568.0</ele><time>2026-04-12T11:03:24.601Z</time></trkpt><trkpt lat="43.6036662" lon="11.3596195"><ele>568.0</ele><time>2026-04-12T11:03:26.601Z</time></trkpt><trkpt lat="43.6035646" lon="11.359673"><ele>568.0</ele><time>2026-04-12T11:03:28.601Z</time></trkpt><trkpt lat="43.6034725" lon="11.3597935"><ele>567.5</ele><time>2026-04-12T11:03:30.6Z</time></trkpt><trkpt lat="43.6034004" lon="11.3598942"><ele>567.0</ele><time>2026-04-12T11:03:32.6Z</time></trkpt><trkpt lat="43.6033028" lon="11.3599279"><ele>566.5</ele><time>2026-04-12T11:03:34.6Z</time></trkpt><trkpt lat="43.6032394" lon="11.3599533"><ele>566.0</ele><time>2026-04-12T11:03:35.6Z</time></trkpt><trkpt lat="43.6031767" lon="11.3599921"><ele>565.5</ele><time>2026-04-12T11:03:36.601Z</time></trkpt><trkpt lat="43.6031173" lon="11.3600315"><ele>565.0</ele><time>2026-04-12T11:03:37.601Z</time></trkpt><trkpt lat="43.6030167" lon="11.3601086"><ele>565.0</ele><time>2026-04-12T11:03:39.601Z</time></trkpt><trkpt lat="43.6029231" lon="11.3601709"><ele>565.0</ele><time>2026-04-12T11:03:41.601Z</time></trkpt><trkpt lat="43.6028617" lon="11.3602175"><ele>565.0</ele><time>2026-04-12T11:03:43.601Z</time></trkpt><trkpt lat="43.6027903" lon="11.3602799"><ele>565.0</ele><time>2026-04-12T11:03:45.6Z</time></trkpt><trkpt lat="43.602694" lon="11.360348"><ele>565.0</ele><time>2026-04-12T11:03:47.601Z</time></trkpt><trkpt lat="43.6025848" lon="11.3604211"><ele>564.6666666666667</ele><time>2026-04-12T11:03:49.6Z</time></trkpt><trkpt lat="43.6024971" lon="11.3604802"><ele>564.3333333333334</ele><time>2026-04-12T11:03:51.6Z</time></trkpt><trkpt lat="43.602421" lon="11.3605343"><ele>564.0</ele><time>2026-04-12T11:03:53.601Z</time></trkpt><trkpt lat="43.6023533" lon="11.3605801"><ele>563.6666666666666</ele><time>2026-04-12T11:03:55.6Z</time></trkpt><trkpt lat="43.6022803" lon="11.3606531"><ele>563.3333333333333</ele><time>2026-04-12T11:03:58.6Z</time></trkpt><trkpt lat="43.602227" lon="11.3607081"><ele>563.0</ele><time>2026-04-12T11:04:00.601Z</time></trkpt><trkpt lat="43.6021406" lon="11.3607649"><ele>563.0</ele><time>2026-04-12T11:04:03.601Z</time></trkpt><trkpt lat="43.6020776" lon="11.3608193"><ele>563.0</ele><time>2026-04-12T11:04:05.6Z</time></trkpt><trkpt lat="43.6020092" lon="11.3608477"><ele>563.0</ele><time>2026-04-12T11:04:07.6Z</time></trkpt><trkpt lat="43.6019485" lon="11.3608858"><ele>563.0</ele><time>2026-04-12T11:04:09.6Z</time></trkpt><trkpt lat="43.6018667" lon="11.3609512"><ele>563.0</ele><time>2026-04-12T11:04:12.601Z</time></trkpt><trkpt lat="43.6017953" lon="11.3609969"><ele>563.0</ele><time>2026-04-12T11:04:15.6Z</time></trkpt><trkpt lat="43.6017113" lon="11.3610382"><ele>561.6666666666666</ele><time>2026-04-12T11:04:18.601Z</time></trkpt><trkpt lat="43.6016409" lon="11.3610806"><ele>560.3333333333333</ele><time>2026-04-12T11:04:21.6Z</time></trkpt><trkpt lat="43.6015611" lon="11.3611409"><ele>559.0</ele><time>2026-04-12T11:04:25.601Z</time></trkpt><trkpt lat="43.6015129" lon="11.3611972"><ele>557.6666666666666</ele><time>2026-04-12T11:04:27.6Z</time></trkpt><trkpt lat="43.6014444" lon="11.3612693"><ele>556.3333333333334</ele><time>2026-04-12T11:04:29.6Z</time></trkpt><trkpt lat="43.6013814" lon="11.3613118"><ele>555.0</ele><time>2026-04-12T11:04:31.601Z</time></trkpt><trkpt lat="43.6013191" lon="11.3613591"><ele>554.3333333333334</ele><time>2026-04-12T11:04:33.601Z</time></trkpt><trkpt lat="43.601254" lon="11.3614044"><ele>553.6666666666666</ele><time>2026-04-12T11:04:35.6Z</time></trkpt><trkpt lat="43.6011878" lon="11.36145"><ele>553.0</ele><time>2026-04-12T11:04:37.6Z</time></trkpt><trkpt lat="43.6010992" lon="11.3614983"><ele>552.3333333333333</ele><time>2026-04-12T11:04:39.601Z</time></trkpt><trkpt lat="43.601035" lon="11.3615481"><ele>551.6666666666666</ele><time>2026-04-12T11:04:41.601Z</time></trkpt><trkpt lat="43.6009599" lon="11.3615571"><ele>551.0</ele><time>2026-04-12T11:04:43.6Z</time></trkpt><trkpt lat="43.6008879" lon="11.3615918"><ele>549.1666666666666</ele><time>2026-04-12T11:04:45.601Z</time></trkpt><trkpt lat="43.6008146" lon="11.3616403"><ele>547.3333333333333</ele><time>2026-04-12T11:04:47.6Z</time></trkpt><trkpt lat="43.600743" lon="11.3617157"><ele>545.5</ele><time>2026-04-12T11:04:49.601Z</time></trkpt><trkpt lat="43.6006732" lon="11.3617865"><ele>543.6666666666666</ele><time>2026-04-12T11:04:51.6Z</time></trkpt><trkpt lat="43.6005755" lon="11.361859"><ele>541.8333333333334</ele><time>2026-04-12T11:04:53.6Z</time></trkpt><trkpt lat="43.6005151" lon="11.3618905"><ele>540.0</ele><time>2026-04-12T11:04:54.6Z</time></trkpt><trkpt lat="43.6004561" lon="11.3619303"><ele>540.0</ele><time>2026-04-12T11:04:55.6Z</time></trkpt><trkpt lat="43.6003667" lon="11.362009"><ele>540.0</ele><time>2026-04-12T11:04:57.601Z</time></trkpt><trkpt lat="43.6002782" lon="11.362073"><ele>540.0</ele><time>2026-04-12T11:04:59.601Z</time></trkpt><trkpt lat="43.6001898" lon="11.3621132"><ele>540.0</ele><time>2026-04-12T11:05:01.601Z</time></trkpt><trkpt lat="43.6000972" lon="11.3622051"><ele>540.0</ele><time>2026-04-12T11:05:03.601Z</time></trkpt><trkpt lat="43.600055" lon="11.3622749"><ele>539.6</ele><time>2026-04-12T11:05:04.601Z</time></trkpt><trkpt lat="43.5999816" lon="11.3623708"><ele>539.2</ele><time>2026-04-12T11:05:06.601Z</time></trkpt><trkpt lat="43.599911" lon="11.3624535"><ele>538.8</ele><time>2026-04-12T11:05:09.601Z</time></trkpt><trkpt lat="43.5998479" lon="11.3625266"><ele>538.4</ele><time>2026-04-12T11:05:11.601Z</time></trkpt><trkpt lat="43.5997799" lon="11.3626255"><ele>538.0</ele><time>2026-04-12T11:05:13.6Z</time></trkpt><trkpt lat="43.599696" lon="11.3627438"><ele>538.0</ele><time>2026-04-12T11:05:15.6Z</time></trkpt><trkpt lat="43.5996535" lon="11.3628111"><ele>538.0</ele><time>2026-04-12T11:05:16.6Z</time></trkpt><trkpt lat="43.5996044" lon="11.362874"><ele>538.0</ele><time>2026-04-12T11:05:17.6Z</time></trkpt><trkpt lat="43.5995348" lon="11.3630058"><ele>538.0</ele><time>2026-04-12T11:05:19.6Z</time></trkpt><trkpt lat="43.5994579" lon="11.3631093"><ele>538.0</ele><time>2026-04-12T11:05:21.6Z</time></trkpt><trkpt lat="43.5993945" lon="11.3631741"><ele>538.0</ele><time>2026-04-12T11:05:22.6Z</time></trkpt><trkpt lat="43.5993332" lon="11.3632487"><ele>537.5714285714286</ele><time>2026-04-12T11:05:23.6Z</time></trkpt><trkpt lat="43.5992721" lon="11.3633106"><ele>537.1428571428572</ele><time>2026-04-12T11:05:24.6Z</time></trkpt><trkpt lat="43.5992106" lon="11.3633522"><ele>536.7142857142858</ele><time>2026-04-12T11:05:25.6Z</time></trkpt><trkpt lat="43.5991515" lon="11.3633849"><ele>536.2857142857143</ele><time>2026-04-12T11:05:26.6Z</time></trkpt><trkpt lat="43.5990896" lon="11.3634199"><ele>535.8571428571429</ele><time>2026-04-12T11:05:27.6Z</time></trkpt><trkpt lat="43.599029" lon="11.3634579"><ele>535.4285714285714</ele><time>2026-04-12T11:05:28.6Z</time></trkpt><trkpt lat="43.5989671" lon="11.3634971"><ele>535.0</ele><time>2026-04-12T11:05:29.6Z</time></trkpt><trkpt lat="43.5988516" lon="11.3635653"><ele>535.0</ele><time>2026-04-12T11:05:31.601Z</time></trkpt><trkpt lat="43.5987835" lon="11.3635906"><ele>535.0</ele><time>2026-04-12T11:05:32.6Z</time></trkpt><trkpt lat="43.5986553" lon="11.3636177"><ele>535.0</ele><time>2026-04-12T11:05:34.6Z</time></trkpt><trkpt lat="43.5985836" lon="11.3636502"><ele>535.0</ele><time>2026-04-12T11:05:35.601Z</time></trkpt><trkpt lat="43.5985183" lon="11.3636883"><ele>535.0</ele><time>2026-04-12T11:05:36.6Z</time></trkpt><trkpt lat="43.5984533" lon="11.3637221"><ele>535.0</ele><time>2026-04-12T11:05:37.6Z</time></trkpt><trkpt lat="43.5983968" lon="11.3637606"><ele>534.5</ele><time>2026-04-12T11:05:38.601Z</time></trkpt><trkpt lat="43.5983188" lon="11.3637894"><ele>534.0</ele><time>2026-04-12T11:05:40.6Z</time></trkpt><trkpt lat="43.5982549" lon="11.3637919"><ele>533.5</ele><time>2026-04-12T11:05:42.6Z</time></trkpt><trkpt lat="43.598168" lon="11.3637886"><ele>533.0</ele><time>2026-04-12T11:05:43.6Z</time></trkpt><trkpt lat="43.5980773" lon="11.3637789"><ele>532.5</ele><time>2026-04-12T11:05:44.6Z</time></trkpt><trkpt lat="43.5979855" lon="11.3637723"><ele>532.0</ele><time>2026-04-12T11:05:45.601Z</time></trkpt><trkpt lat="43.5978816" lon="11.3637556"><ele>532.0</ele><time>2026-04-12T11:05:46.6Z</time></trkpt><trkpt lat="43.5977832" lon="11.3637249"><ele>532.0</ele><time>2026-04-12T11:05:47.601Z</time></trkpt><trkpt lat="43.5976781" lon="11.3636952"><ele>532.0</ele><time>2026-04-12T11:05:48.6Z</time></trkpt><trkpt lat="43.5975861" lon="11.3636796"><ele>532.0</ele><time>2026-04-12T11:05:49.6Z</time></trkpt><trkpt lat="43.5974874" lon="11.3637008"><ele>532.0</ele><time>2026-04-12T11:05:50.6Z</time></trkpt><trkpt lat="43.5973994" lon="11.3637543"><ele>532.0</ele><time>2026-04-12T11:05:51.6Z</time></trkpt><trkpt lat="43.5973006" lon="11.3638135"><ele>532.0</ele><time>2026-04-12T11:05:52.601Z</time></trkpt><trkpt lat="43.5971911" lon="11.3638665"><ele>532.0</ele><time>2026-04-12T11:05:53.601Z</time></trkpt><trkpt lat="43.5970748" lon="11.3639227"><ele>532.0</ele><time>2026-04-12T11:05:54.601Z</time></trkpt><trkpt lat="43.5969714" lon="11.363964"><ele>533.8333333333334</ele><time>2026-04-12T11:05:55.601Z</time></trkpt><trkpt lat="43.596886" lon="11.3639726"><ele>535.6666666666667</ele><time>2026-04-12T11:05:56.601Z</time></trkpt><trkpt lat="43.5968072" lon="11.3639428"><ele>537.5</ele><time>2026-04-12T11:05:57.601Z</time></trkpt><trkpt lat="43.596726" lon="11.3638838"><ele>539.3333333333334</ele><time>2026-04-12T11:05:58.6Z</time></trkpt><trkpt lat="43.5966518" lon="11.3637992"><ele>541.1666666666666</ele><time>2026-04-12T11:05:59.6Z</time></trkpt><trkpt lat="43.5965925" lon="11.3637169"><ele>543.0</ele><time>2026-04-12T11:06:00.601Z</time></trkpt><trkpt lat="43.5965236" lon="11.363658"><ele>543.0</ele><time>2026-04-12T11:06:01.6Z</time></trkpt><trkpt lat="43.5964419" lon="11.3636102"><ele>543.0</ele><time>2026-04-12T11:06:02.6Z</time></trkpt><trkpt lat="43.5963596" lon="11.3635629"><ele>543.0</ele><time>2026-04-12T11:06:03.6Z</time></trkpt><trkpt lat="43.5962749" lon="11.3635248"><ele>543.0</ele><time>2026-04-12T11:06:04.6Z</time></trkpt><trkpt lat="43.596201" lon="11.3635223"><ele>543.0</ele><time>2026-04-12T11:06:05.6Z</time></trkpt><trkpt lat="43.5961247" lon="11.3635517"><ele>543.0</ele><time>2026-04-12T11:06:06.6Z</time></trkpt><trkpt lat="43.5960443" lon="11.3635881"><ele>543.8333333333334</ele><time>2026-04-12T11:06:07.601Z</time></trkpt><trkpt lat="43.5959639" lon="11.363632"><ele>544.6666666666666</ele><time>2026-04-12T11:06:08.601Z</time></trkpt><trkpt lat="43.5959031" lon="11.3636791"><ele>545.5</ele><time>2026-04-12T11:06:09.6Z</time></trkpt><trkpt lat="43.5958521" lon="11.3637483"><ele>546.3333333333333</ele><time>2026-04-12T11:06:10.6Z</time></trkpt><trkpt lat="43.5958146" lon="11.3638335"><ele>547.1666666666666</ele><time>2026-04-12T11:06:11.601Z</time></trkpt><trkpt lat="43.5957811" lon="11.3639259"><ele>548.0</ele><time>2026-04-12T11:06:12.601Z</time></trkpt><trkpt lat="43.5957536" lon="11.3640344"><ele>550.5</ele><time>2026-04-12T11:06:13.601Z</time></trkpt><trkpt lat="43.5957278" lon="11.3641454"><ele>553.0</ele><time>2026-04-12T11:06:14.601Z</time></trkpt><trkpt lat="43.5957161" lon="11.364253"><ele>555.5</ele><time>2026-04-12T11:06:15.6Z</time></trkpt><trkpt lat="43.5957096" lon="11.3643694"><ele>558.0</ele><time>2026-04-12T11:06:16.6Z</time></trkpt><trkpt lat="43.595715" lon="11.3644907"><ele>560.5</ele><time>2026-04-12T11:06:17.601Z</time></trkpt><trkpt lat="43.5957262" lon="11.3646227"><ele>563.0</ele><time>2026-04-12T11:06:18.601Z</time></trkpt><trkpt lat="43.5957485" lon="11.3647481"><ele>564.8</ele><time>2026-04-12T11:06:19.6Z</time></trkpt><trkpt lat="43.5957629" lon="11.3648661"><ele>566.5999999999999</ele><time>2026-04-12T11:06:20.601Z</time></trkpt><trkpt lat="43.5957691" lon="11.3649949"><ele>568.4000000000001</ele><time>2026-04-12T11:06:21.601Z</time></trkpt><trkpt lat="43.5957764" lon="11.3651383"><ele>570.2</ele><time>2026-04-12T11:06:22.6Z</time></trkpt><trkpt lat="43.5957566" lon="11.3652916"><ele>572.0</ele><time>2026-04-12T11:06:23.601Z</time></trkpt><trkpt lat="43.5957244" lon="11.3654234"><ele>573.2</ele><time>2026-04-12T11:06:24.601Z</time></trkpt><trkpt lat="43.5956699" lon="11.365545"><ele>574.4000000000001</ele><time>2026-04-12T11:06:25.601Z</time></trkpt><trkpt lat="43.5956127" lon="11.3656461"><ele>575.5999999999999</ele><time>2026-04-12T11:06:26.601Z</time></trkpt><trkpt lat="43.595527" lon="11.365723"><ele>576.8</ele><time>2026-04-12T11:06:27.601Z</time></trkpt><trkpt lat="43.5954418" lon="11.3657764"><ele>578.0</ele><time>2026-04-12T11:06:28.601Z</time></trkpt><trkpt lat="43.5953562" lon="11.3658251"><ele>578.0</ele><time>2026-04-12T11:06:29.6Z</time></trkpt><trkpt lat="43.5952734" lon="11.3658857"><ele>578.0</ele><time>2026-04-12T11:06:30.6Z</time></trkpt><trkpt lat="43.5952149" lon="11.3659274"><ele>578.0</ele><time>2026-04-12T11:06:31.601Z</time></trkpt><trkpt lat="43.5951491" lon="11.3659721"><ele>578.0</ele><time>2026-04-12T11:06:32.601Z</time></trkpt><trkpt lat="43.5950843" lon="11.3660081"><ele>578.0</ele><time>2026-04-12T11:06:33.601Z</time></trkpt><trkpt lat="43.5949406" lon="11.3660263"><ele>578.0</ele><time>2026-04-12T11:06:35.601Z</time></trkpt><trkpt lat="43.5948433" lon="11.3660069"><ele>578.0</ele><time>2026-04-12T11:06:36.601Z</time></trkpt><trkpt lat="43.5947327" lon="11.3659551"><ele>578.0</ele><time>2026-04-12T11:06:37.6Z</time></trkpt><trkpt lat="43.5946255" lon="11.3659072"><ele>578.0</ele><time>2026-04-12T11:06:38.601Z</time></trkpt><trkpt lat="43.594529" lon="11.3658672"><ele>578.0</ele><time>2026-04-12T11:06:39.6Z</time></trkpt><trkpt lat="43.5944469" lon="11.3658539"><ele>578.0</ele><time>2026-04-12T11:06:40.6Z</time></trkpt><trkpt lat="43.5943625" lon="11.3658487"><ele>579.8333333333333</ele><time>2026-04-12T11:06:41.6Z</time></trkpt><trkpt lat="43.5942978" lon="11.3658881"><ele>581.6666666666666</ele><time>2026-04-12T11:06:42.601Z</time></trkpt><trkpt lat="43.5942347" lon="11.3659715"><ele>583.5</ele><time>2026-04-12T11:06:43.601Z</time></trkpt><trkpt lat="43.5941717" lon="11.3660385"><ele>585.3333333333334</ele><time>2026-04-12T11:06:44.601Z</time></trkpt><trkpt lat="43.5940977" lon="11.3660795"><ele>587.1666666666667</ele><time>2026-04-12T11:06:45.6Z</time></trkpt><trkpt lat="43.5939865" lon="11.3660912"><ele>589.0</ele><time>2026-04-12T11:06:47.6Z</time></trkpt><trkpt lat="43.5939082" lon="11.3660611"><ele>589.0</ele><time>2026-04-12T11:06:49.6Z</time></trkpt><trkpt lat="43.593856" lon="11.3661268"><ele>589.0</ele><time>2026-04-12T11:06:52.601Z</time></trkpt><trkpt lat="43.5938378" lon="11.3662313"><ele>589.0</ele><time>2026-04-12T11:06:55.6Z</time></trkpt><trkpt lat="43.5937934" lon="11.3663112"><ele>589.0</ele><time>2026-04-12T11:06:57.601Z</time></trkpt><trkpt lat="43.5937424" lon="11.3663983"><ele>589.0</ele><time>2026-04-12T11:06:59.6Z</time></trkpt><trkpt lat="43.5936623" lon="11.366505"><ele>589.0</ele><time>2026-04-12T11:07:01.601Z</time></trkpt><trkpt lat="43.5935743" lon="11.366581"><ele>592.2</ele><time>2026-04-12T11:07:03.6Z</time></trkpt><trkpt lat="43.5934771" lon="11.3666199"><ele>595.4</ele><time>2026-04-12T11:07:05.6Z</time></trkpt><trkpt lat="43.5934122" lon="11.3665576"><ele>598.6</ele><time>2026-04-12T11:07:07.6Z</time></trkpt><trkpt lat="43.5933195" lon="11.3664322"><ele>601.8</ele><time>2026-04-12T11:07:09.601Z</time></trkpt><trkpt lat="43.5932641" lon="11.3663588"><ele>605.0</ele><time>2026-04-12T11:07:10.6Z</time></trkpt><trkpt lat="43.5932128" lon="11.3662989"><ele>605.0</ele><time>2026-04-12T11:07:11.6Z</time></trkpt><trkpt lat="43.5931198" lon="11.3662099"><ele>605.0</ele><time>2026-04-12T11:07:13.601Z</time></trkpt><trkpt lat="43.593057" lon="11.3661739"><ele>605.0</ele><time>2026-04-12T11:07:14.6Z</time></trkpt><trkpt lat="43.5929786" lon="11.3661713"><ele>605.0</ele><time>2026-04-12T11:07:15.6Z</time></trkpt><trkpt lat="43.5928904" lon="11.3662028"><ele>605.0</ele><time>2026-04-12T11:07:16.6Z</time></trkpt><trkpt lat="43.5927917" lon="11.3662119"><ele>604.8333333333333</ele><time>2026-04-12T11:07:17.601Z</time></trkpt><trkpt lat="43.5927032" lon="11.3662292"><ele>604.6666666666666</ele><time>2026-04-12T11:07:18.6Z</time></trkpt><trkpt lat="43.5926214" lon="11.3662386"><ele>604.5</ele><time>2026-04-12T11:07:19.601Z</time></trkpt><trkpt lat="43.5925472" lon="11.3662536"><ele>604.3333333333334</ele><time>2026-04-12T11:07:20.6Z</time></trkpt><trkpt lat="43.5924845" lon="11.3662653"><ele>604.1666666666667</ele><time>2026-04-12T11:07:21.6Z</time></trkpt><trkpt lat="43.5923623" lon="11.3662971"><ele>604.0</ele><time>2026-04-12T11:07:23.601Z</time></trkpt><trkpt lat="43.5922691" lon="11.3662787"><ele>604.0</ele><time>2026-04-12T11:07:25.601Z</time></trkpt><trkpt lat="43.5921987" lon="11.366264"><ele>604.0</ele><time>2026-04-12T11:07:28.601Z</time></trkpt><trkpt lat="43.5921183" lon="11.3663034"><ele>604.0</ele><time>2026-04-12T11:07:54.6Z</time></trkpt><trkpt lat="43.5920604" lon="11.3663469"><ele>604.0</ele><time>2026-04-12T11:07:56.6Z</time></trkpt><trkpt lat="43.5919804" lon="11.3664266"><ele>604.0</ele><time>2026-04-12T11:07:59.6Z</time></trkpt><trkpt lat="43.5919217" lon="11.3664629"><ele>604.0</ele><time>2026-04-12T11:08:01.6Z</time></trkpt><trkpt lat="43.5918806" lon="11.3665639"><ele>603.6</ele><time>2026-04-12T11:08:04.6Z</time></trkpt><trkpt lat="43.5917979" lon="11.3666039"><ele>603.2</ele><time>2026-04-12T11:08:08.601Z</time></trkpt><trkpt lat="43.5917341" lon="11.3666166"><ele>602.8000000000001</ele><time>2026-04-12T11:08:10.601Z</time></trkpt><trkpt lat="43.5916431" lon="11.3667185"><ele>602.4</ele><time>2026-04-12T11:08:12.601Z</time></trkpt><trkpt lat="43.5915739" lon="11.3668022"><ele>602.0</ele><time>2026-04-12T11:08:14.6Z</time></trkpt><trkpt lat="43.5914946" lon="11.3668609"><ele>602.0</ele><time>2026-04-12T11:08:16.6Z</time></trkpt><trkpt lat="43.5914016" lon="11.3669364"><ele>602.0</ele><time>2026-04-12T11:08:18.6Z</time></trkpt><trkpt lat="43.5913051" lon="11.3670106"><ele>602.0</ele><time>2026-04-12T11:08:20.601Z</time></trkpt><trkpt lat="43.5912002" lon="11.3670523"><ele>602.0</ele><time>2026-04-12T11:08:22.601Z</time></trkpt><trkpt lat="43.5911131" lon="11.3670384"><ele>602.0</ele><time>2026-04-12T11:08:24.6Z</time></trkpt><trkpt lat="43.591086" lon="11.366919"><ele>601.2</ele><time>2026-04-12T11:08:26.6Z</time></trkpt><trkpt lat="43.5910904" lon="11.3667539"><ele>600.4000000000001</ele><time>2026-04-12T11:08:28.6Z</time></trkpt><trkpt lat="43.5911021" lon="11.3666535"><ele>599.5999999999999</ele><time>2026-04-12T11:08:30.6Z</time></trkpt><trkpt lat="43.5910502" lon="11.3665499"><ele>598.8</ele><time>2026-04-12T11:08:32.601Z</time></trkpt><trkpt lat="43.5909533" lon="11.3664926"><ele>598.0</ele><time>2026-04-12T11:08:34.6Z</time></trkpt><trkpt lat="43.5908818" lon="11.3664012"><ele>598.0</ele><time>2026-04-12T11:08:37.601Z</time></trkpt><trkpt lat="43.5907831" lon="11.3662987"><ele>598.0</ele><time>2026-04-12T11:08:39.601Z</time></trkpt><trkpt lat="43.5907272" lon="11.3662535"><ele>598.0</ele><time>2026-04-12T11:08:40.6Z</time></trkpt><trkpt lat="43.5906294" lon="11.3662381"><ele>598.0</ele><time>2026-04-12T11:08:42.6Z</time></trkpt><trkpt lat="43.5905836" lon="11.3663418"><ele>598.0</ele><time>2026-04-12T11:08:44.601Z</time></trkpt><trkpt lat="43.5905782" lon="11.3664328"><ele>598.0</ele><time>2026-04-12T11:08:45.601Z</time></trkpt><trkpt lat="43.5905546" lon="11.3665219"><ele>598.0</ele><time>2026-04-12T11:08:46.601Z</time></trkpt><trkpt lat="43.5904839" lon="11.3666219"><ele>598.0</ele><time>2026-04-12T11:08:47.601Z</time></trkpt><trkpt lat="43.5904207" lon="11.3666969"><ele>598.0</ele><time>2026-04-12T11:08:48.601Z</time></trkpt><trkpt lat="43.5903758" lon="11.3667613"><ele>598.0</ele><time>2026-04-12T11:08:49.6Z</time></trkpt><trkpt lat="43.5902539" lon="11.3668209"><ele>598.0</ele><time>2026-04-12T11:08:51.6Z</time></trkpt><trkpt lat="43.5901959" lon="11.3668757"><ele>598.0</ele><time>2026-04-12T11:08:52.601Z</time></trkpt><trkpt lat="43.5901035" lon="11.3669485"><ele>600.6</ele><time>2026-04-12T11:08:54.601Z</time></trkpt><trkpt lat="43.5899966" lon="11.3669995"><ele>603.1999999999999</ele><time>2026-04-12T11:08:56.601Z</time></trkpt><trkpt lat="43.5899335" lon="11.3670178"><ele>605.8</ele><time>2026-04-12T11:08:57.6Z</time></trkpt><trkpt lat="43.5898201" lon="11.3670034"><ele>608.4</ele><time>2026-04-12T11:08:59.601Z</time></trkpt><trkpt lat="43.5897578" lon="11.3669652"><ele>611.0</ele><time>2026-04-12T11:09:00.6Z</time></trkpt><trkpt lat="43.5896505" lon="11.3668828"><ele>611.0</ele><time>2026-04-12T11:09:02.6Z</time></trkpt><trkpt lat="43.5895439" lon="11.3668368"><ele>611.0</ele><time>2026-04-12T11:09:04.6Z</time></trkpt><trkpt lat="43.5894701" lon="11.3667483"><ele>611.0</ele><time>2026-04-12T11:09:06.601Z</time></trkpt><trkpt lat="43.5893981" lon="11.366654"><ele>611.0</ele><time>2026-04-12T11:09:08.601Z</time></trkpt><trkpt lat="43.5892806" lon="11.3666334"><ele>611.0</ele><time>2026-04-12T11:09:10.6Z</time></trkpt><trkpt lat="43.5891883" lon="11.3666223"><ele>612.4</ele><time>2026-04-12T11:09:12.6Z</time></trkpt><trkpt lat="43.5890814" lon="11.3665744"><ele>613.8</ele><time>2026-04-12T11:09:14.601Z</time></trkpt><trkpt lat="43.5889671" lon="11.3664949"><ele>615.1999999999999</ele><time>2026-04-12T11:09:16.6Z</time></trkpt><trkpt lat="43.5888789" lon="11.3664582"><ele>616.6</ele><time>2026-04-12T11:09:17.6Z</time></trkpt><trkpt lat="43.588794" lon="11.3664671"><ele>618.0</ele><time>2026-04-12T11:09:18.601Z</time></trkpt><trkpt lat="43.5887184" lon="11.3665053"><ele>618.5</ele><time>2026-04-12T11:09:19.6Z</time></trkpt><trkpt lat="43.5886172" lon="11.3665375"><ele>619.0</ele><time>2026-04-12T11:09:20.6Z</time></trkpt><trkpt lat="43.5885006" lon="11.3665516"><ele>619.5</ele><time>2026-04-12T11:09:21.6Z</time></trkpt><trkpt lat="43.5883855" lon="11.3665514"><ele>620.0</ele><time>2026-04-12T11:09:22.6Z</time></trkpt><trkpt lat="43.588255" lon="11.3665382"><ele>620.0</ele><time>2026-04-12T11:09:23.601Z</time></trkpt><trkpt lat="43.588127" lon="11.366535"><ele>620.0</ele><time>2026-04-12T11:09:24.601Z</time></trkpt><trkpt lat="43.5879966" lon="11.3665129"><ele>620.0</ele><time>2026-04-12T11:09:25.601Z</time></trkpt><trkpt lat="43.5878416" lon="11.3664972"><ele>620.0</ele><time>2026-04-12T11:09:26.6Z</time></trkpt><trkpt lat="43.5876937" lon="11.3664746"><ele>621.0</ele><time>2026-04-12T11:09:27.6Z</time></trkpt><trkpt lat="43.5875372" lon="11.3664593"><ele>622.0</ele><time>2026-04-12T11:09:28.6Z</time></trkpt><trkpt lat="43.5873771" lon="11.366452"><ele>623.0</ele><time>2026-04-12T11:09:29.6Z</time></trkpt><trkpt lat="43.5872141" lon="11.366455"><ele>623.0</ele><time>2026-04-12T11:09:30.601Z</time></trkpt><trkpt lat="43.5870521" lon="11.3664557"><ele>623.0</ele><time>2026-04-12T11:09:31.6Z</time></trkpt><trkpt lat="43.5868989" lon="11.3664473"><ele>623.0</ele><time>2026-04-12T11:09:32.6Z</time></trkpt><trkpt lat="43.586752" lon="11.3664434"><ele>624.3333333333333</ele><time>2026-04-12T11:09:33.601Z</time></trkpt><trkpt lat="43.5865982" lon="11.3664416"><ele>625.6666666666666</ele><time>2026-04-12T11:09:34.601Z</time></trkpt><trkpt lat="43.5864367" lon="11.3664277"><ele>627.0</ele><time>2026-04-12T11:09:35.601Z</time></trkpt><trkpt lat="43.5862704" lon="11.3664046"><ele>627.0</ele><time>2026-04-12T11:09:36.6Z</time></trkpt><trkpt lat="43.5861145" lon="11.3663802"><ele>627.0</ele><time>2026-04-12T11:09:37.601Z</time></trkpt><trkpt lat="43.5859688" lon="11.3663532"><ele>627.0</ele><time>2026-04-12T11:09:38.6Z</time></trkpt><trkpt lat="43.5858296" lon="11.366336"><ele>627.0</ele><time>2026-04-12T11:09:39.6Z</time></trkpt><trkpt lat="43.5857085" lon="11.3663117"><ele>627.0</ele><time>2026-04-12T11:09:40.6Z</time></trkpt><trkpt lat="43.5856152" lon="11.3663005"><ele>627.0</ele><time>2026-04-12T11:09:41.6Z</time></trkpt><trkpt lat="43.5855498" lon="11.3663045"><ele>627.0</ele><time>2026-04-12T11:09:42.601Z</time></trkpt><trkpt lat="43.5854523" lon="11.3663572"><ele>627.0</ele><time>2026-04-12T11:09:44.6Z</time></trkpt><trkpt lat="43.5854225" lon="11.3665166"><ele>627.0</ele><time>2026-04-12T11:09:46.6Z</time></trkpt><trkpt lat="43.5854118" lon="11.3666522"><ele>627.0</ele><time>2026-04-12T11:09:47.601Z</time></trkpt><trkpt lat="43.5853962" lon="11.3668148"><ele>627.0</ele><time>2026-04-12T11:09:48.6Z</time></trkpt><trkpt lat="43.5853729" lon="11.3669838"><ele>627.0</ele><time>2026-04-12T11:09:49.601Z</time></trkpt><trkpt lat="43.5853563" lon="11.3671642"><ele>627.0</ele><time>2026-04-12T11:09:50.6Z</time></trkpt><trkpt lat="43.5853588" lon="11.3673583"><ele>628.0</ele><time>2026-04-12T11:09:51.601Z</time></trkpt><trkpt lat="43.5853774" lon="11.3675455"><ele>629.0</ele><time>2026-04-12T11:09:52.6Z</time></trkpt><trkpt lat="43.5853974" lon="11.3677074"><ele>630.0</ele><time>2026-04-12T11:09:53.6Z</time></trkpt><trkpt lat="43.5854043" lon="11.3678482"><ele>631.0</ele><time>2026-04-12T11:09:54.6Z</time></trkpt><trkpt lat="43.5853921" lon="11.3679705"><ele>632.0</ele><time>2026-04-12T11:09:55.601Z</time></trkpt><trkpt lat="43.5853665" lon="11.3680791"><ele>635.0</ele><time>2026-04-12T11:09:56.601Z</time></trkpt><trkpt lat="43.5853125" lon="11.3681861"><ele>638.0</ele><time>2026-04-12T11:09:57.6Z</time></trkpt><trkpt lat="43.5852303" lon="11.3682639"><ele>641.0</ele><time>2026-04-12T11:09:58.601Z</time></trkpt><trkpt lat="43.585123" lon="11.3683505"><ele>644.0</ele><time>2026-04-12T11:09:59.601Z</time></trkpt><trkpt lat="43.5850218" lon="11.3684185"><ele>647.0</ele><time>2026-04-12T11:10:00.6Z</time></trkpt><trkpt lat="43.5849253" lon="11.3685095"><ele>647.0</ele><time>2026-04-12T11:10:01.6Z</time></trkpt><trkpt lat="43.5848111" lon="11.3686021"><ele>647.0</ele><time>2026-04-12T11:10:02.601Z</time></trkpt><trkpt lat="43.5847017" lon="11.3686994"><ele>647.0</ele><time>2026-04-12T11:10:03.6Z</time></trkpt><trkpt lat="43.5845921" lon="11.368798"><ele>647.0</ele><time>2026-04-12T11:10:04.601Z</time></trkpt><trkpt lat="43.5844897" lon="11.3689027"><ele>650.0</ele><time>2026-04-12T11:10:05.6Z</time></trkpt><trkpt lat="43.5843844" lon="11.3690011"><ele>653.0</ele><time>2026-04-12T11:10:06.601Z</time></trkpt><trkpt lat="43.5842751" lon="11.3691155"><ele>656.0</ele><time>2026-04-12T11:10:07.6Z</time></trkpt><trkpt lat="43.5841681" lon="11.3692327"><ele>659.0</ele><time>2026-04-12T11:10:08.601Z</time></trkpt><trkpt lat="43.5840585" lon="11.3693548"><ele>659.0</ele><time>2026-04-12T11:10:09.601Z</time></trkpt><trkpt lat="43.5839476" lon="11.3694774"><ele>659.0</ele><time>2026-04-12T11:10:10.6Z</time></trkpt><trkpt lat="43.583833" lon="11.3696052"><ele>659.0</ele><time>2026-04-12T11:10:11.6Z</time></trkpt><trkpt lat="43.5837201" lon="11.3697401"><ele>659.0</ele><time>2026-04-12T11:10:12.601Z</time></trkpt><trkpt lat="43.5836026" lon="11.3698693"><ele>660.0</ele><time>2026-04-12T11:10:13.6Z</time></trkpt><trkpt lat="43.5834877" lon="11.370005"><ele>661.0</ele><time>2026-04-12T11:10:14.601Z</time></trkpt><trkpt lat="43.5833737" lon="11.3701382"><ele>662.0</ele><time>2026-04-12T11:10:15.6Z</time></trkpt><trkpt lat="43.5832607" lon="11.3702635"><ele>663.0</ele><time>2026-04-12T11:10:16.601Z</time></trkpt><trkpt lat="43.5831535" lon="11.3703823"><ele>663.0</ele><time>2026-04-12T11:10:17.6Z</time></trkpt><trkpt lat="43.5830478" lon="11.3704971"><ele>663.0</ele><time>2026-04-12T11:10:18.601Z</time></trkpt><trkpt lat="43.5829433" lon="11.3706025"><ele>663.0</ele><time>2026-04-12T11:10:19.6Z</time></trkpt><trkpt lat="43.5828259" lon="11.3707002"><ele>663.0</ele><time>2026-04-12T11:10:20.601Z</time></trkpt><trkpt lat="43.5826948" lon="11.3707836"><ele>665.3333333333334</ele><time>2026-04-12T11:10:21.6Z</time></trkpt><trkpt lat="43.5825576" lon="11.3708474"><ele>667.6666666666667</ele><time>2026-04-12T11:10:22.601Z</time></trkpt><trkpt lat="43.5824132" lon="11.3709093"><ele>670.0</ele><time>2026-04-12T11:10:23.6Z</time></trkpt><trkpt lat="43.5822645" lon="11.3709657"><ele>670.0</ele><time>2026-04-12T11:10:24.601Z</time></trkpt><trkpt lat="43.5821233" lon="11.3710186"><ele>670.0</ele><time>2026-04-12T11:10:25.6Z</time></trkpt><trkpt lat="43.5819811" lon="11.3710627"><ele>670.0</ele><time>2026-04-12T11:10:26.601Z</time></trkpt><trkpt lat="43.58184" lon="11.3711105"><ele>670.0</ele><time>2026-04-12T11:10:27.601Z</time></trkpt><trkpt lat="43.5816979" lon="11.3711458"><ele>672.25</ele><time>2026-04-12T11:10:28.6Z</time></trkpt><trkpt lat="43.5815671" lon="11.3711697"><ele>674.5</ele><time>2026-04-12T11:10:29.6Z</time></trkpt><trkpt lat="43.5814313" lon="11.3711914"><ele>676.75</ele><time>2026-04-12T11:10:30.6Z</time></trkpt><trkpt lat="43.5812834" lon="11.3712125"><ele>679.0</ele><time>2026-04-12T11:10:31.6Z</time></trkpt><trkpt lat="43.5811465" lon="11.3712198"><ele>681.0</ele><time>2026-04-12T11:10:32.601Z</time></trkpt><trkpt lat="43.5810272" lon="11.371223"><ele>683.0</ele><time>2026-04-12T11:10:33.6Z</time></trkpt><trkpt lat="43.5809158" lon="11.371211"><ele>685.0</ele><time>2026-04-12T11:10:34.601Z</time></trkpt><trkpt lat="43.5808143" lon="11.3711796"><ele>687.0</ele><time>2026-04-12T11:10:35.6Z</time></trkpt><trkpt lat="43.5807138" lon="11.3711097"><ele>689.0</ele><time>2026-04-12T11:10:36.6Z</time></trkpt><trkpt lat="43.5806275" lon="11.3710354"><ele>689.0</ele><time>2026-04-12T11:10:37.601Z</time></trkpt><trkpt lat="43.580542" lon="11.3709758"><ele>689.0</ele><time>2026-04-12T11:10:38.601Z</time></trkpt><trkpt lat="43.5804598" lon="11.3709271"><ele>689.0</ele><time>2026-04-12T11:10:39.601Z</time></trkpt><trkpt lat="43.5803913" lon="11.370899"><ele>689.0</ele><time>2026-04-12T11:10:40.6Z</time></trkpt><trkpt lat="43.5802833" lon="11.3709504"><ele>689.0</ele><time>2026-04-12T11:10:42.601Z</time></trkpt><trkpt lat="43.5802323" lon="11.3710356"><ele>690.0</ele><time>2026-04-12T11:10:43.601Z</time></trkpt><trkpt lat="43.5801623" lon="11.3711331"><ele>691.0</ele><time>2026-04-12T11:10:44.6Z</time></trkpt><trkpt lat="43.5800955" lon="11.3712277"><ele>692.0</ele><time>2026-04-12T11:10:45.6Z</time></trkpt><trkpt lat="43.5800206" lon="11.371312"><ele>693.0</ele><time>2026-04-12T11:10:46.6Z</time></trkpt><trkpt lat="43.5799385" lon="11.3713786"><ele>694.0</ele><time>2026-04-12T11:10:47.6Z</time></trkpt><trkpt lat="43.5798536" lon="11.3714398"><ele>697.0</ele><time>2026-04-12T11:10:48.601Z</time></trkpt><trkpt lat="43.5797621" lon="11.3714707"><ele>700.0</ele><time>2026-04-12T11:10:49.601Z</time></trkpt><trkpt lat="43.579664" lon="11.3714724"><ele>703.0</ele><time>2026-04-12T11:10:50.601Z</time></trkpt><trkpt lat="43.5795703" lon="11.3714839"><ele>706.0</ele><time>2026-04-12T11:10:51.6Z</time></trkpt><trkpt lat="43.5794745" lon="11.3715259"><ele>709.0</ele><time>2026-04-12T11:10:52.6Z</time></trkpt><trkpt lat="43.5793859" lon="11.3715938"><ele>709.0</ele><time>2026-04-12T11:10:53.601Z</time></trkpt><trkpt lat="43.5793001" lon="11.3716876"><ele>709.0</ele><time>2026-04-12T11:10:54.601Z</time></trkpt><trkpt lat="43.5792232" lon="11.3717922"><ele>709.0</ele><time>2026-04-12T11:10:55.601Z</time></trkpt><trkpt lat="43.5791479" lon="11.3719073"><ele>709.0</ele><time>2026-04-12T11:10:56.6Z</time></trkpt><trkpt lat="43.5790655" lon="11.372004"><ele>709.0</ele><time>2026-04-12T11:10:57.601Z</time></trkpt><trkpt lat="43.5789824" lon="11.3720925"><ele>709.0</ele><time>2026-04-12T11:10:58.6Z</time></trkpt><trkpt lat="43.5788921" lon="11.3721686"><ele>709.0</ele><time>2026-04-12T11:10:59.601Z</time></trkpt><trkpt lat="43.5787861" lon="11.3722434"><ele>709.0</ele><time>2026-04-12T11:11:00.6Z</time></trkpt><trkpt lat="43.5786745" lon="11.3723227"><ele>709.0</ele><time>2026-04-12T11:11:01.601Z</time></trkpt><trkpt lat="43.5785455" lon="11.3724267"><ele>712.25</ele><time>2026-04-12T11:11:02.6Z</time></trkpt><trkpt lat="43.5784135" lon="11.3725382"><ele>715.5</ele><time>2026-04-12T11:11:03.6Z</time></trkpt><trkpt lat="43.5783046" lon="11.372663"><ele>718.75</ele><time>2026-04-12T11:11:04.6Z</time></trkpt><trkpt lat="43.578213" lon="11.3727937"><ele>722.0</ele><time>2026-04-12T11:11:05.601Z</time></trkpt><trkpt lat="43.5781318" lon="11.3729354"><ele>722.2</ele><time>2026-04-12T11:11:06.601Z</time></trkpt><trkpt lat="43.5780579" lon="11.3730705"><ele>722.4000000000001</ele><time>2026-04-12T11:11:07.601Z</time></trkpt><trkpt lat="43.5780014" lon="11.3731825"><ele>722.5999999999999</ele><time>2026-04-12T11:11:08.6Z</time></trkpt><trkpt lat="43.5779446" lon="11.3732691"><ele>722.8</ele><time>2026-04-12T11:11:09.6Z</time></trkpt><trkpt lat="43.5778861" lon="11.3733338"><ele>723.0</ele><time>2026-04-12T11:11:10.6Z</time></trkpt><trkpt lat="43.5778219" lon="11.3733872"><ele>723.5</ele><time>2026-04-12T11:11:11.6Z</time></trkpt><trkpt lat="43.5777124" lon="11.3734267"><ele>724.0</ele><time>2026-04-12T11:11:12.6Z</time></trkpt><trkpt lat="43.577559" lon="11.3734364"><ele>724.5</ele><time>2026-04-12T11:11:13.6Z</time></trkpt><trkpt lat="43.5773969" lon="11.3734588"><ele>725.0</ele><time>2026-04-12T11:11:14.601Z</time></trkpt><trkpt lat="43.5772566" lon="11.373479"><ele>725.0</ele><time>2026-04-12T11:11:15.6Z</time></trkpt><trkpt lat="43.5771343" lon="11.3735267"><ele>725.0</ele><time>2026-04-12T11:11:16.601Z</time></trkpt><trkpt lat="43.5770355" lon="11.3735735"><ele>725.0</ele><time>2026-04-12T11:11:17.6Z</time></trkpt><trkpt lat="43.5769353" lon="11.3736132"><ele>725.0</ele><time>2026-04-12T11:11:18.601Z</time></trkpt><trkpt lat="43.5768344" lon="11.3736444"><ele>725.0</ele><time>2026-04-12T11:11:19.6Z</time></trkpt><trkpt lat="43.5767222" lon="11.3736431"><ele>725.75</ele><time>2026-04-12T11:11:20.601Z</time></trkpt><trkpt lat="43.5765981" lon="11.3736119"><ele>726.5</ele><time>2026-04-12T11:11:21.601Z</time></trkpt><trkpt lat="43.5764741" lon="11.3735685"><ele>727.25</ele><time>2026-04-12T11:11:22.6Z</time></trkpt><trkpt lat="43.5763433" lon="11.3735273"><ele>728.0</ele><time>2026-04-12T11:11:23.6Z</time></trkpt><trkpt lat="43.5762062" lon="11.3735121"><ele>726.75</ele><time>2026-04-12T11:11:24.6Z</time></trkpt><trkpt lat="43.5760646" lon="11.3735209"><ele>725.5</ele><time>2026-04-12T11:11:25.6Z</time></trkpt><trkpt lat="43.5759377" lon="11.3735638"><ele>724.25</ele><time>2026-04-12T11:11:26.6Z</time></trkpt><trkpt lat="43.5758164" lon="11.3736186"><ele>723.0</ele><time>2026-04-12T11:11:27.601Z</time></trkpt><trkpt lat="43.5757034" lon="11.373704"><ele>723.0</ele><time>2026-04-12T11:11:28.601Z</time></trkpt><trkpt lat="43.5755917" lon="11.3738155"><ele>723.0</ele><time>2026-04-12T11:11:29.601Z</time></trkpt><trkpt lat="43.5754769" lon="11.3739447"><ele>723.0</ele><time>2026-04-12T11:11:30.6Z</time></trkpt><trkpt lat="43.5753607" lon="11.3740963"><ele>723.0</ele><time>2026-04-12T11:11:31.6Z</time></trkpt><trkpt lat="43.5752447" lon="11.374263"><ele>723.6666666666666</ele><time>2026-04-12T11:11:32.601Z</time></trkpt><trkpt lat="43.5751327" lon="11.3744184"><ele>724.3333333333333</ele><time>2026-04-12T11:11:33.6Z</time></trkpt><trkpt lat="43.5750196" lon="11.3745783"><ele>725.0</ele><time>2026-04-12T11:11:34.6Z</time></trkpt><trkpt lat="43.5749091" lon="11.3747374"><ele>727.0</ele><time>2026-04-12T11:11:35.6Z</time></trkpt><trkpt lat="43.5748021" lon="11.3748949"><ele>729.0</ele><time>2026-04-12T11:11:36.601Z</time></trkpt><trkpt lat="43.5746969" lon="11.375045"><ele>731.0</ele><time>2026-04-12T11:11:37.6Z</time></trkpt><trkpt lat="43.5746001" lon="11.3751796"><ele>733.0</ele><time>2026-04-12T11:11:38.601Z</time></trkpt><trkpt lat="43.574509" lon="11.3752877"><ele>733.0</ele><time>2026-04-12T11:11:39.601Z</time></trkpt><trkpt lat="43.5744152" lon="11.375374"><ele>733.0</ele><time>2026-04-12T11:11:40.6Z</time></trkpt><trkpt lat="43.5743075" lon="11.3754519"><ele>733.0</ele><time>2026-04-12T11:11:41.601Z</time></trkpt><trkpt lat="43.5741899" lon="11.3755172"><ele>733.0</ele><time>2026-04-12T11:11:42.601Z</time></trkpt><trkpt lat="43.5740607" lon="11.3755943"><ele>735.0</ele><time>2026-04-12T11:11:43.601Z</time></trkpt><trkpt lat="43.5739322" lon="11.3756645"><ele>737.0</ele><time>2026-04-12T11:11:44.6Z</time></trkpt><trkpt lat="43.5737952" lon="11.375739"><ele>739.0</ele><time>2026-04-12T11:11:45.601Z</time></trkpt><trkpt lat="43.5736512" lon="11.3758258"><ele>741.0</ele><time>2026-04-12T11:11:46.601Z</time></trkpt><trkpt lat="43.5735162" lon="11.3759132"><ele>741.0</ele><time>2026-04-12T11:11:47.6Z</time></trkpt><trkpt lat="43.5733839" lon="11.3760063"><ele>741.0</ele><time>2026-04-12T11:11:48.6Z</time></trkpt><trkpt lat="43.5732619" lon="11.3760898"><ele>741.0</ele><time>2026-04-12T11:11:49.6Z</time></trkpt><trkpt lat="43.5731256" lon="11.3761501"><ele>741.0</ele><time>2026-04-12T11:11:50.6Z</time></trkpt><trkpt lat="43.572978" lon="11.3761931"><ele>741.5</ele><time>2026-04-12T11:11:51.6Z</time></trkpt><trkpt lat="43.5728385" lon="11.376237"><ele>742.0</ele><time>2026-04-12T11:11:52.6Z</time></trkpt><trkpt lat="43.5727067" lon="11.376291"><ele>742.5</ele><time>2026-04-12T11:11:53.6Z</time></trkpt><trkpt lat="43.5725755" lon="11.3763509"><ele>743.0</ele><time>2026-04-12T11:11:54.6Z</time></trkpt><trkpt lat="43.5724402" lon="11.376414"><ele>744.25</ele><time>2026-04-12T11:11:55.601Z</time></trkpt><trkpt lat="43.5723023" lon="11.3764766"><ele>745.5</ele><time>2026-04-12T11:11:56.6Z</time></trkpt><trkpt lat="43.5721562" lon="11.3765354"><ele>746.75</ele><time>2026-04-12T11:11:57.6Z</time></trkpt><trkpt lat="43.5720128" lon="11.3766006"><ele>748.0</ele><time>2026-04-12T11:11:58.6Z</time></trkpt><trkpt lat="43.5718677" lon="11.3766637"><ele>748.75</ele><time>2026-04-12T11:11:59.601Z</time></trkpt><trkpt lat="43.5717208" lon="11.3767268"><ele>749.5</ele><time>2026-04-12T11:12:00.601Z</time></trkpt><trkpt lat="43.5715864" lon="11.3767922"><ele>750.25</ele><time>2026-04-12T11:12:01.6Z</time></trkpt><trkpt lat="43.5714429" lon="11.3768547"><ele>751.0</ele><time>2026-04-12T11:12:02.6Z</time></trkpt><trkpt lat="43.5712998" lon="11.3768938"><ele>750.5</ele><time>2026-04-12T11:12:03.601Z</time></trkpt><trkpt lat="43.5711618" lon="11.3769217"><ele>750.0</ele><time>2026-04-12T11:12:04.6Z</time></trkpt><trkpt lat="43.5710245" lon="11.3769368"><ele>749.5</ele><time>2026-04-12T11:12:05.6Z</time></trkpt><trkpt lat="43.5708916" lon="11.3769726"><ele>749.0</ele><time>2026-04-12T11:12:06.601Z</time></trkpt><trkpt lat="43.5707548" lon="11.3770344"><ele>749.0</ele><time>2026-04-12T11:12:07.601Z</time></trkpt><trkpt lat="43.5706134" lon="11.3771182"><ele>749.0</ele><time>2026-04-12T11:12:08.6Z</time></trkpt><trkpt lat="43.5704685" lon="11.3771953"><ele>749.0</ele><time>2026-04-12T11:12:09.601Z</time></trkpt><trkpt lat="43.5703429" lon="11.3772757"><ele>749.0</ele><time>2026-04-12T11:12:10.601Z</time></trkpt><trkpt lat="43.5702377" lon="11.3773546"><ele>748.2</ele><time>2026-04-12T11:12:11.6Z</time></trkpt><trkpt lat="43.5701457" lon="11.3774106"><ele>747.4000000000001</ele><time>2026-04-12T11:12:12.601Z</time></trkpt><trkpt lat="43.5700537" lon="11.3774697"><ele>746.6</ele><time>2026-04-12T11:12:13.6Z</time></trkpt><trkpt lat="43.5699696" lon="11.3775208"><ele>745.8</ele><time>2026-04-12T11:12:14.6Z</time></trkpt><trkpt lat="43.5698858" lon="11.377575"><ele>745.0</ele><time>2026-04-12T11:12:15.6Z</time></trkpt><trkpt lat="43.5698057" lon="11.3776207"><ele>745.0</ele><time>2026-04-12T11:12:16.6Z</time></trkpt><trkpt lat="43.5697272" lon="11.3776778"><ele>745.0</ele><time>2026-04-12T11:12:17.6Z</time></trkpt><trkpt lat="43.5696333" lon="11.3777431"><ele>745.0</ele><time>2026-04-12T11:12:18.601Z</time></trkpt><trkpt lat="43.5695225" lon="11.3778185"><ele>745.0</ele><time>2026-04-12T11:12:19.6Z</time></trkpt><trkpt lat="43.5693995" lon="11.3778948"><ele>745.75</ele><time>2026-04-12T11:12:20.601Z</time></trkpt><trkpt lat="43.5692754" lon="11.377973"><ele>746.5</ele><time>2026-04-12T11:12:21.601Z</time></trkpt><trkpt lat="43.5691586" lon="11.3780756"><ele>747.25</ele><time>2026-04-12T11:12:22.601Z</time></trkpt><trkpt lat="43.5690565" lon="11.3781752"><ele>748.0</ele><time>2026-04-12T11:12:23.6Z</time></trkpt><trkpt lat="43.5689824" lon="11.3782411"><ele>748.0</ele><time>2026-04-12T11:12:24.601Z</time></trkpt><trkpt lat="43.5689052" lon="11.3782802"><ele>748.0</ele><time>2026-04-12T11:12:25.601Z</time></trkpt><trkpt lat="43.5688389" lon="11.378298"><ele>748.0</ele><time>2026-04-12T11:12:26.6Z</time></trkpt><trkpt lat="43.5687368" lon="11.3781981"><ele>748.0</ele><time>2026-04-12T11:12:28.601Z</time></trkpt><trkpt lat="43.5686954" lon="11.3781103"><ele>748.0</ele><time>2026-04-12T11:12:29.601Z</time></trkpt><trkpt lat="43.5686622" lon="11.3779908"><ele>748.0</ele><time>2026-04-12T11:12:30.601Z</time></trkpt><trkpt lat="43.5686251" lon="11.3778587"><ele>751.4</ele><time>2026-04-12T11:12:31.6Z</time></trkpt><trkpt lat="43.5685874" lon="11.3777173"><ele>754.8</ele><time>2026-04-12T11:12:32.601Z</time></trkpt><trkpt lat="43.568539" lon="11.3775709"><ele>758.2</ele><time>2026-04-12T11:12:33.6Z</time></trkpt><trkpt lat="43.5684823" lon="11.3774281"><ele>761.6</ele><time>2026-04-12T11:12:34.6Z</time></trkpt><trkpt lat="43.5684373" lon="11.3772974"><ele>765.0</ele><time>2026-04-12T11:12:35.601Z</time></trkpt><trkpt lat="43.5683915" lon="11.3771882"><ele>765.0</ele><time>2026-04-12T11:12:36.6Z</time></trkpt><trkpt lat="43.5683411" lon="11.377105"><ele>765.0</ele><time>2026-04-12T11:12:37.6Z</time></trkpt><trkpt lat="43.5682277" lon="11.3770946"><ele>765.0</ele><time>2026-04-12T11:12:39.6Z</time></trkpt><trkpt lat="43.5681763" lon="11.3771527"><ele>765.0</ele><time>2026-04-12T11:12:40.601Z</time></trkpt><trkpt lat="43.5681387" lon="11.3772505"><ele>765.0</ele><time>2026-04-12T11:12:41.601Z</time></trkpt><trkpt lat="43.5681232" lon="11.3773791"><ele>765.0</ele><time>2026-04-12T11:12:42.6Z</time></trkpt><trkpt lat="43.5681137" lon="11.3775172"><ele>765.0</ele><time>2026-04-12T11:12:43.601Z</time></trkpt><trkpt lat="43.5680959" lon="11.3776281"><ele>765.0</ele><time>2026-04-12T11:12:44.601Z</time></trkpt><trkpt lat="43.5680354" lon="11.3777638"><ele>765.0</ele><time>2026-04-12T11:12:45.6Z</time></trkpt><trkpt lat="43.5679425" lon="11.3778849"><ele>765.0</ele><time>2026-04-12T11:12:46.6Z</time></trkpt><trkpt lat="43.5678498" lon="11.3779823"><ele>765.0</ele><time>2026-04-12T11:12:47.6Z</time></trkpt><trkpt lat="43.5677489" lon="11.3780697"><ele>767.75</ele><time>2026-04-12T11:12:48.6Z</time></trkpt><trkpt lat="43.567645" lon="11.3781346"><ele>770.5</ele><time>2026-04-12T11:12:49.601Z</time></trkpt><trkpt lat="43.5675283" lon="11.3781636"><ele>773.25</ele><time>2026-04-12T11:12:50.6Z</time></trkpt><trkpt lat="43.5674079" lon="11.3781649"><ele>776.0</ele><time>2026-04-12T11:12:51.6Z</time></trkpt><trkpt lat="43.5672861" lon="11.3781336"><ele>776.0</ele><time>2026-04-12T11:12:52.6Z</time></trkpt><trkpt lat="43.5671604" lon="11.3781058"><ele>776.0</ele><time>2026-04-12T11:12:53.6Z</time></trkpt><trkpt lat="43.5670194" lon="11.3780684"><ele>776.0</ele><time>2026-04-12T11:12:54.6Z</time></trkpt><trkpt lat="43.5668757" lon="11.3780161"><ele>776.0</ele><time>2026-04-12T11:12:55.6Z</time></trkpt><trkpt lat="43.5667267" lon="11.3779581"><ele>777.75</ele><time>2026-04-12T11:12:56.6Z</time></trkpt><trkpt lat="43.566576" lon="11.3779077"><ele>779.5</ele><time>2026-04-12T11:12:57.601Z</time></trkpt><trkpt lat="43.5664336" lon="11.3778404"><ele>781.25</ele><time>2026-04-12T11:12:58.6Z</time></trkpt><trkpt lat="43.5663035" lon="11.3777583"><ele>783.0</ele><time>2026-04-12T11:12:59.601Z</time></trkpt><trkpt lat="43.5661865" lon="11.3776955"><ele>785.2</ele><time>2026-04-12T11:13:00.6Z</time></trkpt><trkpt lat="43.566066" lon="11.3776546"><ele>787.4</ele><time>2026-04-12T11:13:01.601Z</time></trkpt><trkpt lat="43.5659665" lon="11.3776308"><ele>789.6</ele><time>2026-04-12T11:13:02.601Z</time></trkpt><trkpt lat="43.5658751" lon="11.3776262"><ele>791.8000000000001</ele><time>2026-04-12T11:13:03.6Z</time></trkpt><trkpt lat="43.5657863" lon="11.3776466"><ele>794.0</ele><time>2026-04-12T11:13:04.6Z</time></trkpt><trkpt lat="43.5656908" lon="11.3777087"><ele>794.0</ele><time>2026-04-12T11:13:05.6Z</time></trkpt><trkpt lat="43.5656011" lon="11.3777964"><ele>794.0</ele><time>2026-04-12T11:13:06.601Z</time></trkpt><trkpt lat="43.5655019" lon="11.377909"><ele>794.0</ele><time>2026-04-12T11:13:07.6Z</time></trkpt><trkpt lat="43.5654079" lon="11.3780303"><ele>794.0</ele><time>2026-04-12T11:13:08.6Z</time></trkpt><trkpt lat="43.5653255" lon="11.3781295"><ele>797.25</ele><time>2026-04-12T11:13:09.601Z</time></trkpt><trkpt lat="43.5652426" lon="11.378237"><ele>800.5</ele><time>2026-04-12T11:13:10.6Z</time></trkpt><trkpt lat="43.5651482" lon="11.3783334"><ele>803.75</ele><time>2026-04-12T11:13:11.6Z</time></trkpt><trkpt lat="43.5650366" lon="11.3784274"><ele>807.0</ele><time>2026-04-12T11:13:12.601Z</time></trkpt><trkpt lat="43.5649277" lon="11.378509"><ele>807.0</ele><time>2026-04-12T11:13:13.6Z</time></trkpt><trkpt lat="43.5648111" lon="11.3785828"><ele>807.0</ele><time>2026-04-12T11:13:14.6Z</time></trkpt><trkpt lat="43.5646847" lon="11.3786398"><ele>807.0</ele><time>2026-04-12T11:13:15.601Z</time></trkpt><trkpt lat="43.5645526" lon="11.3786885"><ele>807.0</ele><time>2026-04-12T11:13:16.6Z</time></trkpt><trkpt lat="43.5644154" lon="11.3787325"><ele>810.0</ele><time>2026-04-12T11:13:17.601Z</time></trkpt><trkpt lat="43.56429" lon="11.3787703"><ele>813.0</ele><time>2026-04-12T11:13:18.6Z</time></trkpt><trkpt lat="43.564175" lon="11.378791"><ele>816.0</ele><time>2026-04-12T11:13:19.6Z</time></trkpt><trkpt lat="43.5640937" lon="11.3787845"><ele>819.0</ele><time>2026-04-12T11:13:20.6Z</time></trkpt><trkpt lat="43.5640274" lon="11.3787514"><ele>822.0</ele><time>2026-04-12T11:13:21.601Z</time></trkpt><trkpt lat="43.5639499" lon="11.3787"><ele>822.0</ele><time>2026-04-12T11:13:22.601Z</time></trkpt><trkpt lat="43.5638898" lon="11.3786197"><ele>822.0</ele><time>2026-04-12T11:13:23.601Z</time></trkpt><trkpt lat="43.5638709" lon="11.3785259"><ele>822.0</ele><time>2026-04-12T11:13:24.601Z</time></trkpt><trkpt lat="43.5638725" lon="11.3784289"><ele>822.0</ele><time>2026-04-12T11:13:25.6Z</time></trkpt><trkpt lat="43.5638898" lon="11.3783101"><ele>822.0</ele><time>2026-04-12T11:13:26.601Z</time></trkpt><trkpt lat="43.5639248" lon="11.3781945"><ele>822.0</ele><time>2026-04-12T11:13:27.601Z</time></trkpt><trkpt lat="43.5639398" lon="11.3780922"><ele>822.3333333333334</ele><time>2026-04-12T11:13:28.6Z</time></trkpt><trkpt lat="43.5639391" lon="11.377997"><ele>822.6666666666667</ele><time>2026-04-12T11:13:29.6Z</time></trkpt><trkpt lat="43.5639171" lon="11.3779016"><ele>823.0</ele><time>2026-04-12T11:13:30.6Z</time></trkpt><trkpt lat="43.5638647" lon="11.3778345"><ele>823.3333333333334</ele><time>2026-04-12T11:13:31.6Z</time></trkpt><trkpt lat="43.5637975" lon="11.3777944"><ele>823.6666666666667</ele><time>2026-04-12T11:13:32.6Z</time></trkpt><trkpt lat="43.5637161" lon="11.3777609"><ele>824.0</ele><time>2026-04-12T11:13:33.6Z</time></trkpt><trkpt lat="43.5636187" lon="11.3777542"><ele>825.25</ele><time>2026-04-12T11:13:34.6Z</time></trkpt><trkpt lat="43.5635259" lon="11.3777537"><ele>826.5</ele><time>2026-04-12T11:13:35.6Z</time></trkpt><trkpt lat="43.5634102" lon="11.3777797"><ele>827.75</ele><time>2026-04-12T11:13:36.601Z</time></trkpt><trkpt lat="43.5632778" lon="11.3778268"><ele>829.0</ele><time>2026-04-12T11:13:37.601Z</time></trkpt><trkpt lat="43.5631428" lon="11.3778807"><ele>829.0</ele><time>2026-04-12T11:13:38.601Z</time></trkpt><trkpt lat="43.5629967" lon="11.3779473"><ele>829.0</ele><time>2026-04-12T11:13:39.601Z</time></trkpt><trkpt lat="43.56286" lon="11.3780212"><ele>829.0</ele><time>2026-04-12T11:13:40.6Z</time></trkpt><trkpt lat="43.5627248" lon="11.3780982"><ele>829.0</ele><time>2026-04-12T11:13:41.6Z</time></trkpt><trkpt lat="43.5625963" lon="11.3781853"><ele>833.6666666666666</ele><time>2026-04-12T11:13:42.601Z</time></trkpt><trkpt lat="43.5624733" lon="11.3783179"><ele>838.3333333333333</ele><time>2026-04-12T11:13:43.6Z</time></trkpt><trkpt lat="43.5623578" lon="11.3784674"><ele>843.0</ele><time>2026-04-12T11:13:44.6Z</time></trkpt><trkpt lat="43.5622452" lon="11.3786468"><ele>839.3333333333333</ele><time>2026-04-12T11:13:45.601Z</time></trkpt><trkpt lat="43.5621459" lon="11.3788678"><ele>835.6666666666666</ele><time>2026-04-12T11:13:46.6Z</time></trkpt><trkpt lat="43.5620434" lon="11.3790756"><ele>832.0</ele><time>2026-04-12T11:13:47.601Z</time></trkpt><trkpt lat="43.5619375" lon="11.3792665"><ele>839.0</ele><time>2026-04-12T11:13:48.6Z</time></trkpt><trkpt lat="43.5618237" lon="11.3794428"><ele>846.0</ele><time>2026-04-12T11:13:49.6Z</time></trkpt><trkpt lat="43.5617166" lon="11.3796007"><ele>853.0</ele><time>2026-04-12T11:13:50.601Z</time></trkpt><trkpt lat="43.5616344" lon="11.3797411"><ele>853.0</ele><time>2026-04-12T11:13:51.6Z</time></trkpt><trkpt lat="43.5615606" lon="11.3798667"><ele>853.0</ele><time>2026-04-12T11:13:52.601Z</time></trkpt><trkpt lat="43.5614936" lon="11.3799849"><ele>853.0</ele><time>2026-04-12T11:13:53.6Z</time></trkpt><trkpt lat="43.5614347" lon="11.3800792"><ele>853.0</ele><time>2026-04-12T11:13:54.6Z</time></trkpt><trkpt lat="43.5613672" lon="11.380172"><ele>853.0</ele><time>2026-04-12T11:13:55.6Z</time></trkpt><trkpt lat="43.5612878" lon="11.3802552"><ele>856.0</ele><time>2026-04-12T11:13:56.6Z</time></trkpt><trkpt lat="43.5611812" lon="11.3803259"><ele>859.0</ele><time>2026-04-12T11:13:57.601Z</time></trkpt><trkpt lat="43.561061" lon="11.3803815"><ele>862.0</ele><time>2026-04-12T11:13:58.6Z</time></trkpt><trkpt lat="43.5609486" lon="11.3804381"><ele>865.0</ele><time>2026-04-12T11:13:59.601Z</time></trkpt><trkpt lat="43.5608538" lon="11.3804891"><ele>861.2</ele><time>2026-04-12T11:14:00.6Z</time></trkpt><trkpt lat="43.5607541" lon="11.3805361"><ele>857.4</ele><time>2026-04-12T11:14:01.601Z</time></trkpt><trkpt lat="43.5606593" lon="11.3805636"><ele>853.5999999999999</ele><time>2026-04-12T11:14:02.6Z</time></trkpt><trkpt lat="43.5605713" lon="11.380602"><ele>849.8</ele><time>2026-04-12T11:14:03.601Z</time></trkpt><trkpt lat="43.5604881" lon="11.3806496"><ele>846.0</ele><time>2026-04-12T11:14:04.601Z</time></trkpt><trkpt lat="43.5603934" lon="11.3807268"><ele>846.25</ele><time>2026-04-12T11:14:05.6Z</time></trkpt><trkpt lat="43.5603047" lon="11.3808431"><ele>846.5</ele><time>2026-04-12T11:14:06.6Z</time></trkpt><trkpt lat="43.5602191" lon="11.3810008"><ele>846.75</ele><time>2026-04-12T11:14:07.6Z</time></trkpt><trkpt lat="43.5601311" lon="11.3811596"><ele>847.0</ele><time>2026-04-12T11:14:08.601Z</time></trkpt><trkpt lat="43.5600258" lon="11.3813277"><ele>844.3333333333333</ele><time>2026-04-12T11:14:09.6Z</time></trkpt><trkpt lat="43.5599151" lon="11.381508"><ele>841.6666666666667</ele><time>2026-04-12T11:14:10.601Z</time></trkpt><trkpt lat="43.5598086" lon="11.3816779"><ele>839.0</ele><time>2026-04-12T11:14:11.601Z</time></trkpt><trkpt lat="43.5597066" lon="11.3818402"><ele>839.0</ele><time>2026-04-12T11:14:12.6Z</time></trkpt><trkpt lat="43.5596132" lon="11.3819899"><ele>839.0</ele><time>2026-04-12T11:14:13.601Z</time></trkpt><trkpt lat="43.5595183" lon="11.3821369"><ele>839.0</ele><time>2026-04-12T11:14:14.601Z</time></trkpt><trkpt lat="43.5594313" lon="11.3822679"><ele>839.0</ele><time>2026-04-12T11:14:15.6Z</time></trkpt><trkpt lat="43.5593429" lon="11.3823962"><ele>840.0</ele><time>2026-04-12T11:14:16.6Z</time></trkpt><trkpt lat="43.5592557" lon="11.3825"><ele>841.0</ele><time>2026-04-12T11:14:17.601Z</time></trkpt><trkpt lat="43.55917" lon="11.3825951"><ele>842.0</ele><time>2026-04-12T11:14:18.601Z</time></trkpt><trkpt lat="43.5590814" lon="11.3826796"><ele>843.0</ele><time>2026-04-12T11:14:19.6Z</time></trkpt><trkpt lat="43.5589793" lon="11.3827538"><ele>844.0</ele><time>2026-04-12T11:14:20.6Z</time></trkpt><trkpt lat="43.5588577" lon="11.3827946"><ele>844.0</ele><time>2026-04-12T11:14:21.6Z</time></trkpt><trkpt lat="43.558738" lon="11.3828402"><ele>844.0</ele><time>2026-04-12T11:14:22.601Z</time></trkpt><trkpt lat="43.5586357" lon="11.3828834"><ele>844.0</ele><time>2026-04-12T11:14:23.6Z</time></trkpt><trkpt lat="43.558539" lon="11.3829496"><ele>844.0</ele><time>2026-04-12T11:14:24.601Z</time></trkpt><trkpt lat="43.5584404" lon="11.3830485"><ele>847.0</ele><time>2026-04-12T11:14:25.601Z</time></trkpt><trkpt lat="43.5583338" lon="11.3831646"><ele>850.0</ele><time>2026-04-12T11:14:26.6Z</time></trkpt><trkpt lat="43.5582145" lon="11.383279"><ele>853.0</ele><time>2026-04-12T11:14:27.6Z</time></trkpt><trkpt lat="43.5580993" lon="11.3833697"><ele>856.0</ele><time>2026-04-12T11:14:28.6Z</time></trkpt><trkpt lat="43.5579549" lon="11.3834635"><ele>855.5</ele><time>2026-04-12T11:14:29.6Z</time></trkpt><trkpt lat="43.5578251" lon="11.3835518"><ele>855.0</ele><time>2026-04-12T11:14:30.601Z</time></trkpt><trkpt lat="43.5576872" lon="11.383636"><ele>854.5</ele><time>2026-04-12T11:14:31.6Z</time></trkpt><trkpt lat="43.5575589" lon="11.3837018"><ele>854.0</ele><time>2026-04-12T11:14:32.601Z</time></trkpt><trkpt lat="43.5574455" lon="11.3837537"><ele>854.0</ele><time>2026-04-12T11:14:33.601Z</time></trkpt><trkpt lat="43.5573296" lon="11.3837777"><ele>854.0000000000001</ele><time>2026-04-12T11:14:34.6Z</time></trkpt><trkpt lat="43.5572144" lon="11.3837924"><ele>854.0000000000001</ele><time>2026-04-12T11:14:35.601Z</time></trkpt><trkpt lat="43.5571095" lon="11.3837606"><ele>854.0</ele><time>2026-04-12T11:14:36.6Z</time></trkpt><trkpt lat="43.5570107" lon="11.3837269"><ele>854.0</ele><time>2026-04-12T11:14:37.601Z</time></trkpt><trkpt lat="43.5569228" lon="11.3837004"><ele>854.0</ele><time>2026-04-12T11:14:38.601Z</time></trkpt><trkpt lat="43.5568269" lon="11.3836829"><ele>854.0</ele><time>2026-04-12T11:14:39.6Z</time></trkpt><trkpt lat="43.5567246" lon="11.3837055"><ele>854.0</ele><time>2026-04-12T11:14:40.6Z</time></trkpt><trkpt lat="43.5566104" lon="11.3837634"><ele>854.0</ele><time>2026-04-12T11:14:41.601Z</time></trkpt><trkpt lat="43.556484" lon="11.3838339"><ele>856.0</ele><time>2026-04-12T11:14:42.601Z</time></trkpt><trkpt lat="43.5563457" lon="11.383901"><ele>858.0</ele><time>2026-04-12T11:14:43.601Z</time></trkpt><trkpt lat="43.5562178" lon="11.3839664"><ele>860.0</ele><time>2026-04-12T11:14:44.6Z</time></trkpt><trkpt lat="43.5560726" lon="11.3840475"><ele>862.0</ele><time>2026-04-12T11:14:45.6Z</time></trkpt><trkpt lat="43.5559622" lon="11.3841396"><ele>862.0</ele><time>2026-04-12T11:14:46.601Z</time></trkpt><trkpt lat="43.5558608" lon="11.3842215"><ele>862.0</ele><time>2026-04-12T11:14:47.601Z</time></trkpt><trkpt lat="43.5557619" lon="11.3843121"><ele>862.0</ele><time>2026-04-12T11:14:48.6Z</time></trkpt><trkpt lat="43.555652" lon="11.3843712"><ele>862.0</ele><time>2026-04-12T11:14:49.6Z</time></trkpt><trkpt lat="43.5555398" lon="11.384378"><ele>861.9999999999999</ele><time>2026-04-12T11:14:50.601Z</time></trkpt><trkpt lat="43.555434" lon="11.3843725"><ele>862.0</ele><time>2026-04-12T11:14:51.601Z</time></trkpt><trkpt lat="43.5553309" lon="11.3843619"><ele>862.0</ele><time>2026-04-12T11:14:52.6Z</time></trkpt><trkpt lat="43.5552485" lon="11.3843861"><ele>862.0</ele><time>2026-04-12T11:14:53.6Z</time></trkpt><trkpt lat="43.555185" lon="11.3844162"><ele>861.9999999999999</ele><time>2026-04-12T11:14:54.6Z</time></trkpt><trkpt lat="43.5551226" lon="11.3844589"><ele>862.0</ele><time>2026-04-12T11:14:55.601Z</time></trkpt><trkpt lat="43.5550623" lon="11.3845064"><ele>863.2</ele><time>2026-04-12T11:14:56.601Z</time></trkpt><trkpt lat="43.5550161" lon="11.3845888"><ele>864.4000000000001</ele><time>2026-04-12T11:14:57.601Z</time></trkpt><trkpt lat="43.5549783" lon="11.3846936"><ele>865.5999999999999</ele><time>2026-04-12T11:14:58.6Z</time></trkpt><trkpt lat="43.5549311" lon="11.3848222"><ele>866.8</ele><time>2026-04-12T11:14:59.601Z</time></trkpt><trkpt lat="43.5548901" lon="11.3849588"><ele>868.0</ele><time>2026-04-12T11:15:00.601Z</time></trkpt><trkpt lat="43.5548422" lon="11.3851107"><ele>868.0</ele><time>2026-04-12T11:15:01.601Z</time></trkpt><trkpt lat="43.554785" lon="11.385262"><ele>868.0</ele><time>2026-04-12T11:15:02.6Z</time></trkpt><trkpt lat="43.5547303" lon="11.3854059"><ele>868.0</ele><time>2026-04-12T11:15:03.6Z</time></trkpt><trkpt lat="43.5546811" lon="11.3855444"><ele>868.0</ele><time>2026-04-12T11:15:04.601Z</time></trkpt><trkpt lat="43.5546151" lon="11.3857199"><ele>868.0</ele><time>2026-04-12T11:15:05.601Z</time></trkpt><trkpt lat="43.5545413" lon="11.3858748"><ele>868.0</ele><time>2026-04-12T11:15:06.6Z</time></trkpt><trkpt lat="43.5544806" lon="11.3860286"><ele>868.0</ele><time>2026-04-12T11:15:07.6Z</time></trkpt><trkpt lat="43.5544263" lon="11.3861498"><ele>868.0</ele><time>2026-04-12T11:15:08.601Z</time></trkpt><trkpt lat="43.5543969" lon="11.3862509"><ele>868.0</ele><time>2026-04-12T11:15:09.6Z</time></trkpt><trkpt lat="43.5543525" lon="11.3863751"><ele>869.8571428571429</ele><time>2026-04-12T11:15:11.6Z</time></trkpt><trkpt lat="43.5543038" lon="11.3864375"><ele>871.7142857142858</ele><time>2026-04-12T11:15:14.601Z</time></trkpt><trkpt lat="43.5543348" lon="11.3865132"><ele>873.5714285714286</ele><time>2026-04-12T11:15:23.601Z</time></trkpt><trkpt lat="43.5543218" lon="11.3866354"><ele>875.4285714285714</ele><time>2026-04-12T11:15:25.601Z</time></trkpt><trkpt lat="43.554302" lon="11.3867444"><ele>877.2857142857143</ele><time>2026-04-12T11:15:27.601Z</time></trkpt><trkpt lat="43.5542764" lon="11.386847"><ele>879.1428571428571</ele><time>2026-04-12T11:15:29.601Z</time></trkpt><trkpt lat="43.5542388" lon="11.386921"><ele>881.0</ele><time>2026-04-12T11:15:31.601Z</time></trkpt><trkpt lat="43.5541824" lon="11.3870075"><ele>881.0</ele><time>2026-04-12T11:15:42.6Z</time></trkpt><trkpt lat="43.5542486" lon="11.3869719"><ele>880.9999999999999</ele><time>2026-04-12T11:15:47.6Z</time></trkpt><trkpt lat="43.5543338" lon="11.3869575"><ele>880.9999999999999</ele><time>2026-04-12T11:15:50.6Z</time></trkpt><trkpt lat="43.5541968" lon="11.3870099"><ele>881.0</ele><time>2026-04-12T11:16:22.601Z</time></trkpt><trkpt lat="43.5542908" lon="11.3869909"><ele>881.0</ele><time>2026-04-12T11:16:32.6Z</time></trkpt><trkpt lat="43.5543384" lon="11.3869293"><ele>881.0</ele><time>2026-04-12T11:19:26.601Z</time></trkpt><trkpt lat="43.5543993" lon="11.3869797"><ele>881.0</ele><time>2026-04-12T11:19:47.6Z</time></trkpt><trkpt lat="43.5544197" lon="11.3868881"><ele>881.0</ele><time>2026-04-12T11:20:01.608Z</time></trkpt><trkpt lat="43.5543527" lon="11.3868797"><ele>881.0</ele><time>2026-04-12T11:20:43.601Z</time></trkpt><trkpt lat="43.5543175" lon="11.386952"><ele>881.0</ele><time>2026-04-12T11:20:52.6Z</time></trkpt><trkpt lat="43.5543453" lon="11.3870302"><ele>881.0</ele><time>2026-04-12T11:21:04.6Z</time></trkpt><trkpt lat="43.5544123" lon="11.3869957"><ele>881.0</ele><time>2026-04-12T11:21:30.601Z</time></trkpt><trkpt lat="43.5544896" lon="11.3869877"><ele>882.0</ele><time>2026-04-12T11:21:34.6Z</time></trkpt><trkpt lat="43.5545896" lon="11.3869606"><ele>882.9999999999999</ele><time>2026-04-12T11:21:36.6Z</time></trkpt><trkpt lat="43.5547016" lon="11.3869452"><ele>883.9999999999999</ele><time>2026-04-12T11:21:37.601Z</time></trkpt><trkpt lat="43.5548191" lon="11.3869593"><ele>885.0</ele><time>2026-04-12T11:21:38.6Z</time></trkpt><trkpt lat="43.5549236" lon="11.3869811"><ele>886.0</ele><time>2026-04-12T11:21:39.601Z</time></trkpt><trkpt lat="43.5550381" lon="11.3869944"><ele>886.0</ele><time>2026-04-12T11:21:40.6Z</time></trkpt><trkpt lat="43.555162" lon="11.3869964"><ele>886.0</ele><time>2026-04-12T11:21:41.6Z</time></trkpt><trkpt lat="43.555288" lon="11.3870066"><ele>886.0</ele><time>2026-04-12T11:21:42.601Z</time></trkpt><trkpt lat="43.5554075" lon="11.3869967"><ele>886.0</ele><time>2026-04-12T11:21:43.601Z</time></trkpt><trkpt lat="43.5555252" lon="11.386978"><ele>884.1999999999999</ele><time>2026-04-12T11:21:44.6Z</time></trkpt><trkpt lat="43.5556412" lon="11.3869677"><ele>882.3999999999999</ele><time>2026-04-12T11:21:45.6Z</time></trkpt><trkpt lat="43.5557461" lon="11.3869895"><ele>880.6</ele><time>2026-04-12T11:21:46.6Z</time></trkpt><trkpt lat="43.5558499" lon="11.3869833"><ele>878.8</ele><time>2026-04-12T11:21:47.601Z</time></trkpt><trkpt lat="43.5559572" lon="11.3869623"><ele>877.0</ele><time>2026-04-12T11:21:48.6Z</time></trkpt><trkpt lat="43.5560545" lon="11.3869353"><ele>876.9999999999999</ele><time>2026-04-12T11:21:49.6Z</time></trkpt><trkpt lat="43.5561293" lon="11.3869184"><ele>877.0</ele><time>2026-04-12T11:21:50.601Z</time></trkpt><trkpt lat="43.5562046" lon="11.3868894"><ele>877.0</ele><time>2026-04-12T11:21:51.6Z</time></trkpt><trkpt lat="43.5562845" lon="11.3868546"><ele>877.0</ele><time>2026-04-12T11:21:52.6Z</time></trkpt><trkpt lat="43.5563556" lon="11.3868178"><ele>876.9999999999999</ele><time>2026-04-12T11:21:53.601Z</time></trkpt><trkpt lat="43.5564202" lon="11.3867774"><ele>877.0</ele><time>2026-04-12T11:21:54.601Z</time></trkpt><trkpt lat="43.5564808" lon="11.3867326"><ele>877.4999999999999</ele><time>2026-04-12T11:21:55.6Z</time></trkpt><trkpt lat="43.5565445" lon="11.3866723"><ele>878.0</ele><time>2026-04-12T11:21:56.6Z</time></trkpt><trkpt lat="43.5565952" lon="11.3865938"><ele>878.5</ele><time>2026-04-12T11:21:57.6Z</time></trkpt><trkpt lat="43.5566396" lon="11.3864889"><ele>879.0</ele><time>2026-04-12T11:21:58.601Z</time></trkpt><trkpt lat="43.5566756" lon="11.3863664"><ele>879.4999999999999</ele><time>2026-04-12T11:21:59.6Z</time></trkpt><trkpt lat="43.5567212" lon="11.3862623"><ele>880.0</ele><time>2026-04-12T11:22:00.601Z</time></trkpt><trkpt lat="43.5567699" lon="11.3861745"><ele>880.0</ele><time>2026-04-12T11:22:01.6Z</time></trkpt><trkpt lat="43.5568209" lon="11.3860877"><ele>880.0</ele><time>2026-04-12T11:22:02.6Z</time></trkpt><trkpt lat="43.5568884" lon="11.385987"><ele>880.0</ele><time>2026-04-12T11:22:03.601Z</time></trkpt><trkpt lat="43.5569622" lon="11.3858685"><ele>880.0</ele><time>2026-04-12T11:22:04.601Z</time></trkpt><trkpt lat="43.5570316" lon="11.3857355"><ele>880.0</ele><time>2026-04-12T11:22:05.601Z</time></trkpt><trkpt lat="43.5570919" lon="11.3856009"><ele>878.0</ele><time>2026-04-12T11:22:06.601Z</time></trkpt><trkpt lat="43.5571437" lon="11.3854799"><ele>876.0</ele><time>2026-04-12T11:22:07.6Z</time></trkpt><trkpt lat="43.5571853" lon="11.3853701"><ele>874.0</ele><time>2026-04-12T11:22:08.6Z</time></trkpt><trkpt lat="43.55723" lon="11.3852626"><ele>872.0</ele><time>2026-04-12T11:22:09.601Z</time></trkpt><trkpt lat="43.5572799" lon="11.3851639"><ele>870.0</ele><time>2026-04-12T11:22:10.601Z</time></trkpt><trkpt lat="43.5573349" lon="11.3850792"><ele>870.0</ele><time>2026-04-12T11:22:11.6Z</time></trkpt><trkpt lat="43.5574072" lon="11.3850072"><ele>870.0</ele><time>2026-04-12T11:22:12.601Z</time></trkpt><trkpt lat="43.5574798" lon="11.3849321"><ele>870.0</ele><time>2026-04-12T11:22:13.6Z</time></trkpt><trkpt lat="43.557552" lon="11.3848478"><ele>870.0</ele><time>2026-04-12T11:22:14.6Z</time></trkpt><trkpt lat="43.5576183" lon="11.3847514"><ele>870.0</ele><time>2026-04-12T11:22:15.6Z</time></trkpt><trkpt lat="43.5576792" lon="11.3846409"><ele>870.1666666666666</ele><time>2026-04-12T11:22:16.599Z</time></trkpt><trkpt lat="43.5577351" lon="11.3845229"><ele>870.3333333333333</ele><time>2026-04-12T11:22:17.6Z</time></trkpt><trkpt lat="43.5577894" lon="11.3844237"><ele>870.5</ele><time>2026-04-12T11:22:18.599Z</time></trkpt><trkpt lat="43.5578453" lon="11.3843424"><ele>870.6666666666666</ele><time>2026-04-12T11:22:19.599Z</time></trkpt><trkpt lat="43.5579021" lon="11.3842659"><ele>870.8333333333333</ele><time>2026-04-12T11:22:20.599Z</time></trkpt><trkpt lat="43.5579575" lon="11.3841997"><ele>871.0</ele><time>2026-04-12T11:22:21.599Z</time></trkpt><trkpt lat="43.5580142" lon="11.3841485"><ele>868.0</ele><time>2026-04-12T11:22:22.6Z</time></trkpt><trkpt lat="43.5581132" lon="11.3840484"><ele>864.9999999999999</ele><time>2026-04-12T11:22:24.6Z</time></trkpt><trkpt lat="43.5582061" lon="11.3839434"><ele>861.9999999999999</ele><time>2026-04-12T11:22:26.599Z</time></trkpt><trkpt lat="43.5582555" lon="11.3838742"><ele>859.0</ele><time>2026-04-12T11:22:27.6Z</time></trkpt><trkpt lat="43.55831" lon="11.3837879"><ele>856.0</ele><time>2026-04-12T11:22:28.599Z</time></trkpt><trkpt lat="43.5583739" lon="11.3837172"><ele>855.9999999999999</ele><time>2026-04-12T11:22:29.6Z</time></trkpt><trkpt lat="43.5584397" lon="11.3836674"><ele>856.0</ele><time>2026-04-12T11:22:30.599Z</time></trkpt><trkpt lat="43.5585073" lon="11.3836221"><ele>856.0</ele><time>2026-04-12T11:22:31.599Z</time></trkpt><trkpt lat="43.5585767" lon="11.3835893"><ele>856.0</ele><time>2026-04-12T11:22:32.6Z</time></trkpt><trkpt lat="43.5586436" lon="11.3835612"><ele>855.9999999999999</ele><time>2026-04-12T11:22:33.6Z</time></trkpt><trkpt lat="43.5587469" lon="11.3835217"><ele>856.0</ele><time>2026-04-12T11:22:35.6Z</time></trkpt><trkpt lat="43.5588348" lon="11.3835008"><ele>851.25</ele><time>2026-04-12T11:22:37.6Z</time></trkpt><trkpt lat="43.5589399" lon="11.3834856"><ele>846.5</ele><time>2026-04-12T11:22:39.6Z</time></trkpt><trkpt lat="43.5590335" lon="11.3834011"><ele>841.75</ele><time>2026-04-12T11:22:41.6Z</time></trkpt><trkpt lat="43.5591215" lon="11.383298"><ele>837.0</ele><time>2026-04-12T11:22:43.599Z</time></trkpt><trkpt lat="43.5592302" lon="11.3832314"><ele>837.0</ele><time>2026-04-12T11:22:45.599Z</time></trkpt><trkpt lat="43.5593227" lon="11.3831838"><ele>837.0</ele><time>2026-04-12T11:22:47.6Z</time></trkpt><trkpt lat="43.5593756" lon="11.3830915"><ele>837.0</ele><time>2026-04-12T11:22:49.599Z</time></trkpt><trkpt lat="43.5594183" lon="11.3830197"><ele>837.0</ele><time>2026-04-12T11:22:55.6Z</time></trkpt><trkpt lat="43.5594909" lon="11.382932"><ele>837.0</ele><time>2026-04-12T11:22:57.599Z</time></trkpt><trkpt lat="43.5595812" lon="11.3828342"><ele>836.2</ele><time>2026-04-12T11:22:59.6Z</time></trkpt><trkpt lat="43.5596661" lon="11.3827399"><ele>835.4000000000001</ele><time>2026-04-12T11:23:01.6Z</time></trkpt><trkpt lat="43.5597169" lon="11.3826552"><ele>834.5999999999999</ele><time>2026-04-12T11:23:03.6Z</time></trkpt><trkpt lat="43.5598108" lon="11.3825236"><ele>833.8</ele><time>2026-04-12T11:23:05.599Z</time></trkpt><trkpt lat="43.5598739" lon="11.3824367"><ele>833.0</ele><time>2026-04-12T11:23:06.599Z</time></trkpt><trkpt lat="43.5599281" lon="11.3823506"><ele>833.0000000000001</ele><time>2026-04-12T11:23:07.599Z</time></trkpt><trkpt lat="43.5599724" lon="11.3822752"><ele>833.0</ele><time>2026-04-12T11:23:08.6Z</time></trkpt><trkpt lat="43.5600496" lon="11.3821418"><ele>833.0</ele><time>2026-04-12T11:23:10.6Z</time></trkpt><trkpt lat="43.5600958" lon="11.3820731"><ele>833.0</ele><time>2026-04-12T11:23:11.599Z</time></trkpt><trkpt lat="43.5601416" lon="11.382002"><ele>833.0000000000001</ele><time>2026-04-12T11:23:12.6Z</time></trkpt><trkpt lat="43.5601832" lon="11.3819274"><ele>833.0</ele><time>2026-04-12T11:23:13.6Z</time></trkpt><trkpt lat="43.5602385" lon="11.3818112"><ele>833.0</ele><time>2026-04-12T11:23:15.599Z</time></trkpt><trkpt lat="43.5602057" lon="11.3819074"><ele>833.0</ele><time>2026-04-12T11:23:53.599Z</time></trkpt><trkpt lat="43.5601451" lon="11.3820483"><ele>833.0</ele><time>2026-04-12T11:23:56.599Z</time></trkpt><trkpt lat="43.5600889" lon="11.38214"><ele>833.0</ele><time>2026-04-12T11:23:57.6Z</time></trkpt><trkpt lat="43.5600248" lon="11.3822276"><ele>833.0</ele><time>2026-04-12T11:23:58.599Z</time></trkpt><trkpt lat="43.5599628" lon="11.3823155"><ele>833.0000000000001</ele><time>2026-04-12T11:23:59.6Z</time></trkpt><trkpt lat="43.5599025" lon="11.3824057"><ele>833.0</ele><time>2026-04-12T11:24:00.599Z</time></trkpt><trkpt lat="43.5598411" lon="11.3824944"><ele>833.0</ele><time>2026-04-12T11:24:01.6Z</time></trkpt><trkpt lat="43.5597904" lon="11.3825738"><ele>833.0</ele><time>2026-04-12T11:24:02.6Z</time></trkpt><trkpt lat="43.5597445" lon="11.3826487"><ele>833.0000000000001</ele><time>2026-04-12T11:24:03.6Z</time></trkpt><trkpt lat="43.559696" lon="11.3827145"><ele>833.0</ele><time>2026-04-12T11:24:04.6Z</time></trkpt><trkpt lat="43.5596427" lon="11.3827719"><ele>833.0</ele><time>2026-04-12T11:24:05.599Z</time></trkpt><trkpt lat="43.5595758" lon="11.3828372"><ele>833.0</ele><time>2026-04-12T11:24:06.599Z</time></trkpt><trkpt lat="43.5595112" lon="11.382907"><ele>833.0</ele><time>2026-04-12T11:24:07.6Z</time></trkpt><trkpt lat="43.5594208" lon="11.3829737"><ele>833.0</ele><time>2026-04-12T11:24:09.6Z</time></trkpt><trkpt lat="43.5593321" lon="11.3829505"><ele>833.0</ele><time>2026-04-12T11:24:11.599Z</time></trkpt><trkpt lat="43.5592413" lon="11.3828967"><ele>834.8333333333334</ele><time>2026-04-12T11:24:13.599Z</time></trkpt><trkpt lat="43.5591681" lon="11.3828263"><ele>836.6666666666667</ele><time>2026-04-12T11:24:15.599Z</time></trkpt><trkpt lat="43.5591261" lon="11.3827263"><ele>838.5</ele><time>2026-04-12T11:24:17.6Z</time></trkpt><trkpt lat="43.5591349" lon="11.3826189"><ele>840.3333333333333</ele><time>2026-04-12T11:24:20.599Z</time></trkpt><trkpt lat="43.5591925" lon="11.3826937"><ele>842.1666666666666</ele><time>2026-04-12T11:24:26.599Z</time></trkpt><trkpt lat="43.5592318" lon="11.3828046"><ele>844.0</ele><time>2026-04-12T11:24:28.599Z</time></trkpt><trkpt lat="43.5592888" lon="11.3829133"><ele>844.0</ele><time>2026-04-12T11:24:30.599Z</time></trkpt><trkpt lat="43.5593496" lon="11.3829982"><ele>844.0</ele><time>2026-04-12T11:24:32.6Z</time></trkpt><trkpt lat="43.5593614" lon="11.3831064"><ele>844.0</ele><time>2026-04-12T11:24:34.599Z</time></trkpt><trkpt lat="43.5593197" lon="11.3831732"><ele>844.0</ele><time>2026-04-12T11:24:36.6Z</time></trkpt><trkpt lat="43.5592087" lon="11.3832371"><ele>844.0</ele><time>2026-04-12T11:24:38.599Z</time></trkpt><trkpt lat="43.5590931" lon="11.3833103"><ele>842.6</ele><time>2026-04-12T11:24:40.6Z</time></trkpt><trkpt lat="43.5589857" lon="11.3833992"><ele>841.2</ele><time>2026-04-12T11:24:42.599Z</time></trkpt><trkpt lat="43.5588703" lon="11.3834765"><ele>839.8000000000001</ele><time>2026-04-12T11:24:44.599Z</time></trkpt><trkpt lat="43.5588112" lon="11.3835085"><ele>838.4000000000001</ele><time>2026-04-12T11:24:45.599Z</time></trkpt><trkpt lat="43.5586935" lon="11.3835329"><ele>837.0</ele><time>2026-04-12T11:24:47.599Z</time></trkpt><trkpt lat="43.5586308" lon="11.3835455"><ele>839.5</ele><time>2026-04-12T11:24:48.6Z</time></trkpt><trkpt lat="43.5585667" lon="11.383595"><ele>842.0</ele><time>2026-04-12T11:24:49.599Z</time></trkpt><trkpt lat="43.5584973" lon="11.3836414"><ele>844.5</ele><time>2026-04-12T11:24:50.599Z</time></trkpt><trkpt lat="43.5584186" lon="11.3837092"><ele>847.0</ele><time>2026-04-12T11:24:51.6Z</time></trkpt><trkpt lat="43.5583409" lon="11.383793"><ele>849.5</ele><time>2026-04-12T11:24:52.599Z</time></trkpt><trkpt lat="43.5582626" lon="11.3838902"><ele>852.0</ele><time>2026-04-12T11:24:53.599Z</time></trkpt><trkpt lat="43.5581995" lon="11.3839779"><ele>852.0</ele><time>2026-04-12T11:24:54.599Z</time></trkpt><trkpt lat="43.5581438" lon="11.3840571"><ele>852.0</ele><time>2026-04-12T11:24:55.599Z</time></trkpt><trkpt lat="43.5580867" lon="11.3841205"><ele>852.0</ele><time>2026-04-12T11:24:56.6Z</time></trkpt><trkpt lat="43.5580288" lon="11.3841716"><ele>852.0</ele><time>2026-04-12T11:24:57.599Z</time></trkpt><trkpt lat="43.5579627" lon="11.3842318"><ele>852.0</ele><time>2026-04-12T11:24:58.6Z</time></trkpt><trkpt lat="43.5578905" lon="11.3843294"><ele>852.0</ele><time>2026-04-12T11:24:59.6Z</time></trkpt><trkpt lat="43.5578236" lon="11.3844482"><ele>856.5</ele><time>2026-04-12T11:25:00.599Z</time></trkpt><trkpt lat="43.5577356" lon="11.3845736"><ele>861.0</ele><time>2026-04-12T11:25:01.599Z</time></trkpt><trkpt lat="43.5576571" lon="11.3847084"><ele>865.5</ele><time>2026-04-12T11:25:02.6Z</time></trkpt><trkpt lat="43.5575675" lon="11.3848379"><ele>870.0</ele><time>2026-04-12T11:25:03.6Z</time></trkpt><trkpt lat="43.5574762" lon="11.3849577"><ele>870.0</ele><time>2026-04-12T11:25:04.599Z</time></trkpt><trkpt lat="43.5573806" lon="11.3850767"><ele>870.0</ele><time>2026-04-12T11:25:05.6Z</time></trkpt><trkpt lat="43.557297" lon="11.3852009"><ele>870.0</ele><time>2026-04-12T11:25:06.6Z</time></trkpt><trkpt lat="43.5572281" lon="11.3853489"><ele>870.0</ele><time>2026-04-12T11:25:07.599Z</time></trkpt><trkpt lat="43.5571642" lon="11.3855137"><ele>868.25</ele><time>2026-04-12T11:25:08.599Z</time></trkpt><trkpt lat="43.5570946" lon="11.3856867"><ele>866.5</ele><time>2026-04-12T11:25:09.599Z</time></trkpt><trkpt lat="43.5570166" lon="11.3858459"><ele>864.75</ele><time>2026-04-12T11:25:10.6Z</time></trkpt><trkpt lat="43.5569306" lon="11.3859556"><ele>863.0</ele><time>2026-04-12T11:25:11.599Z</time></trkpt><trkpt lat="43.5568591" lon="11.386067"><ele>864.4</ele><time>2026-04-12T11:25:12.6Z</time></trkpt><trkpt lat="43.5567946" lon="11.3861879"><ele>865.8</ele><time>2026-04-12T11:25:13.6Z</time></trkpt><trkpt lat="43.5567323" lon="11.3863086"><ele>867.2</ele><time>2026-04-12T11:25:14.599Z</time></trkpt><trkpt lat="43.5566841" lon="11.3864251"><ele>868.6</ele><time>2026-04-12T11:25:15.599Z</time></trkpt><trkpt lat="43.5566506" lon="11.3865269"><ele>870.0</ele><time>2026-04-12T11:25:16.6Z</time></trkpt><trkpt lat="43.5566311" lon="11.3866142"><ele>870.0</ele><time>2026-04-12T11:25:17.599Z</time></trkpt><trkpt lat="43.5565618" lon="11.3866905"><ele>870.0</ele><time>2026-04-12T11:25:19.599Z</time></trkpt><trkpt lat="43.5564983" lon="11.3867203"><ele>870.0</ele><time>2026-04-12T11:25:20.599Z</time></trkpt><trkpt lat="43.5564218" lon="11.3867598"><ele>870.0</ele><time>2026-04-12T11:25:21.6Z</time></trkpt><trkpt lat="43.5563431" lon="11.3868103"><ele>870.0</ele><time>2026-04-12T11:25:22.599Z</time></trkpt><trkpt lat="43.5562403" lon="11.3868435"><ele>870.0</ele><time>2026-04-12T11:25:23.6Z</time></trkpt><trkpt lat="43.5561218" lon="11.3868763"><ele>871.75</ele><time>2026-04-12T11:25:24.599Z</time></trkpt><trkpt lat="43.555984" lon="11.3868806"><ele>873.5</ele><time>2026-04-12T11:25:25.599Z</time></trkpt><trkpt lat="43.5558443" lon="11.3868875"><ele>875.25</ele><time>2026-04-12T11:25:26.599Z</time></trkpt><trkpt lat="43.5557058" lon="11.3869081"><ele>877.0</ele><time>2026-04-12T11:25:27.6Z</time></trkpt><trkpt lat="43.555569" lon="11.3869248"><ele>877.0</ele><time>2026-04-12T11:25:28.6Z</time></trkpt><trkpt lat="43.5554255" lon="11.3869346"><ele>877.0</ele><time>2026-04-12T11:25:29.6Z</time></trkpt><trkpt lat="43.5552738" lon="11.3869301"><ele>877.0</ele><time>2026-04-12T11:25:30.6Z</time></trkpt><trkpt lat="43.5551158" lon="11.3869216"><ele>879.25</ele><time>2026-04-12T11:25:31.599Z</time></trkpt><trkpt lat="43.5549782" lon="11.3869169"><ele>881.5</ele><time>2026-04-12T11:25:32.6Z</time></trkpt><trkpt lat="43.5548665" lon="11.3869214"><ele>883.75</ele><time>2026-04-12T11:25:33.599Z</time></trkpt><trkpt lat="43.5547599" lon="11.3869309"><ele>886.0</ele><time>2026-04-12T11:25:34.599Z</time></trkpt><trkpt lat="43.5546566" lon="11.3869466"><ele>886.0</ele><time>2026-04-12T11:25:35.599Z</time></trkpt><trkpt lat="43.5545473" lon="11.3869675"><ele>886.0</ele><time>2026-04-12T11:25:36.6Z</time></trkpt><trkpt lat="43.5544321" lon="11.3869955"><ele>886.0</ele><time>2026-04-12T11:25:37.599Z</time></trkpt><trkpt lat="43.5543158" lon="11.3870291"><ele>886.0</ele><time>2026-04-12T11:25:38.599Z</time></trkpt><trkpt lat="43.5542013" lon="11.3870608"><ele>885.1666666666666</ele><time>2026-04-12T11:25:39.6Z</time></trkpt><trkpt lat="43.5540979" lon="11.3870913"><ele>884.3333333333333</ele><time>2026-04-12T11:25:40.599Z</time></trkpt><trkpt lat="43.5540165" lon="11.38711"><ele>883.5</ele><time>2026-04-12T11:25:41.599Z</time></trkpt><trkpt lat="43.5539455" lon="11.3871289"><ele>882.6666666666667</ele><time>2026-04-12T11:25:42.599Z</time></trkpt><trkpt lat="43.5538461" lon="11.3871574"><ele>881.8333333333334</ele><time>2026-04-12T11:25:44.599Z</time></trkpt><trkpt lat="43.5537816" lon="11.3871642"><ele>881.0</ele><time>2026-04-12T11:25:45.6Z</time></trkpt><trkpt lat="43.5536719" lon="11.3871748"><ele>883.1999999999999</ele><time>2026-04-12T11:25:47.599Z</time></trkpt><trkpt lat="43.5535928" lon="11.3872028"><ele>885.3999999999999</ele><time>2026-04-12T11:25:48.599Z</time></trkpt><trkpt lat="43.553489" lon="11.3872463"><ele>887.6</ele><time>2026-04-12T11:25:49.599Z</time></trkpt><trkpt lat="43.5533845" lon="11.3872716"><ele>889.8</ele><time>2026-04-12T11:25:50.599Z</time></trkpt><trkpt lat="43.5532861" lon="11.3872838"><ele>892.0</ele><time>2026-04-12T11:25:51.599Z</time></trkpt><trkpt lat="43.5531949" lon="11.3872988"><ele>892.0</ele><time>2026-04-12T11:25:52.599Z</time></trkpt><trkpt lat="43.5531001" lon="11.3873361"><ele>892.0</ele><time>2026-04-12T11:25:53.599Z</time></trkpt><trkpt lat="43.5530177" lon="11.3873998"><ele>892.0</ele><time>2026-04-12T11:25:54.599Z</time></trkpt><trkpt lat="43.5529381" lon="11.3874615"><ele>892.0</ele><time>2026-04-12T11:25:55.6Z</time></trkpt><trkpt lat="43.5528622" lon="11.3875118"><ele>892.0</ele><time>2026-04-12T11:25:56.6Z</time></trkpt><trkpt lat="43.5527858" lon="11.3875574"><ele>892.3333333333333</ele><time>2026-04-12T11:25:57.599Z</time></trkpt><trkpt lat="43.552716" lon="11.3875861"><ele>892.6666666666666</ele><time>2026-04-12T11:25:58.599Z</time></trkpt><trkpt lat="43.5526557" lon="11.3876302"><ele>893.0</ele><time>2026-04-12T11:25:59.599Z</time></trkpt><trkpt lat="43.5525959" lon="11.3876849"><ele>893.3333333333333</ele><time>2026-04-12T11:26:00.6Z</time></trkpt><trkpt lat="43.5525156" lon="11.3877653"><ele>893.6666666666666</ele><time>2026-04-12T11:26:01.599Z</time></trkpt><trkpt lat="43.5524337" lon="11.3878509"><ele>894.0</ele><time>2026-04-12T11:26:02.601Z</time></trkpt><trkpt lat="43.5523589" lon="11.3879445"><ele>896.0</ele><time>2026-04-12T11:26:03.6Z</time></trkpt><trkpt lat="43.5522773" lon="11.3880257"><ele>898.0</ele><time>2026-04-12T11:26:04.6Z</time></trkpt><trkpt lat="43.5521913" lon="11.3881333"><ele>900.0</ele><time>2026-04-12T11:26:05.601Z</time></trkpt><trkpt lat="43.5520901" lon="11.3882246"><ele>902.0</ele><time>2026-04-12T11:26:06.6Z</time></trkpt><trkpt lat="43.5519901" lon="11.3883058"><ele>902.0</ele><time>2026-04-12T11:26:07.6Z</time></trkpt><trkpt lat="43.5519102" lon="11.3883778"><ele>902.0</ele><time>2026-04-12T11:26:08.601Z</time></trkpt><trkpt lat="43.551846" lon="11.3884331"><ele>902.0</ele><time>2026-04-12T11:26:09.6Z</time></trkpt><trkpt lat="43.5517938" lon="11.3884897"><ele>902.0</ele><time>2026-04-12T11:26:10.6Z</time></trkpt><trkpt lat="43.5517435" lon="11.3885512"><ele>902.0</ele><time>2026-04-12T11:26:11.601Z</time></trkpt><trkpt lat="43.5517026" lon="11.3886249"><ele>902.0</ele><time>2026-04-12T11:26:12.601Z</time></trkpt><trkpt lat="43.5516446" lon="11.3886827"><ele>902.0</ele><time>2026-04-12T11:26:14.6Z</time></trkpt><trkpt lat="43.5515959" lon="11.3887794"><ele>902.0000000000001</ele><time>2026-04-12T11:26:18.601Z</time></trkpt><trkpt lat="43.5515311" lon="11.3887366"><ele>902.0</ele><time>2026-04-12T11:26:22.6Z</time></trkpt><trkpt lat="43.5514554" lon="11.3886099"><ele>902.0</ele><time>2026-04-12T11:27:50.6Z</time></trkpt><trkpt lat="43.5513986" lon="11.3885333"><ele>902.0</ele><time>2026-04-12T11:27:51.601Z</time></trkpt><trkpt lat="43.5513255" lon="11.3884863"><ele>902.0000000000001</ele><time>2026-04-12T11:27:52.601Z</time></trkpt><trkpt lat="43.5512372" lon="11.3884445"><ele>902.0</ele><time>2026-04-12T11:27:53.601Z</time></trkpt><trkpt lat="43.5511538" lon="11.3884146"><ele>901.4000000000001</ele><time>2026-04-12T11:27:54.601Z</time></trkpt><trkpt lat="43.5510706" lon="11.3883924"><ele>900.8000000000001</ele><time>2026-04-12T11:27:55.601Z</time></trkpt><trkpt lat="43.550989" lon="11.3883692"><ele>900.2</ele><time>2026-04-12T11:27:56.6Z</time></trkpt><trkpt lat="43.5509023" lon="11.3883393"><ele>899.6</ele><time>2026-04-12T11:27:57.6Z</time></trkpt><trkpt lat="43.5508148" lon="11.3883075"><ele>899.0</ele><time>2026-04-12T11:27:58.601Z</time></trkpt><trkpt lat="43.5507134" lon="11.3882579"><ele>899.0</ele><time>2026-04-12T11:27:59.601Z</time></trkpt><trkpt lat="43.5506122" lon="11.3881947"><ele>899.0000000000001</ele><time>2026-04-12T11:28:00.601Z</time></trkpt><trkpt lat="43.5505094" lon="11.3881299"><ele>899.0000000000001</ele><time>2026-04-12T11:28:01.6Z</time></trkpt><trkpt lat="43.5504188" lon="11.3880706"><ele>899.0</ele><time>2026-04-12T11:28:02.6Z</time></trkpt><trkpt lat="43.5503416" lon="11.388009"><ele>899.0</ele><time>2026-04-12T11:28:03.601Z</time></trkpt><trkpt lat="43.5502741" lon="11.3879407"><ele>695.0</ele><time>2026-04-12T11:28:04.6Z</time></trkpt><trkpt lat="43.5619871" lon="11.3892296"><ele>710.0</ele><time>2026-04-12T11:33:49.136Z</time></trkpt><trkpt lat="43.561487" lon="11.3887371"><ele>710.0</ele><time>2026-04-12T11:34:29.6Z</time></trkpt><trkpt lat="43.5613762" lon="11.3888316"><ele>710.0</ele><time>2026-04-12T11:34:30.596Z</time></trkpt><trkpt lat="43.5612664" lon="11.3888289"><ele>710.0</ele><time>2026-04-12T11:35:32.6Z</time></trkpt><trkpt lat="43.5611994" lon="11.3888822"><ele>710.0</ele><time>2026-04-12T11:35:33.6Z</time></trkpt><trkpt lat="43.561119" lon="11.3889506"><ele>710.0</ele><time>2026-04-12T11:35:34.601Z</time></trkpt><trkpt lat="43.5610251" lon="11.3890168"><ele>708.5</ele><time>2026-04-12T11:35:35.601Z</time></trkpt><trkpt lat="43.560911" lon="11.3890964"><ele>707.0</ele><time>2026-04-12T11:35:36.6Z</time></trkpt><trkpt lat="43.5608007" lon="11.3891726"><ele>705.5</ele><time>2026-04-12T11:35:37.601Z</time></trkpt><trkpt lat="43.5607009" lon="11.389259"><ele>704.0</ele><time>2026-04-12T11:35:38.6Z</time></trkpt><trkpt lat="43.5606147" lon="11.3893622"><ele>704.0</ele><time>2026-04-12T11:35:39.6Z</time></trkpt><trkpt lat="43.5605448" lon="11.3894723"><ele>704.0</ele><time>2026-04-12T11:35:40.601Z</time></trkpt><trkpt lat="43.5604783" lon="11.3895806"><ele>704.0</ele><time>2026-04-12T11:35:41.6Z</time></trkpt><trkpt lat="43.5604063" lon="11.3896857"><ele>704.0</ele><time>2026-04-12T11:35:42.601Z</time></trkpt><trkpt lat="43.5603378" lon="11.3897891"><ele>704.0</ele><time>2026-04-12T11:35:43.601Z</time></trkpt><trkpt lat="43.5602635" lon="11.3898909"><ele>704.0</ele><time>2026-04-12T11:35:44.6Z</time></trkpt><trkpt lat="43.5601819" lon="11.3899989"><ele>704.0</ele><time>2026-04-12T11:35:45.601Z</time></trkpt><trkpt lat="43.5601099" lon="11.3900959"><ele>704.0</ele><time>2026-04-12T11:35:46.6Z</time></trkpt><trkpt lat="43.560033" lon="11.3901917"><ele>704.0</ele><time>2026-04-12T11:35:47.6Z</time></trkpt><trkpt lat="43.5599696" lon="11.3902894"><ele>704.0</ele><time>2026-04-12T11:35:48.601Z</time></trkpt><trkpt lat="43.5599138" lon="11.3904001"><ele>702.6666666666666</ele><time>2026-04-12T11:35:49.6Z</time></trkpt><trkpt lat="43.5598732" lon="11.390516"><ele>701.3333333333333</ele><time>2026-04-12T11:35:50.6Z</time></trkpt><trkpt lat="43.5598491" lon="11.3906286"><ele>700.0</ele><time>2026-04-12T11:35:51.601Z</time></trkpt><trkpt lat="43.5598354" lon="11.3907279"><ele>698.6666666666666</ele><time>2026-04-12T11:35:52.6Z</time></trkpt><trkpt lat="43.5598245" lon="11.3908159"><ele>697.3333333333334</ele><time>2026-04-12T11:35:53.6Z</time></trkpt><trkpt lat="43.5598171" lon="11.3909149"><ele>696.0</ele><time>2026-04-12T11:35:55.6Z</time></trkpt><trkpt lat="43.5598931" lon="11.3909122"><ele>696.0</ele><time>2026-04-12T11:35:58.601Z</time></trkpt><trkpt lat="43.5599863" lon="11.3908489"><ele>696.0</ele><time>2026-04-12T11:36:00.6Z</time></trkpt><trkpt lat="43.5600892" lon="11.3908027"><ele>696.0</ele><time>2026-04-12T11:36:02.601Z</time></trkpt><trkpt lat="43.5601512" lon="11.3907577"><ele>696.0</ele><time>2026-04-12T11:36:04.6Z</time></trkpt><trkpt lat="43.5602164" lon="11.3907198"><ele>696.0</ele><time>2026-04-12T11:36:06.6Z</time></trkpt><trkpt lat="43.5602888" lon="11.3907158"><ele>696.0</ele><time>2026-04-12T11:36:09.6Z</time></trkpt><trkpt lat="43.5603679" lon="11.3907291"><ele>693.8571428571429</ele><time>2026-04-12T11:36:18.6Z</time></trkpt><trkpt lat="43.5604269" lon="11.3907868"><ele>691.7142857142858</ele><time>2026-04-12T11:36:20.6Z</time></trkpt><trkpt lat="43.5604712" lon="11.3908805"><ele>689.5714285714287</ele><time>2026-04-12T11:36:22.601Z</time></trkpt><trkpt lat="43.5605084" lon="11.3909574"><ele>687.4285714285714</ele><time>2026-04-12T11:36:24.6Z</time></trkpt><trkpt lat="43.5605419" lon="11.3910374"><ele>685.2857142857143</ele><time>2026-04-12T11:36:26.6Z</time></trkpt><trkpt lat="43.5605755" lon="11.3911111"><ele>683.1428571428572</ele><time>2026-04-12T11:36:28.6Z</time></trkpt><trkpt lat="43.5605955" lon="11.391235"><ele>681.0</ele><time>2026-04-12T11:36:31.601Z</time></trkpt><trkpt lat="43.5605842" lon="11.3913296"><ele>678.1999999999999</ele><time>2026-04-12T11:36:33.601Z</time></trkpt><trkpt lat="43.5605515" lon="11.3914165"><ele>675.4</ele><time>2026-04-12T11:36:42.601Z</time></trkpt><trkpt lat="43.5606374" lon="11.3914696"><ele>672.6</ele><time>2026-04-12T11:36:53.6Z</time></trkpt><trkpt lat="43.560584" lon="11.391562"><ele>669.8</ele><time>2026-04-12T11:37:26.6Z</time></trkpt><trkpt lat="43.5605457" lon="11.3917065"><ele>667.0</ele><time>2026-04-12T11:37:28.601Z</time></trkpt><trkpt lat="43.5605282" lon="11.3918413"><ele>667.0</ele><time>2026-04-12T11:37:30.6Z</time></trkpt><trkpt lat="43.5605031" lon="11.3919895"><ele>667.0</ele><time>2026-04-12T11:37:32.601Z</time></trkpt><trkpt lat="43.5604886" lon="11.392137"><ele>667.0</ele><time>2026-04-12T11:37:34.6Z</time></trkpt><trkpt lat="43.5604596" lon="11.3922705"><ele>667.0</ele><time>2026-04-12T11:37:36.601Z</time></trkpt><trkpt lat="43.5604266" lon="11.3924105"><ele>667.0</ele><time>2026-04-12T11:37:38.6Z</time></trkpt><trkpt lat="43.5604524" lon="11.3925505"><ele>665.0</ele><time>2026-04-12T11:37:40.6Z</time></trkpt><trkpt lat="43.5605385" lon="11.3926415"><ele>663.0</ele><time>2026-04-12T11:37:42.601Z</time></trkpt><trkpt lat="43.5606107" lon="11.3926757"><ele>661.0</ele><time>2026-04-12T11:37:44.601Z</time></trkpt><trkpt lat="43.5606623" lon="11.3927263"><ele>659.0</ele><time>2026-04-12T11:37:46.6Z</time></trkpt><trkpt lat="43.5607195" lon="11.3928135"><ele>657.0</ele><time>2026-04-12T11:37:50.601Z</time></trkpt><trkpt lat="43.5607895" lon="11.3928703"><ele>655.0</ele><time>2026-04-12T11:38:36.6Z</time></trkpt><trkpt lat="43.5608613" lon="11.3929356"><ele>653.2</ele><time>2026-04-12T11:38:38.601Z</time></trkpt><trkpt lat="43.5609627" lon="11.3930273"><ele>651.4</ele><time>2026-04-12T11:38:40.601Z</time></trkpt><trkpt lat="43.5610134" lon="11.3930859"><ele>649.5999999999999</ele><time>2026-04-12T11:38:41.6Z</time></trkpt><trkpt lat="43.5610623" lon="11.3931488"><ele>647.8</ele><time>2026-04-12T11:38:42.6Z</time></trkpt><trkpt lat="43.561167" lon="11.3932293"><ele>646.0</ele><time>2026-04-12T11:38:44.6Z</time></trkpt><trkpt lat="43.5612777" lon="11.3932838"><ele>644.0</ele><time>2026-04-12T11:38:46.6Z</time></trkpt><trkpt lat="43.5613588" lon="11.3933305"><ele>642.0</ele><time>2026-04-12T11:38:48.6Z</time></trkpt><trkpt lat="43.5614312" lon="11.3933743"><ele>640.0</ele><time>2026-04-12T11:38:50.601Z</time></trkpt><trkpt lat="43.56148" lon="11.3934307"><ele>638.0</ele><time>2026-04-12T11:38:52.6Z</time></trkpt><trkpt lat="43.5615023" lon="11.3936481"><ele>636.0</ele><time>2026-04-12T11:39:07.702Z</time></trkpt><trkpt lat="43.5628161" lon="11.393292"><ele>581.0</ele><time>2026-04-12T11:40:15.601Z</time></trkpt><trkpt lat="43.5646548" lon="11.3941505"><ele>581.0</ele><time>2026-04-12T11:42:21.61Z</time></trkpt><trkpt lat="43.5644684" lon="11.3941567"><ele>581.0</ele><time>2026-04-12T11:42:24.591Z</time></trkpt><trkpt lat="43.5644213" lon="11.3942251"><ele>581.0</ele><time>2026-04-12T11:42:25.592Z</time></trkpt><trkpt lat="43.5645314" lon="11.3941487"><ele>581.0</ele><time>2026-04-12T11:42:28.6Z</time></trkpt><trkpt lat="43.5645943" lon="11.3941923"><ele>581.0</ele><time>2026-04-12T11:42:51.6Z</time></trkpt><trkpt lat="43.5646093" lon="11.3941075"><ele>581.0</ele><time>2026-04-12T11:42:54.601Z</time></trkpt><trkpt lat="43.5645396" lon="11.3940834"><ele>581.0</ele><time>2026-04-12T11:42:57.6Z</time></trkpt><trkpt lat="43.5644507" lon="11.3940744"><ele>581.0</ele><time>2026-04-12T11:43:00.6Z</time></trkpt><trkpt lat="43.5643982" lon="11.3940262"><ele>581.0</ele><time>2026-04-12T11:43:03.6Z</time></trkpt><trkpt lat="43.5644505" lon="11.3939733"><ele>581.0</ele><time>2026-04-12T11:43:05.6Z</time></trkpt><trkpt lat="43.5645255" lon="11.3938766"><ele>581.0</ele><time>2026-04-12T11:43:07.6Z</time></trkpt><trkpt lat="43.5646052" lon="11.3938147"><ele>582.4285714285714</ele><time>2026-04-12T11:43:09.601Z</time></trkpt><trkpt lat="43.5646587" lon="11.3937477"><ele>583.8571428571429</ele><time>2026-04-12T11:43:12.601Z</time></trkpt><trkpt lat="43.5647132" lon="11.3936937"><ele>585.2857142857142</ele><time>2026-04-12T11:43:16.601Z</time></trkpt><trkpt lat="43.5647243" lon="11.3936069"><ele>586.7142857142858</ele><time>2026-04-12T11:43:20.6Z</time></trkpt><trkpt lat="43.564655" lon="11.3936651"><ele>588.1428571428571</ele><time>2026-04-12T11:43:24.601Z</time></trkpt><trkpt lat="43.5645945" lon="11.393725"><ele>589.5714285714286</ele><time>2026-04-12T11:43:26.601Z</time></trkpt><trkpt lat="43.5645112" lon="11.3937373"><ele>591.0</ele><time>2026-04-12T11:43:28.6Z</time></trkpt><trkpt lat="43.5644141" lon="11.3937662"><ele>595.2</ele><time>2026-04-12T11:43:30.601Z</time></trkpt><trkpt lat="43.5642952" lon="11.393737"><ele>599.4000000000001</ele><time>2026-04-12T11:43:32.6Z</time></trkpt><trkpt lat="43.5642255" lon="11.3937206"><ele>603.6</ele><time>2026-04-12T11:43:33.6Z</time></trkpt><trkpt lat="43.5641013" lon="11.3936879"><ele>607.8000000000001</ele><time>2026-04-12T11:43:35.6Z</time></trkpt><trkpt lat="43.5639973" lon="11.3936681"><ele>612.0</ele><time>2026-04-12T11:43:37.601Z</time></trkpt><trkpt lat="43.5639113" lon="11.3936799"><ele>612.0</ele><time>2026-04-12T11:43:39.601Z</time></trkpt><trkpt lat="43.5638175" lon="11.3936871"><ele>612.0</ele><time>2026-04-12T11:43:41.6Z</time></trkpt><trkpt lat="43.5637323" lon="11.3936493"><ele>612.0</ele><time>2026-04-12T11:43:43.6Z</time></trkpt><trkpt lat="43.5636842" lon="11.3935921"><ele>612.0</ele><time>2026-04-12T11:43:44.6Z</time></trkpt><trkpt lat="43.5636032" lon="11.393459"><ele>612.0</ele><time>2026-04-12T11:43:46.6Z</time></trkpt><trkpt lat="43.5635568" lon="11.393329"><ele>614.2</ele><time>2026-04-12T11:43:48.601Z</time></trkpt><trkpt lat="43.5635544" lon="11.3931991"><ele>616.4000000000001</ele><time>2026-04-12T11:43:50.6Z</time></trkpt><trkpt lat="43.5635646" lon="11.393079"><ele>618.5999999999999</ele><time>2026-04-12T11:43:52.6Z</time></trkpt><trkpt lat="43.5635285" lon="11.3930018"><ele>620.8</ele><time>2026-04-12T11:43:54.601Z</time></trkpt><trkpt lat="43.5634373" lon="11.3930042"><ele>623.0</ele><time>2026-04-12T11:43:57.6Z</time></trkpt><trkpt lat="43.5632978" lon="11.393087"><ele>623.0</ele><time>2026-04-12T11:43:59.601Z</time></trkpt><trkpt lat="43.563208" lon="11.3931707"><ele>623.0</ele><time>2026-04-12T11:44:00.601Z</time></trkpt><trkpt lat="43.5631128" lon="11.3932495"><ele>623.0</ele><time>2026-04-12T11:44:01.6Z</time></trkpt><trkpt lat="43.5630165" lon="11.3933191"><ele>623.0</ele><time>2026-04-12T11:44:02.601Z</time></trkpt><trkpt lat="43.5629363" lon="11.3933782"><ele>623.0</ele><time>2026-04-12T11:44:03.6Z</time></trkpt><trkpt lat="43.5628652" lon="11.3934455"><ele>624.3333333333333</ele><time>2026-04-12T11:44:04.6Z</time></trkpt><trkpt lat="43.5628018" lon="11.3935067"><ele>625.6666666666666</ele><time>2026-04-12T11:44:05.6Z</time></trkpt><trkpt lat="43.5627509" lon="11.3935614"><ele>627.0</ele><time>2026-04-12T11:44:06.6Z</time></trkpt><trkpt lat="43.5626951" lon="11.3936208"><ele>628.3333333333334</ele><time>2026-04-12T11:44:07.601Z</time></trkpt><trkpt lat="43.5625772" lon="11.39369"><ele>629.6666666666667</ele><time>2026-04-12T11:44:09.6Z</time></trkpt><trkpt lat="43.5624985" lon="11.3937029"><ele>631.0</ele><time>2026-04-12T11:44:10.601Z</time></trkpt><trkpt lat="43.5624277" lon="11.3937083"><ele>631.0</ele><time>2026-04-12T11:44:11.6Z</time></trkpt><trkpt lat="43.562362" lon="11.3937035"><ele>631.0</ele><time>2026-04-12T11:44:12.6Z</time></trkpt><trkpt lat="43.5622896" lon="11.3936921"><ele>631.0</ele><time>2026-04-12T11:44:13.6Z</time></trkpt><trkpt lat="43.5622191" lon="11.393698"><ele>631.0</ele><time>2026-04-12T11:44:14.601Z</time></trkpt><trkpt lat="43.5621458" lon="11.3937231"><ele>631.0</ele><time>2026-04-12T11:44:15.601Z</time></trkpt><trkpt lat="43.5620654" lon="11.3937605"><ele>631.0</ele><time>2026-04-12T11:44:16.601Z</time></trkpt><trkpt lat="43.5619547" lon="11.3937558"><ele>632.0</ele><time>2026-04-12T11:44:17.601Z</time></trkpt><trkpt lat="43.5618326" lon="11.39372"><ele>633.0</ele><time>2026-04-12T11:44:18.6Z</time></trkpt><trkpt lat="43.5617271" lon="11.3937"><ele>634.0</ele><time>2026-04-12T11:44:19.6Z</time></trkpt><trkpt lat="43.5616411" lon="11.3936726"><ele>635.0</ele><time>2026-04-12T11:44:20.6Z</time></trkpt><trkpt lat="43.5615523" lon="11.3936562"><ele>636.0</ele><time>2026-04-12T11:44:22.6Z</time></trkpt><trkpt lat="43.5614844" lon="11.3936608"><ele>636.0</ele><time>2026-04-12T11:44:34.601Z</time></trkpt><trkpt lat="43.5614609" lon="11.3937629"><ele>636.0</ele><time>2026-04-12T11:44:35.601Z</time></trkpt><trkpt lat="43.5614443" lon="11.3939132"><ele>636.0</ele><time>2026-04-12T11:44:37.6Z</time></trkpt><trkpt lat="43.5614826" lon="11.3940234"><ele>636.0</ele><time>2026-04-12T11:44:39.601Z</time></trkpt><trkpt lat="43.5615622" lon="11.3941259"><ele>636.0</ele><time>2026-04-12T11:44:41.601Z</time></trkpt><trkpt lat="43.5616467" lon="11.3942061"><ele>635.8333333333334</ele><time>2026-04-12T11:44:43.6Z</time></trkpt><trkpt lat="43.5616868" lon="11.3942791"><ele>635.6666666666666</ele><time>2026-04-12T11:44:45.601Z</time></trkpt><trkpt lat="43.5617364" lon="11.39437"><ele>635.5</ele><time>2026-04-12T11:44:48.6Z</time></trkpt><trkpt lat="43.5617907" lon="11.3944348"><ele>635.3333333333333</ele><time>2026-04-12T11:44:51.6Z</time></trkpt><trkpt lat="43.5618486" lon="11.3944733"><ele>635.1666666666666</ele><time>2026-04-12T11:44:54.601Z</time></trkpt><trkpt lat="43.5618224" lon="11.3945825"><ele>635.0</ele><time>2026-04-12T11:45:06.601Z</time></trkpt><trkpt lat="43.5617657" lon="11.3946841"><ele>633.6666666666666</ele><time>2026-04-12T11:45:08.601Z</time></trkpt><trkpt lat="43.5617057" lon="11.3947695"><ele>632.3333333333333</ele><time>2026-04-12T11:45:10.601Z</time></trkpt><trkpt lat="43.5616424" lon="11.3948521"><ele>631.0</ele><time>2026-04-12T11:45:12.601Z</time></trkpt><trkpt lat="43.5616295" lon="11.3949493"><ele>629.6666666666666</ele><time>2026-04-12T11:45:14.601Z</time></trkpt><trkpt lat="43.561624" lon="11.3950423"><ele>628.3333333333334</ele><time>2026-04-12T11:45:17.601Z</time></trkpt><trkpt lat="43.5616257" lon="11.3951505"><ele>627.0</ele><time>2026-04-12T11:46:19.601Z</time></trkpt><trkpt lat="43.5616801" lon="11.3952285"><ele>627.0</ele><time>2026-04-12T11:46:21.6Z</time></trkpt><trkpt lat="43.5617664" lon="11.3952782"><ele>627.0</ele><time>2026-04-12T11:46:23.6Z</time></trkpt><trkpt lat="43.5618629" lon="11.3953206"><ele>627.0</ele><time>2026-04-12T11:46:25.6Z</time></trkpt><trkpt lat="43.5619398" lon="11.3953557"><ele>627.0</ele><time>2026-04-12T11:46:27.6Z</time></trkpt><trkpt lat="43.5620259" lon="11.3953914"><ele>627.0</ele><time>2026-04-12T11:46:29.601Z</time></trkpt><trkpt lat="43.5621198" lon="11.395442"><ele>623.8333333333334</ele><time>2026-04-12T11:46:31.6Z</time></trkpt><trkpt lat="43.5622343" lon="11.3955189"><ele>620.6666666666666</ele><time>2026-04-12T11:46:33.6Z</time></trkpt><trkpt lat="43.5622964" lon="11.3955615"><ele>617.5</ele><time>2026-04-12T11:46:34.601Z</time></trkpt><trkpt lat="43.5623537" lon="11.3956051"><ele>614.3333333333333</ele><time>2026-04-12T11:46:35.601Z</time></trkpt><trkpt lat="43.562408" lon="11.3956548"><ele>611.1666666666666</ele><time>2026-04-12T11:46:36.601Z</time></trkpt><trkpt lat="43.5625027" lon="11.3957325"><ele>608.0</ele><time>2026-04-12T11:46:38.6Z</time></trkpt><trkpt lat="43.5625741" lon="11.3958095"><ele>608.0</ele><time>2026-04-12T11:46:40.6Z</time></trkpt><trkpt lat="43.5626515" lon="11.3958765"><ele>608.0</ele><time>2026-04-12T11:46:42.6Z</time></trkpt><trkpt lat="43.5627185" lon="11.3958983"><ele>608.0</ele><time>2026-04-12T11:46:44.601Z</time></trkpt><trkpt lat="43.5627892" lon="11.3959117"><ele>608.0</ele><time>2026-04-12T11:46:46.601Z</time></trkpt><trkpt lat="43.5628819" lon="11.3958986"><ele>608.0</ele><time>2026-04-12T11:46:49.601Z</time></trkpt><trkpt lat="43.5629521" lon="11.3958838"><ele>608.0</ele><time>2026-04-12T11:46:51.6Z</time></trkpt><trkpt lat="43.5630369" lon="11.3958627"><ele>606.8571428571428</ele><time>2026-04-12T11:46:54.6Z</time></trkpt><trkpt lat="43.5631078" lon="11.3958309"><ele>605.7142857142858</ele><time>2026-04-12T11:46:57.6Z</time></trkpt><trkpt lat="43.5631835" lon="11.3958688"><ele>604.5714285714286</ele><time>2026-04-12T11:46:59.6Z</time></trkpt><trkpt lat="43.5631969" lon="11.3959717"><ele>603.4285714285713</ele><time>2026-04-12T11:47:02.601Z</time></trkpt><trkpt lat="43.5632602" lon="11.3959626"><ele>602.2857142857142</ele><time>2026-04-12T11:47:07.6Z</time></trkpt><trkpt lat="43.5633002" lon="11.3958803"><ele>601.1428571428571</ele><time>2026-04-12T11:47:09.601Z</time></trkpt><trkpt lat="43.5633551" lon="11.395833"><ele>600.0</ele><time>2026-04-12T11:47:12.601Z</time></trkpt><trkpt lat="43.5634236" lon="11.3958304"><ele>600.0</ele><time>2026-04-12T11:47:14.6Z</time></trkpt><trkpt lat="43.5634927" lon="11.3958512"><ele>600.0</ele><time>2026-04-12T11:47:16.6Z</time></trkpt><trkpt lat="43.5635565" lon="11.3958551"><ele>600.0</ele><time>2026-04-12T11:47:18.6Z</time></trkpt><trkpt lat="43.5636372" lon="11.3958555"><ele>600.0</ele><time>2026-04-12T11:47:20.6Z</time></trkpt><trkpt lat="43.5637284" lon="11.3958383"><ele>600.0</ele><time>2026-04-12T11:47:22.6Z</time></trkpt><trkpt lat="43.5638196" lon="11.395777"><ele>600.0</ele><time>2026-04-12T11:47:24.6Z</time></trkpt><trkpt lat="43.5638872" lon="11.3957214"><ele>598.5</ele><time>2026-04-12T11:47:26.601Z</time></trkpt><trkpt lat="43.5639572" lon="11.3956829"><ele>597.0</ele><time>2026-04-12T11:47:28.601Z</time></trkpt><trkpt lat="43.5640564" lon="11.3956548"><ele>595.5</ele><time>2026-04-12T11:47:30.6Z</time></trkpt><trkpt lat="43.5641531" lon="11.3956263"><ele>594.0</ele><time>2026-04-12T11:47:32.601Z</time></trkpt><trkpt lat="43.5642449" lon="11.3955919"><ele>592.5</ele><time>2026-04-12T11:47:34.601Z</time></trkpt><trkpt lat="43.564312" lon="11.3955642"><ele>591.0</ele><time>2026-04-12T11:47:36.601Z</time></trkpt><trkpt lat="43.564405" lon="11.3955335"><ele>591.0</ele><time>2026-04-12T11:48:11.6Z</time></trkpt><trkpt lat="43.5644754" lon="11.3955176"><ele>591.0</ele><time>2026-04-12T11:48:12.6Z</time></trkpt><trkpt lat="43.5645891" lon="11.3954768"><ele>591.0</ele><time>2026-04-12T11:48:14.601Z</time></trkpt><trkpt lat="43.5646635" lon="11.3954212"><ele>591.0</ele><time>2026-04-12T11:48:16.6Z</time></trkpt><trkpt lat="43.5647336" lon="11.3954011"><ele>591.0</ele><time>2026-04-12T11:48:18.601Z</time></trkpt><trkpt lat="43.5648015" lon="11.3954048"><ele>591.0</ele><time>2026-04-12T11:48:20.601Z</time></trkpt><trkpt lat="43.5648921" lon="11.3954691"><ele>587.0</ele><time>2026-04-12T11:48:22.601Z</time></trkpt><trkpt lat="43.5649862" lon="11.3954826"><ele>583.0</ele><time>2026-04-12T11:48:24.601Z</time></trkpt><trkpt lat="43.5650935" lon="11.3954656"><ele>579.0</ele><time>2026-04-12T11:48:26.601Z</time></trkpt><trkpt lat="43.5651573" lon="11.3954183"><ele>575.0</ele><time>2026-04-12T11:48:27.6Z</time></trkpt><trkpt lat="43.5653597" lon="11.3952639"><ele>573.6</ele><time>2026-04-12T11:48:42.435Z</time></trkpt><trkpt lat="43.5654668" lon="11.3951418"><ele>572.2</ele><time>2026-04-12T11:50:10.6Z</time></trkpt><trkpt lat="43.5655201" lon="11.3950924"><ele>570.8</ele><time>2026-04-12T11:50:11.6Z</time></trkpt><trkpt lat="43.5656236" lon="11.3949771"><ele>569.4</ele><time>2026-04-12T11:50:13.6Z</time></trkpt><trkpt lat="43.5656808" lon="11.3949327"><ele>568.0</ele><time>2026-04-12T11:50:14.601Z</time></trkpt><trkpt lat="43.5657382" lon="11.3948868"><ele>568.0</ele><time>2026-04-12T11:50:15.6Z</time></trkpt><trkpt lat="43.5657959" lon="11.3948449"><ele>568.0</ele><time>2026-04-12T11:50:16.6Z</time></trkpt><trkpt lat="43.5659227" lon="11.3947661"><ele>568.0</ele><time>2026-04-12T11:50:18.601Z</time></trkpt><trkpt lat="43.5660101" lon="11.3947354"><ele>568.0</ele><time>2026-04-12T11:50:19.6Z</time></trkpt><trkpt lat="43.5660895" lon="11.3946966"><ele>568.0</ele><time>2026-04-12T11:50:20.6Z</time></trkpt><trkpt lat="43.5661601" lon="11.3946543"><ele>563.75</ele><time>2026-04-12T11:50:21.6Z</time></trkpt><trkpt lat="43.566231" lon="11.394609"><ele>559.5</ele><time>2026-04-12T11:50:22.601Z</time></trkpt><trkpt lat="43.5663018" lon="11.3945564"><ele>555.25</ele><time>2026-04-12T11:50:23.601Z</time></trkpt><trkpt lat="43.5663761" lon="11.3945071"><ele>551.0</ele><time>2026-04-12T11:50:24.601Z</time></trkpt><trkpt lat="43.5718316" lon="11.3916704"><ele>536.4</ele><time>2026-04-12T11:52:50.103Z</time></trkpt><trkpt lat="43.5718873" lon="11.3915764"><ele>521.8</ele><time>2026-04-12T11:53:21.6Z</time></trkpt><trkpt lat="43.5719553" lon="11.39162"><ele>507.19999999999993</ele><time>2026-04-12T11:53:25.601Z</time></trkpt><trkpt lat="43.5720717" lon="11.3916705"><ele>492.59999999999997</ele><time>2026-04-12T11:53:27.6Z</time></trkpt><trkpt lat="43.5721522" lon="11.3916982"><ele>478.0</ele><time>2026-04-12T11:53:28.6Z</time></trkpt><trkpt lat="43.5722278" lon="11.3917462"><ele>476.4285714285715</ele><time>2026-04-12T11:53:29.601Z</time></trkpt><trkpt lat="43.5722929" lon="11.391797"><ele>474.8571428571429</ele><time>2026-04-12T11:53:30.6Z</time></trkpt><trkpt lat="43.5723495" lon="11.3918441"><ele>473.2857142857143</ele><time>2026-04-12T11:53:31.601Z</time></trkpt><trkpt lat="43.5724076" lon="11.3919005"><ele>471.7142857142857</ele><time>2026-04-12T11:53:32.6Z</time></trkpt><trkpt lat="43.5724697" lon="11.3919637"><ele>470.1428571428571</ele><time>2026-04-12T11:53:33.6Z</time></trkpt><trkpt lat="43.5725299" lon="11.3920256"><ele>468.5714285714285</ele><time>2026-04-12T11:53:34.601Z</time></trkpt><trkpt lat="43.5725866" lon="11.3920805"><ele>466.99999999999994</ele><time>2026-04-12T11:53:35.601Z</time></trkpt><trkpt lat="43.57264" lon="11.3921282"><ele>467.20000000000005</ele><time>2026-04-12T11:53:36.601Z</time></trkpt><trkpt lat="43.5727415" lon="11.3922159"><ele>467.40000000000003</ele><time>2026-04-12T11:53:38.6Z</time></trkpt><trkpt lat="43.5727945" lon="11.3922676"><ele>467.59999999999997</ele><time>2026-04-12T11:53:39.6Z</time></trkpt><trkpt lat="43.5728957" lon="11.3923629"><ele>467.79999999999995</ele><time>2026-04-12T11:53:41.6Z</time></trkpt><trkpt lat="43.5729741" lon="11.3924484"><ele>468.0</ele><time>2026-04-12T11:53:43.6Z</time></trkpt><trkpt lat="43.5730462" lon="11.3925285"><ele>465.79999999999995</ele><time>2026-04-12T11:53:45.6Z</time></trkpt><trkpt lat="43.5731335" lon="11.3926107"><ele>463.59999999999997</ele><time>2026-04-12T11:53:47.601Z</time></trkpt><trkpt lat="43.5732294" lon="11.3926668"><ele>461.40000000000003</ele><time>2026-04-12T11:53:49.601Z</time></trkpt><trkpt lat="43.5733195" lon="11.3926853"><ele>459.20000000000005</ele><time>2026-04-12T11:53:51.601Z</time></trkpt><trkpt lat="43.5734478" lon="11.3927353"><ele>457.0</ele><time>2026-04-12T11:53:53.601Z</time></trkpt><trkpt lat="43.5735086" lon="11.3927596"><ele>457.0</ele><time>2026-04-12T11:53:54.601Z</time></trkpt><trkpt lat="43.573605" lon="11.3928359"><ele>457.00000000000006</ele><time>2026-04-12T11:53:56.601Z</time></trkpt><trkpt lat="43.5737032" lon="11.3929003"><ele>457.00000000000006</ele><time>2026-04-12T11:53:58.601Z</time></trkpt><trkpt lat="43.573798" lon="11.3929524"><ele>457.0</ele><time>2026-04-12T11:54:00.6Z</time></trkpt><trkpt lat="43.5738742" lon="11.3929475"><ele>457.0</ele><time>2026-04-12T11:54:02.601Z</time></trkpt><trkpt lat="43.5739434" lon="11.392858"><ele>455.8</ele><time>2026-04-12T11:54:04.601Z</time></trkpt><trkpt lat="43.5740249" lon="11.3928633"><ele>454.6</ele><time>2026-04-12T11:54:06.6Z</time></trkpt><trkpt lat="43.574123" lon="11.3929656"><ele>453.40000000000003</ele><time>2026-04-12T11:54:08.6Z</time></trkpt><trkpt lat="43.5742259" lon="11.3930586"><ele>452.20000000000005</ele><time>2026-04-12T11:54:10.6Z</time></trkpt><trkpt lat="43.5742875" lon="11.3931083"><ele>451.0</ele><time>2026-04-12T11:54:11.601Z</time></trkpt><trkpt lat="43.5743635" lon="11.3931541"><ele>450.57142857142856</ele><time>2026-04-12T11:54:12.601Z</time></trkpt><trkpt lat="43.5744262" lon="11.3931949"><ele>450.14285714285717</ele><time>2026-04-12T11:54:13.601Z</time></trkpt><trkpt lat="43.5744948" lon="11.3932408"><ele>449.7142857142857</ele><time>2026-04-12T11:54:14.601Z</time></trkpt><trkpt lat="43.5745614" lon="11.3932933"><ele>449.2857142857143</ele><time>2026-04-12T11:54:15.6Z</time></trkpt><trkpt lat="43.5746255" lon="11.3933336"><ele>448.8571428571429</ele><time>2026-04-12T11:54:16.601Z</time></trkpt><trkpt lat="43.5746908" lon="11.3933784"><ele>448.42857142857144</ele><time>2026-04-12T11:54:17.6Z</time></trkpt><trkpt lat="43.5747585" lon="11.3934253"><ele>448.0</ele><time>2026-04-12T11:54:18.6Z</time></trkpt><trkpt lat="43.5748174" lon="11.3934688"><ele>447.0</ele><time>2026-04-12T11:54:19.601Z</time></trkpt><trkpt lat="43.5748824" lon="11.3935108"><ele>446.0</ele><time>2026-04-12T11:54:20.6Z</time></trkpt><trkpt lat="43.5749481" lon="11.3935507"><ele>445.0</ele><time>2026-04-12T11:54:21.6Z</time></trkpt><trkpt lat="43.5750162" lon="11.3935915"><ele>444.0</ele><time>2026-04-12T11:54:22.6Z</time></trkpt><trkpt lat="43.5750856" lon="11.3936283"><ele>443.0</ele><time>2026-04-12T11:54:23.601Z</time></trkpt><trkpt lat="43.5751465" lon="11.3936732"><ele>442.0</ele><time>2026-04-12T11:54:24.6Z</time></trkpt><trkpt lat="43.5752018" lon="11.3937157"><ele>441.0</ele><time>2026-04-12T11:54:25.601Z</time></trkpt><trkpt lat="43.57531" lon="11.3937791"><ele>440.20000000000005</ele><time>2026-04-12T11:54:27.601Z</time></trkpt><trkpt lat="43.5754163" lon="11.3938411"><ele>439.40000000000003</ele><time>2026-04-12T11:54:29.6Z</time></trkpt><trkpt lat="43.5755249" lon="11.3938901"><ele>438.6</ele><time>2026-04-12T11:54:31.6Z</time></trkpt><trkpt lat="43.5755822" lon="11.3939272"><ele>437.8</ele><time>2026-04-12T11:54:32.601Z</time></trkpt><trkpt lat="43.5756372" lon="11.3939716"><ele>437.0</ele><time>2026-04-12T11:54:33.6Z</time></trkpt><trkpt lat="43.575738" lon="11.3940545"><ele>437.0</ele><time>2026-04-12T11:54:35.6Z</time></trkpt><trkpt lat="43.5758218" lon="11.3941288"><ele>437.0</ele><time>2026-04-12T11:54:37.6Z</time></trkpt><trkpt lat="43.5759114" lon="11.3942483"><ele>437.0</ele><time>2026-04-12T11:54:39.6Z</time></trkpt><trkpt lat="43.5759979" lon="11.3943624"><ele>437.0</ele><time>2026-04-12T11:54:41.601Z</time></trkpt><trkpt lat="43.5760853" lon="11.3944544"><ele>437.0</ele><time>2026-04-12T11:54:43.601Z</time></trkpt><trkpt lat="43.5761703" lon="11.3945526"><ele>437.0</ele><time>2026-04-12T11:54:45.601Z</time></trkpt><trkpt lat="43.5762051" lon="11.3946876"><ele>437.0</ele><time>2026-04-12T11:54:47.6Z</time></trkpt><trkpt lat="43.5762398" lon="11.394844"><ele>437.0</ele><time>2026-04-12T11:54:49.6Z</time></trkpt><trkpt lat="43.5762883" lon="11.3949921"><ele>436.49999999999994</ele><time>2026-04-12T11:54:51.6Z</time></trkpt><trkpt lat="43.5763101" lon="11.3951477"><ele>436.0</ele><time>2026-04-12T11:54:53.601Z</time></trkpt><trkpt lat="43.5763147" lon="11.3952356"><ele>435.5</ele><time>2026-04-12T11:54:54.6Z</time></trkpt><trkpt lat="43.576319" lon="11.3953386"><ele>435.0</ele><time>2026-04-12T11:54:55.601Z</time></trkpt><trkpt lat="43.5763229" lon="11.3954473"><ele>434.49999999999994</ele><time>2026-04-12T11:54:56.6Z</time></trkpt><trkpt lat="43.5763345" lon="11.3955486"><ele>434.0</ele><time>2026-04-12T11:54:57.6Z</time></trkpt><trkpt lat="43.5763482" lon="11.395657"><ele>433.99999999999994</ele><time>2026-04-12T11:54:58.6Z</time></trkpt><trkpt lat="43.5763626" lon="11.3957599"><ele>434.0</ele><time>2026-04-12T11:54:59.6Z</time></trkpt><trkpt lat="43.5763718" lon="11.3958605"><ele>434.0</ele><time>2026-04-12T11:55:00.601Z</time></trkpt><trkpt lat="43.5763872" lon="11.395962"><ele>434.0</ele><time>2026-04-12T11:55:01.601Z</time></trkpt><trkpt lat="43.5763924" lon="11.3960553"><ele>433.99999999999994</ele><time>2026-04-12T11:55:02.6Z</time></trkpt><trkpt lat="43.5763965" lon="11.3962226"><ele>434.0</ele><time>2026-04-12T11:55:04.601Z</time></trkpt><trkpt lat="43.5763608" lon="11.3963751"><ele>434.25</ele><time>2026-04-12T11:55:06.6Z</time></trkpt><trkpt lat="43.5763026" lon="11.3965052"><ele>434.5</ele><time>2026-04-12T11:55:08.6Z</time></trkpt><trkpt lat="43.5762493" lon="11.396641"><ele>434.75</ele><time>2026-04-12T11:55:10.6Z</time></trkpt><trkpt lat="43.5762316" lon="11.3967318"><ele>435.0</ele><time>2026-04-12T11:55:13.6Z</time></trkpt><trkpt lat="43.5802762" lon="11.3959862"><ele>429.8333333333333</ele><time>2026-04-12T11:57:49.061Z</time></trkpt><trkpt lat="43.5803284" lon="11.3960516"><ele>424.66666666666663</ele><time>2026-04-12T11:58:01.603Z</time></trkpt><trkpt lat="43.580317" lon="11.3959549"><ele>419.5</ele><time>2026-04-12T11:58:18.603Z</time></trkpt><trkpt lat="43.5803005" lon="11.3957921"><ele>414.3333333333333</ele><time>2026-04-12T11:58:20.603Z</time></trkpt><trkpt lat="43.5802926" lon="11.395698"><ele>409.16666666666663</ele><time>2026-04-12T11:58:21.602Z</time></trkpt><trkpt lat="43.580307" lon="11.3955409"><ele>404.0</ele><time>2026-04-12T11:58:23.603Z</time></trkpt><trkpt lat="43.5803684" lon="11.3954417"><ele>403.0</ele><time>2026-04-12T11:58:25.602Z</time></trkpt><trkpt lat="43.5804915" lon="11.3954043"><ele>402.0</ele><time>2026-04-12T11:58:27.602Z</time></trkpt><trkpt lat="43.5805545" lon="11.3953533"><ele>401.0</ele><time>2026-04-12T11:58:28.603Z</time></trkpt><trkpt lat="43.580656" lon="11.3952886"><ele>400.0</ele><time>2026-04-12T11:58:30.602Z</time></trkpt><trkpt lat="43.580724" lon="11.395286"><ele>399.0</ele><time>2026-04-12T11:58:31.602Z</time></trkpt><trkpt lat="43.5807942" lon="11.3952966"><ele>399.0</ele><time>2026-04-12T11:58:32.602Z</time></trkpt><trkpt lat="43.5808756" lon="11.3953047"><ele>399.0</ele><time>2026-04-12T11:58:33.602Z</time></trkpt><trkpt lat="43.5809672" lon="11.3953425"><ele>399.0</ele><time>2026-04-12T11:58:34.602Z</time></trkpt><trkpt lat="43.5810591" lon="11.3953351"><ele>399.0</ele><time>2026-04-12T11:58:35.602Z</time></trkpt><trkpt lat="43.5811511" lon="11.3953081"><ele>399.0</ele><time>2026-04-12T11:58:36.602Z</time></trkpt><trkpt lat="43.5812136" lon="11.3952772"><ele>399.0</ele><time>2026-04-12T11:58:37.602Z</time></trkpt><trkpt lat="43.5813473" lon="11.3952473"><ele>398.0</ele><time>2026-04-12T11:58:39.603Z</time></trkpt><trkpt lat="43.581422" lon="11.395243"><ele>397.0</ele><time>2026-04-12T11:58:40.603Z</time></trkpt><trkpt lat="43.581537" lon="11.395257"><ele>396.0</ele><time>2026-04-12T11:58:41.603Z</time></trkpt><trkpt lat="43.5816371" lon="11.3952332"><ele>395.0</ele><time>2026-04-12T11:58:42.602Z</time></trkpt><trkpt lat="43.581739" lon="11.3952126"><ele>394.0</ele><time>2026-04-12T11:58:43.602Z</time></trkpt><trkpt lat="43.5818306" lon="11.3951709"><ele>394.0</ele><time>2026-04-12T11:58:44.603Z</time></trkpt><trkpt lat="43.5819312" lon="11.3951049"><ele>394.0</ele><time>2026-04-12T11:58:45.603Z</time></trkpt><trkpt lat="43.5820156" lon="11.3950733"><ele>394.0</ele><time>2026-04-12T11:58:46.603Z</time></trkpt><trkpt lat="43.5821181" lon="11.3950672"><ele>394.0</ele><time>2026-04-12T11:58:47.602Z</time></trkpt><trkpt lat="43.582192" lon="11.3951009"><ele>394.0</ele><time>2026-04-12T11:58:48.603Z</time></trkpt><trkpt lat="43.5822705" lon="11.3951595"><ele>394.57142857142856</ele><time>2026-04-12T11:58:49.602Z</time></trkpt><trkpt lat="43.5823532" lon="11.3951933"><ele>395.14285714285717</ele><time>2026-04-12T11:58:50.602Z</time></trkpt><trkpt lat="43.5824219" lon="11.395164"><ele>395.71428571428567</ele><time>2026-04-12T11:58:51.602Z</time></trkpt><trkpt lat="43.582476" lon="11.3951088"><ele>396.2857142857143</ele><time>2026-04-12T11:58:52.602Z</time></trkpt><trkpt lat="43.5825208" lon="11.3950419"><ele>396.85714285714283</ele><time>2026-04-12T11:58:53.603Z</time></trkpt><trkpt lat="43.58257" lon="11.3949871"><ele>397.4285714285714</ele><time>2026-04-12T11:58:54.603Z</time></trkpt><trkpt lat="43.5826372" lon="11.3949784"><ele>398.0</ele><time>2026-04-12T11:58:55.602Z</time></trkpt><trkpt lat="43.5827634" lon="11.3949742"><ele>397.99999999999994</ele><time>2026-04-12T11:58:57.602Z</time></trkpt><trkpt lat="43.5828278" lon="11.3949784"><ele>398.0</ele><time>2026-04-12T11:58:58.602Z</time></trkpt><trkpt lat="43.5828999" lon="11.3949942"><ele>398.0</ele><time>2026-04-12T11:58:59.603Z</time></trkpt><trkpt lat="43.5829782" lon="11.3950058"><ele>398.0</ele><time>2026-04-12T11:59:00.602Z</time></trkpt><trkpt lat="43.5830836" lon="11.3949895"><ele>397.99999999999994</ele><time>2026-04-12T11:59:01.602Z</time></trkpt><trkpt lat="43.5831536" lon="11.3949353"><ele>398.0</ele><time>2026-04-12T11:59:02.602Z</time></trkpt><trkpt lat="43.5832218" lon="11.3948506"><ele>398.79999999999995</ele><time>2026-04-12T11:59:03.603Z</time></trkpt><trkpt lat="43.5832945" lon="11.3947485"><ele>399.6</ele><time>2026-04-12T11:59:04.602Z</time></trkpt><trkpt lat="43.5833867" lon="11.39465"><ele>400.4</ele><time>2026-04-12T11:59:05.603Z</time></trkpt><trkpt lat="43.5834746" lon="11.3945646"><ele>401.20000000000005</ele><time>2026-04-12T11:59:06.602Z</time></trkpt><trkpt lat="43.5835603" lon="11.3944774"><ele>402.0</ele><time>2026-04-12T11:59:07.603Z</time></trkpt><trkpt lat="43.583641" lon="11.3943942"><ele>403.8</ele><time>2026-04-12T11:59:08.602Z</time></trkpt><trkpt lat="43.5837261" lon="11.3943257"><ele>405.6</ele><time>2026-04-12T11:59:09.603Z</time></trkpt><trkpt lat="43.5837934" lon="11.3942589"><ele>407.40000000000003</ele><time>2026-04-12T11:59:10.602Z</time></trkpt><trkpt lat="43.5838674" lon="11.3941622"><ele>409.20000000000005</ele><time>2026-04-12T11:59:11.602Z</time></trkpt><trkpt lat="43.5839096" lon="11.3940376"><ele>411.0</ele><time>2026-04-12T11:59:12.602Z</time></trkpt><trkpt lat="43.5839354" lon="11.3939026"><ele>412.5</ele><time>2026-04-12T11:59:13.603Z</time></trkpt><trkpt lat="43.5839591" lon="11.3937865"><ele>414.0</ele><time>2026-04-12T11:59:14.602Z</time></trkpt><trkpt lat="43.5839801" lon="11.3936793"><ele>415.5</ele><time>2026-04-12T11:59:15.602Z</time></trkpt><trkpt lat="43.5840007" lon="11.393576"><ele>417.0</ele><time>2026-04-12T11:59:16.602Z</time></trkpt><trkpt lat="43.5840142" lon="11.3934625"><ele>418.5</ele><time>2026-04-12T11:59:17.602Z</time></trkpt><trkpt lat="43.5840164" lon="11.3933506"><ele>420.0</ele><time>2026-04-12T11:59:18.602Z</time></trkpt><trkpt lat="43.5840184" lon="11.3932247"><ele>420.0</ele><time>2026-04-12T11:59:19.603Z</time></trkpt><trkpt lat="43.5840149" lon="11.3930903"><ele>420.0</ele><time>2026-04-12T11:59:20.603Z</time></trkpt><trkpt lat="43.5840176" lon="11.3929712"><ele>420.0</ele><time>2026-04-12T11:59:21.603Z</time></trkpt><trkpt lat="43.5840384" lon="11.3928586"><ele>420.0</ele><time>2026-04-12T11:59:22.602Z</time></trkpt><trkpt lat="43.5840552" lon="11.3927313"><ele>420.0</ele><time>2026-04-12T11:59:23.603Z</time></trkpt><trkpt lat="43.5840606" lon="11.3926094"><ele>421.5</ele><time>2026-04-12T11:59:24.602Z</time></trkpt><trkpt lat="43.5840417" lon="11.3925115"><ele>423.0</ele><time>2026-04-12T11:59:25.603Z</time></trkpt><trkpt lat="43.5840101" lon="11.3924146"><ele>424.5</ele><time>2026-04-12T11:59:26.602Z</time></trkpt><trkpt lat="43.5839739" lon="11.392337"><ele>426.0</ele><time>2026-04-12T11:59:27.602Z</time></trkpt><trkpt lat="43.5839055" lon="11.3922519"><ele>427.5</ele><time>2026-04-12T11:59:28.603Z</time></trkpt><trkpt lat="43.5838301" lon="11.3921603"><ele>429.0</ele><time>2026-04-12T11:59:29.603Z</time></trkpt><trkpt lat="43.5837688" lon="11.3920741"><ele>429.3333333333333</ele><time>2026-04-12T11:59:30.603Z</time></trkpt><trkpt lat="43.5836882" lon="11.3919876"><ele>429.66666666666663</ele><time>2026-04-12T11:59:31.602Z</time></trkpt><trkpt lat="43.5836222" lon="11.3919226"><ele>430.0</ele><time>2026-04-12T11:59:32.603Z</time></trkpt><trkpt lat="43.5835548" lon="11.391877"><ele>430.3333333333333</ele><time>2026-04-12T11:59:33.602Z</time></trkpt><trkpt lat="43.5834825" lon="11.391829"><ele>430.66666666666663</ele><time>2026-04-12T11:59:34.602Z</time></trkpt><trkpt lat="43.5834142" lon="11.3917848"><ele>431.0</ele><time>2026-04-12T11:59:35.602Z</time></trkpt><trkpt lat="43.5833685" lon="11.3917165"><ele>430.99999999999994</ele><time>2026-04-12T11:59:36.602Z</time></trkpt><trkpt lat="43.5833281" lon="11.3916403"><ele>431.0</ele><time>2026-04-12T11:59:37.602Z</time></trkpt><trkpt lat="43.583287" lon="11.391556"><ele>431.0</ele><time>2026-04-12T11:59:38.602Z</time></trkpt><trkpt lat="43.5832499" lon="11.3914623"><ele>431.0</ele><time>2026-04-12T11:59:39.602Z</time></trkpt><trkpt lat="43.5832388" lon="11.3913411"><ele>430.99999999999994</ele><time>2026-04-12T11:59:40.602Z</time></trkpt><trkpt lat="43.583258" lon="11.3911937"><ele>431.0</ele><time>2026-04-12T11:59:41.602Z</time></trkpt><trkpt lat="43.5832814" lon="11.3910543"><ele>431.4</ele><time>2026-04-12T11:59:42.603Z</time></trkpt><trkpt lat="43.5833042" lon="11.3909198"><ele>431.8</ele><time>2026-04-12T11:59:43.603Z</time></trkpt><trkpt lat="43.5833251" lon="11.3907818"><ele>432.19999999999993</ele><time>2026-04-12T11:59:44.603Z</time></trkpt><trkpt lat="43.5833498" lon="11.3906326"><ele>432.59999999999997</ele><time>2026-04-12T11:59:45.602Z</time></trkpt><trkpt lat="43.5833771" lon="11.390476"><ele>433.0</ele><time>2026-04-12T11:59:46.603Z</time></trkpt><trkpt lat="43.5834008" lon="11.3903358"><ele>434.33333333333337</ele><time>2026-04-12T11:59:47.602Z</time></trkpt><trkpt lat="43.5834144" lon="11.3902233"><ele>435.6666666666667</ele><time>2026-04-12T11:59:48.603Z</time></trkpt><trkpt lat="43.5833833" lon="11.3900733"><ele>437.0</ele><time>2026-04-12T11:59:50.603Z</time></trkpt><trkpt lat="43.5833274" lon="11.3900302"><ele>438.33333333333337</ele><time>2026-04-12T11:59:51.602Z</time></trkpt><trkpt lat="43.58325" lon="11.3900075"><ele>439.6666666666667</ele><time>2026-04-12T11:59:52.602Z</time></trkpt><trkpt lat="43.5831631" lon="11.3899849"><ele>441.0</ele><time>2026-04-12T11:59:53.603Z</time></trkpt><trkpt lat="43.5830747" lon="11.3899497"><ele>441.0</ele><time>2026-04-12T11:59:54.603Z</time></trkpt><trkpt lat="43.5829862" lon="11.3898951"><ele>441.0</ele><time>2026-04-12T11:59:55.602Z</time></trkpt><trkpt lat="43.582891" lon="11.3898485"><ele>441.0</ele><time>2026-04-12T11:59:56.602Z</time></trkpt><trkpt lat="43.5828001" lon="11.3898032"><ele>441.0</ele><time>2026-04-12T11:59:57.602Z</time></trkpt><trkpt lat="43.5827172" lon="11.3897469"><ele>441.0</ele><time>2026-04-12T11:59:58.602Z</time></trkpt><trkpt lat="43.5826412" lon="11.3896936"><ele>443.6666666666667</ele><time>2026-04-12T11:59:59.602Z</time></trkpt><trkpt lat="43.582572" lon="11.3896526"><ele>446.33333333333337</ele><time>2026-04-12T12:00:00.603Z</time></trkpt><trkpt lat="43.5825144" lon="11.3896126"><ele>449.0</ele><time>2026-04-12T12:00:01.602Z</time></trkpt><trkpt lat="43.5824578" lon="11.3895703"><ele>451.6666666666667</ele><time>2026-04-12T12:00:02.603Z</time></trkpt><trkpt lat="43.582469" lon="11.3894682"><ele>454.33333333333337</ele><time>2026-04-12T12:00:05.602Z</time></trkpt><trkpt lat="43.5825884" lon="11.389382"><ele>457.0</ele><time>2026-04-12T12:00:07.602Z</time></trkpt><trkpt lat="43.5826525" lon="11.3893195"><ele>457.00000000000006</ele><time>2026-04-12T12:00:08.602Z</time></trkpt><trkpt lat="43.5827035" lon="11.3892615"><ele>457.0</ele><time>2026-04-12T12:00:09.603Z</time></trkpt><trkpt lat="43.5827568" lon="11.3892143"><ele>457.0</ele><time>2026-04-12T12:00:10.602Z</time></trkpt><trkpt lat="43.5828629" lon="11.3891372"><ele>457.0</ele><time>2026-04-12T12:00:12.603Z</time></trkpt><trkpt lat="43.5829264" lon="11.3891068"><ele>457.00000000000006</ele><time>2026-04-12T12:00:13.603Z</time></trkpt><trkpt lat="43.5830579" lon="11.3891191"><ele>457.0</ele><time>2026-04-12T12:00:15.602Z</time></trkpt><trkpt lat="43.5831276" lon="11.3891437"><ele>456.1666666666667</ele><time>2026-04-12T12:00:16.602Z</time></trkpt><trkpt lat="43.5831926" lon="11.3891556"><ele>455.33333333333337</ele><time>2026-04-12T12:00:17.603Z</time></trkpt><trkpt lat="43.5832976" lon="11.3891756"><ele>454.5</ele><time>2026-04-12T12:00:19.602Z</time></trkpt><trkpt lat="43.5833757" lon="11.389173"><ele>453.66666666666663</ele><time>2026-04-12T12:00:21.602Z</time></trkpt><trkpt lat="43.5834945" lon="11.3891637"><ele>452.8333333333333</ele><time>2026-04-12T12:00:23.603Z</time></trkpt><trkpt lat="43.583566" lon="11.3891905"><ele>452.0</ele><time>2026-04-12T12:00:24.602Z</time></trkpt><trkpt lat="43.5836706" lon="11.3892281"><ele>450.5</ele><time>2026-04-12T12:00:25.603Z</time></trkpt><trkpt lat="43.5837785" lon="11.3892646"><ele>449.0</ele><time>2026-04-12T12:00:26.602Z</time></trkpt><trkpt lat="43.5838855" lon="11.3893012"><ele>447.5</ele><time>2026-04-12T12:00:27.602Z</time></trkpt><trkpt lat="43.5840024" lon="11.3893489"><ele>446.0</ele><time>2026-04-12T12:00:28.603Z</time></trkpt><trkpt lat="43.5841207" lon="11.3893863"><ele>446.0</ele><time>2026-04-12T12:00:29.602Z</time></trkpt><trkpt lat="43.5842437" lon="11.3893947"><ele>446.0</ele><time>2026-04-12T12:00:30.603Z</time></trkpt><trkpt lat="43.584376" lon="11.3893923"><ele>446.0</ele><time>2026-04-12T12:00:31.603Z</time></trkpt><trkpt lat="43.5845116" lon="11.3893808"><ele>446.0</ele><time>2026-04-12T12:00:32.602Z</time></trkpt><trkpt lat="43.5846434" lon="11.3893481"><ele>447.0</ele><time>2026-04-12T12:00:33.603Z</time></trkpt><trkpt lat="43.5847698" lon="11.3892794"><ele>448.0</ele><time>2026-04-12T12:00:34.603Z</time></trkpt><trkpt lat="43.5848905" lon="11.389159"><ele>449.0</ele><time>2026-04-12T12:00:35.603Z</time></trkpt><trkpt lat="43.5850116" lon="11.3890198"><ele>450.0</ele><time>2026-04-12T12:00:36.602Z</time></trkpt><trkpt lat="43.5851351" lon="11.3888859"><ele>449.33333333333337</ele><time>2026-04-12T12:00:37.603Z</time></trkpt><trkpt lat="43.5852628" lon="11.3887463"><ele>448.6666666666667</ele><time>2026-04-12T12:00:38.602Z</time></trkpt><trkpt lat="43.5853857" lon="11.3886163"><ele>448.0</ele><time>2026-04-12T12:00:39.602Z</time></trkpt><trkpt lat="43.5854946" lon="11.3884845"><ele>448.0</ele><time>2026-04-12T12:00:40.603Z</time></trkpt><trkpt lat="43.5855921" lon="11.3883622"><ele>448.0</ele><time>2026-04-12T12:00:41.603Z</time></trkpt><trkpt lat="43.5856985" lon="11.3882576"><ele>448.0</ele><time>2026-04-12T12:00:42.602Z</time></trkpt><trkpt lat="43.5858038" lon="11.3881665"><ele>448.0</ele><time>2026-04-12T12:00:43.602Z</time></trkpt><trkpt lat="43.5859248" lon="11.3880831"><ele>448.0</ele><time>2026-04-12T12:00:44.603Z</time></trkpt><trkpt lat="43.5860492" lon="11.3880139"><ele>448.0</ele><time>2026-04-12T12:00:45.603Z</time></trkpt><trkpt lat="43.5861871" lon="11.3879717"><ele>448.0</ele><time>2026-04-12T12:00:46.602Z</time></trkpt><trkpt lat="43.5863324" lon="11.3879764"><ele>448.0</ele><time>2026-04-12T12:00:47.602Z</time></trkpt><trkpt lat="43.5864961" lon="11.3880137"><ele>447.33333333333337</ele><time>2026-04-12T12:00:48.603Z</time></trkpt><trkpt lat="43.5866525" lon="11.3880524"><ele>446.66666666666663</ele><time>2026-04-12T12:00:49.603Z</time></trkpt><trkpt lat="43.5868163" lon="11.3880887"><ele>446.0</ele><time>2026-04-12T12:00:50.602Z</time></trkpt><trkpt lat="43.5869774" lon="11.3881227"><ele>442.66666666666663</ele><time>2026-04-12T12:00:51.603Z</time></trkpt><trkpt lat="43.5871358" lon="11.3881544"><ele>439.33333333333337</ele><time>2026-04-12T12:00:52.602Z</time></trkpt><trkpt lat="43.5872931" lon="11.3881876"><ele>436.0</ele><time>2026-04-12T12:00:53.602Z</time></trkpt><trkpt lat="43.5874443" lon="11.3882211"><ele>436.0</ele><time>2026-04-12T12:00:54.603Z</time></trkpt><trkpt lat="43.5875917" lon="11.3882409"><ele>436.0</ele><time>2026-04-12T12:00:55.602Z</time></trkpt><trkpt lat="43.5877382" lon="11.3882691"><ele>436.0</ele><time>2026-04-12T12:00:56.603Z</time></trkpt><trkpt lat="43.5878828" lon="11.3883013"><ele>436.0</ele><time>2026-04-12T12:00:57.603Z</time></trkpt><trkpt lat="43.588019" lon="11.3883433"><ele>433.0</ele><time>2026-04-12T12:00:58.603Z</time></trkpt><trkpt lat="43.5881586" lon="11.3883975"><ele>430.0</ele><time>2026-04-12T12:00:59.602Z</time></trkpt><trkpt lat="43.5883055" lon="11.3884663"><ele>427.0</ele><time>2026-04-12T12:01:00.603Z</time></trkpt><trkpt lat="43.5884544" lon="11.3885429"><ele>427.0</ele><time>2026-04-12T12:01:01.603Z</time></trkpt><trkpt lat="43.5885981" lon="11.3886246"><ele>427.0</ele><time>2026-04-12T12:01:02.602Z</time></trkpt><trkpt lat="43.588745" lon="11.3887084"><ele>427.0</ele><time>2026-04-12T12:01:03.602Z</time></trkpt><trkpt lat="43.5888798" lon="11.3888"><ele>428.0</ele><time>2026-04-12T12:01:04.603Z</time></trkpt><trkpt lat="43.5890123" lon="11.3888965"><ele>429.0</ele><time>2026-04-12T12:01:05.602Z</time></trkpt><trkpt lat="43.5891409" lon="11.3889916"><ele>430.0</ele><time>2026-04-12T12:01:06.603Z</time></trkpt><trkpt lat="43.589266" lon="11.3890634"><ele>431.0</ele><time>2026-04-12T12:01:07.603Z</time></trkpt><trkpt lat="43.5894011" lon="11.389116"><ele>428.25</ele><time>2026-04-12T12:01:08.603Z</time></trkpt><trkpt lat="43.58954" lon="11.3891338"><ele>425.5</ele><time>2026-04-12T12:01:09.603Z</time></trkpt><trkpt lat="43.589689" lon="11.3891305"><ele>422.75</ele><time>2026-04-12T12:01:10.602Z</time></trkpt><trkpt lat="43.5898329" lon="11.3891224"><ele>420.0</ele><time>2026-04-12T12:01:11.602Z</time></trkpt><trkpt lat="43.5899776" lon="11.3891077"><ele>420.0</ele><time>2026-04-12T12:01:12.603Z</time></trkpt><trkpt lat="43.5901218" lon="11.389075"><ele>420.0</ele><time>2026-04-12T12:01:13.602Z</time></trkpt><trkpt lat="43.5902575" lon="11.3889965"><ele>420.0</ele><time>2026-04-12T12:01:14.603Z</time></trkpt><trkpt lat="43.5903931" lon="11.3889222"><ele>420.0</ele><time>2026-04-12T12:01:15.603Z</time></trkpt><trkpt lat="43.5905406" lon="11.3888756"><ele>416.25</ele><time>2026-04-12T12:01:16.602Z</time></trkpt><trkpt lat="43.5906887" lon="11.3888671"><ele>412.5</ele><time>2026-04-12T12:01:17.603Z</time></trkpt><trkpt lat="43.5908306" lon="11.3888585"><ele>408.75</ele><time>2026-04-12T12:01:18.603Z</time></trkpt><trkpt lat="43.590976" lon="11.3888497"><ele>405.0</ele><time>2026-04-12T12:01:19.602Z</time></trkpt><trkpt lat="43.5911198" lon="11.3888335"><ele>399.75</ele><time>2026-04-12T12:01:20.603Z</time></trkpt><trkpt lat="43.5912652" lon="11.388813"><ele>394.5</ele><time>2026-04-12T12:01:21.602Z</time></trkpt><trkpt lat="43.5914034" lon="11.3887917"><ele>389.25</ele><time>2026-04-12T12:01:22.602Z</time></trkpt><trkpt lat="43.5915469" lon="11.3887772"><ele>384.0</ele><time>2026-04-12T12:01:23.602Z</time></trkpt><trkpt lat="43.5916847" lon="11.3887663"><ele>384.0</ele><time>2026-04-12T12:01:24.602Z</time></trkpt><trkpt lat="43.591808" lon="11.3887849"><ele>384.0</ele><time>2026-04-12T12:01:25.603Z</time></trkpt><trkpt lat="43.5919263" lon="11.3888413"><ele>384.0</ele><time>2026-04-12T12:01:26.603Z</time></trkpt><trkpt lat="43.5920139" lon="11.3889328"><ele>384.0</ele><time>2026-04-12T12:01:27.603Z</time></trkpt><trkpt lat="43.5920527" lon="11.3890646"><ele>382.8333333333333</ele><time>2026-04-12T12:01:28.603Z</time></trkpt><trkpt lat="43.5920681" lon="11.3891784"><ele>381.6666666666667</ele><time>2026-04-12T12:01:29.602Z</time></trkpt><trkpt lat="43.5920612" lon="11.3893028"><ele>380.5</ele><time>2026-04-12T12:01:30.602Z</time></trkpt><trkpt lat="43.5920721" lon="11.3894311"><ele>379.33333333333337</ele><time>2026-04-12T12:01:31.602Z</time></trkpt><trkpt lat="43.5921116" lon="11.3895418"><ele>378.1666666666667</ele><time>2026-04-12T12:01:32.603Z</time></trkpt><trkpt lat="43.5921812" lon="11.3896083"><ele>377.0</ele><time>2026-04-12T12:01:33.602Z</time></trkpt><trkpt lat="43.5922728" lon="11.389598"><ele>377.0</ele><time>2026-04-12T12:01:34.603Z</time></trkpt><trkpt lat="43.5923443" lon="11.3895194"><ele>377.0</ele><time>2026-04-12T12:01:35.602Z</time></trkpt><trkpt lat="43.5923922" lon="11.3893824"><ele>377.0</ele><time>2026-04-12T12:01:36.602Z</time></trkpt><trkpt lat="43.5924144" lon="11.3892386"><ele>377.0</ele><time>2026-04-12T12:01:37.602Z</time></trkpt><trkpt lat="43.5924242" lon="11.3891035"><ele>377.0</ele><time>2026-04-12T12:01:38.603Z</time></trkpt><trkpt lat="43.592426" lon="11.3889639"><ele>375.6</ele><time>2026-04-12T12:01:39.602Z</time></trkpt><trkpt lat="43.5924257" lon="11.3888295"><ele>374.20000000000005</ele><time>2026-04-12T12:01:40.602Z</time></trkpt><trkpt lat="43.5924345" lon="11.3886902"><ele>372.8</ele><time>2026-04-12T12:01:41.602Z</time></trkpt><trkpt lat="43.5924412" lon="11.3885488"><ele>371.4</ele><time>2026-04-12T12:01:42.603Z</time></trkpt><trkpt lat="43.5924506" lon="11.3883995"><ele>370.0</ele><time>2026-04-12T12:01:43.603Z</time></trkpt><trkpt lat="43.5924585" lon="11.3882468"><ele>370.0</ele><time>2026-04-12T12:01:44.603Z</time></trkpt><trkpt lat="43.5924692" lon="11.3880994"><ele>370.0</ele><time>2026-04-12T12:01:45.602Z</time></trkpt><trkpt lat="43.5924805" lon="11.3879463"><ele>370.0</ele><time>2026-04-12T12:01:46.602Z</time></trkpt><trkpt lat="43.592491" lon="11.387793"><ele>370.0</ele><time>2026-04-12T12:01:47.603Z</time></trkpt><trkpt lat="43.5924952" lon="11.3876404"><ele>370.0</ele><time>2026-04-12T12:01:48.602Z</time></trkpt><trkpt lat="43.592491" lon="11.3874826"><ele>369.8</ele><time>2026-04-12T12:01:49.602Z</time></trkpt><trkpt lat="43.5924834" lon="11.3873275"><ele>369.6</ele><time>2026-04-12T12:01:50.603Z</time></trkpt><trkpt lat="43.5924757" lon="11.3871907"><ele>369.4</ele><time>2026-04-12T12:01:51.603Z</time></trkpt><trkpt lat="43.5924746" lon="11.3870639"><ele>369.2</ele><time>2026-04-12T12:01:52.602Z</time></trkpt><trkpt lat="43.5925025" lon="11.3869408"><ele>369.0</ele><time>2026-04-12T12:01:53.602Z</time></trkpt><trkpt lat="43.592578" lon="11.3868302"><ele>367.75</ele><time>2026-04-12T12:01:54.602Z</time></trkpt><trkpt lat="43.5926813" lon="11.386745"><ele>366.5</ele><time>2026-04-12T12:01:55.602Z</time></trkpt><trkpt lat="43.5928027" lon="11.3867119"><ele>365.25</ele><time>2026-04-12T12:01:56.603Z</time></trkpt><trkpt lat="43.5929307" lon="11.3866904"><ele>364.0</ele><time>2026-04-12T12:01:57.602Z</time></trkpt><trkpt lat="43.5930631" lon="11.3866767"><ele>361.75</ele><time>2026-04-12T12:01:58.602Z</time></trkpt><trkpt lat="43.5931918" lon="11.3866615"><ele>359.5</ele><time>2026-04-12T12:01:59.603Z</time></trkpt><trkpt lat="43.5933259" lon="11.3866517"><ele>357.25</ele><time>2026-04-12T12:02:00.603Z</time></trkpt><trkpt lat="43.5934601" lon="11.386642"><ele>355.0</ele><time>2026-04-12T12:02:01.602Z</time></trkpt><trkpt lat="43.593595" lon="11.3866268"><ele>353.0</ele><time>2026-04-12T12:02:02.602Z</time></trkpt><trkpt lat="43.5937228" lon="11.3866161"><ele>351.0</ele><time>2026-04-12T12:02:03.603Z</time></trkpt><trkpt lat="43.5938461" lon="11.38661"><ele>349.0</ele><time>2026-04-12T12:02:04.603Z</time></trkpt><trkpt lat="43.5939694" lon="11.3866129"><ele>347.0</ele><time>2026-04-12T12:02:05.603Z</time></trkpt><trkpt lat="43.5940912" lon="11.3866639"><ele>347.0</ele><time>2026-04-12T12:02:06.602Z</time></trkpt><trkpt lat="43.5941906" lon="11.3867663"><ele>347.0</ele><time>2026-04-12T12:02:07.602Z</time></trkpt><trkpt lat="43.5942583" lon="11.3869053"><ele>347.0</ele><time>2026-04-12T12:02:08.603Z</time></trkpt><trkpt lat="43.5942913" lon="11.3870629"><ele>347.0</ele><time>2026-04-12T12:02:09.602Z</time></trkpt><trkpt lat="43.5942993" lon="11.3872278"><ele>347.25</ele><time>2026-04-12T12:02:10.602Z</time></trkpt><trkpt lat="43.5943045" lon="11.3873889"><ele>347.5</ele><time>2026-04-12T12:02:11.602Z</time></trkpt><trkpt lat="43.5943115" lon="11.3875552"><ele>347.75</ele><time>2026-04-12T12:02:12.603Z</time></trkpt><trkpt lat="43.5943532" lon="11.3877091"><ele>348.0</ele><time>2026-04-12T12:02:13.603Z</time></trkpt><trkpt lat="43.5944161" lon="11.3878697"><ele>348.0</ele><time>2026-04-12T12:02:14.603Z</time></trkpt><trkpt lat="43.5945031" lon="11.3880095"><ele>348.0</ele><time>2026-04-12T12:02:15.603Z</time></trkpt><trkpt lat="43.5946114" lon="11.3881247"><ele>348.0</ele><time>2026-04-12T12:02:16.602Z</time></trkpt><trkpt lat="43.5947136" lon="11.3882364"><ele>348.0</ele><time>2026-04-12T12:02:17.602Z</time></trkpt><trkpt lat="43.5948223" lon="11.3883465"><ele>344.75</ele><time>2026-04-12T12:02:18.603Z</time></trkpt><trkpt lat="43.5949256" lon="11.3884537"><ele>341.5</ele><time>2026-04-12T12:02:19.603Z</time></trkpt><trkpt lat="43.5950345" lon="11.3885539"><ele>338.25</ele><time>2026-04-12T12:02:20.602Z</time></trkpt><trkpt lat="43.5951399" lon="11.3886099"><ele>335.0</ele><time>2026-04-12T12:02:21.603Z</time></trkpt><trkpt lat="43.5952435" lon="11.3886152"><ele>335.0</ele><time>2026-04-12T12:02:22.602Z</time></trkpt><trkpt lat="43.5953155" lon="11.3886011"><ele>335.0</ele><time>2026-04-12T12:02:23.603Z</time></trkpt><trkpt lat="43.5954008" lon="11.3885861"><ele>335.0</ele><time>2026-04-12T12:02:25.603Z</time></trkpt><trkpt lat="43.5954905" lon="11.3885942"><ele>335.0</ele><time>2026-04-12T12:02:27.603Z</time></trkpt><trkpt lat="43.5955727" lon="11.3886721"><ele>335.0</ele><time>2026-04-12T12:02:29.602Z</time></trkpt><trkpt lat="43.5956079" lon="11.388855"><ele>336.5</ele><time>2026-04-12T12:02:31.602Z</time></trkpt><trkpt lat="43.59563" lon="11.3889809"><ele>338.0</ele><time>2026-04-12T12:02:32.602Z</time></trkpt><trkpt lat="43.5956648" lon="11.3891267"><ele>339.5</ele><time>2026-04-12T12:02:33.602Z</time></trkpt><trkpt lat="43.5957021" lon="11.3892897"><ele>341.0</ele><time>2026-04-12T12:02:34.602Z</time></trkpt><trkpt lat="43.5957449" lon="11.3894542"><ele>341.0</ele><time>2026-04-12T12:02:35.602Z</time></trkpt><trkpt lat="43.5957923" lon="11.3896337"><ele>341.0</ele><time>2026-04-12T12:02:36.602Z</time></trkpt><trkpt lat="43.5958471" lon="11.3898156"><ele>341.0</ele><time>2026-04-12T12:02:37.603Z</time></trkpt><trkpt lat="43.5959057" lon="11.3900007"><ele>341.0</ele><time>2026-04-12T12:02:38.603Z</time></trkpt><trkpt lat="43.5959661" lon="11.3901895"><ele>340.33333333333337</ele><time>2026-04-12T12:02:39.603Z</time></trkpt><trkpt lat="43.5960247" lon="11.3903825"><ele>339.6666666666667</ele><time>2026-04-12T12:02:40.603Z</time></trkpt><trkpt lat="43.5960802" lon="11.390584"><ele>339.0</ele><time>2026-04-12T12:02:41.603Z</time></trkpt><trkpt lat="43.5961405" lon="11.3907871"><ele>340.3333333333333</ele><time>2026-04-12T12:02:42.602Z</time></trkpt><trkpt lat="43.5962079" lon="11.3909912"><ele>341.66666666666663</ele><time>2026-04-12T12:02:43.602Z</time></trkpt><trkpt lat="43.5962793" lon="11.3911854"><ele>343.0</ele><time>2026-04-12T12:02:44.602Z</time></trkpt><trkpt lat="43.596344" lon="11.391389"><ele>343.0</ele><time>2026-04-12T12:02:45.603Z</time></trkpt><trkpt lat="43.5964183" lon="11.3915941"><ele>343.0</ele><time>2026-04-12T12:02:46.602Z</time></trkpt><trkpt lat="43.5964973" lon="11.3917993"><ele>343.0</ele><time>2026-04-12T12:02:47.602Z</time></trkpt><trkpt lat="43.5965804" lon="11.3920086"><ele>339.66666666666663</ele><time>2026-04-12T12:02:48.602Z</time></trkpt><trkpt lat="43.5966673" lon="11.3922197"><ele>336.3333333333333</ele><time>2026-04-12T12:02:49.602Z</time></trkpt><trkpt lat="43.5967496" lon="11.3924352"><ele>333.0</ele><time>2026-04-12T12:02:50.602Z</time></trkpt><trkpt lat="43.5968322" lon="11.3926536"><ele>333.0</ele><time>2026-04-12T12:02:51.602Z</time></trkpt><trkpt lat="43.5969205" lon="11.3928615"><ele>333.0</ele><time>2026-04-12T12:02:52.602Z</time></trkpt><trkpt lat="43.5970163" lon="11.3930524"><ele>333.0</ele><time>2026-04-12T12:02:53.603Z</time></trkpt><trkpt lat="43.5971215" lon="11.3932158"><ele>332.6666666666667</ele><time>2026-04-12T12:02:54.602Z</time></trkpt><trkpt lat="43.5972468" lon="11.3933514"><ele>332.33333333333337</ele><time>2026-04-12T12:02:55.603Z</time></trkpt><trkpt lat="43.5973892" lon="11.3934559"><ele>332.0</ele><time>2026-04-12T12:02:56.602Z</time></trkpt><trkpt lat="43.5975251" lon="11.3935459"><ele>332.0</ele><time>2026-04-12T12:02:57.603Z</time></trkpt><trkpt lat="43.5976563" lon="11.393637"><ele>332.0</ele><time>2026-04-12T12:02:58.603Z</time></trkpt><trkpt lat="43.59778" lon="11.3937334"><ele>332.0</ele><time>2026-04-12T12:02:59.602Z</time></trkpt><trkpt lat="43.5978749" lon="11.3938493"><ele>332.0</ele><time>2026-04-12T12:03:00.602Z</time></trkpt><trkpt lat="43.5979342" lon="11.3940016"><ele>331.0</ele><time>2026-04-12T12:03:01.602Z</time></trkpt><trkpt lat="43.5979692" lon="11.3941593"><ele>330.0</ele><time>2026-04-12T12:03:02.603Z</time></trkpt><trkpt lat="43.5979808" lon="11.3943455"><ele>329.0</ele><time>2026-04-12T12:03:03.602Z</time></trkpt><trkpt lat="43.5979957" lon="11.3945171"><ele>328.0</ele><time>2026-04-12T12:03:04.602Z</time></trkpt><trkpt lat="43.5980099" lon="11.3946869"><ele>328.0</ele><time>2026-04-12T12:03:05.602Z</time></trkpt><trkpt lat="43.5980178" lon="11.394844"><ele>328.0</ele><time>2026-04-12T12:03:06.603Z</time></trkpt><trkpt lat="43.5980389" lon="11.3949996"><ele>328.0</ele><time>2026-04-12T12:03:07.602Z</time></trkpt><trkpt lat="43.5980828" lon="11.3951662"><ele>328.0</ele><time>2026-04-12T12:03:08.602Z</time></trkpt><trkpt lat="43.5981427" lon="11.3953436"><ele>326.3333333333333</ele><time>2026-04-12T12:03:09.602Z</time></trkpt><trkpt lat="43.5982108" lon="11.3955171"><ele>324.6666666666667</ele><time>2026-04-12T12:03:10.602Z</time></trkpt><trkpt lat="43.5982968" lon="11.3956966"><ele>323.0</ele><time>2026-04-12T12:03:11.603Z</time></trkpt><trkpt lat="43.5983978" lon="11.395875"><ele>323.0</ele><time>2026-04-12T12:03:12.603Z</time></trkpt><trkpt lat="43.5984979" lon="11.3960506"><ele>323.0</ele><time>2026-04-12T12:03:13.603Z</time></trkpt><trkpt lat="43.598605" lon="11.3962371"><ele>323.0</ele><time>2026-04-12T12:03:14.602Z</time></trkpt><trkpt lat="43.5987095" lon="11.3964234"><ele>324.0</ele><time>2026-04-12T12:03:15.602Z</time></trkpt><trkpt lat="43.5988143" lon="11.3966178"><ele>325.0</ele><time>2026-04-12T12:03:16.602Z</time></trkpt><trkpt lat="43.5989212" lon="11.396782"><ele>326.0</ele><time>2026-04-12T12:03:17.602Z</time></trkpt><trkpt lat="43.5990388" lon="11.396926"><ele>326.0</ele><time>2026-04-12T12:03:18.603Z</time></trkpt><trkpt lat="43.5991734" lon="11.3970486"><ele>326.0</ele><time>2026-04-12T12:03:19.603Z</time></trkpt><trkpt lat="43.5993087" lon="11.3971564"><ele>326.0</ele><time>2026-04-12T12:03:20.602Z</time></trkpt><trkpt lat="43.5994477" lon="11.3972591"><ele>327.6666666666667</ele><time>2026-04-12T12:03:21.603Z</time></trkpt><trkpt lat="43.5995804" lon="11.3973729"><ele>329.3333333333333</ele><time>2026-04-12T12:03:22.602Z</time></trkpt><trkpt lat="43.5997072" lon="11.3974885"><ele>331.0</ele><time>2026-04-12T12:03:23.603Z</time></trkpt><trkpt lat="43.5998312" lon="11.397603"><ele>331.0</ele><time>2026-04-12T12:03:24.603Z</time></trkpt><trkpt lat="43.5999517" lon="11.3977305"><ele>331.0</ele><time>2026-04-12T12:03:25.602Z</time></trkpt><trkpt lat="43.6000699" lon="11.3978613"><ele>331.0</ele><time>2026-04-12T12:03:26.603Z</time></trkpt><trkpt lat="43.6001948" lon="11.397996"><ele>330.66666666666663</ele><time>2026-04-12T12:03:27.602Z</time></trkpt><trkpt lat="43.6003115" lon="11.3981477"><ele>330.3333333333333</ele><time>2026-04-12T12:03:28.602Z</time></trkpt><trkpt lat="43.6004294" lon="11.3983117"><ele>330.0</ele><time>2026-04-12T12:03:29.602Z</time></trkpt><trkpt lat="43.6005365" lon="11.3984869"><ele>330.0</ele><time>2026-04-12T12:03:30.602Z</time></trkpt><trkpt lat="43.6006372" lon="11.3986728"><ele>330.0</ele><time>2026-04-12T12:03:31.603Z</time></trkpt><trkpt lat="43.6007369" lon="11.3988558"><ele>330.0</ele><time>2026-04-12T12:03:32.603Z</time></trkpt><trkpt lat="43.6008211" lon="11.3990437"><ele>328.25</ele><time>2026-04-12T12:03:33.602Z</time></trkpt><trkpt lat="43.600883" lon="11.3992282"><ele>326.5</ele><time>2026-04-12T12:03:34.602Z</time></trkpt><trkpt lat="43.6009223" lon="11.3994109"><ele>324.75</ele><time>2026-04-12T12:03:35.602Z</time></trkpt><trkpt lat="43.6009473" lon="11.3995846"><ele>323.0</ele><time>2026-04-12T12:03:36.603Z</time></trkpt><trkpt lat="43.6009403" lon="11.3997585"><ele>322.0</ele><time>2026-04-12T12:03:37.602Z</time></trkpt><trkpt lat="43.6009098" lon="11.399961"><ele>321.0</ele><time>2026-04-12T12:03:38.602Z</time></trkpt><trkpt lat="43.6008781" lon="11.4001527"><ele>320.0</ele><time>2026-04-12T12:03:39.602Z</time></trkpt><trkpt lat="43.6008473" lon="11.4003486"><ele>319.0</ele><time>2026-04-12T12:03:40.603Z</time></trkpt><trkpt lat="43.600817" lon="11.4005385"><ele>318.75</ele><time>2026-04-12T12:03:41.602Z</time></trkpt><trkpt lat="43.6007934" lon="11.4007214"><ele>318.5</ele><time>2026-04-12T12:03:42.603Z</time></trkpt><trkpt lat="43.600767" lon="11.4009111"><ele>318.25</ele><time>2026-04-12T12:03:43.603Z</time></trkpt><trkpt lat="43.6007325" lon="11.4010993"><ele>318.0</ele><time>2026-04-12T12:03:44.603Z</time></trkpt><trkpt lat="43.6006986" lon="11.4012922"><ele>319.0</ele><time>2026-04-12T12:03:45.602Z</time></trkpt><trkpt lat="43.6006617" lon="11.4014888"><ele>320.0</ele><time>2026-04-12T12:03:46.602Z</time></trkpt><trkpt lat="43.6006201" lon="11.4016936"><ele>321.0</ele><time>2026-04-12T12:03:47.603Z</time></trkpt><trkpt lat="43.6005746" lon="11.4019108"><ele>321.0</ele><time>2026-04-12T12:03:48.603Z</time></trkpt><trkpt lat="43.6005363" lon="11.4021183"><ele>321.0</ele><time>2026-04-12T12:03:49.603Z</time></trkpt><trkpt lat="43.6004859" lon="11.4023384"><ele>321.0</ele><time>2026-04-12T12:03:50.602Z</time></trkpt><trkpt lat="43.6004062" lon="11.4025247"><ele>321.3333333333333</ele><time>2026-04-12T12:03:51.603Z</time></trkpt><trkpt lat="43.6003044" lon="11.4026764"><ele>321.66666666666663</ele><time>2026-04-12T12:03:52.603Z</time></trkpt><trkpt lat="43.6001843" lon="11.402807"><ele>322.0</ele><time>2026-04-12T12:03:53.602Z</time></trkpt><trkpt lat="43.6000568" lon="11.4029389"><ele>323.3333333333333</ele><time>2026-04-12T12:03:54.602Z</time></trkpt><trkpt lat="43.5999205" lon="11.4030684"><ele>324.6666666666667</ele><time>2026-04-12T12:03:55.602Z</time></trkpt><trkpt lat="43.5997902" lon="11.4031934"><ele>326.0</ele><time>2026-04-12T12:03:56.603Z</time></trkpt><trkpt lat="43.5996606" lon="11.4033069"><ele>326.0</ele><time>2026-04-12T12:03:57.602Z</time></trkpt><trkpt lat="43.5995424" lon="11.4033928"><ele>326.0</ele><time>2026-04-12T12:03:58.602Z</time></trkpt><trkpt lat="43.5994334" lon="11.4034758"><ele>326.0</ele><time>2026-04-12T12:03:59.602Z</time></trkpt><trkpt lat="43.5993352" lon="11.4035564"><ele>326.0</ele><time>2026-04-12T12:04:00.603Z</time></trkpt><trkpt lat="43.5992512" lon="11.403621"><ele>324.0</ele><time>2026-04-12T12:04:01.602Z</time></trkpt><trkpt lat="43.5991896" lon="11.4036804"><ele>322.0</ele><time>2026-04-12T12:04:02.602Z</time></trkpt><trkpt lat="43.5991103" lon="11.4037843"><ele>320.0</ele><time>2026-04-12T12:04:04.602Z</time></trkpt><trkpt lat="43.5990865" lon="11.4038853"><ele>318.0</ele><time>2026-04-12T12:04:05.602Z</time></trkpt><trkpt lat="43.5990972" lon="11.4039859"><ele>316.0</ele><time>2026-04-12T12:04:06.603Z</time></trkpt><trkpt lat="43.5991411" lon="11.4040936"><ele>314.0</ele><time>2026-04-12T12:04:07.602Z</time></trkpt><trkpt lat="43.5992056" lon="11.4041989"><ele>313.0</ele><time>2026-04-12T12:04:08.602Z</time></trkpt><trkpt lat="43.5992794" lon="11.4043247"><ele>312.0</ele><time>2026-04-12T12:04:09.602Z</time></trkpt><trkpt lat="43.599355" lon="11.4044661"><ele>311.0</ele><time>2026-04-12T12:04:10.603Z</time></trkpt><trkpt lat="43.5994392" lon="11.4046162"><ele>310.0</ele><time>2026-04-12T12:04:11.603Z</time></trkpt><trkpt lat="43.5995209" lon="11.4047754"><ele>312.66666666666663</ele><time>2026-04-12T12:04:12.602Z</time></trkpt><trkpt lat="43.599602" lon="11.4049453"><ele>315.3333333333333</ele><time>2026-04-12T12:04:13.603Z</time></trkpt><trkpt lat="43.5996945" lon="11.4051061"><ele>318.0</ele><time>2026-04-12T12:04:14.603Z</time></trkpt><trkpt lat="43.5997918" lon="11.4052731"><ele>318.0</ele><time>2026-04-12T12:04:15.602Z</time></trkpt><trkpt lat="43.5998959" lon="11.4054244"><ele>318.0</ele><time>2026-04-12T12:04:16.602Z</time></trkpt><trkpt lat="43.6000155" lon="11.4055615"><ele>318.0</ele><time>2026-04-12T12:04:17.602Z</time></trkpt><trkpt lat="43.6001425" lon="11.4056616"><ele>316.0</ele><time>2026-04-12T12:04:18.602Z</time></trkpt><trkpt lat="43.600271" lon="11.4057388"><ele>314.0</ele><time>2026-04-12T12:04:19.602Z</time></trkpt><trkpt lat="43.6003867" lon="11.4057856"><ele>312.0</ele><time>2026-04-12T12:04:20.603Z</time></trkpt><trkpt lat="43.6005015" lon="11.4058912"><ele>310.0</ele><time>2026-04-12T12:04:21.603Z</time></trkpt><trkpt lat="43.6005936" lon="11.4060479"><ele>311.0</ele><time>2026-04-12T12:04:22.603Z</time></trkpt><trkpt lat="43.6006662" lon="11.4062267"><ele>312.0</ele><time>2026-04-12T12:04:23.602Z</time></trkpt><trkpt lat="43.6007359" lon="11.4064154"><ele>313.0</ele><time>2026-04-12T12:04:24.602Z</time></trkpt><trkpt lat="43.6008003" lon="11.406617"><ele>313.0</ele><time>2026-04-12T12:04:25.602Z</time></trkpt><trkpt lat="43.6008584" lon="11.4068159"><ele>313.0</ele><time>2026-04-12T12:04:26.603Z</time></trkpt><trkpt lat="43.6009155" lon="11.4070142"><ele>313.0</ele><time>2026-04-12T12:04:27.603Z</time></trkpt><trkpt lat="43.6009724" lon="11.4072148"><ele>311.0</ele><time>2026-04-12T12:04:28.603Z</time></trkpt><trkpt lat="43.6010148" lon="11.4074245"><ele>309.0</ele><time>2026-04-12T12:04:29.602Z</time></trkpt><trkpt lat="43.6010369" lon="11.4076229"><ele>307.0</ele><time>2026-04-12T12:04:30.603Z</time></trkpt><trkpt lat="43.6010335" lon="11.4078272"><ele>308.25</ele><time>2026-04-12T12:04:31.602Z</time></trkpt><trkpt lat="43.6009902" lon="11.4080007"><ele>309.5</ele><time>2026-04-12T12:04:32.603Z</time></trkpt><trkpt lat="43.6008578" lon="11.4081079"><ele>310.75</ele><time>2026-04-12T12:04:33.602Z</time></trkpt><trkpt lat="43.6007167" lon="11.4081295"><ele>312.0</ele><time>2026-04-12T12:04:34.602Z</time></trkpt><trkpt lat="43.6005858" lon="11.4081631"><ele>312.0</ele><time>2026-04-12T12:04:35.602Z</time></trkpt><trkpt lat="43.6004759" lon="11.4082297"><ele>312.0</ele><time>2026-04-12T12:04:36.603Z</time></trkpt><trkpt lat="43.6003924" lon="11.4083437"><ele>312.0</ele><time>2026-04-12T12:04:37.602Z</time></trkpt><trkpt lat="43.6003449" lon="11.4084875"><ele>312.0</ele><time>2026-04-12T12:04:38.602Z</time></trkpt><trkpt lat="43.6003478" lon="11.4086722"><ele>313.25</ele><time>2026-04-12T12:04:39.603Z</time></trkpt><trkpt lat="43.6003732" lon="11.4088465"><ele>314.5</ele><time>2026-04-12T12:04:40.603Z</time></trkpt><trkpt lat="43.6004295" lon="11.4090069"><ele>315.75</ele><time>2026-04-12T12:04:41.603Z</time></trkpt><trkpt lat="43.6005102" lon="11.4091602"><ele>317.0</ele><time>2026-04-12T12:04:42.603Z</time></trkpt><trkpt lat="43.6005858" lon="11.4093204"><ele>317.0</ele><time>2026-04-12T12:04:43.603Z</time></trkpt><trkpt lat="43.6006589" lon="11.4094682"><ele>317.0</ele><time>2026-04-12T12:04:44.603Z</time></trkpt><trkpt lat="43.600711" lon="11.4096238"><ele>317.0</ele><time>2026-04-12T12:04:45.602Z</time></trkpt><trkpt lat="43.6007458" lon="11.4097812"><ele>317.0</ele><time>2026-04-12T12:04:46.603Z</time></trkpt><trkpt lat="43.6007676" lon="11.4099294"><ele>315.6</ele><time>2026-04-12T12:04:47.603Z</time></trkpt><trkpt lat="43.6007738" lon="11.4100921"><ele>314.2</ele><time>2026-04-12T12:04:48.602Z</time></trkpt><trkpt lat="43.6007595" lon="11.4102446"><ele>312.8</ele><time>2026-04-12T12:04:49.603Z</time></trkpt><trkpt lat="43.6007378" lon="11.4103912"><ele>311.4</ele><time>2026-04-12T12:04:50.603Z</time></trkpt><trkpt lat="43.6007074" lon="11.4105388"><ele>310.0</ele><time>2026-04-12T12:04:51.602Z</time></trkpt><trkpt lat="43.6006832" lon="11.4106823"><ele>309.2</ele><time>2026-04-12T12:04:52.603Z</time></trkpt><trkpt lat="43.6006626" lon="11.4108304"><ele>308.4</ele><time>2026-04-12T12:04:53.602Z</time></trkpt><trkpt lat="43.6006246" lon="11.4109796"><ele>307.6</ele><time>2026-04-12T12:04:54.602Z</time></trkpt><trkpt lat="43.6005724" lon="11.4111199"><ele>306.8</ele><time>2026-04-12T12:04:55.602Z</time></trkpt><trkpt lat="43.6005273" lon="11.411244"><ele>306.0</ele><time>2026-04-12T12:04:56.602Z</time></trkpt><trkpt lat="43.6004884" lon="11.4113846"><ele>304.40000000000003</ele><time>2026-04-12T12:04:57.602Z</time></trkpt><trkpt lat="43.6004792" lon="11.411536"><ele>302.8</ele><time>2026-04-12T12:04:58.603Z</time></trkpt><trkpt lat="43.6004858" lon="11.41168"><ele>301.20000000000005</ele><time>2026-04-12T12:04:59.603Z</time></trkpt><trkpt lat="43.6005102" lon="11.4118262"><ele>299.6</ele><time>2026-04-12T12:05:00.602Z</time></trkpt><trkpt lat="43.6005489" lon="11.4119556"><ele>298.0</ele><time>2026-04-12T12:05:01.602Z</time></trkpt><trkpt lat="43.6006026" lon="11.4120615"><ele>298.0</ele><time>2026-04-12T12:05:02.602Z</time></trkpt><trkpt lat="43.6006789" lon="11.4121072"><ele>298.0</ele><time>2026-04-12T12:05:03.602Z</time></trkpt><trkpt lat="43.600763" lon="11.4121058"><ele>298.0</ele><time>2026-04-12T12:05:04.602Z</time></trkpt><trkpt lat="43.600849" lon="11.4120683"><ele>298.0</ele><time>2026-04-12T12:05:05.602Z</time></trkpt><trkpt lat="43.6009346" lon="11.4120138"><ele>298.0</ele><time>2026-04-12T12:05:06.602Z</time></trkpt><trkpt lat="43.601022" lon="11.4119596"><ele>298.0</ele><time>2026-04-12T12:05:07.602Z</time></trkpt><trkpt lat="43.6011026" lon="11.4119189"><ele>298.0</ele><time>2026-04-12T12:05:08.602Z</time></trkpt><trkpt lat="43.601177" lon="11.4118723"><ele>298.0</ele><time>2026-04-12T12:05:09.603Z</time></trkpt><trkpt lat="43.6012548" lon="11.4118433"><ele>298.0</ele><time>2026-04-12T12:05:10.602Z</time></trkpt><trkpt lat="43.601334" lon="11.4118718"><ele>298.0</ele><time>2026-04-12T12:05:11.602Z</time></trkpt><trkpt lat="43.601384" lon="11.4119527"><ele>298.0</ele><time>2026-04-12T12:05:12.602Z</time></trkpt><trkpt lat="43.6013982" lon="11.4120716"><ele>298.0</ele><time>2026-04-12T12:05:13.603Z</time></trkpt><trkpt lat="43.6013958" lon="11.4121847"><ele>297.8333333333333</ele><time>2026-04-12T12:05:14.602Z</time></trkpt><trkpt lat="43.6013894" lon="11.412284"><ele>297.66666666666663</ele><time>2026-04-12T12:05:15.602Z</time></trkpt><trkpt lat="43.6013716" lon="11.4123852"><ele>297.5</ele><time>2026-04-12T12:05:16.602Z</time></trkpt><trkpt lat="43.6013827" lon="11.4124979"><ele>297.3333333333333</ele><time>2026-04-12T12:05:17.603Z</time></trkpt><trkpt lat="43.6014007" lon="11.4126005"><ele>297.1666666666667</ele><time>2026-04-12T12:05:18.603Z</time></trkpt><trkpt lat="43.6014173" lon="11.4126903"><ele>297.0</ele><time>2026-04-12T12:05:19.603Z</time></trkpt><trkpt lat="43.601516" lon="11.4127937"><ele>297.0</ele><time>2026-04-12T12:05:21.603Z</time></trkpt><trkpt lat="43.6015944" lon="11.4127966"><ele>297.0</ele><time>2026-04-12T12:05:22.602Z</time></trkpt><trkpt lat="43.6016809" lon="11.4127928"><ele>297.0</ele><time>2026-04-12T12:05:23.602Z</time></trkpt><trkpt lat="43.6017624" lon="11.4128112"><ele>297.0</ele><time>2026-04-12T12:05:24.603Z</time></trkpt><trkpt lat="43.6018357" lon="11.4128696"><ele>297.0</ele><time>2026-04-12T12:05:25.602Z</time></trkpt><trkpt lat="43.6019029" lon="11.4129477"><ele>297.0</ele><time>2026-04-12T12:05:26.602Z</time></trkpt><trkpt lat="43.6019496" lon="11.4130622"><ele>296.6</ele><time>2026-04-12T12:05:27.602Z</time></trkpt><trkpt lat="43.6019634" lon="11.4131918"><ele>296.2</ele><time>2026-04-12T12:05:28.602Z</time></trkpt><trkpt lat="43.6019596" lon="11.4133385"><ele>295.8</ele><time>2026-04-12T12:05:29.603Z</time></trkpt><trkpt lat="43.6019318" lon="11.413487"><ele>295.4</ele><time>2026-04-12T12:05:30.602Z</time></trkpt><trkpt lat="43.6019087" lon="11.4136324"><ele>295.0</ele><time>2026-04-12T12:05:31.602Z</time></trkpt><trkpt lat="43.6019093" lon="11.4137705"><ele>295.8</ele><time>2026-04-12T12:05:32.603Z</time></trkpt><trkpt lat="43.6019259" lon="11.4139156"><ele>296.6</ele><time>2026-04-12T12:05:33.602Z</time></trkpt><trkpt lat="43.6019448" lon="11.4140608"><ele>297.4</ele><time>2026-04-12T12:05:34.602Z</time></trkpt><trkpt lat="43.6019616" lon="11.414216"><ele>298.2</ele><time>2026-04-12T12:05:35.602Z</time></trkpt><trkpt lat="43.6019828" lon="11.414365"><ele>299.0</ele><time>2026-04-12T12:05:36.603Z</time></trkpt><trkpt lat="43.6019946" lon="11.4145217"><ele>300.5</ele><time>2026-04-12T12:05:37.603Z</time></trkpt><trkpt lat="43.6020049" lon="11.4146819"><ele>302.0</ele><time>2026-04-12T12:05:38.603Z</time></trkpt><trkpt lat="43.6019965" lon="11.4148308"><ele>303.5</ele><time>2026-04-12T12:05:39.602Z</time></trkpt><trkpt lat="43.6019802" lon="11.4149884"><ele>305.0</ele><time>2026-04-12T12:05:40.603Z</time></trkpt><trkpt lat="43.6019699" lon="11.4151577"><ele>305.0</ele><time>2026-04-12T12:05:41.603Z</time></trkpt><trkpt lat="43.6019542" lon="11.4153263"><ele>305.0</ele><time>2026-04-12T12:05:42.602Z</time></trkpt><trkpt lat="43.6019355" lon="11.415498"><ele>305.0</ele><time>2026-04-12T12:05:43.603Z</time></trkpt><trkpt lat="43.6019211" lon="11.4156623"><ele>305.0</ele><time>2026-04-12T12:05:44.603Z</time></trkpt><trkpt lat="43.6019047" lon="11.4158379"><ele>305.25</ele><time>2026-04-12T12:05:45.602Z</time></trkpt><trkpt lat="43.6018877" lon="11.416021"><ele>305.5</ele><time>2026-04-12T12:05:46.602Z</time></trkpt><trkpt lat="43.6018667" lon="11.4162029"><ele>305.75</ele><time>2026-04-12T12:05:47.602Z</time></trkpt><trkpt lat="43.6018546" lon="11.4163672"><ele>306.0</ele><time>2026-04-12T12:05:48.602Z</time></trkpt><trkpt lat="43.6018386" lon="11.4165308"><ele>306.0</ele><time>2026-04-12T12:05:49.602Z</time></trkpt><trkpt lat="43.6018257" lon="11.4166779"><ele>306.0</ele><time>2026-04-12T12:05:50.603Z</time></trkpt><trkpt lat="43.6018172" lon="11.4168083"><ele>306.0</ele><time>2026-04-12T12:05:51.602Z</time></trkpt><trkpt lat="43.6018166" lon="11.4169388"><ele>306.0</ele><time>2026-04-12T12:05:52.603Z</time></trkpt><trkpt lat="43.6018267" lon="11.4170643"><ele>306.0</ele><time>2026-04-12T12:05:53.603Z</time></trkpt><trkpt lat="43.6018572" lon="11.4171846"><ele>305.6666666666667</ele><time>2026-04-12T12:05:54.603Z</time></trkpt><trkpt lat="43.6019095" lon="11.4172583"><ele>305.3333333333333</ele><time>2026-04-12T12:05:55.603Z</time></trkpt><trkpt lat="43.6019877" lon="11.4173508"><ele>305.0</ele><time>2026-04-12T12:05:57.602Z</time></trkpt><trkpt lat="43.6020505" lon="11.4174057"><ele>304.66666666666663</ele><time>2026-04-12T12:06:00.602Z</time></trkpt><trkpt lat="43.6020648" lon="11.4174998"><ele>304.3333333333333</ele><time>2026-04-12T12:06:02.603Z</time></trkpt><trkpt lat="43.6020236" lon="11.417662"><ele>304.0</ele><time>2026-04-12T12:06:04.602Z</time></trkpt><trkpt lat="43.6019956" lon="11.4177523"><ele>304.2</ele><time>2026-04-12T12:06:05.602Z</time></trkpt><trkpt lat="43.6019655" lon="11.4178538"><ele>304.4</ele><time>2026-04-12T12:06:06.602Z</time></trkpt><trkpt lat="43.6019221" lon="11.4179833"><ele>304.6</ele><time>2026-04-12T12:06:07.603Z</time></trkpt><trkpt lat="43.6018555" lon="11.418128"><ele>304.8</ele><time>2026-04-12T12:06:08.602Z</time></trkpt><trkpt lat="43.6017751" lon="11.4182632"><ele>305.0</ele><time>2026-04-12T12:06:09.602Z</time></trkpt><trkpt lat="43.6016878" lon="11.4183881"><ele>305.0</ele><time>2026-04-12T12:06:10.602Z</time></trkpt><trkpt lat="43.6016042" lon="11.4185102"><ele>305.0</ele><time>2026-04-12T12:06:11.602Z</time></trkpt><trkpt lat="43.6015219" lon="11.4186409"><ele>305.0</ele><time>2026-04-12T12:06:12.602Z</time></trkpt><trkpt lat="43.601441" lon="11.4187958"><ele>305.0</ele><time>2026-04-12T12:06:13.602Z</time></trkpt><trkpt lat="43.6013727" lon="11.4189575"><ele>305.4</ele><time>2026-04-12T12:06:14.602Z</time></trkpt><trkpt lat="43.6013205" lon="11.4190943"><ele>305.8</ele><time>2026-04-12T12:06:15.603Z</time></trkpt><trkpt lat="43.6012832" lon="11.4192168"><ele>306.2</ele><time>2026-04-12T12:06:16.602Z</time></trkpt><trkpt lat="43.6012581" lon="11.4193234"><ele>306.6</ele><time>2026-04-12T12:06:17.602Z</time></trkpt><trkpt lat="43.6012369" lon="11.419418"><ele>307.0</ele><time>2026-04-12T12:06:18.603Z</time></trkpt><trkpt lat="43.6011907" lon="11.4195493"><ele>305.8</ele><time>2026-04-12T12:06:20.602Z</time></trkpt><trkpt lat="43.6010998" lon="11.419598"><ele>304.6</ele><time>2026-04-12T12:06:22.602Z</time></trkpt><trkpt lat="43.6009945" lon="11.4195696"><ele>303.40000000000003</ele><time>2026-04-12T12:06:23.603Z</time></trkpt><trkpt lat="43.6008955" lon="11.4195431"><ele>302.2</ele><time>2026-04-12T12:06:24.602Z</time></trkpt><trkpt lat="43.600807" lon="11.4195123"><ele>301.0</ele><time>2026-04-12T12:06:25.602Z</time></trkpt><trkpt lat="43.6007279" lon="11.4194878"><ele>301.0</ele><time>2026-04-12T12:06:26.603Z</time></trkpt><trkpt lat="43.6006566" lon="11.4194766"><ele>301.0</ele><time>2026-04-12T12:06:27.602Z</time></trkpt><trkpt lat="43.6005471" lon="11.4195597"><ele>301.0</ele><time>2026-04-12T12:06:29.602Z</time></trkpt><trkpt lat="43.6005063" lon="11.4196778"><ele>301.0</ele><time>2026-04-12T12:06:30.603Z</time></trkpt><trkpt lat="43.6004657" lon="11.4198337"><ele>301.0</ele><time>2026-04-12T12:06:31.603Z</time></trkpt><trkpt lat="43.6004205" lon="11.4200003"><ele>301.0</ele><time>2026-04-12T12:06:32.602Z</time></trkpt><trkpt lat="43.6003708" lon="11.4201677"><ele>301.0</ele><time>2026-04-12T12:06:33.603Z</time></trkpt><trkpt lat="43.600321" lon="11.4203607"><ele>301.0</ele><time>2026-04-12T12:06:34.602Z</time></trkpt><trkpt lat="43.6002703" lon="11.420546"><ele>301.0</ele><time>2026-04-12T12:06:35.603Z</time></trkpt><trkpt lat="43.6002237" lon="11.4207395"><ele>298.0</ele><time>2026-04-12T12:06:36.602Z</time></trkpt><trkpt lat="43.6001754" lon="11.4209403"><ele>295.0</ele><time>2026-04-12T12:06:37.602Z</time></trkpt><trkpt lat="43.60013" lon="11.4211349"><ele>292.0</ele><time>2026-04-12T12:06:38.602Z</time></trkpt><trkpt lat="43.6000779" lon="11.4213308"><ele>291.66666666666663</ele><time>2026-04-12T12:06:39.603Z</time></trkpt><trkpt lat="43.6000193" lon="11.4215231"><ele>291.3333333333333</ele><time>2026-04-12T12:06:40.602Z</time></trkpt><trkpt lat="43.5999592" lon="11.4217234"><ele>291.0</ele><time>2026-04-12T12:06:41.603Z</time></trkpt><trkpt lat="43.5999015" lon="11.4219284"><ele>291.0</ele><time>2026-04-12T12:06:42.603Z</time></trkpt><trkpt lat="43.5998514" lon="11.4221438"><ele>291.0</ele><time>2026-04-12T12:06:43.602Z</time></trkpt><trkpt lat="43.5998083" lon="11.4223524"><ele>291.0</ele><time>2026-04-12T12:06:44.602Z</time></trkpt><trkpt lat="43.5997475" lon="11.4225521"><ele>290.3333333333333</ele><time>2026-04-12T12:06:45.602Z</time></trkpt><trkpt lat="43.599684" lon="11.4227576"><ele>289.66666666666663</ele><time>2026-04-12T12:06:46.602Z</time></trkpt><trkpt lat="43.5996295" lon="11.4229659"><ele>289.0</ele><time>2026-04-12T12:06:47.603Z</time></trkpt><trkpt lat="43.5995745" lon="11.4231703"><ele>288.75</ele><time>2026-04-12T12:06:48.602Z</time></trkpt><trkpt lat="43.5995146" lon="11.4233632"><ele>288.5</ele><time>2026-04-12T12:06:49.603Z</time></trkpt><trkpt lat="43.5994559" lon="11.4235537"><ele>288.25</ele><time>2026-04-12T12:06:50.602Z</time></trkpt><trkpt lat="43.5994028" lon="11.423737"><ele>288.0</ele><time>2026-04-12T12:06:51.602Z</time></trkpt><trkpt lat="43.5993714" lon="11.4239139"><ele>287.75</ele><time>2026-04-12T12:06:52.603Z</time></trkpt><trkpt lat="43.5993564" lon="11.4240979"><ele>287.5</ele><time>2026-04-12T12:06:53.602Z</time></trkpt><trkpt lat="43.5993754" lon="11.4242939"><ele>287.25</ele><time>2026-04-12T12:06:54.602Z</time></trkpt><trkpt lat="43.599405" lon="11.4244965"><ele>287.0</ele><time>2026-04-12T12:06:55.603Z</time></trkpt><trkpt lat="43.5994318" lon="11.4246995"><ele>285.0</ele><time>2026-04-12T12:06:56.602Z</time></trkpt><trkpt lat="43.5994583" lon="11.4249126"><ele>283.0</ele><time>2026-04-12T12:06:57.603Z</time></trkpt><trkpt lat="43.5994745" lon="11.425127"><ele>281.0</ele><time>2026-04-12T12:06:58.602Z</time></trkpt><trkpt lat="43.5994804" lon="11.4253483"><ele>280.6666666666667</ele><time>2026-04-12T12:06:59.602Z</time></trkpt><trkpt lat="43.5994703" lon="11.4255668"><ele>280.3333333333333</ele><time>2026-04-12T12:07:00.603Z</time></trkpt><trkpt lat="43.5994506" lon="11.4257883"><ele>280.0</ele><time>2026-04-12T12:07:01.602Z</time></trkpt><trkpt lat="43.5994224" lon="11.4259947"><ele>280.0</ele><time>2026-04-12T12:07:02.603Z</time></trkpt><trkpt lat="43.5993833" lon="11.4262096"><ele>280.0</ele><time>2026-04-12T12:07:03.602Z</time></trkpt><trkpt lat="43.5993443" lon="11.4264134"><ele>280.0</ele><time>2026-04-12T12:07:04.602Z</time></trkpt><trkpt lat="43.5993036" lon="11.4266184"><ele>281.3333333333333</ele><time>2026-04-12T12:07:05.603Z</time></trkpt><trkpt lat="43.5992739" lon="11.4268307"><ele>282.6666666666667</ele><time>2026-04-12T12:07:06.602Z</time></trkpt><trkpt lat="43.5992448" lon="11.427044"><ele>284.0</ele><time>2026-04-12T12:07:07.603Z</time></trkpt><trkpt lat="43.5992361" lon="11.4272749"><ele>284.6666666666667</ele><time>2026-04-12T12:07:08.603Z</time></trkpt><trkpt lat="43.5992397" lon="11.4275098"><ele>285.3333333333333</ele><time>2026-04-12T12:07:09.602Z</time></trkpt><trkpt lat="43.5992529" lon="11.4277446"><ele>286.0</ele><time>2026-04-12T12:07:10.603Z</time></trkpt><trkpt lat="43.5992673" lon="11.4279729"><ele>286.66666666666663</ele><time>2026-04-12T12:07:11.603Z</time></trkpt><trkpt lat="43.5992819" lon="11.4281967"><ele>287.3333333333333</ele><time>2026-04-12T12:07:12.602Z</time></trkpt><trkpt lat="43.5992875" lon="11.4284304"><ele>288.0</ele><time>2026-04-12T12:07:13.603Z</time></trkpt><trkpt lat="43.599294" lon="11.428662"><ele>288.3333333333333</ele><time>2026-04-12T12:07:14.602Z</time></trkpt><trkpt lat="43.5992919" lon="11.4288845"><ele>288.66666666666663</ele><time>2026-04-12T12:07:15.602Z</time></trkpt><trkpt lat="43.5992779" lon="11.4290966"><ele>289.0</ele><time>2026-04-12T12:07:16.603Z</time></trkpt><trkpt lat="43.5992413" lon="11.4292907"><ele>289.0</ele><time>2026-04-12T12:07:17.603Z</time></trkpt><trkpt lat="43.5991798" lon="11.429494"><ele>289.0</ele><time>2026-04-12T12:07:18.603Z</time></trkpt><trkpt lat="43.5991121" lon="11.4296947"><ele>289.0</ele><time>2026-04-12T12:07:19.603Z</time></trkpt><trkpt lat="43.5990437" lon="11.4298942"><ele>289.0</ele><time>2026-04-12T12:07:20.602Z</time></trkpt><trkpt lat="43.5989859" lon="11.4300846"><ele>289.0</ele><time>2026-04-12T12:07:21.602Z</time></trkpt><trkpt lat="43.5989291" lon="11.4302945"><ele>289.0</ele><time>2026-04-12T12:07:22.602Z</time></trkpt><trkpt lat="43.5988677" lon="11.4305029"><ele>289.0</ele><time>2026-04-12T12:07:23.602Z</time></trkpt><trkpt lat="43.5988108" lon="11.430713"><ele>289.0</ele><time>2026-04-12T12:07:24.602Z</time></trkpt><trkpt lat="43.598763" lon="11.4309349"><ele>289.0</ele><time>2026-04-12T12:07:25.603Z</time></trkpt><trkpt lat="43.5987141" lon="11.4311656"><ele>287.66666666666663</ele><time>2026-04-12T12:07:26.602Z</time></trkpt><trkpt lat="43.5986781" lon="11.4313923"><ele>286.3333333333333</ele><time>2026-04-12T12:07:27.603Z</time></trkpt><trkpt lat="43.5986373" lon="11.4316233"><ele>285.0</ele><time>2026-04-12T12:07:28.602Z</time></trkpt><trkpt lat="43.5985928" lon="11.4318484"><ele>283.3333333333333</ele><time>2026-04-12T12:07:29.602Z</time></trkpt><trkpt lat="43.5985594" lon="11.432079"><ele>281.66666666666663</ele><time>2026-04-12T12:07:30.603Z</time></trkpt><trkpt lat="43.5985236" lon="11.4323074"><ele>280.0</ele><time>2026-04-12T12:07:31.602Z</time></trkpt><trkpt lat="43.5984854" lon="11.4325354"><ele>280.0</ele><time>2026-04-12T12:07:32.602Z</time></trkpt><trkpt lat="43.5984455" lon="11.4327665"><ele>280.0</ele><time>2026-04-12T12:07:33.603Z</time></trkpt><trkpt lat="43.5984017" lon="11.4329986"><ele>280.0</ele><time>2026-04-12T12:07:34.603Z</time></trkpt><trkpt lat="43.5983528" lon="11.4332253"><ele>279.66666666666663</ele><time>2026-04-12T12:07:35.603Z</time></trkpt><trkpt lat="43.5983062" lon="11.4334525"><ele>279.3333333333333</ele><time>2026-04-12T12:07:36.602Z</time></trkpt><trkpt lat="43.5982628" lon="11.4336804"><ele>279.0</ele><time>2026-04-12T12:07:37.602Z</time></trkpt><trkpt lat="43.5982238" lon="11.4339029"><ele>280.0</ele><time>2026-04-12T12:07:38.602Z</time></trkpt><trkpt lat="43.5981741" lon="11.4341117"><ele>281.0</ele><time>2026-04-12T12:07:39.603Z</time></trkpt><trkpt lat="43.5981329" lon="11.4343127"><ele>282.0</ele><time>2026-04-12T12:07:40.603Z</time></trkpt><trkpt lat="43.5980957" lon="11.4345133"><ele>282.6666666666667</ele><time>2026-04-12T12:07:41.603Z</time></trkpt><trkpt lat="43.5980617" lon="11.4347362"><ele>283.33333333333337</ele><time>2026-04-12T12:07:42.603Z</time></trkpt><trkpt lat="43.5980139" lon="11.43495"><ele>284.0</ele><time>2026-04-12T12:07:43.603Z</time></trkpt><trkpt lat="43.597973" lon="11.4351707"><ele>284.0</ele><time>2026-04-12T12:07:44.603Z</time></trkpt><trkpt lat="43.5979372" lon="11.4354023"><ele>284.0</ele><time>2026-04-12T12:07:45.602Z</time></trkpt><trkpt lat="43.5979056" lon="11.4356241"><ele>284.0</ele><time>2026-04-12T12:07:46.603Z</time></trkpt><trkpt lat="43.5978763" lon="11.4358649"><ele>283.33333333333337</ele><time>2026-04-12T12:07:47.603Z</time></trkpt><trkpt lat="43.5978582" lon="11.4361113"><ele>282.6666666666667</ele><time>2026-04-12T12:07:48.602Z</time></trkpt><trkpt lat="43.5978434" lon="11.4363763"><ele>282.0</ele><time>2026-04-12T12:07:49.602Z</time></trkpt><trkpt lat="43.597844" lon="11.4366339"><ele>282.0</ele><time>2026-04-12T12:07:50.602Z</time></trkpt><trkpt lat="43.5978463" lon="11.436877"><ele>282.0</ele><time>2026-04-12T12:07:51.602Z</time></trkpt><trkpt lat="43.5978406" lon="11.4371078"><ele>282.0</ele><time>2026-04-12T12:07:52.602Z</time></trkpt><trkpt lat="43.597842" lon="11.4373356"><ele>282.3333333333333</ele><time>2026-04-12T12:07:53.603Z</time></trkpt><trkpt lat="43.5978384" lon="11.4375579"><ele>282.66666666666663</ele><time>2026-04-12T12:07:54.603Z</time></trkpt><trkpt lat="43.5978213" lon="11.4377772"><ele>283.0</ele><time>2026-04-12T12:07:55.602Z</time></trkpt><trkpt lat="43.5977968" lon="11.4379999"><ele>281.66666666666663</ele><time>2026-04-12T12:07:56.602Z</time></trkpt><trkpt lat="43.597766" lon="11.4382296"><ele>280.3333333333333</ele><time>2026-04-12T12:07:57.602Z</time></trkpt><trkpt lat="43.5977323" lon="11.4384663"><ele>279.0</ele><time>2026-04-12T12:07:58.602Z</time></trkpt><trkpt lat="43.5976927" lon="11.4387053"><ele>278.3333333333333</ele><time>2026-04-12T12:07:59.603Z</time></trkpt><trkpt lat="43.5976501" lon="11.4389485"><ele>277.66666666666663</ele><time>2026-04-12T12:08:00.602Z</time></trkpt><trkpt lat="43.5976082" lon="11.4391888"><ele>277.0</ele><time>2026-04-12T12:08:01.603Z</time></trkpt><trkpt lat="43.5975606" lon="11.4394217"><ele>276.0</ele><time>2026-04-12T12:08:02.602Z</time></trkpt><trkpt lat="43.5975177" lon="11.4396479"><ele>275.0</ele><time>2026-04-12T12:08:03.603Z</time></trkpt><trkpt lat="43.5974785" lon="11.4398727"><ele>274.0</ele><time>2026-04-12T12:08:04.603Z</time></trkpt><trkpt lat="43.5974366" lon="11.4400996"><ele>274.0</ele><time>2026-04-12T12:08:05.602Z</time></trkpt><trkpt lat="43.5974059" lon="11.4403092"><ele>274.0</ele><time>2026-04-12T12:08:06.603Z</time></trkpt><trkpt lat="43.5973768" lon="11.440516"><ele>274.0</ele><time>2026-04-12T12:08:07.602Z</time></trkpt><trkpt lat="43.5973588" lon="11.4407144"><ele>274.0</ele><time>2026-04-12T12:08:08.603Z</time></trkpt><trkpt lat="43.5973307" lon="11.4408993"><ele>274.0</ele><time>2026-04-12T12:08:09.603Z</time></trkpt><trkpt lat="43.5973031" lon="11.4410774"><ele>274.0</ele><time>2026-04-12T12:08:10.602Z</time></trkpt><trkpt lat="43.5972759" lon="11.4412393"><ele>274.0</ele><time>2026-04-12T12:08:11.603Z</time></trkpt><trkpt lat="43.5972484" lon="11.4413984"><ele>274.0</ele><time>2026-04-12T12:08:12.603Z</time></trkpt><trkpt lat="43.59723" lon="11.4415521"><ele>274.0</ele><time>2026-04-12T12:08:13.603Z</time></trkpt><trkpt lat="43.5972357" lon="11.4417132"><ele>274.0</ele><time>2026-04-12T12:08:14.602Z</time></trkpt><trkpt lat="43.5972686" lon="11.4418987"><ele>274.0</ele><time>2026-04-12T12:08:15.602Z</time></trkpt><trkpt lat="43.5973044" lon="11.4420892"><ele>273.25</ele><time>2026-04-12T12:08:16.602Z</time></trkpt><trkpt lat="43.5973404" lon="11.442279"><ele>272.5</ele><time>2026-04-12T12:08:17.602Z</time></trkpt><trkpt lat="43.5973727" lon="11.4424718"><ele>271.75</ele><time>2026-04-12T12:08:18.602Z</time></trkpt><trkpt lat="43.597396" lon="11.4426576"><ele>271.0</ele><time>2026-04-12T12:08:19.602Z</time></trkpt><trkpt lat="43.5974183" lon="11.4427975"><ele>271.0</ele><time>2026-04-12T12:08:20.603Z</time></trkpt><trkpt lat="43.5974359" lon="11.4429002"><ele>271.0</ele><time>2026-04-12T12:08:21.602Z</time></trkpt><trkpt lat="43.5974746" lon="11.4429706"><ele>271.0</ele><time>2026-04-12T12:08:22.602Z</time></trkpt><trkpt lat="43.5975464" lon="11.4430267"><ele>271.0</ele><time>2026-04-12T12:08:23.603Z</time></trkpt><trkpt lat="43.5976459" lon="11.4430746"><ele>271.0</ele><time>2026-04-12T12:08:24.602Z</time></trkpt><trkpt lat="43.5977586" lon="11.4431128"><ele>271.0</ele><time>2026-04-12T12:08:25.602Z</time></trkpt><trkpt lat="43.597879" lon="11.4431711"><ele>271.25</ele><time>2026-04-12T12:08:26.602Z</time></trkpt><trkpt lat="43.5980005" lon="11.4432211"><ele>271.5</ele><time>2026-04-12T12:08:27.602Z</time></trkpt><trkpt lat="43.598127" lon="11.4432817"><ele>271.75</ele><time>2026-04-12T12:08:28.602Z</time></trkpt><trkpt lat="43.5982582" lon="11.4433427"><ele>272.0</ele><time>2026-04-12T12:08:29.603Z</time></trkpt><trkpt lat="43.5983724" lon="11.4433888"><ele>272.0</ele><time>2026-04-12T12:08:30.602Z</time></trkpt><trkpt lat="43.5984879" lon="11.4433969"><ele>272.0</ele><time>2026-04-12T12:08:31.602Z</time></trkpt><trkpt lat="43.5986092" lon="11.4433637"><ele>272.0</ele><time>2026-04-12T12:08:32.603Z</time></trkpt><trkpt lat="43.5987457" lon="11.4433035"><ele>272.0</ele><time>2026-04-12T12:08:33.602Z</time></trkpt><trkpt lat="43.5988839" lon="11.4432501"><ele>272.0</ele><time>2026-04-12T12:08:34.602Z</time></trkpt><trkpt lat="43.5990154" lon="11.4431969"><ele>272.0</ele><time>2026-04-12T12:08:35.602Z</time></trkpt><trkpt lat="43.5991448" lon="11.443175"><ele>272.0</ele><time>2026-04-12T12:08:36.602Z</time></trkpt><trkpt lat="43.5992902" lon="11.4431779"><ele>272.0</ele><time>2026-04-12T12:08:37.603Z</time></trkpt><trkpt lat="43.5994394" lon="11.4432049"><ele>271.33333333333337</ele><time>2026-04-12T12:08:38.603Z</time></trkpt><trkpt lat="43.5995904" lon="11.4432332"><ele>270.6666666666667</ele><time>2026-04-12T12:08:39.603Z</time></trkpt><trkpt lat="43.5997442" lon="11.4432621"><ele>270.0</ele><time>2026-04-12T12:08:40.603Z</time></trkpt><trkpt lat="43.5999063" lon="11.4433013"><ele>270.0</ele><time>2026-04-12T12:08:41.602Z</time></trkpt><trkpt lat="43.6000664" lon="11.4433462"><ele>270.0</ele><time>2026-04-12T12:08:42.602Z</time></trkpt><trkpt lat="43.6002247" lon="11.4433983"><ele>270.0</ele><time>2026-04-12T12:08:43.603Z</time></trkpt><trkpt lat="43.6003813" lon="11.4434555"><ele>270.3333333333333</ele><time>2026-04-12T12:08:44.602Z</time></trkpt><trkpt lat="43.6005391" lon="11.4435013"><ele>270.66666666666663</ele><time>2026-04-12T12:08:45.602Z</time></trkpt><trkpt lat="43.6007064" lon="11.4435426"><ele>271.0</ele><time>2026-04-12T12:08:46.603Z</time></trkpt><trkpt lat="43.6008649" lon="11.4435869"><ele>271.0</ele><time>2026-04-12T12:08:47.602Z</time></trkpt><trkpt lat="43.6010152" lon="11.443639"><ele>271.0</ele><time>2026-04-12T12:08:48.603Z</time></trkpt><trkpt lat="43.6011661" lon="11.4436822"><ele>271.0</ele><time>2026-04-12T12:08:49.603Z</time></trkpt><trkpt lat="43.6013118" lon="11.4437283"><ele>270.3333333333333</ele><time>2026-04-12T12:08:50.603Z</time></trkpt><trkpt lat="43.601465" lon="11.4437731"><ele>269.6666666666667</ele><time>2026-04-12T12:08:51.602Z</time></trkpt><trkpt lat="43.6016143" lon="11.4438117"><ele>269.0</ele><time>2026-04-12T12:08:52.603Z</time></trkpt><trkpt lat="43.6017527" lon="11.443857"><ele>269.0</ele><time>2026-04-12T12:08:53.602Z</time></trkpt><trkpt lat="43.601887" lon="11.4438963"><ele>269.0</ele><time>2026-04-12T12:08:54.603Z</time></trkpt><trkpt lat="43.6020205" lon="11.4439344"><ele>269.0</ele><time>2026-04-12T12:08:55.602Z</time></trkpt><trkpt lat="43.6021451" lon="11.443967"><ele>269.0</ele><time>2026-04-12T12:08:56.603Z</time></trkpt><trkpt lat="43.6022633" lon="11.4439972"><ele>268.75</ele><time>2026-04-12T12:08:57.602Z</time></trkpt><trkpt lat="43.6023764" lon="11.4440296"><ele>268.5</ele><time>2026-04-12T12:08:58.602Z</time></trkpt><trkpt lat="43.6024812" lon="11.444138"><ele>268.25</ele><time>2026-04-12T12:08:59.602Z</time></trkpt><trkpt lat="43.6025575" lon="11.4443087"><ele>268.0</ele><time>2026-04-12T12:09:00.602Z</time></trkpt><trkpt lat="43.6026297" lon="11.4444757"><ele>268.0</ele><time>2026-04-12T12:09:01.602Z</time></trkpt><trkpt lat="43.6027008" lon="11.4446195"><ele>268.0</ele><time>2026-04-12T12:09:02.603Z</time></trkpt><trkpt lat="43.6027955" lon="11.4447389"><ele>268.0</ele><time>2026-04-12T12:09:03.603Z</time></trkpt><trkpt lat="43.6029177" lon="11.4448316"><ele>268.0</ele><time>2026-04-12T12:09:04.603Z</time></trkpt><trkpt lat="43.6030363" lon="11.4449093"><ele>266.75</ele><time>2026-04-12T12:09:05.602Z</time></trkpt><trkpt lat="43.603147" lon="11.4449849"><ele>265.5</ele><time>2026-04-12T12:09:06.602Z</time></trkpt><trkpt lat="43.6032526" lon="11.4450811"><ele>264.25</ele><time>2026-04-12T12:09:07.602Z</time></trkpt><trkpt lat="43.6033593" lon="11.4451776"><ele>263.0</ele><time>2026-04-12T12:09:08.602Z</time></trkpt><trkpt lat="43.6034694" lon="11.4452919"><ele>263.0</ele><time>2026-04-12T12:09:09.602Z</time></trkpt><trkpt lat="43.6035634" lon="11.445435"><ele>263.0</ele><time>2026-04-12T12:09:10.602Z</time></trkpt><trkpt lat="43.603635" lon="11.4456086"><ele>263.0</ele><time>2026-04-12T12:09:11.602Z</time></trkpt><trkpt lat="43.6036899" lon="11.4457907"><ele>263.0</ele><time>2026-04-12T12:09:12.603Z</time></trkpt><trkpt lat="43.6037372" lon="11.4459845"><ele>261.5</ele><time>2026-04-12T12:09:13.603Z</time></trkpt><trkpt lat="43.60376" lon="11.4461834"><ele>260.0</ele><time>2026-04-12T12:09:14.603Z</time></trkpt><trkpt lat="43.6037746" lon="11.4463608"><ele>258.5</ele><time>2026-04-12T12:09:15.603Z</time></trkpt><trkpt lat="43.6037657" lon="11.446511"><ele>257.0</ele><time>2026-04-12T12:09:16.602Z</time></trkpt><trkpt lat="43.6037453" lon="11.4466361"><ele>257.0</ele><time>2026-04-12T12:09:17.602Z</time></trkpt><trkpt lat="43.6036887" lon="11.4467432"><ele>257.0</ele><time>2026-04-12T12:09:18.602Z</time></trkpt><trkpt lat="43.6036023" lon="11.4468244"><ele>257.0</ele><time>2026-04-12T12:09:19.603Z</time></trkpt><trkpt lat="43.6035088" lon="11.446866"><ele>257.0</ele><time>2026-04-12T12:09:20.603Z</time></trkpt><trkpt lat="43.603416" lon="11.4468932"><ele>257.0</ele><time>2026-04-12T12:09:21.602Z</time></trkpt><trkpt lat="43.6033308" lon="11.4469531"><ele>256.0</ele><time>2026-04-12T12:09:22.603Z</time></trkpt><trkpt lat="43.6032658" lon="11.4470528"><ele>255.0</ele><time>2026-04-12T12:09:23.602Z</time></trkpt><trkpt lat="43.6032184" lon="11.4471874"><ele>254.0</ele><time>2026-04-12T12:09:24.602Z</time></trkpt><trkpt lat="43.6032276" lon="11.4473595"><ele>253.0</ele><time>2026-04-12T12:09:25.603Z</time></trkpt><trkpt lat="43.6032926" lon="11.4475165"><ele>250.75</ele><time>2026-04-12T12:09:26.602Z</time></trkpt><trkpt lat="43.6033762" lon="11.4476684"><ele>248.5</ele><time>2026-04-12T12:09:27.603Z</time></trkpt><trkpt lat="43.6034596" lon="11.4478188"><ele>246.25</ele><time>2026-04-12T12:09:28.602Z</time></trkpt><trkpt lat="43.6035349" lon="11.4479694"><ele>244.0</ele><time>2026-04-12T12:09:29.602Z</time></trkpt><trkpt lat="43.6036068" lon="11.4481054"><ele>240.75</ele><time>2026-04-12T12:09:30.602Z</time></trkpt><trkpt lat="43.6036795" lon="11.4482481"><ele>237.5</ele><time>2026-04-12T12:09:31.602Z</time></trkpt><trkpt lat="43.6037536" lon="11.4483812"><ele>234.25</ele><time>2026-04-12T12:09:32.603Z</time></trkpt><trkpt lat="43.6038481" lon="11.4484989"><ele>231.0</ele><time>2026-04-12T12:09:33.602Z</time></trkpt><trkpt lat="43.6039831" lon="11.448584"><ele>231.0</ele><time>2026-04-12T12:09:34.603Z</time></trkpt><trkpt lat="43.6041392" lon="11.4486196"><ele>231.0</ele><time>2026-04-12T12:09:35.602Z</time></trkpt><trkpt lat="43.6043066" lon="11.4486515"><ele>231.0</ele><time>2026-04-12T12:09:36.603Z</time></trkpt><trkpt lat="43.6044831" lon="11.4486746"><ele>228.66666666666669</ele><time>2026-04-12T12:09:37.603Z</time></trkpt><trkpt lat="43.6046562" lon="11.4486944"><ele>226.33333333333334</ele><time>2026-04-12T12:09:38.603Z</time></trkpt><trkpt lat="43.604822" lon="11.4487303"><ele>224.0</ele><time>2026-04-12T12:09:39.602Z</time></trkpt><trkpt lat="43.6049743" lon="11.448767"><ele>222.0</ele><time>2026-04-12T12:09:40.603Z</time></trkpt><trkpt lat="43.6051312" lon="11.4488171"><ele>220.0</ele><time>2026-04-12T12:09:41.602Z</time></trkpt><trkpt lat="43.6052783" lon="11.4488846"><ele>218.0</ele><time>2026-04-12T12:09:42.602Z</time></trkpt><trkpt lat="43.6054199" lon="11.4489569"><ele>218.0</ele><time>2026-04-12T12:09:43.602Z</time></trkpt><trkpt lat="43.6055321" lon="11.4490268"><ele>218.0</ele><time>2026-04-12T12:09:44.602Z</time></trkpt><trkpt lat="43.6056467" lon="11.4491057"><ele>218.0</ele><time>2026-04-12T12:09:45.602Z</time></trkpt><trkpt lat="43.6057202" lon="11.4492221"><ele>218.0</ele><time>2026-04-12T12:09:46.602Z</time></trkpt><trkpt lat="43.6057536" lon="11.4494001"><ele>218.0</ele><time>2026-04-12T12:09:47.603Z</time></trkpt><trkpt lat="43.6057722" lon="11.449591"><ele>218.0</ele><time>2026-04-12T12:09:48.602Z</time></trkpt><trkpt lat="43.6057773" lon="11.4497748"><ele>218.0</ele><time>2026-04-12T12:09:49.603Z</time></trkpt><trkpt lat="43.6057945" lon="11.4499371"><ele>218.0</ele><time>2026-04-12T12:09:50.602Z</time></trkpt><trkpt lat="43.6058355" lon="11.4500749"><ele>218.0</ele><time>2026-04-12T12:09:51.603Z</time></trkpt><trkpt lat="43.6058743" lon="11.4502173"><ele>218.0</ele><time>2026-04-12T12:09:52.603Z</time></trkpt><trkpt lat="43.6058853" lon="11.4503725"><ele>218.0</ele><time>2026-04-12T12:09:53.603Z</time></trkpt><trkpt lat="43.6058688" lon="11.4505178"><ele>218.0</ele><time>2026-04-12T12:09:54.603Z</time></trkpt><trkpt lat="43.6058088" lon="11.4506619"><ele>218.0</ele><time>2026-04-12T12:09:55.603Z</time></trkpt><trkpt lat="43.6057083" lon="11.4508374"><ele>218.0</ele><time>2026-04-12T12:09:56.603Z</time></trkpt><trkpt lat="43.6056013" lon="11.4509855"><ele>218.0</ele><time>2026-04-12T12:09:57.602Z</time></trkpt><trkpt lat="43.6054683" lon="11.4511071"><ele>218.0</ele><time>2026-04-12T12:09:58.602Z</time></trkpt><trkpt lat="43.6053497" lon="11.451189"><ele>218.0</ele><time>2026-04-12T12:09:59.602Z</time></trkpt><trkpt lat="43.6052212" lon="11.4512666"><ele>218.0</ele><time>2026-04-12T12:10:00.602Z</time></trkpt><trkpt lat="43.6051001" lon="11.4513354"><ele>218.0</ele><time>2026-04-12T12:10:01.603Z</time></trkpt><trkpt lat="43.6049786" lon="11.4514028"><ele>215.60000000000002</ele><time>2026-04-12T12:10:02.602Z</time></trkpt><trkpt lat="43.604862" lon="11.4514843"><ele>213.20000000000002</ele><time>2026-04-12T12:10:03.602Z</time></trkpt><trkpt lat="43.6047575" lon="11.4515508"><ele>210.8</ele><time>2026-04-12T12:10:04.603Z</time></trkpt><trkpt lat="43.604658" lon="11.4515703"><ele>208.4</ele><time>2026-04-12T12:10:05.602Z</time></trkpt><trkpt lat="43.6045862" lon="11.4515302"><ele>206.0</ele><time>2026-04-12T12:10:06.603Z</time></trkpt><trkpt lat="43.6044872" lon="11.4514974"><ele>206.0</ele><time>2026-04-12T12:10:08.603Z</time></trkpt><trkpt lat="43.6044659" lon="11.4516039"><ele>206.0</ele><time>2026-04-12T12:10:09.602Z</time></trkpt><trkpt lat="43.6044843" lon="11.4516926"><ele>206.0</ele><time>2026-04-12T12:10:10.603Z</time></trkpt><trkpt lat="43.6045523" lon="11.4517871"><ele>206.0</ele><time>2026-04-12T12:10:11.602Z</time></trkpt><trkpt lat="43.6046519" lon="11.4518554"><ele>206.0</ele><time>2026-04-12T12:10:12.602Z</time></trkpt><trkpt lat="43.6047741" lon="11.4518851"><ele>205.25</ele><time>2026-04-12T12:10:13.602Z</time></trkpt><trkpt lat="43.6049031" lon="11.4518951"><ele>204.5</ele><time>2026-04-12T12:10:14.602Z</time></trkpt><trkpt lat="43.6050152" lon="11.4519427"><ele>203.75</ele><time>2026-04-12T12:10:15.602Z</time></trkpt><trkpt lat="43.6051234" lon="11.4520182"><ele>203.0</ele><time>2026-04-12T12:10:16.602Z</time></trkpt><trkpt lat="43.6052268" lon="11.4521132"><ele>201.75</ele><time>2026-04-12T12:10:17.602Z</time></trkpt><trkpt lat="43.6053141" lon="11.4522341"><ele>200.5</ele><time>2026-04-12T12:10:18.602Z</time></trkpt><trkpt lat="43.6054022" lon="11.4523878"><ele>199.25</ele><time>2026-04-12T12:10:19.602Z</time></trkpt><trkpt lat="43.6054861" lon="11.4525375"><ele>198.0</ele><time>2026-04-12T12:10:20.603Z</time></trkpt><trkpt lat="43.6055745" lon="11.4526872"><ele>198.0</ele><time>2026-04-12T12:10:21.602Z</time></trkpt><trkpt lat="43.6056459" lon="11.4528325"><ele>198.0</ele><time>2026-04-12T12:10:22.603Z</time></trkpt><trkpt lat="43.6057061" lon="11.4529845"><ele>198.0</ele><time>2026-04-12T12:10:23.602Z</time></trkpt><trkpt lat="43.6057518" lon="11.4531321"><ele>198.0</ele><time>2026-04-12T12:10:24.603Z</time></trkpt><trkpt lat="43.6057959" lon="11.4532877"><ele>196.0</ele><time>2026-04-12T12:10:25.602Z</time></trkpt><trkpt lat="43.6058514" lon="11.4534426"><ele>194.0</ele><time>2026-04-12T12:10:26.602Z</time></trkpt><trkpt lat="43.6059202" lon="11.4535899"><ele>192.0</ele><time>2026-04-12T12:10:27.603Z</time></trkpt><trkpt lat="43.6059995" lon="11.4537333"><ele>190.0</ele><time>2026-04-12T12:10:28.602Z</time></trkpt><trkpt lat="43.6060886" lon="11.4538831"><ele>188.25</ele><time>2026-04-12T12:10:29.602Z</time></trkpt><trkpt lat="43.6061759" lon="11.454032"><ele>186.5</ele><time>2026-04-12T12:10:30.602Z</time></trkpt><trkpt lat="43.606253" lon="11.4541825"><ele>184.75</ele><time>2026-04-12T12:10:31.602Z</time></trkpt><trkpt lat="43.6063228" lon="11.4543332"><ele>183.0</ele><time>2026-04-12T12:10:32.603Z</time></trkpt><trkpt lat="43.6063926" lon="11.454477"><ele>183.0</ele><time>2026-04-12T12:10:33.603Z</time></trkpt><trkpt lat="43.6064631" lon="11.4546102"><ele>183.0</ele><time>2026-04-12T12:10:34.602Z</time></trkpt><trkpt lat="43.6065401" lon="11.4547349"><ele>183.0</ele><time>2026-04-12T12:10:35.602Z</time></trkpt><trkpt lat="43.606628" lon="11.4548055"><ele>183.0</ele><time>2026-04-12T12:10:36.602Z</time></trkpt><trkpt lat="43.6067456" lon="11.4548318"><ele>180.0</ele><time>2026-04-12T12:10:37.602Z</time></trkpt><trkpt lat="43.6068717" lon="11.4548118"><ele>177.0</ele><time>2026-04-12T12:10:38.602Z</time></trkpt><trkpt lat="43.607004" lon="11.4547903"><ele>174.0</ele><time>2026-04-12T12:10:39.602Z</time></trkpt><trkpt lat="43.6071268" lon="11.4547884"><ele>171.0</ele><time>2026-04-12T12:10:40.603Z</time></trkpt><trkpt lat="43.6072478" lon="11.4548308"><ele>171.0</ele><time>2026-04-12T12:10:41.602Z</time></trkpt><trkpt lat="43.6073628" lon="11.4549177"><ele>171.0</ele><time>2026-04-12T12:10:42.602Z</time></trkpt><trkpt lat="43.6074669" lon="11.4550458"><ele>171.0</ele><time>2026-04-12T12:10:43.602Z</time></trkpt><trkpt lat="43.6075583" lon="11.4551855"><ele>171.0</ele><time>2026-04-12T12:10:44.602Z</time></trkpt><trkpt lat="43.6076435" lon="11.4553282"><ele>167.75</ele><time>2026-04-12T12:10:45.602Z</time></trkpt><trkpt lat="43.6077118" lon="11.4554725"><ele>164.5</ele><time>2026-04-12T12:10:46.603Z</time></trkpt><trkpt lat="43.6077842" lon="11.4556133"><ele>161.25</ele><time>2026-04-12T12:10:47.602Z</time></trkpt><trkpt lat="43.6078631" lon="11.4557237"><ele>158.0</ele><time>2026-04-12T12:10:48.603Z</time></trkpt><trkpt lat="43.6079469" lon="11.4558295"><ele>158.0</ele><time>2026-04-12T12:10:49.603Z</time></trkpt><trkpt lat="43.6080536" lon="11.4558871"><ele>158.0</ele><time>2026-04-12T12:10:50.603Z</time></trkpt><trkpt lat="43.6081787" lon="11.4558716"><ele>158.0</ele><time>2026-04-12T12:10:51.603Z</time></trkpt><trkpt lat="43.6083043" lon="11.4558206"><ele>158.0</ele><time>2026-04-12T12:10:52.602Z</time></trkpt><trkpt lat="43.608411" lon="11.4557202"><ele>158.0</ele><time>2026-04-12T12:10:53.602Z</time></trkpt><trkpt lat="43.6084877" lon="11.4556176"><ele>158.0</ele><time>2026-04-12T12:10:54.602Z</time></trkpt><trkpt lat="43.6085581" lon="11.4555306"><ele>158.0</ele><time>2026-04-12T12:10:55.603Z</time></trkpt><trkpt lat="43.6086334" lon="11.4554741"><ele>158.0</ele><time>2026-04-12T12:10:56.602Z</time></trkpt><trkpt lat="43.6087336" lon="11.4554802"><ele>158.0</ele><time>2026-04-12T12:10:57.602Z</time></trkpt><trkpt lat="43.6088119" lon="11.4555346"><ele>157.8</ele><time>2026-04-12T12:10:58.602Z</time></trkpt><trkpt lat="43.6088689" lon="11.4556444"><ele>157.60000000000002</ele><time>2026-04-12T12:10:59.603Z</time></trkpt><trkpt lat="43.6088904" lon="11.4557849"><ele>157.39999999999998</ele><time>2026-04-12T12:11:00.602Z</time></trkpt><trkpt lat="43.6089022" lon="11.4559479"><ele>157.2</ele><time>2026-04-12T12:11:01.603Z</time></trkpt><trkpt lat="43.6089211" lon="11.4561144"><ele>157.0</ele><time>2026-04-12T12:11:02.603Z</time></trkpt><trkpt lat="43.6089621" lon="11.4562917"><ele>157.0</ele><time>2026-04-12T12:11:03.603Z</time></trkpt><trkpt lat="43.6089997" lon="11.4564716"><ele>157.0</ele><time>2026-04-12T12:11:04.602Z</time></trkpt><trkpt lat="43.6090475" lon="11.456654"><ele>157.0</ele><time>2026-04-12T12:11:05.603Z</time></trkpt><trkpt lat="43.6091209" lon="11.4568134"><ele>157.0</ele><time>2026-04-12T12:11:06.603Z</time></trkpt><trkpt lat="43.6092186" lon="11.4569639"><ele>157.0</ele><time>2026-04-12T12:11:07.602Z</time></trkpt><trkpt lat="43.6093417" lon="11.4570934"><ele>157.0</ele><time>2026-04-12T12:11:08.603Z</time></trkpt><trkpt lat="43.6094959" lon="11.4572174"><ele>157.0</ele><time>2026-04-12T12:11:09.602Z</time></trkpt><trkpt lat="43.6096385" lon="11.4573476"><ele>155.0</ele><time>2026-04-12T12:11:10.602Z</time></trkpt><trkpt lat="43.609785" lon="11.4574842"><ele>153.0</ele><time>2026-04-12T12:11:11.603Z</time></trkpt><trkpt lat="43.6099373" lon="11.4576237"><ele>151.0</ele><time>2026-04-12T12:11:12.603Z</time></trkpt><trkpt lat="43.6100813" lon="11.4577541"><ele>151.0</ele><time>2026-04-12T12:11:13.602Z</time></trkpt><trkpt lat="43.6102216" lon="11.4578728"><ele>151.0</ele><time>2026-04-12T12:11:14.603Z</time></trkpt><trkpt lat="43.610359" lon="11.457991"><ele>151.0</ele><time>2026-04-12T12:11:15.602Z</time></trkpt><trkpt lat="43.6104954" lon="11.4580929"><ele>149.66666666666669</ele><time>2026-04-12T12:11:16.603Z</time></trkpt><trkpt lat="43.6106433" lon="11.4581874"><ele>148.33333333333334</ele><time>2026-04-12T12:11:17.602Z</time></trkpt><trkpt lat="43.6108011" lon="11.4582615"><ele>147.0</ele><time>2026-04-12T12:11:18.602Z</time></trkpt><trkpt lat="43.6109663" lon="11.4583178"><ele>147.0</ele><time>2026-04-12T12:11:19.602Z</time></trkpt><trkpt lat="43.6111346" lon="11.458351"><ele>147.0</ele><time>2026-04-12T12:11:20.602Z</time></trkpt><trkpt lat="43.6113158" lon="11.4583617"><ele>147.0</ele><time>2026-04-12T12:11:21.603Z</time></trkpt><trkpt lat="43.6115084" lon="11.4583522"><ele>147.0</ele><time>2026-04-12T12:11:22.602Z</time></trkpt><trkpt lat="43.6116939" lon="11.4583275"><ele>147.0</ele><time>2026-04-12T12:11:23.603Z</time></trkpt><trkpt lat="43.6118792" lon="11.4583154"><ele>147.0</ele><time>2026-04-12T12:11:24.602Z</time></trkpt><trkpt lat="43.6120656" lon="11.4582946"><ele>147.0</ele><time>2026-04-12T12:11:25.603Z</time></trkpt><trkpt lat="43.6122529" lon="11.4582729"><ele>147.0</ele><time>2026-04-12T12:11:26.602Z</time></trkpt><trkpt lat="43.61243" lon="11.4582556"><ele>147.0</ele><time>2026-04-12T12:11:27.602Z</time></trkpt><trkpt lat="43.6125957" lon="11.4582402"><ele>147.0</ele><time>2026-04-12T12:11:28.603Z</time></trkpt><trkpt lat="43.6127475" lon="11.4582247"><ele>147.0</ele><time>2026-04-12T12:11:29.602Z</time></trkpt><trkpt lat="43.6128967" lon="11.4581962"><ele>147.0</ele><time>2026-04-12T12:11:30.602Z</time></trkpt><trkpt lat="43.6130319" lon="11.458178"><ele>147.0</ele><time>2026-04-12T12:11:31.602Z</time></trkpt><trkpt lat="43.6131735" lon="11.4581369"><ele>145.66666666666666</ele><time>2026-04-12T12:11:32.602Z</time></trkpt><trkpt lat="43.6133245" lon="11.4580859"><ele>144.33333333333331</ele><time>2026-04-12T12:11:33.602Z</time></trkpt><trkpt lat="43.6134816" lon="11.458015"><ele>143.0</ele><time>2026-04-12T12:11:34.602Z</time></trkpt><trkpt lat="43.6136304" lon="11.4579266"><ele>141.5</ele><time>2026-04-12T12:11:35.603Z</time></trkpt><trkpt lat="43.6137655" lon="11.4578543"><ele>140.0</ele><time>2026-04-12T12:11:36.603Z</time></trkpt><trkpt lat="43.6138994" lon="11.4577908"><ele>138.5</ele><time>2026-04-12T12:11:37.603Z</time></trkpt><trkpt lat="43.6140286" lon="11.4577326"><ele>137.0</ele><time>2026-04-12T12:11:38.603Z</time></trkpt><trkpt lat="43.6141513" lon="11.4576913"><ele>137.0</ele><time>2026-04-12T12:11:39.603Z</time></trkpt><trkpt lat="43.6142598" lon="11.4576361"><ele>137.0</ele><time>2026-04-12T12:11:40.602Z</time></trkpt><trkpt lat="43.614366" lon="11.4575834"><ele>137.0</ele><time>2026-04-12T12:11:41.603Z</time></trkpt><trkpt lat="43.6144569" lon="11.4575373"><ele>137.0</ele><time>2026-04-12T12:11:42.602Z</time></trkpt><trkpt lat="43.6145461" lon="11.4574837"><ele>137.0</ele><time>2026-04-12T12:11:44.602Z</time></trkpt><trkpt lat="43.6146084" lon="11.4574994"><ele>136.6</ele><time>2026-04-12T12:11:46.602Z</time></trkpt><trkpt lat="43.614655" lon="11.457575"><ele>136.2</ele><time>2026-04-12T12:11:47.602Z</time></trkpt><trkpt lat="43.6147" lon="11.4576748"><ele>135.8</ele><time>2026-04-12T12:11:48.602Z</time></trkpt><trkpt lat="43.6147426" lon="11.4577952"><ele>135.4</ele><time>2026-04-12T12:11:49.602Z</time></trkpt><trkpt lat="43.6148122" lon="11.4579062"><ele>135.0</ele><time>2026-04-12T12:11:50.602Z</time></trkpt><trkpt lat="43.6148987" lon="11.4580025"><ele>135.0</ele><time>2026-04-12T12:11:51.602Z</time></trkpt><trkpt lat="43.6149985" lon="11.4581123"><ele>135.0</ele><time>2026-04-12T12:11:52.602Z</time></trkpt><trkpt lat="43.6150907" lon="11.4582475"><ele>135.0</ele><time>2026-04-12T12:11:53.603Z</time></trkpt><trkpt lat="43.615188" lon="11.4583896"><ele>135.0</ele><time>2026-04-12T12:11:54.602Z</time></trkpt><trkpt lat="43.615292" lon="11.458519"><ele>134.75</ele><time>2026-04-12T12:11:55.602Z</time></trkpt><trkpt lat="43.6153972" lon="11.4586458"><ele>134.5</ele><time>2026-04-12T12:11:56.602Z</time></trkpt><trkpt lat="43.6155133" lon="11.4587703"><ele>134.25</ele><time>2026-04-12T12:11:57.603Z</time></trkpt><trkpt lat="43.61564" lon="11.4588854"><ele>134.0</ele><time>2026-04-12T12:11:58.603Z</time></trkpt><trkpt lat="43.6157649" lon="11.458997"><ele>134.0</ele><time>2026-04-12T12:11:59.603Z</time></trkpt><trkpt lat="43.6159156" lon="11.4590769"><ele>134.0</ele><time>2026-04-12T12:12:00.602Z</time></trkpt><trkpt lat="43.6160806" lon="11.459115"><ele>134.0</ele><time>2026-04-12T12:12:01.602Z</time></trkpt><trkpt lat="43.6162575" lon="11.459129"><ele>133.66666666666666</ele><time>2026-04-12T12:12:02.602Z</time></trkpt><trkpt lat="43.6164339" lon="11.4591468"><ele>133.33333333333334</ele><time>2026-04-12T12:12:03.602Z</time></trkpt><trkpt lat="43.6166119" lon="11.4591727"><ele>133.0</ele><time>2026-04-12T12:12:04.602Z</time></trkpt><trkpt lat="43.616789" lon="11.4592064"><ele>133.0</ele><time>2026-04-12T12:12:05.602Z</time></trkpt><trkpt lat="43.6169646" lon="11.459253"><ele>133.0</ele><time>2026-04-12T12:12:06.603Z</time></trkpt><trkpt lat="43.617136" lon="11.4593157"><ele>133.0</ele><time>2026-04-12T12:12:07.602Z</time></trkpt><trkpt lat="43.6172982" lon="11.4593842"><ele>132.66666666666669</ele><time>2026-04-12T12:12:08.602Z</time></trkpt><trkpt lat="43.6174631" lon="11.4594506"><ele>132.33333333333334</ele><time>2026-04-12T12:12:09.603Z</time></trkpt><trkpt lat="43.6176371" lon="11.4595122"><ele>132.0</ele><time>2026-04-12T12:12:10.603Z</time></trkpt><trkpt lat="43.6178064" lon="11.4595521"><ele>131.66666666666666</ele><time>2026-04-12T12:12:11.603Z</time></trkpt><trkpt lat="43.6179847" lon="11.459551"><ele>131.33333333333331</ele><time>2026-04-12T12:12:12.603Z</time></trkpt><trkpt lat="43.6181613" lon="11.4595339"><ele>131.0</ele><time>2026-04-12T12:12:13.603Z</time></trkpt><trkpt lat="43.6183465" lon="11.4594947"><ele>131.0</ele><time>2026-04-12T12:12:14.602Z</time></trkpt><trkpt lat="43.6185274" lon="11.4594694"><ele>131.0</ele><time>2026-04-12T12:12:15.603Z</time></trkpt><trkpt lat="43.6187095" lon="11.4594447"><ele>131.0</ele><time>2026-04-12T12:12:16.602Z</time></trkpt><trkpt lat="43.618874" lon="11.4594396"><ele>130.66666666666666</ele><time>2026-04-12T12:12:17.603Z</time></trkpt><trkpt lat="43.6190447" lon="11.4594504"><ele>130.33333333333334</ele><time>2026-04-12T12:12:18.602Z</time></trkpt><trkpt lat="43.6192294" lon="11.4594839"><ele>130.0</ele><time>2026-04-12T12:12:19.602Z</time></trkpt><trkpt lat="43.6194143" lon="11.4595213"><ele>130.0</ele><time>2026-04-12T12:12:20.602Z</time></trkpt><trkpt lat="43.6196055" lon="11.4595871"><ele>130.0</ele><time>2026-04-12T12:12:21.603Z</time></trkpt><trkpt lat="43.6197898" lon="11.4596736"><ele>130.0</ele><time>2026-04-12T12:12:22.602Z</time></trkpt><trkpt lat="43.6199803" lon="11.4597678"><ele>130.0</ele><time>2026-04-12T12:12:23.603Z</time></trkpt><trkpt lat="43.6201739" lon="11.4598624"><ele>130.0</ele><time>2026-04-12T12:12:24.603Z</time></trkpt><trkpt lat="43.6203699" lon="11.4599582"><ele>130.0</ele><time>2026-04-12T12:12:25.603Z</time></trkpt><trkpt lat="43.6205673" lon="11.4600533"><ele>129.33333333333334</ele><time>2026-04-12T12:12:26.603Z</time></trkpt><trkpt lat="43.6207595" lon="11.4601485"><ele>128.66666666666666</ele><time>2026-04-12T12:12:27.602Z</time></trkpt><trkpt lat="43.6209412" lon="11.4602468"><ele>128.0</ele><time>2026-04-12T12:12:28.603Z</time></trkpt><trkpt lat="43.6211333" lon="11.4603379"><ele>128.0</ele><time>2026-04-12T12:12:29.602Z</time></trkpt><trkpt lat="43.6213238" lon="11.460429"><ele>128.0</ele><time>2026-04-12T12:12:30.603Z</time></trkpt><trkpt lat="43.6215178" lon="11.4605149"><ele>128.0</ele><time>2026-04-12T12:12:31.602Z</time></trkpt><trkpt lat="43.6216863" lon="11.4606038"><ele>128.0</ele><time>2026-04-12T12:12:32.603Z</time></trkpt><trkpt lat="43.6218334" lon="11.4606806"><ele>128.0</ele><time>2026-04-12T12:12:33.602Z</time></trkpt><trkpt lat="43.6219665" lon="11.4607324"><ele>128.0</ele><time>2026-04-12T12:12:34.603Z</time></trkpt><trkpt lat="43.6220611" lon="11.4607671"><ele>128.0</ele><time>2026-04-12T12:12:35.603Z</time></trkpt><trkpt lat="43.6221397" lon="11.4607904"><ele>127.99999999999999</ele><time>2026-04-12T12:12:36.602Z</time></trkpt><trkpt lat="43.6222351" lon="11.4608222"><ele>128.0</ele><time>2026-04-12T12:12:38.603Z</time></trkpt><trkpt lat="43.622302" lon="11.4608353"><ele>128.0</ele><time>2026-04-12T12:12:41.602Z</time></trkpt><trkpt lat="43.6223463" lon="11.4607016"><ele>128.0</ele><time>2026-04-12T12:12:43.602Z</time></trkpt><trkpt lat="43.6223459" lon="11.4605958"><ele>127.99999999999999</ele><time>2026-04-12T12:12:44.602Z</time></trkpt><trkpt lat="43.62234" lon="11.4604725"><ele>128.0</ele><time>2026-04-12T12:12:45.602Z</time></trkpt><trkpt lat="43.6223412" lon="11.4603383"><ele>127.75</ele><time>2026-04-12T12:12:46.602Z</time></trkpt><trkpt lat="43.6223348" lon="11.4601865"><ele>127.5</ele><time>2026-04-12T12:12:47.602Z</time></trkpt><trkpt lat="43.6223091" lon="11.4600404"><ele>127.25</ele><time>2026-04-12T12:12:48.602Z</time></trkpt><trkpt lat="43.6222586" lon="11.4598808"><ele>127.0</ele><time>2026-04-12T12:12:49.602Z</time></trkpt><trkpt lat="43.622206" lon="11.45972"><ele>127.19999999999999</ele><time>2026-04-12T12:12:50.603Z</time></trkpt><trkpt lat="43.6221504" lon="11.4595737"><ele>127.39999999999999</ele><time>2026-04-12T12:12:51.602Z</time></trkpt><trkpt lat="43.6221144" lon="11.4594415"><ele>127.60000000000001</ele><time>2026-04-12T12:12:52.602Z</time></trkpt><trkpt lat="43.6220829" lon="11.4593062"><ele>127.80000000000001</ele><time>2026-04-12T12:12:53.602Z</time></trkpt><trkpt lat="43.6220732" lon="11.4591657"><ele>128.0</ele><time>2026-04-12T12:12:54.602Z</time></trkpt><trkpt lat="43.6220819" lon="11.4590274"><ele>128.0</ele><time>2026-04-12T12:12:55.603Z</time></trkpt><trkpt lat="43.6221333" lon="11.4588924"><ele>128.0</ele><time>2026-04-12T12:12:56.602Z</time></trkpt><trkpt lat="43.6222128" lon="11.4587614"><ele>128.0</ele><time>2026-04-12T12:12:57.602Z</time></trkpt><trkpt lat="43.6223028" lon="11.4586304"><ele>128.0</ele><time>2026-04-12T12:12:58.602Z</time></trkpt><trkpt lat="43.6224081" lon="11.4584884"><ele>128.33333333333331</ele><time>2026-04-12T12:12:59.602Z</time></trkpt><trkpt lat="43.622534" lon="11.4583667"><ele>128.66666666666666</ele><time>2026-04-12T12:13:00.602Z</time></trkpt><trkpt lat="43.6226703" lon="11.4582707"><ele>129.0</ele><time>2026-04-12T12:13:01.602Z</time></trkpt><trkpt lat="43.6228172" lon="11.4581911"><ele>130.33333333333334</ele><time>2026-04-12T12:13:02.602Z</time></trkpt><trkpt lat="43.6229834" lon="11.4581483"><ele>131.66666666666669</ele><time>2026-04-12T12:13:03.603Z</time></trkpt><trkpt lat="43.6231473" lon="11.4581336"><ele>133.0</ele><time>2026-04-12T12:13:04.603Z</time></trkpt><trkpt lat="43.6233163" lon="11.4581625"><ele>133.0</ele><time>2026-04-12T12:13:05.602Z</time></trkpt><trkpt lat="43.6234812" lon="11.4582187"><ele>133.0</ele><time>2026-04-12T12:13:06.603Z</time></trkpt><trkpt lat="43.623654" lon="11.4583013"><ele>133.0</ele><time>2026-04-12T12:13:07.602Z</time></trkpt><trkpt lat="43.6238171" lon="11.4584065"><ele>135.0</ele><time>2026-04-12T12:13:08.603Z</time></trkpt><trkpt lat="43.6239813" lon="11.4585097"><ele>137.0</ele><time>2026-04-12T12:13:09.602Z</time></trkpt><trkpt lat="43.6241554" lon="11.4586169"><ele>139.0</ele><time>2026-04-12T12:13:10.603Z</time></trkpt><trkpt lat="43.6243326" lon="11.4587059"><ele>139.0</ele><time>2026-04-12T12:13:11.603Z</time></trkpt><trkpt lat="43.6245157" lon="11.4587687"><ele>139.0</ele><time>2026-04-12T12:13:12.602Z</time></trkpt><trkpt lat="43.6246979" lon="11.4588075"><ele>139.0</ele><time>2026-04-12T12:13:13.602Z</time></trkpt><trkpt lat="43.624878" lon="11.4588064"><ele>139.0</ele><time>2026-04-12T12:13:14.603Z</time></trkpt><trkpt lat="43.6250693" lon="11.458751"><ele>139.0</ele><time>2026-04-12T12:13:15.602Z</time></trkpt><trkpt lat="43.6252505" lon="11.4586614"><ele>139.0</ele><time>2026-04-12T12:13:16.603Z</time></trkpt><trkpt lat="43.6254308" lon="11.4585578"><ele>138.33333333333334</ele><time>2026-04-12T12:13:17.603Z</time></trkpt><trkpt lat="43.6256159" lon="11.4584464"><ele>137.66666666666666</ele><time>2026-04-12T12:13:18.602Z</time></trkpt><trkpt lat="43.6258003" lon="11.4583284"><ele>137.0</ele><time>2026-04-12T12:13:19.602Z</time></trkpt><trkpt lat="43.6259848" lon="11.4582203"><ele>136.0</ele><time>2026-04-12T12:13:20.602Z</time></trkpt><trkpt lat="43.6261726" lon="11.4581154"><ele>135.0</ele><time>2026-04-12T12:13:21.602Z</time></trkpt><trkpt lat="43.6263511" lon="11.458009"><ele>134.0</ele><time>2026-04-12T12:13:22.602Z</time></trkpt><trkpt lat="43.6265166" lon="11.4579"><ele>134.66666666666666</ele><time>2026-04-12T12:13:23.603Z</time></trkpt><trkpt lat="43.6266822" lon="11.4577909"><ele>135.33333333333334</ele><time>2026-04-12T12:13:24.603Z</time></trkpt><trkpt lat="43.6268405" lon="11.4576839"><ele>136.0</ele><time>2026-04-12T12:13:25.603Z</time></trkpt><trkpt lat="43.6269884" lon="11.4575772"><ele>136.0</ele><time>2026-04-12T12:13:26.603Z</time></trkpt><trkpt lat="43.6271308" lon="11.4574794"><ele>136.0</ele><time>2026-04-12T12:13:27.603Z</time></trkpt><trkpt lat="43.6272663" lon="11.4573788"><ele>136.0</ele><time>2026-04-12T12:13:28.602Z</time></trkpt><trkpt lat="43.6273944" lon="11.4572835"><ele>136.0</ele><time>2026-04-12T12:13:29.602Z</time></trkpt><trkpt lat="43.6275204" lon="11.4571823"><ele>136.0</ele><time>2026-04-12T12:13:30.603Z</time></trkpt><trkpt lat="43.6276465" lon="11.4570879"><ele>136.0</ele><time>2026-04-12T12:13:31.602Z</time></trkpt><trkpt lat="43.6277681" lon="11.4569933"><ele>136.0</ele><time>2026-04-12T12:13:32.602Z</time></trkpt><trkpt lat="43.627883" lon="11.4568889"><ele>135.0</ele><time>2026-04-12T12:13:33.602Z</time></trkpt><trkpt lat="43.6279999" lon="11.456796"><ele>134.0</ele><time>2026-04-12T12:13:34.602Z</time></trkpt><trkpt lat="43.6281042" lon="11.4567052"><ele>133.0</ele><time>2026-04-12T12:13:35.602Z</time></trkpt><trkpt lat="43.628208" lon="11.4566137"><ele>132.0</ele><time>2026-04-12T12:13:36.602Z</time></trkpt><trkpt lat="43.6283028" lon="11.4565312"><ele>132.0</ele><time>2026-04-12T12:13:37.602Z</time></trkpt><trkpt lat="43.6283921" lon="11.4564648"><ele>132.0</ele><time>2026-04-12T12:13:38.603Z</time></trkpt><trkpt lat="43.628475" lon="11.4564177"><ele>132.0</ele><time>2026-04-12T12:13:39.602Z</time></trkpt><trkpt lat="43.6285492" lon="11.4563915"><ele>132.0</ele><time>2026-04-12T12:13:40.602Z</time></trkpt><trkpt lat="43.6286165" lon="11.4563803"><ele>132.0</ele><time>2026-04-12T12:13:41.603Z</time></trkpt><trkpt lat="43.6286856" lon="11.4563863"><ele>132.0</ele><time>2026-04-12T12:13:42.602Z</time></trkpt><trkpt lat="43.6287642" lon="11.4564245"><ele>131.16666666666666</ele><time>2026-04-12T12:13:43.602Z</time></trkpt><trkpt lat="43.6288314" lon="11.4565033"><ele>130.33333333333334</ele><time>2026-04-12T12:13:44.603Z</time></trkpt><trkpt lat="43.628877" lon="11.4566098"><ele>129.5</ele><time>2026-04-12T12:13:45.603Z</time></trkpt><trkpt lat="43.6289059" lon="11.4567256"><ele>128.66666666666669</ele><time>2026-04-12T12:13:46.603Z</time></trkpt><trkpt lat="43.6289314" lon="11.4568384"><ele>127.83333333333334</ele><time>2026-04-12T12:13:47.602Z</time></trkpt><trkpt lat="43.6289557" lon="11.4569265"><ele>127.0</ele><time>2026-04-12T12:13:48.602Z</time></trkpt><trkpt lat="43.6289768" lon="11.4570389"><ele>127.00000000000001</ele><time>2026-04-12T12:13:50.602Z</time></trkpt><trkpt lat="43.6290243" lon="11.4571093"><ele>127.0</ele><time>2026-04-12T12:13:53.602Z</time></trkpt><trkpt lat="43.6291042" lon="11.4570175"><ele>127.0</ele><time>2026-04-12T12:13:55.602Z</time></trkpt><trkpt lat="43.6291613" lon="11.4569532"><ele>127.0</ele><time>2026-04-12T12:13:56.602Z</time></trkpt><trkpt lat="43.6292419" lon="11.4568926"><ele>127.00000000000001</ele><time>2026-04-12T12:13:57.603Z</time></trkpt><trkpt lat="43.6293285" lon="11.4568409"><ele>127.0</ele><time>2026-04-12T12:13:58.602Z</time></trkpt><trkpt lat="43.6294127" lon="11.4567836"><ele>127.6</ele><time>2026-04-12T12:13:59.603Z</time></trkpt><trkpt lat="43.6295005" lon="11.4567201"><ele>128.2</ele><time>2026-04-12T12:14:00.603Z</time></trkpt><trkpt lat="43.6295848" lon="11.4566528"><ele>128.8</ele><time>2026-04-12T12:14:01.602Z</time></trkpt><trkpt lat="43.629673" lon="11.4565998"><ele>129.4</ele><time>2026-04-12T12:14:02.602Z</time></trkpt><trkpt lat="43.6297653" lon="11.456562"><ele>130.0</ele><time>2026-04-12T12:14:03.602Z</time></trkpt><trkpt lat="43.6298547" lon="11.4565277"><ele>130.0</ele><time>2026-04-12T12:14:04.602Z</time></trkpt><trkpt lat="43.629941" lon="11.4564932"><ele>130.0</ele><time>2026-04-12T12:14:05.602Z</time></trkpt><trkpt lat="43.6300264" lon="11.4564557"><ele>130.0</ele><time>2026-04-12T12:14:06.603Z</time></trkpt><trkpt lat="43.6301214" lon="11.4564246"><ele>130.0</ele><time>2026-04-12T12:14:07.602Z</time></trkpt><trkpt lat="43.6301979" lon="11.4563807"><ele>130.0</ele><time>2026-04-12T12:14:08.602Z</time></trkpt><trkpt lat="43.6302464" lon="11.4563138"><ele>130.0</ele><time>2026-04-12T12:14:09.603Z</time></trkpt><trkpt lat="43.6302284" lon="11.4561583"><ele>130.5</ele><time>2026-04-12T12:14:11.602Z</time></trkpt><trkpt lat="43.6302312" lon="11.4560662"><ele>131.0</ele><time>2026-04-12T12:14:12.602Z</time></trkpt><trkpt lat="43.6302654" lon="11.4559471"><ele>131.5</ele><time>2026-04-12T12:14:14.603Z</time></trkpt><trkpt lat="43.6303069" lon="11.4558663"><ele>132.0</ele><time>2026-04-12T12:14:31.603Z</time></trkpt><trkpt lat="43.6303249" lon="11.4559523"><ele>132.5</ele><time>2026-04-12T12:15:02.602Z</time></trkpt><trkpt lat="43.6303625" lon="11.456027"><ele>133.0</ele><time>2026-04-12T12:15:04.603Z</time></trkpt><trkpt lat="43.6303969" lon="11.4561764"><ele>132.0</ele><time>2026-04-12T12:15:06.602Z</time></trkpt><trkpt lat="43.6304412" lon="11.4563205"><ele>131.0</ele><time>2026-04-12T12:15:08.602Z</time></trkpt><trkpt lat="43.6304862" lon="11.4564519"><ele>130.0</ele><time>2026-04-12T12:15:10.602Z</time></trkpt><trkpt lat="43.6305188" lon="11.4565867"><ele>129.0</ele><time>2026-04-12T12:15:12.602Z</time></trkpt><trkpt lat="43.6305288" lon="11.4567018"><ele>128.0</ele><time>2026-04-12T12:15:14.602Z</time></trkpt><trkpt lat="43.6305013" lon="11.4567883"><ele>125.5</ele><time>2026-04-12T12:15:16.603Z</time></trkpt><trkpt lat="43.6304724" lon="11.4571436"><ele>123.0</ele><time>2026-04-12T12:15:26.189Z</time></trkpt><trkpt lat="43.631075" lon="11.4583217"><ele>122.0</ele><time>2026-04-12T12:15:35.769Z</time></trkpt><trkpt lat="43.6310735" lon="11.4592477"><ele>123.0</ele><time>2026-04-12T12:15:45.688Z</time></trkpt><trkpt lat="43.6310642" lon="11.4572266"><ele>123.0</ele><time>2026-04-12T12:17:14.516Z</time></trkpt><trkpt lat="43.6309342" lon="11.4576299"><ele>123.0</ele><time>2026-04-12T12:17:23.507Z</time></trkpt><trkpt lat="43.6311401" lon="11.4592295"><ele>123.0</ele><time>2026-04-12T12:17:36.982Z</time></trkpt><trkpt lat="43.6323833" lon="11.4576302"><ele>121.0</ele><time>2026-04-12T12:18:36.245Z</time></trkpt><trkpt lat="43.634892" lon="11.4563103"><ele>120.0</ele><time>2026-04-12T12:18:50.557Z</time></trkpt><trkpt lat="43.6409774" lon="11.4525121"><ele>124.0</ele><time>2026-04-12T12:19:48.652Z</time></trkpt><trkpt lat="43.6422987" lon="11.4514418"><ele>125.0</ele><time>2026-04-12T12:19:58.464Z</time></trkpt><trkpt lat="43.642737" lon="11.4505961"><ele>125.0</ele><time>2026-04-12T12:20:16.021Z</time></trkpt><trkpt lat="43.6432662" lon="11.4505043"><ele>127.0</ele><time>2026-04-12T12:20:26.957Z</time></trkpt><trkpt lat="43.6442639" lon="11.4497934"><ele>127.0</ele><time>2026-04-12T12:21:25.887Z</time></trkpt></trkseg></trk></gpx>